GFSCGP_prec_precacc_012.txt.gz
Total_Precipitation_Accumulation
0.51 0.32 0.11 0.01 0.00 0.00 0.00 0.00 0.00 0.00 0.00 0.00 0.00 0.00 0.00 0.00 0.00 0.00 0.00 0.00 0.00 0.00 0.00 0.00 0.00 0.00 0.00 0.00 0.00 0.00 0.00 0.00 0.00 0.00 0.00 0.00 0.00 0.00 0.00 0.00 0.00 0.00 0.00 0.00
0.49 0.26 0.05 0.00 0.00 0.00 0.00 0.00 0.00 0.00 0.00 0.00 0.00 0.00 0.00 0.00 0.00 0.00 0.00 0.00 0.00 0.00 0.00 0.00 0.00 0.00 0.00 0.00 0.00 0.00 0.00 0.00 0.00 0.00 0.00 0.00 0.00 0.00 0.00 0.00 0.00 0.00 0.00 0.00
0.21 0.15 0.02 0.01 0.00 0.00 0.00 0.00 0.00 0.00 0.00 0.00 0.00 0.00 0.00 0.00 0.00 0.00 0.00 0.00 0.00 0.00 0.00 0.00 0.00 0.00 0.00 0.00 0.00 0.00 0.00 0.00 0.00 0.00 0.00 0.00 0.00 0.00 0.00 0.00 0.00 0.00 0.00 0.00
0.11 0.09 0.03 0.03 0.01 0.00 0.00 0.00 0.00 0.00 0.00 0.00 0.00 0.00 0.00 0.00 0.00 0.00 0.00 0.00 0.00 0.00 0.00 0.00 0.00 0.00 0.00 0.00 0.00 0.00 0.00 0.00 0.00 0.00 0.00 0.00 0.00 0.00 0.00 0.00 0.00 0.00 0.00 0.00
0.08 0.07 0.05 0.06 0.02 0.00 0.00 0.00 0.00 0.00 0.00 0.00 0.00 0.00 0.00 0.00 0.00 0.00 0.00 0.00 0.00 0.00 0.00 0.00 0.00 0.00 0.00 0.00 0.00 0.00 0.00 0.00 0.00 0.00 0.00 0.00 0.00 0.00 0.00 0.00 0.00 0.00 0.00 0.00
0.01 0.01 0.01 0.02 0.00 0.00 0.00 0.00 0.00 0.00 0.00 0.00 0.00 0.00 0.00 0.00 0.00 0.00 0.00 0.00 0.00 0.00 0.00 0.00 0.00 0.00 0.00 0.00 0.00 0.00 0.00 0.00 0.00 0.00 0.00 0.00 0.00 0.00 0.00 0.00 0.00 0.00 0.00 0.00
0.03 0.01 0.00 0.00 0.01 0.01 0.00 0.00 0.00 0.00 0.00 0.00 0.00 0.00 0.00 0.00 0.00 0.00 0.00 0.00 0.00 0.00 0.00 0.00 0.00 0.00 0.00 0.00 0.00 0.00 0.00 0.00 0.00 0.00 0.00 0.00 0.00 0.00 0.00 0.00 0.00 0.00 0.00 0.00
0.03 0.04 0.01 0.00 0.00 0.02 0.00 0.00 0.00 0.00 0.00 0.00 0.00 0.00 0.00 0.00 0.00 0.00 0.00 0.00 0.00 0.00 0.00 0.00 0.00 0.00 0.00 0.00 0.00 0.00 0.00 0.00 0.00 0.00 0.00 0.00 0.00 0.00 0.00 0.00 0.00 0.00 0.00 0.00
0.00 0.00 0.00 0.00 0.00 0.01 0.00 0.00 0.00 0.00 0.00 0.00 0.00 0.00 0.00 0.00 0.00 0.00 0.00 0.00 0.00 0.00 0.00 0.00 0.00 0.00 0.00 0.00 0.00 0.00 0.00 0.00 0.00 0.00 0.00 0.00 0.00 0.00 0.00 0.00 0.00 0.00 0.00 0.00
0.00 0.00 0.00 0.00 0.00 0.00 0.00 0.00 0.00 0.00 0.00 0.00 0.00 0.00 0.00 0.00 0.00 0.00 0.00 0.00 0.00 0.00 0.00 0.00 0.00 0.00 0.00 0.00 0.00 0.00 0.00 0.00 0.00 0.00 0.00 0.00 0.00 0.00 0.00 0.00 0.00 0.00 0.00 0.00
0.00 0.00 0.00 0.00 0.00 0.00 0.00 0.00 0.00 0.00 0.00 0.00 0.00 0.00 0.00 0.00 0.00 0.00 0.00 0.00 0.00 0.00 0.00 0.00 0.00 0.00 0.00 0.00 0.00 0.00 0.00 0.00 0.00 0.00 0.00 0.00 0.00 0.00 0.00 0.00 0.00 0.00 0.00 0.00
0.00 0.00 0.00 0.00 0.00 0.00 0.00 0.00 0.00 0.00 0.00 0.00 0.00 0.00 0.00 0.00 0.00 0.00 0.00 0.00 0.00 0.00 0.00 0.00 0.00 0.00 0.00 0.00 0.00 0.00 0.00 0.00 0.00 0.00 0.00 0.00 0.00 0.00 0.00 0.00 0.00 0.00 0.00 0.00
0.00 0.00 0.00 0.00 0.00 0.00 0.00 0.00 0.00 0.00 0.00 0.00 0.00 0.00 0.00 0.00 0.00 0.00 0.00 0.00 0.00 0.00 0.00 0.00 0.00 0.00 0.00 0.00 0.00 0.00 0.00 0.00 0.00 0.00 0.00 0.00 0.00 0.00 0.00 0.00 0.00 0.00 0.00 0.00
0.00 0.00 0.00 0.00 0.00 0.00 0.00 0.00 0.00 0.00 0.00 0.00 0.00 0.00 0.00 0.00 0.00 0.00 0.00 0.00 0.00 0.00 0.00 0.00 0.00 0.00 0.00 0.00 0.00 0.00 0.00 0.00 0.00 0.00 0.00 0.00 0.00 0.00 0.00 0.00 0.00 0.00 0.00 0.00
0.00 0.00 0.00 0.00 0.00 0.00 0.00 0.00 0.00 0.00 0.00 0.00 0.00 0.00 0.00 0.00 0.00 0.00 0.00 0.00 0.00 0.00 0.00 0.00 0.00 0.00 0.00 0.00 0.00 0.00 0.00 0.00 0.00 0.00 0.00 0.00 0.00 0.00 0.00 0.00 0.00 0.00 0.00 0.00
0.00 0.00 0.00 0.00 0.00 0.00 0.00 0.00 0.00 0.00 0.00 0.00 0.00 0.00 0.00 0.00 0.00 0.00 0.00 0.00 0.00 0.00 0.00 0.00 0.00 0.00 0.00 0.00 0.00 0.00 0.00 0.00 0.00 0.00 0.00 0.00 0.00 0.00 0.00 0.00 0.00 0.00 0.00 0.00
0.00 0.00 0.00 0.00 0.00 0.00 0.00 0.00 0.00 0.00 0.00 0.00 0.00 0.00 0.00 0.00 0.00 0.00 0.00 0.00 0.00 0.00 0.00 0.00 0.00 0.00 0.00 0.00 0.00 0.00 0.00 0.00 0.00 0.00 0.00 0.00 0.00 0.00 0.00 0.00 0.00 0.00 0.00 0.00
0.00 0.00 0.00 0.00 0.00 0.00 0.00 0.00 0.00 0.00 0.00 0.00 0.00 0.00 0.00 0.00 0.00 0.00 0.00 0.00 0.00 0.00 0.00 0.00 0.00 0.00 0.00 0.00 0.00 0.00 0.00 0.00 0.00 0.00 0.00 0.00 0.00 0.00 0.00 0.00 0.00 0.00 0.00 0.00
0.00 0.00 0.00 0.00 0.00 0.00 0.00 0.00 0.00 0.00 0.00 0.00 0.00 0.00 0.00 0.00 0.00 0.00 0.00 0.00 0.00 0.00 0.00 0.00 0.00 0.00 0.00 0.00 0.00 0.00 0.00 0.00 0.00 0.00 0.00 0.00 0.00 0.00 0.00 0.00 0.00 0.00 0.00 0.00
0.00 0.00 0.00 0.00 0.00 0.00 0.00 0.00 0.00 0.00 0.00 0.00 0.00 0.00 0.00 0.00 0.00 0.00 0.00 0.00 0.00 0.00 0.00 0.00 0.00 0.00 0.00 0.00 0.00 0.00 0.00 0.00 0.00 0.00 0.00 0.00 0.00 0.00 0.00 0.00 0.00 0.00 0.00 0.00
0.00 0.00 0.00 0.00 0.00 0.00 0.00 0.00 0.00 0.00 0.00 0.00 0.00 0.00 0.00 0.00 0.00 0.00 0.00 0.00 0.00 0.00 0.00 0.00 0.00 0.00 0.00 0.00 0.00 0.00 0.00 0.00 0.00 0.00 0.00 0.00 0.00 0.00 0.00 0.00 0.00 0.00 0.00 0.00
0.00 0.00 0.00 0.00 0.00 0.00 0.00 0.00 0.00 0.00 0.00 0.00 0.00 0.00 0.00 0.00 0.00 0.00 0.00 0.00 0.00 0.00 0.00 0.00 0.00 0.00 0.00 0.00 0.00 0.00 0.00 0.00 0.00 0.00 0.00 0.00 0.00 0.00 0.00 0.00 0.00 0.00 0.00 0.00
0.00 0.00 0.00 0.00 0.00 0.00 0.00 0.00 0.00 0.00 0.00 0.00 0.00 0.00 0.00 0.00 0.00 0.00 0.00 0.00 0.00 0.00 0.00 0.00 0.00 0.00 0.00 0.00 0.00 0.00 0.00 0.00 0.00 0.00 0.00 0.00 0.00 0.00 0.00 0.00 0.00 0.00 0.00 0.00
0.00 0.00 0.00 0.00 0.00 0.00 0.00 0.00 0.00 0.00 0.00 0.00 0.00 0.00 0.00 0.00 0.00 0.00 0.00 0.00 0.00 0.00 0.00 0.00 0.00 0.00 0.00 0.00 0.00 0.00 0.00 0.00 0.00 0.00 0.00 0.00 0.00 0.00 0.00 0.00 0.00 0.00 0.00 0.00
0.00 0.00 0.00 0.00 0.00 0.00 0.00 0.00 0.00 0.00 0.00 0.00 0.00 0.00 0.00 0.00 0.00 0.00 0.00 0.00 0.00 0.00 0.00 0.00 0.00 0.00 0.00 0.00 0.00 0.00 0.00 0.00 0.00 0.00 0.00 0.00 0.00 0.00 0.00 0.00 0.00 0.00 0.00 0.00
0.00 0.00 0.00 0.00 0.00 0.00 0.00 0.00 0.00 0.00 0.00 0.00 0.00 0.00 0.00 0.00 0.00 0.00 0.00 0.00 0.00 0.00 0.00 0.00 0.00 0.00 0.00 0.00 0.00 0.00 0.00 0.00 0.00 0.00 0.00 0.00 0.00 0.00 0.00 0.00 0.00 0.00 0.00 0.00

GFSCGP_prec_precacc_015.txt.gz
Total_Precipitation_Accumulation
0.57 0.41 0.16 0.01 0.00 0.00 0.00 0.00 0.00 0.00 0.00 0.00 0.00 0.00 0.00 0.00 0.00 0.00 0.00 0.00 0.00 0.00 0.00 0.00 0.00 0.00 0.00 0.00 0.00 0.00 0.00 0.00 0.00 0.00 0.00 0.00 0.00 0.00 0.00 0.00 0.00 0.00 0.00 0.00
0.62 0.32 0.06 0.00 0.00 0.00 0.00 0.00 0.00 0.00 0.00 0.00 0.00 0.00 0.00 0.00 0.00 0.00 0.00 0.00 0.00 0.00 0.00 0.00 0.00 0.00 0.00 0.00 0.00 0.00 0.00 0.00 0.00 0.00 0.00 0.00 0.00 0.00 0.00 0.00 0.00 0.00 0.00 0.00
0.35 0.23 0.03 0.01 0.00 0.00 0.00 0.00 0.00 0.00 0.00 0.00 0.00 0.00 0.00 0.00 0.00 0.00 0.00 0.00 0.00 0.00 0.00 0.00 0.00 0.00 0.00 0.00 0.00 0.00 0.00 0.00 0.00 0.00 0.00 0.00 0.00 0.00 0.00 0.00 0.00 0.00 0.00 0.00
0.22 0.26 0.04 0.03 0.01 0.00 0.00 0.00 0.00 0.00 0.00 0.00 0.00 0.00 0.00 0.00 0.00 0.00 0.00 0.00 0.00 0.00 0.00 0.00 0.00 0.00 0.00 0.00 0.00 0.00 0.00 0.00 0.00 0.00 0.00 0.00 0.00 0.00 0.00 0.00 0.00 0.00 0.00 0.00
0.18 0.25 0.09 0.06 0.02 0.00 0.00 0.00 0.00 0.00 0.00 0.00 0.00 0.00 0.00 0.00 0.00 0.00 0.00 0.00 0.00 0.00 0.00 0.00 0.00 0.00 0.00 0.00 0.00 0.00 0.00 0.00 0.00 0.00 0.00 0.00 0.00 0.00 0.00 0.00 0.00 0.00 0.00 0.00
0.11 0.10 0.13 0.04 0.00 0.00 0.00 0.00 0.00 0.00 0.00 0.00 0.00 0.00 0.00 0.00 0.00 0.00 0.00 0.00 0.00 0.00 0.00 0.00 0.00 0.00 0.00 0.00 0.00 0.00 0.00 0.00 0.00 0.00 0.00 0.00 0.00 0.00 0.00 0.00 0.00 0.00 0.00 0.00
0.15 0.05 0.13 0.04 0.03 0.02 0.02 0.02 0.02 0.00 0.00 0.00 0.00 0.00 0.00 0.00 0.00 0.00 0.00 0.00 0.00 0.00 0.00 0.00 0.00 0.00 0.00 0.00 0.00 0.00 0.00 0.00 0.00 0.00 0.00 0.00 0.00 0.00 0.00 0.00 0.00 0.00 0.00 0.00
0.07 0.06 0.05 0.03 0.04 0.05 0.03 0.01 0.00 0.00 0.00 0.00 0.00 0.00 0.00 0.00 0.00 0.00 0.00 0.00 0.00 0.00 0.00 0.00 0.00 0.00 0.00 0.00 0.00 0.00 0.00 0.00 0.00 0.00 0.00 0.00 0.00 0.00 0.00 0.00 0.00 0.00 0.00 0.00
0.01 0.00 0.00 0.00 0.00 0.04 0.03 0.01 0.00 0.00 0.00 0.00 0.00 0.00 0.00 0.00 0.00 0.00 0.00 0.00 0.00 0.00 0.00 0.00 0.00 0.00 0.00 0.00 0.00 0.00 0.00 0.00 0.00 0.00 0.00 0.00 0.00 0.00 0.00 0.00 0.00 0.00 0.00 0.00
0.00 0.00 0.00 0.00 0.00 0.00 0.01 0.00 0.00 0.00 0.00 0.00 0.00 0.00 0.00 0.00 0.00 0.00 0.00 0.00 0.00 0.00 0.00 0.00 0.00 0.00 0.00 0.00 0.00 0.00 0.00 0.00 0.00 0.00 0.00 0.00 0.00 0.00 0.00 0.00 0.00 0.00 0.00 0.00
0.00 0.00 0.00 0.00 0.00 0.00 0.00 0.01 0.00 0.00 0.00 0.00 0.00 0.00 0.00 0.00 0.00 0.00 0.00 0.00 0.00 0.00 0.00 0.00 0.00 0.00 0.00 0.00 0.00 0.00 0.00 0.00 0.00 0.00 0.00 0.00 0.00 0.00 0.00 0.00 0.00 0.00 0.00 0.00
0.00 0.00 0.00 0.00 0.00 0.00 0.00 0.00 0.00 0.00 0.00 0.00 0.00 0.00 0.00 0.00 0.00 0.00 0.00 0.00 0.00 0.00 0.00 0.00 0.00 0.00 0.00 0.00 0.00 0.00 0.00 0.00 0.00 0.00 0.00 0.00 0.00 0.00 0.00 0.00 0.00 0.00 0.00 0.00
0.00 0.00 0.00 0.00 0.00 0.00 0.00 0.00 0.00 0.00 0.00 0.00 0.00 0.00 0.00 0.00 0.00 0.00 0.00 0.00 0.00 0.00 0.00 0.00 0.00 0.00 0.00 0.00 0.00 0.00 0.00 0.00 0.00 0.00 0.00 0.00 0.00 0.00 0.00 0.00 0.00 0.00 0.00 0.00
0.00 0.00 0.00 0.00 0.00 0.00 0.00 0.00 0.00 0.00 0.00 0.00 0.00 0.00 0.00 0.00 0.00 0.00 0.00 0.00 0.00 0.00 0.00 0.00 0.00 0.00 0.00 0.00 0.00 0.00 0.00 0.00 0.00 0.00 0.00 0.00 0.00 0.00 0.00 0.00 0.00 0.00 0.00 0.00
0.00 0.00 0.00 0.00 0.00 0.00 0.00 0.00 0.00 0.00 0.00 0.00 0.00 0.00 0.00 0.00 0.00 0.00 0.00 0.00 0.00 0.00 0.00 0.00 0.00 0.00 0.00 0.00 0.00 0.00 0.00 0.00 0.00 0.00 0.00 0.00 0.00 0.00 0.00 0.00 0.00 0.00 0.00 0.00
0.00 0.00 0.00 0.00 0.00 0.00 0.00 0.00 0.00 0.00 0.00 0.00 0.00 0.00 0.00 0.00 0.00 0.00 0.00 0.00 0.00 0.00 0.00 0.00 0.00 0.00 0.00 0.00 0.00 0.00 0.00 0.00 0.00 0.00 0.00 0.00 0.00 0.00 0.00 0.00 0.00 0.00 0.00 0.00
0.00 0.00 0.00 0.00 0.00 0.00 0.00 0.00 0.00 0.00 0.00 0.00 0.00 0.00 0.00 0.00 0.00 0.00 0.00 0.00 0.00 0.00 0.00 0.00 0.00 0.00 0.00 0.00 0.00 0.00 0.00 0.00 0.00 0.00 0.00 0.00 0.00 0.00 0.00 0.00 0.00 0.00 0.00 0.00
0.00 0.00 0.00 0.00 0.00 0.00 0.00 0.00 0.00 0.00 0.00 0.00 0.00 0.00 0.00 0.00 0.00 0.00 0.00 0.00 0.00 0.00 0.00 0.00 0.00 0.00 0.00 0.00 0.00 0.00 0.00 0.00 0.00 0.00 0.00 0.00 0.00 0.00 0.00 0.00 0.00 0.00 0.00 0.00
0.00 0.00 0.00 0.00 0.00 0.00 0.00 0.00 0.00 0.00 0.00 0.00 0.00 0.00 0.00 0.00 0.00 0.00 0.00 0.00 0.00 0.00 0.00 0.00 0.00 0.00 0.00 0.00 0.00 0.00 0.00 0.00 0.00 0.00 0.00 0.00 0.00 0.00 0.00 0.00 0.00 0.00 0.00 0.00
0.00 0.02 0.03 0.00 0.00 0.00 0.00 0.00 0.00 0.00 0.00 0.00 0.00 0.00 0.00 0.00 0.00 0.00 0.00 0.00 0.00 0.00 0.00 0.00 0.00 0.00 0.00 0.00 0.00 0.00 0.00 0.00 0.00 0.00 0.00 0.00 0.00 0.00 0.00 0.00 0.00 0.00 0.00 0.00
0.00 0.00 0.00 0.00 0.00 0.00 0.00 0.00 0.00 0.00 0.00 0.00 0.00 0.00 0.00 0.00 0.00 0.00 0.00 0.00 0.00 0.00 0.00 0.00 0.00 0.00 0.00 0.00 0.00 0.00 0.00 0.00 0.00 0.00 0.00 0.00 0.00 0.00 0.00 0.00 0.00 0.00 0.00 0.00
0.00 0.00 0.00 0.00 0.00 0.00 0.00 0.00 0.00 0.00 0.00 0.00 0.00 0.00 0.00 0.00 0.00 0.00 0.00 0.00 0.00 0.00 0.00 0.00 0.00 0.00 0.00 0.00 0.00 0.00 0.00 0.00 0.00 0.00 0.00 0.00 0.00 0.00 0.00 0.00 0.00 0.00 0.00 0.00
0.00 0.00 0.00 0.00 0.00 0.00 0.00 0.00 0.00 0.00 0.00 0.00 0.00 0.00 0.00 0.00 0.00 0.00 0.00 0.00 0.00 0.00 0.00 0.00 0.00 0.00 0.00 0.00 0.00 0.00 0.00 0.00 0.00 0.00 0.00 0.00 0.00 0.00 0.00 0.00 0.00 0.00 0.00 0.00
0.00 0.00 0.00 0.00 0.00 0.00 0.00 0.00 0.00 0.00 0.00 0.00 0.00 0.00 0.00 0.00 0.00 0.00 0.00 0.00 0.00 0.00 0.00 0.00 0.00 0.00 0.00 0.00 0.00 0.00 0.00 0.00 0.00 0.00 0.00 0.00 0.00 0.00 0.00 0.00 0.00 0.00 0.00 0.00
0.00 0.00 0.00 0.00 0.00 0.00 0.00 0.00 0.00 0.00 0.00 0.00 0.00 0.00 0.00 0.00 0.00 0.00 0.00 0.00 0.00 0.00 0.00 0.00 0.00 0.00 0.00 0.00 0.00 0.00 0.00 0.00 0.00 0.00 0.00 0.00 0.00 0.00 0.00 0.00 0.00 0.00 0.00 0.00
0.00 0.00 0.00 0.00 0.00 0.00 0.00 0.00 0.00 0.00 0.00 0.00 0.00 0.00 0.00 0.00 0.00 0.00 0.00 0.00 0.00 0.00 0.00 0.00 0.00 0.00 0.00 0.00 0.00 0.00 0.00 0.00 0.00 0.00 0.00 0.00 0.00 0.00 0.00 0.00 0.00 0.00 0.00 0.00

GFSCGP_prec_precacc_018.txt.gz
Total_Precipitation_Accumulation
0.59 0.50 0.31 0.12 0.01 0.00 0.00 0.00 0.00 0.00 0.00 0.00 0.00 0.00 0.00 0.00 0.00 0.00 0.00 0.00 0.00 0.00 0.00 0.00 0.00 0.00 0.00 0.00 0.00 0.00 0.00 0.00 0.00 0.00 0.00 0.00 0.00 0.00 0.00 0.00 0.00 0.00 0.00 0.00
0.65 0.38 0.14 0.03 0.01 0.00 0.00 0.00 0.00 0.00 0.00 0.00 0.00 0.00 0.00 0.00 0.00 0.00 0.00 0.00 0.00 0.00 0.00 0.00 0.00 0.00 0.00 0.00 0.00 0.00 0.00 0.00 0.00 0.00 0.00 0.00 0.00 0.00 0.00 0.00 0.00 0.00 0.00 0.00
0.39 0.29 0.13 0.03 0.01 0.01 0.00 0.00 0.00 0.00 0.00 0.00 0.00 0.00 0.00 0.00 0.00 0.00 0.00 0.00 0.00 0.00 0.00 0.00 0.00 0.00 0.00 0.00 0.00 0.00 0.00 0.00 0.00 0.00 0.00 0.00 0.00 0.00 0.00 0.00 0.00 0.00 0.00 0.00
0.25 0.37 0.13 0.09 0.01 0.01 0.01 0.00 0.00 0.00 0.00 0.00 0.00 0.00 0.00 0.00 0.00 0.00 0.00 0.00 0.00 0.00 0.00 0.00 0.00 0.00 0.00 0.00 0.00 0.00 0.00 0.00 0.00 0.00 0.00 0.00 0.00 0.00 0.00 0.00 0.00 0.00 0.00 0.00
0.29 0.45 0.14 0.08 0.02 0.00 0.00 0.00 0.00 0.00 0.00 0.00 0.00 0.00 0.00 0.00 0.00 0.00 0.00 0.00 0.00 0.00 0.00 0.00 0.00 0.00 0.00 0.00 0.00 0.00 0.00 0.00 0.00 0.00 0.00 0.00 0.00 0.00 0.00 0.00 0.00 0.00 0.00 0.00
0.16 0.34 0.20 0.05 0.00 0.00 0.00 0.00 0.00 0.00 0.00 0.00 0.00 0.00 0.00 0.00 0.00 0.00 0.00 0.00 0.00 0.00 0.00 0.00 0.00 0.00 0.00 0.00 0.00 0.00 0.00 0.00 0.00 0.00 0.00 0.00 0.00 0.00 0.00 0.00 0.00 0.00 0.00 0.00
0.31 0.39 0.37 0.05 0.04 0.02 0.02 0.03 0.03 0.01 0.00 0.00 0.00 0.00 0.00 0.00 0.00 0.00 0.00 0.00 0.00 0.00 0.00 0.00 0.00 0.00 0.00 0.00 0.00 0.00 0.00 0.00 0.00 0.00 0.00 0.00 0.00 0.00 0.00 0.00 0.00 0.00 0.00 0.00
0.27 0.27 0.38 0.09 0.04 0.06 0.04 0.02 0.01 0.00 0.00 0.00 0.00 0.00 0.00 0.00 0.00 0.00 0.00 0.00 0.00 0.00 0.00 0.00 0.00 0.00 0.00 0.00 0.00 0.00 0.00 0.00 0.00 0.00 0.00 0.00 0.00 0.00 0.00 0.00 0.00 0.00 0.00 0.00
0.05 0.10 0.18 0.09 0.01 0.05 0.07 0.02 0.00 0.00 0.00 0.00 0.00 0.00 0.00 0.00 0.00 0.00 0.00 0.00 0.00 0.00 0.00 0.00 0.00 0.00 0.00 0.00 0.00 0.00 0.00 0.00 0.00 0.00 0.00 0.00 0.00 0.00 0.00 0.00 0.00 0.00 0.00 0.00
0.00 0.03 0.09 0.13 0.07 0.03 0.03 0.01 0.00 0.00 0.00 0.00 0.00 0.00 0.00 0.00 0.00 0.00 0.00 0.00 0.00 0.00 0.00 0.00 0.00 0.00 0.00 0.00 0.00 0.00 0.00 0.00 0.00 0.00 0.00 0.00 0.00 0.00 0.00 0.00 0.00 0.00 0.00 0.00
0.00 0.00 0.01 0.05 0.07 0.01 0.02 0.02 0.02 0.00 0.00 0.00 0.00 0.00 0.00 0.00 0.00 0.00 0.00 0.00 0.00 0.00 0.00 0.00 0.00 0.00 0.00 0.00 0.00 0.00 0.00 0.00 0.00 0.00 0.00 0.00 0.00 0.00 0.00 0.00 0.00 0.00 0.00 0.00
0.00 0.00 0.00 0.01 0.00 0.00 0.00 0.00 0.00 0.00 0.00 0.00 0.00 0.00 0.00 0.00 0.00 0.00 0.00 0.00 0.00 0.00 0.00 0.00 0.00 0.00 0.00 0.00 0.00 0.00 0.00 0.00 0.00 0.00 0.00 0.00 0.00 0.00 0.00 0.00 0.00 0.00 0.00 0.00
0.00 0.00 0.00 0.00 0.00 0.00 0.00 0.00 0.00 0.00 0.00 0.00 0.00 0.00 0.00 0.00 0.00 0.00 0.00 0.00 0.00 0.00 0.00 0.00 0.00 0.00 0.00 0.00 0.00 0.00 0.00 0.00 0.00 0.00 0.00 0.00 0.00 0.00 0.00 0.00 0.00 0.00 0.00 0.00
0.00 0.00 0.00 0.00 0.00 0.00 0.00 0.00 0.00 0.00 0.00 0.00 0.00 0.00 0.00 0.00 0.00 0.00 0.00 0.00 0.00 0.00 0.00 0.00 0.00 0.00 0.00 0.00 0.00 0.00 0.00 0.00 0.00 0.00 0.00 0.00 0.00 0.00 0.00 0.00 0.00 0.00 0.00 0.00
0.00 0.00 0.00 0.00 0.00 0.00 0.00 0.00 0.00 0.00 0.00 0.00 0.00 0.00 0.00 0.00 0.00 0.00 0.00 0.00 0.00 0.00 0.00 0.00 0.00 0.00 0.00 0.00 0.00 0.00 0.00 0.00 0.00 0.00 0.00 0.00 0.00 0.00 0.00 0.00 0.00 0.00 0.00 0.00
0.00 0.00 0.00 0.00 0.00 0.00 0.00 0.00 0.00 0.00 0.00 0.00 0.00 0.00 0.00 0.00 0.00 0.00 0.00 0.00 0.00 0.00 0.00 0.00 0.00 0.00 0.00 0.00 0.00 0.00 0.00 0.00 0.00 0.00 0.00 0.00 0.00 0.00 0.00 0.00 0.00 0.00 0.00 0.00
0.00 0.00 0.00 0.00 0.00 0.00 0.00 0.00 0.00 0.00 0.00 0.00 0.00 0.00 0.00 0.00 0.00 0.00 0.00 0.00 0.00 0.00 0.00 0.00 0.00 0.00 0.00 0.00 0.00 0.00 0.00 0.00 0.00 0.00 0.00 0.00 0.00 0.00 0.00 0.00 0.00 0.00 0.00 0.00
0.01 0.00 0.00 0.00 0.00 0.00 0.00 0.00 0.00 0.00 0.00 0.00 0.00 0.00 0.00 0.00 0.00 0.00 0.00 0.00 0.00 0.00 0.00 0.00 0.00 0.00 0.00 0.00 0.00 0.00 0.00 0.00 0.00 0.00 0.00 0.00 0.00 0.00 0.00 0.00 0.00 0.00 0.00 0.00
0.03 0.04 0.00 0.00 0.00 0.00 0.00 0.00 0.00 0.00 0.00 0.00 0.00 0.00 0.00 0.00 0.00 0.00 0.00 0.00 0.00 0.00 0.00 0.00 0.00 0.00 0.00 0.00 0.00 0.00 0.00 0.00 0.00 0.00 0.00 0.00 0.00 0.00 0.00 0.00 0.00 0.00 0.00 0.00
0.02 0.08 0.08 0.01 0.00 0.00 0.00 0.00 0.00 0.00 0.00 0.00 0.00 0.00 0.00 0.00 0.00 0.00 0.00 0.00 0.00 0.00 0.00 0.00 0.00 0.00 0.00 0.00 0.00 0.00 0.00 0.00 0.00 0.00 0.00 0.00 0.00 0.00 0.00 0.00 0.00 0.00 0.00 0.00
0.01 0.00 0.04 0.03 0.01 0.00 0.00 0.00 0.00 0.00 0.00 0.00 0.00 0.00 0.00 0.00 0.00 0.00 0.00 0.00 0.00 0.00 0.00 0.00 0.00 0.00 0.00 0.00 0.00 0.00 0.00 0.00 0.00 0.00 0.00 0.00 0.00 0.00 0.00 0.00 0.00 0.00 0.00 0.00
0.01 0.00 0.00 0.00 0.00 0.00 0.00 0.00 0.00 0.00 0.00 0.00 0.00 0.00 0.00 0.00 0.00 0.00 0.00 0.00 0.00 0.00 0.00 0.00 0.00 0.00 0.00 0.00 0.00 0.00 0.00 0.00 0.00 0.00 0.00 0.00 0.00 0.00 0.00 0.00 0.00 0.00 0.00 0.00
0.00 0.00 0.00 0.00 0.00 0.00 0.00 0.00 0.00 0.00 0.00 0.00 0.00 0.00 0.00 0.00 0.00 0.00 0.00 0.00 0.00 0.00 0.00 0.00 0.00 0.00 0.00 0.00 0.00 0.00 0.00 0.00 0.00 0.00 0.00 0.00 0.00 0.00 0.00 0.00 0.00 0.00 0.00 0.00
0.00 0.00 0.00 0.00 0.00 0.00 0.00 0.00 0.00 0.00 0.00 0.00 0.00 0.00 0.00 0.00 0.00 0.00 0.00 0.00 0.00 0.00 0.00 0.00 0.00 0.00 0.00 0.00 0.00 0.00 0.00 0.00 0.00 0.00 0.00 0.00 0.00 0.00 0.00 0.00 0.00 0.00 0.00 0.00
0.00 0.00 0.00 0.00 0.00 0.00 0.00 0.00 0.00 0.00 0.00 0.00 0.00 0.00 0.00 0.00 0.00 0.00 0.00 0.00 0.00 0.00 0.00 0.00 0.00 0.00 0.00 0.00 0.00 0.00 0.00 0.00 0.00 0.00 0.00 0.00 0.00 0.00 0.00 0.00 0.00 0.00 0.00 0.00
0.00 0.00 0.00 0.00 0.00 0.00 0.00 0.00 0.00 0.00 0.00 0.00 0.00 0.00 0.00 0.00 0.00 0.00 0.00 0.00 0.00 0.00 0.00 0.00 0.00 0.00 0.00 0.00 0.00 0.00 0.00 0.00 0.00 0.00 0.00 0.00 0.00 0.00 0.00 0.00 0.00 0.00 0.00 0.00

GFSCGP_prec_precacc_024.txt.gz
Total_Precipitation_Accumulation
0.63 0.57 0.35 0.16 0.06 0.01 0.01 0.02 0.01 0.00 0.00 0.00 0.00 0.00 0.00 0.00 0.00 0.00 0.00 0.00 0.00 0.00 0.00 0.00 0.00 0.00 0.00 0.00 0.00 0.00 0.00 0.00 0.00 0.00 0.00 0.00 0.00 0.00 0.00 0.00 0.00 0.00 0.00 0.00
0.78 0.45 0.14 0.10 0.05 0.05 0.02 0.04 0.02 0.00 0.00 0.00 0.00 0.00 0.00 0.00 0.00 0.00 0.00 0.00 0.00 0.00 0.00 0.00 0.00 0.00 0.00 0.00 0.00 0.00 0.00 0.00 0.00 0.00 0.00 0.00 0.00 0.00 0.00 0.00 0.00 0.00 0.00 0.00
0.61 0.35 0.15 0.12 0.19 0.12 0.11 0.04 0.03 0.00 0.00 0.00 0.00 0.00 0.00 0.00 0.00 0.00 0.00 0.00 0.00 0.00 0.00 0.00 0.00 0.00 0.00 0.00 0.00 0.00 0.00 0.00 0.00 0.00 0.00 0.00 0.00 0.00 0.00 0.00 0.00 0.00 0.00 0.00
0.44 0.44 0.24 0.21 0.29 0.10 0.16 0.04 0.02 0.03 0.03 0.01 0.00 0.00 0.00 0.00 0.00 0.00 0.00 0.00 0.00 0.00 0.00 0.00 0.00 0.00 0.00 0.00 0.00 0.00 0.00 0.00 0.00 0.00 0.00 0.00 0.00 0.00 0.00 0.00 0.00 0.00 0.00 0.00
0.55 0.49 0.24 0.32 0.22 0.14 0.07 0.06 0.02 0.02 0.03 0.02 0.01 0.00 0.00 0.00 0.00 0.00 0.00 0.00 0.00 0.00 0.00 0.00 0.00 0.00 0.00 0.00 0.00 0.00 0.00 0.00 0.00 0.00 0.00 0.00 0.00 0.00 0.00 0.00 0.00 0.00 0.00 0.00
0.23 0.40 0.30 0.21 0.13 0.20 0.10 0.14 0.18 0.08 0.03 0.02 0.00 0.00 0.00 0.00 0.00 0.00 0.00 0.00 0.00 0.00 0.00 0.00 0.00 0.00 0.00 0.00 0.00 0.00 0.00 0.00 0.00 0.00 0.00 0.00 0.00 0.00 0.00 0.00 0.00 0.00 0.00 0.00
0.48 0.67 0.57 0.24 0.31 0.40 0.36 0.33 0.41 0.25 0.09 0.02 0.00 0.00 0.00 0.00 0.00 0.00 0.00 0.00 0.00 0.00 0.00 0.00 0.00 0.00 0.00 0.00 0.00 0.00 0.00 0.00 0.00 0.00 0.00 0.00 0.00 0.00 0.00 0.00 0.00 0.00 0.00 0.00
0.48 0.64 0.70 0.32 0.57 0.67 0.50 0.39 0.13 0.07 0.02 0.00 0.00 0.00 0.00 0.00 0.00 0.00 0.00 0.00 0.00 0.00 0.00 0.00 0.00 0.00 0.00 0.00 0.00 0.00 0.00 0.00 0.00 0.00 0.00 0.00 0.00 0.00 0.00 0.00 0.00 0.00 0.00 0.00
0.25 0.51 0.51 0.20 0.46 0.38 0.42 0.23 0.06 0.01 0.00 0.00 0.00 0.00 0.00 0.00 0.00 0.00 0.00 0.00 0.00 0.00 0.00 0.00 0.00 0.00 0.00 0.00 0.00 0.00 0.00 0.00 0.00 0.00 0.00 0.00 0.00 0.00 0.00 0.00 0.00 0.00 0.00 0.00
0.20 0.54 0.53 0.31 0.57 0.44 0.30 0.10 0.02 0.03 0.01 0.01 0.00 0.00 0.00 0.00 0.00 0.00 0.00 0.00 0.00 0.00 0.00 0.00 0.00 0.00 0.00 0.00 0.00 0.00 0.00 0.00 0.00 0.00 0.00 0.00 0.00 0.00 0.00 0.00 0.00 0.00 0.00 0.00
0.33 0.55 0.64 0.47 0.56 0.41 0.19 0.07 0.02 0.01 0.01 0.01 0.00 0.00 0.00 0.00 0.00 0.00 0.00 0.00 0.00 0.00 0.00 0.00 0.00 0.00 0.00 0.00 0.00 0.00 0.00 0.00 0.00 0.00 0.00 0.00 0.00 0.00 0.00 0.00 0.00 0.00 0.00 0.00
0.31 0.43 0.62 0.32 0.11 0.12 0.03 0.01 0.00 0.01 0.01 0.02 0.00 0.00 0.00 0.00 0.00 0.00 0.00 0.00 0.00 0.00 0.00 0.00 0.00 0.00 0.00 0.00 0.00 0.00 0.00 0.00 0.00 0.00 0.00 0.00 0.00 0.00 0.00 0.00 0.00 0.00 0.00 0.00
0.15 0.37 0.51 0.36 0.15 0.11 0.04 0.01 0.00 0.00 0.00 0.00 0.00 0.00 0.00 0.00 0.00 0.00 0.00 0.00 0.00 0.00 0.00 0.00 0.00 0.00 0.00 0.00 0.00 0.00 0.00 0.00 0.00 0.00 0.00 0.00 0.00 0.00 0.00 0.00 0.00 0.00 0.00 0.00
0.08 0.25 0.32 0.16 0.08 0.02 0.00 0.00 0.00 0.00 0.00 0.00 0.00 0.00 0.00 0.00 0.00 0.00 0.00 0.00 0.00 0.00 0.00 0.00 0.00 0.00 0.00 0.00 0.00 0.00 0.00 0.00 0.00 0.00 0.00 0.00 0.00 0.00 0.00 0.00 0.00 0.00 0.00 0.00
0.01 0.05 0.07 0.04 0.00 0.00 0.01 0.00 0.00 0.00 0.00 0.00 0.00 0.00 0.00 0.00 0.00 0.00 0.00 0.00 0.00 0.00 0.00 0.00 0.00 0.00 0.00 0.00 0.00 0.00 0.00 0.00 0.00 0.00 0.00 0.00 0.00 0.00 0.00 0.00 0.00 0.00 0.00 0.00
0.00 0.00 0.00 0.00 0.00 0.00 0.00 0.00 0.00 0.00 0.00 0.00 0.00 0.00 0.00 0.00 0.00 0.00 0.00 0.00 0.00 0.00 0.00 0.00 0.00 0.00 0.00 0.00 0.00 0.00 0.00 0.00 0.00 0.00 0.00 0.00 0.00 0.00 0.00 0.00 0.00 0.00 0.00 0.00
0.00 0.00 0.00 0.00 0.00 0.00 0.00 0.00 0.00 0.00 0.00 0.00 0.00 0.00 0.00 0.00 0.00 0.00 0.00 0.00 0.00 0.00 0.00 0.00 0.00 0.00 0.00 0.00 0.00 0.00 0.00 0.00 0.00 0.00 0.00 0.00 0.00 0.00 0.00 0.00 0.00 0.00 0.00 0.00
0.01 0.00 0.01 0.00 0.00 0.00 0.00 0.00 0.00 0.00 0.00 0.00 0.00 0.00 0.00 0.00 0.00 0.00 0.00 0.00 0.00 0.00 0.00 0.00 0.00 0.00 0.00 0.00 0.00 0.00 0.00 0.00 0.00 0.00 0.00 0.00 0.00 0.00 0.00 0.00 0.00 0.00 0.00 0.00
0.04 0.06 0.01 0.00 0.00 0.00 0.00 0.00 0.00 0.00 0.00 0.00 0.00 0.00 0.00 0.00 0.00 0.00 0.00 0.00 0.00 0.00 0.00 0.00 0.00 0.00 0.00 0.00 0.00 0.00 0.00 0.00 0.00 0.00 0.00 0.00 0.00 0.00 0.00 0.00 0.00 0.00 0.00 0.00
0.02 0.12 0.10 0.02 0.00 0.00 0.00 0.00 0.00 0.00 0.00 0.00 0.00 0.00 0.00 0.00 0.00 0.00 0.00 0.00 0.00 0.00 0.00 0.00 0.00 0.00 0.00 0.00 0.00 0.00 0.00 0.00 0.00 0.00 0.00 0.00 0.00 0.00 0.00 0.00 0.00 0.00 0.00 0.00
0.02 0.06 0.12 0.05 0.02 0.00 0.00 0.00 0.00 0.00 0.00 0.00 0.00 0.00 0.00 0.00 0.00 0.00 0.00 0.00 0.00 0.00 0.00 0.00 0.00 0.00 0.00 0.00 0.00 0.00 0.00 0.00 0.00 0.00 0.00 0.00 0.00 0.00 0.00 0.00 0.00 0.00 0.00 0.00
0.01 0.01 0.02 0.04 0.01 0.00 0.00 0.00 0.00 0.00 0.00 0.00 0.00 0.00 0.00 0.00 0.00 0.00 0.00 0.00 0.00 0.00 0.00 0.00 0.00 0.00 0.00 0.00 0.00 0.00 0.00 0.00 0.00 0.00 0.00 0.00 0.00 0.00 0.00 0.00 0.00 0.00 0.00 0.00
0.00 0.00 0.00 0.00 0.00 0.00 0.00 0.00 0.00 0.00 0.00 0.00 0.00 0.00 0.00 0.00 0.00 0.00 0.00 0.00 0.00 0.00 0.00 0.00 0.00 0.00 0.00 0.00 0.00 0.00 0.00 0.00 0.00 0.00 0.00 0.00 0.00 0.00 0.00 0.00 0.00 0.00 0.00 0.00
0.00 0.00 0.00 0.00 0.00 0.00 0.00 0.00 0.00 0.00 0.00 0.00 0.00 0.00 0.00 0.00 0.00 0.00 0.00 0.00 0.00 0.00 0.00 0.00 0.00 0.00 0.00 0.00 0.00 0.00 0.00 0.00 0.00 0.00 0.00 0.00 0.00 0.00 0.00 0.00 0.00 0.00 0.00 0.00
0.00 0.00 0.00 0.00 0.00 0.00 0.00 0.00 0.00 0.00 0.00 0.00 0.00 0.00 0.00 0.00 0.00 0.00 0.00 0.00 0.00 0.00 0.00 0.00 0.00 0.00 0.00 0.00 0.00 0.00 0.00 0.00 0.00 0.00 0.00 0.00 0.00 0.00 0.00 0.00 0.00 0.00 0.00 0.00
0.00 0.00 0.00 0.00 0.00 0.00 0.00 0.00 0.00 0.00 0.00 0.00 0.00 0.00 0.00 0.00 0.00 0.00 0.00 0.00 0.00 0.00 0.00 0.00 0.00 0.00 0.00 0.00 0.00 0.00 0.00 0.00 0.00 0.00 0.00 0.00 0.00 0.00 0.00 0.00 0.00 0.00 0.00 0.00

GFSCGP_prec_precacc_027.txt.gz
Total_Precipitation_Accumulation
0.63 0.57 0.35 0.16 0.06 0.01 0.01 0.02 0.02 0.00 0.00 0.00 0.00 0.00 0.00 0.00 0.00 0.00 0.00 0.00 0.00 0.00 0.00 0.00 0.00 0.00 0.00 0.00 0.00 0.00 0.00 0.00 0.00 0.00 0.00 0.00 0.00 0.00 0.00 0.00 0.00 0.00 0.00 0.00
0.79 0.45 0.14 0.10 0.05 0.05 0.03 0.04 0.02 0.01 0.00 0.01 0.00 0.00 0.00 0.00 0.00 0.00 0.00 0.00 0.00 0.00 0.00 0.00 0.00 0.00 0.00 0.00 0.00 0.00 0.00 0.00 0.00 0.00 0.00 0.00 0.00 0.00 0.00 0.00 0.00 0.00 0.00 0.00
0.61 0.35 0.15 0.12 0.19 0.12 0.11 0.04 0.03 0.01 0.01 0.01 0.01 0.00 0.00 0.00 0.00 0.00 0.00 0.00 0.00 0.00 0.00 0.00 0.00 0.00 0.00 0.00 0.00 0.00 0.00 0.00 0.00 0.00 0.00 0.00 0.00 0.00 0.00 0.00 0.00 0.00 0.00 0.00
0.46 0.44 0.24 0.22 0.29 0.10 0.16 0.04 0.02 0.04 0.05 0.03 0.01 0.01 0.00 0.00 0.00 0.00 0.00 0.00 0.00 0.00 0.00 0.00 0.00 0.00 0.00 0.00 0.00 0.00 0.00 0.00 0.00 0.00 0.00 0.00 0.00 0.00 0.00 0.00 0.00 0.00 0.00 0.00
0.62 0.49 0.24 0.32 0.22 0.15 0.08 0.06 0.02 0.06 0.16 0.08 0.04 0.02 0.00 0.00 0.00 0.00 0.00 0.00 0.00 0.00 0.00 0.00 0.00 0.00 0.00 0.00 0.00 0.00 0.00 0.00 0.00 0.00 0.00 0.00 0.00 0.00 0.00 0.00 0.00 0.00 0.00 0.00
0.26 0.41 0.33 0.21 0.13 0.22 0.10 0.14 0.19 0.12 0.18 0.35 0.06 0.04 0.01 0.00 0.00 0.00 0.00 0.00 0.00 0.00 0.00 0.00 0.00 0.00 0.00 0.00 0.00 0.00 0.00 0.00 0.00 0.00 0.00 0.00 0.00 0.00 0.00 0.00 0.00 0.00 0.00 0.00
0.49 0.67 0.58 0.26 0.33 0.42 0.38 0.38 0.62 0.57 0.28 0.26 0.10 0.04 0.01 0.00 0.00 0.00 0.00 0.00 0.00 0.00 0.00 0.00 0.00 0.00 0.00 0.00 0.00 0.00 0.00 0.00 0.00 0.00 0.00 0.00 0.00 0.00 0.00 0.00 0.00 0.00 0.00 0.00
0.49 0.64 0.70 0.32 0.59 0.68 0.51 0.48 0.46 0.37 0.20 0.04 0.04 0.06 0.00 0.00 0.00 0.00 0.00 0.00 0.00 0.00 0.00 0.00 0.00 0.00 0.00 0.00 0.00 0.00 0.00 0.00 0.00 0.00 0.00 0.00 0.00 0.00 0.00 0.00 0.00 0.00 0.00 0.00
0.28 0.59 0.56 0.23 0.48 0.42 0.46 0.36 0.30 0.24 0.11 0.06 0.01 0.00 0.00 0.00 0.00 0.00 0.00 0.00 0.00 0.00 0.00 0.00 0.00 0.00 0.00 0.00 0.00 0.00 0.00 0.00 0.00 0.00 0.00 0.00 0.00 0.00 0.00 0.00 0.00 0.00 0.00 0.00
0.24 0.66 0.69 0.54 0.69 0.51 0.34 0.16 0.23 0.41 0.25 0.12 0.01 0.00 0.00 0.00 0.00 0.00 0.00 0.00 0.00 0.00 0.00 0.00 0.00 0.00 0.00 0.00 0.00 0.00 0.00 0.00 0.00 0.00 0.00 0.00 0.00 0.00 0.00 0.00 0.00 0.00 0.00 0.00
0.38 0.63 0.68 0.74 0.66 0.48 0.38 0.34 0.21 0.23 0.14 0.09 0.01 0.00 0.00 0.00 0.00 0.00 0.00 0.00 0.00 0.00 0.00 0.00 0.00 0.00 0.00 0.00 0.00 0.00 0.00 0.00 0.00 0.00 0.00 0.00 0.00 0.00 0.00 0.00 0.00 0.00 0.00 0.00
0.33 0.48 0.69 0.47 0.16 0.17 0.21 0.19 0.11 0.24 0.15 0.08 0.02 0.00 0.00 0.00 0.00 0.00 0.00 0.00 0.00 0.00 0.00 0.00 0.00 0.00 0.00 0.00 0.00 0.00 0.00 0.00 0.00 0.00 0.00 0.00 0.00 0.00 0.00 0.00 0.00 0.00 0.00 0.00
0.25 0.56 0.64 0.50 0.26 0.30 0.38 0.23 0.08 0.08 0.06 0.03 0.01 0.00 0.00 0.00 0.00 0.00 0.00 0.00 0.00 0.00 0.00 0.00 0.00 0.00 0.00 0.00 0.00 0.00 0.00 0.00 0.00 0.00 0.00 0.00 0.00 0.00 0.00 0.00 0.00 0.00 0.00 0.00
0.24 0.56 0.54 0.31 0.11 0.12 0.17 0.11 0.03 0.02 0.03 0.02 0.01 0.00 0.00 0.00 0.00 0.00 0.00 0.00 0.00 0.00 0.00 0.00 0.00 0.00 0.00 0.00 0.00 0.00 0.00 0.00 0.00 0.00 0.00 0.00 0.00 0.00 0.00 0.00 0.00 0.00 0.00 0.00
0.19 0.46 0.35 0.14 0.00 0.01 0.02 0.01 0.01 0.03 0.02 0.01 0.00 0.00 0.00 0.00 0.00 0.00 0.00 0.00 0.00 0.00 0.00 0.00 0.00 0.00 0.00 0.00 0.00 0.00 0.00 0.00 0.00 0.00 0.00 0.00 0.00 0.00 0.00 0.00 0.00 0.00 0.00 0.00
0.04 0.13 0.12 0.11 0.00 0.00 0.00 0.00 0.00 0.01 0.00 0.00 0.00 0.00 0.00 0.00 0.00 0.00 0.00 0.00 0.00 0.00 0.00 0.00 0.00 0.00 0.00 0.00 0.00 0.00 0.00 0.00 0.00 0.00 0.00 0.00 0.00 0.00 0.00 0.00 0.00 0.00 0.00 0.00
0.00 0.02 0.03 0.05 0.01 0.00 0.00 0.00 0.00 0.00 0.00 0.00 0.00 0.00 0.00 0.00 0.00 0.00 0.00 0.00 0.00 0.00 0.00 0.00 0.00 0.00 0.00 0.00 0.00 0.00 0.00 0.00 0.00 0.00 0.00 0.00 0.00 0.00 0.00 0.00 0.00 0.00 0.00 0.00
0.01 0.01 0.01 0.00 0.00 0.00 0.00 0.00 0.00 0.00 0.00 0.00 0.00 0.00 0.00 0.00 0.00 0.00 0.00 0.00 0.00 0.00 0.00 0.00 0.00 0.00 0.00 0.00 0.00 0.00 0.00 0.00 0.00 0.00 0.00 0.00 0.00 0.00 0.00 0.00 0.00 0.00 0.00 0.00
0.04 0.06 0.01 0.00 0.00 0.00 0.00 0.00 0.00 0.00 0.00 0.00 0.00 0.00 0.00 0.00 0.00 0.00 0.00 0.00 0.00 0.00 0.00 0.00 0.00 0.00 0.00 0.00 0.00 0.00 0.00 0.00 0.00 0.00 0.00 0.00 0.00 0.00 0.00 0.00 0.00 0.00 0.00 0.00
0.03 0.13 0.10 0.02 0.00 0.00 0.00 0.00 0.00 0.00 0.00 0.00 0.00 0.00 0.00 0.00 0.00 0.00 0.00 0.00 0.00 0.00 0.00 0.00 0.00 0.00 0.00 0.00 0.00 0.00 0.00 0.00 0.00 0.00 0.00 0.00 0.00 0.00 0.00 0.00 0.00 0.00 0.00 0.00
0.03 0.07 0.14 0.05 0.02 0.00 0.00 0.00 0.00 0.00 0.00 0.00 0.00 0.00 0.00 0.00 0.00 0.00 0.00 0.00 0.00 0.00 0.00 0.00 0.00 0.00 0.00 0.00 0.00 0.00 0.00 0.00 0.00 0.00 0.00 0.00 0.00 0.00 0.00 0.00 0.00 0.00 0.00 0.00
0.01 0.01 0.03 0.04 0.01 0.00 0.00 0.00 0.00 0.00 0.00 0.00 0.00 0.00 0.00 0.00 0.00 0.00 0.00 0.00 0.00 0.00 0.00 0.00 0.00 0.00 0.00 0.00 0.00 0.00 0.00 0.00 0.00 0.00 0.00 0.00 0.00 0.00 0.00 0.00 0.00 0.00 0.00 0.00
0.00 0.00 0.00 0.00 0.00 0.00 0.00 0.00 0.00 0.00 0.00 0.00 0.00 0.00 0.00 0.00 0.00 0.00 0.00 0.00 0.00 0.00 0.00 0.00 0.00 0.00 0.00 0.00 0.00 0.00 0.00 0.00 0.00 0.00 0.00 0.00 0.00 0.00 0.00 0.00 0.00 0.00 0.00 0.00
0.00 0.00 0.00 0.00 0.00 0.00 0.00 0.00 0.00 0.00 0.00 0.00 0.00 0.00 0.00 0.00 0.00 0.00 0.00 0.00 0.00 0.00 0.00 0.00 0.00 0.00 0.00 0.00 0.00 0.00 0.00 0.00 0.00 0.00 0.00 0.00 0.00 0.00 0.00 0.00 0.00 0.00 0.00 0.00
0.00 0.00 0.00 0.00 0.00 0.00 0.00 0.00 0.00 0.00 0.00 0.00 0.00 0.00 0.00 0.00 0.00 0.00 0.00 0.00 0.00 0.00 0.00 0.00 0.00 0.00 0.00 0.00 0.00 0.00 0.00 0.00 0.00 0.00 0.00 0.00 0.00 0.00 0.00 0.00 0.00 0.00 0.00 0.00
0.00 0.00 0.00 0.00 0.00 0.00 0.00 0.00 0.00 0.00 0.00 0.00 0.00 0.00 0.00 0.00 0.00 0.00 0.00 0.00 0.00 0.00 0.00 0.00 0.00 0.00 0.00 0.00 0.00 0.00 0.00 0.00 0.00 0.00 0.00 0.00 0.00 0.00 0.00 0.00 0.00 0.00 0.00 0.00

GFSCGP_prec_precacc_030.txt.gz
Total_Precipitation_Accumulation
0.63 0.57 0.35 0.16 0.06 0.01 0.01 0.02 0.02 0.00 0.00 0.00 0.00 0.00 0.00 0.00 0.00 0.00 0.00 0.00 0.00 0.00 0.00 0.00 0.00 0.00 0.00 0.00 0.00 0.00 0.00 0.00 0.00 0.00 0.00 0.00 0.00 0.00 0.00 0.00 0.00 0.00 0.00 0.00
0.79 0.46 0.14 0.10 0.05 0.05 0.03 0.04 0.02 0.01 0.00 0.01 0.00 0.00 0.00 0.00 0.00 0.00 0.00 0.00 0.00 0.00 0.00 0.00 0.00 0.00 0.00 0.00 0.00 0.00 0.00 0.00 0.00 0.00 0.00 0.00 0.00 0.00 0.00 0.00 0.00 0.00 0.00 0.00
0.61 0.35 0.15 0.12 0.19 0.12 0.11 0.04 0.03 0.01 0.01 0.01 0.01 0.00 0.00 0.00 0.00 0.00 0.00 0.00 0.00 0.00 0.00 0.00 0.00 0.00 0.00 0.00 0.00 0.00 0.00 0.00 0.00 0.00 0.00 0.00 0.00 0.00 0.00 0.00 0.00 0.00 0.00 0.00
0.47 0.44 0.24 0.22 0.29 0.11 0.16 0.04 0.02 0.04 0.05 0.03 0.03 0.03 0.00 0.00 0.00 0.00 0.00 0.00 0.00 0.00 0.00 0.00 0.00 0.00 0.00 0.00 0.00 0.00 0.00 0.00 0.00 0.00 0.00 0.00 0.00 0.00 0.00 0.00 0.00 0.00 0.00 0.00
0.65 0.49 0.24 0.32 0.22 0.16 0.08 0.06 0.02 0.06 0.17 0.09 0.04 0.07 0.01 0.00 0.00 0.00 0.00 0.00 0.00 0.00 0.00 0.00 0.00 0.00 0.00 0.00 0.00 0.00 0.00 0.00 0.00 0.00 0.00 0.00 0.00 0.00 0.00 0.00 0.00 0.00 0.00 0.00
0.32 0.41 0.33 0.21 0.13 0.22 0.11 0.15 0.20 0.13 0.21 0.40 0.07 0.06 0.02 0.00 0.00 0.00 0.00 0.00 0.00 0.00 0.00 0.00 0.00 0.00 0.00 0.00 0.00 0.00 0.00 0.00 0.00 0.00 0.00 0.00 0.00 0.00 0.00 0.00 0.00 0.00 0.00 0.00
0.55 0.70 0.58 0.26 0.34 0.43 0.40 0.43 0.71 0.60 0.31 0.27 0.10 0.05 0.05 0.00 0.00 0.00 0.00 0.00 0.00 0.00 0.00 0.00 0.00 0.00 0.00 0.00 0.00 0.00 0.00 0.00 0.00 0.00 0.00 0.00 0.00 0.00 0.00 0.00 0.00 0.00 0.00 0.00
0.50 0.64 0.70 0.33 0.59 0.69 0.52 0.50 0.52 0.38 0.20 0.04 0.04 0.11 0.01 0.00 0.00 0.00 0.00 0.00 0.00 0.00 0.00 0.00 0.00 0.00 0.00 0.00 0.00 0.00 0.00 0.00 0.00 0.00 0.00 0.00 0.00 0.00 0.00 0.00 0.00 0.00 0.00 0.00
0.29 0.59 0.56 0.23 0.48 0.42 0.47 0.40 0.30 0.25 0.12 0.08 0.02 0.01 0.00 0.00 0.00 0.00 0.00 0.00 0.00 0.00 0.00 0.00 0.00 0.00 0.00 0.00 0.00 0.00 0.00 0.00 0.00 0.00 0.00 0.00 0.00 0.00 0.00 0.00 0.00 0.00 0.00 0.00
0.24 0.67 0.69 0.59 0.87 0.62 0.36 0.18 0.24 0.46 0.32 0.19 0.06 0.00 0.00 0.00 0.00 0.00 0.00 0.00 0.00 0.00 0.00 0.00 0.00 0.00 0.00 0.00 0.00 0.00 0.00 0.00 0.00 0.00 0.00 0.00 0.00 0.00 0.00 0.00 0.00 0.00 0.00 0.00
0.40 0.70 0.74 0.93 0.93 0.58 0.42 0.41 0.24 0.24 0.16 0.23 0.16 0.00 0.00 0.00 0.00 0.00 0.00 0.00 0.00 0.00 0.00 0.00 0.00 0.00 0.00 0.00 0.00 0.00 0.00 0.00 0.00 0.00 0.00 0.00 0.00 0.00 0.00 0.00 0.00 0.00 0.00 0.00
0.35 0.58 0.77 0.62 0.25 0.17 0.22 0.22 0.11 0.26 0.23 0.14 0.17 0.02 0.00 0.00 0.00 0.00 0.00 0.00 0.00 0.00 0.00 0.00 0.00 0.00 0.00 0.00 0.00 0.00 0.00 0.00 0.00 0.00 0.00 0.00 0.00 0.00 0.00 0.00 0.00 0.00 0.00 0.00
0.37 0.70 0.72 0.55 0.40 0.36 0.49 0.25 0.09 0.15 0.30 0.23 0.09 0.01 0.00 0.00 0.00 0.00 0.00 0.00 0.00 0.00 0.00 0.00 0.00 0.00 0.00 0.00 0.00 0.00 0.00 0.00 0.00 0.00 0.00 0.00 0.00 0.00 0.00 0.00 0.00 0.00 0.00 0.00
0.35 0.72 0.80 0.59 0.24 0.15 0.24 0.18 0.10 0.13 0.21 0.19 0.14 0.02 0.00 0.00 0.00 0.00 0.00 0.00 0.00 0.00 0.00 0.00 0.00 0.00 0.00 0.00 0.00 0.00 0.00 0.00 0.00 0.00 0.00 0.00 0.00 0.00 0.00 0.00 0.00 0.00 0.00 0.00
0.31 0.70 0.73 0.36 0.12 0.04 0.10 0.16 0.09 0.22 0.17 0.13 0.05 0.03 0.01 0.00 0.00 0.00 0.00 0.00 0.00 0.00 0.00 0.00 0.00 0.00 0.00 0.00 0.00 0.00 0.00 0.00 0.00 0.00 0.00 0.00 0.00 0.00 0.00 0.00 0.00 0.00 0.00 0.00
0.13 0.43 0.45 0.25 0.04 0.07 0.09 0.26 0.08 0.36 0.17 0.10 0.02 0.01 0.00 0.00 0.00 0.00 0.00 0.00 0.00 0.00 0.00 0.00 0.00 0.00 0.00 0.00 0.00 0.00 0.00 0.00 0.00 0.00 0.00 0.00 0.00 0.00 0.00 0.00 0.00 0.00 0.00 0.00
0.02 0.17 0.29 0.16 0.04 0.02 0.05 0.10 0.07 0.15 0.06 0.04 0.02 0.00 0.00 0.00 0.00 0.00 0.00 0.00 0.00 0.00 0.00 0.00 0.00 0.00 0.00 0.00 0.00 0.00 0.00 0.00 0.00 0.00 0.00 0.00 0.00 0.00 0.00 0.00 0.00 0.00 0.00 0.00
0.01 0.01 0.07 0.05 0.00 0.00 0.00 0.00 0.00 0.00 0.00 0.00 0.00 0.00 0.00 0.00 0.00 0.00 0.00 0.00 0.00 0.00 0.00 0.00 0.00 0.00 0.00 0.00 0.00 0.00 0.00 0.00 0.00 0.00 0.00 0.00 0.00 0.00 0.00 0.00 0.00 0.00 0.00 0.00
0.04 0.06 0.01 0.00 0.00 0.00 0.00 0.00 0.00 0.00 0.00 0.00 0.00 0.00 0.00 0.00 0.00 0.00 0.00 0.00 0.00 0.00 0.00 0.00 0.00 0.00 0.00 0.00 0.00 0.00 0.00 0.00 0.00 0.00 0.00 0.00 0.00 0.00 0.00 0.00 0.00 0.00 0.00 0.00
0.03 0.13 0.11 0.02 0.00 0.00 0.00 0.00 0.00 0.00 0.00 0.00 0.00 0.00 0.00 0.00 0.00 0.00 0.00 0.00 0.00 0.00 0.00 0.00 0.00 0.00 0.00 0.00 0.00 0.00 0.00 0.00 0.00 0.00 0.00 0.00 0.00 0.00 0.00 0.00 0.00 0.00 0.00 0.00
0.03 0.07 0.14 0.05 0.02 0.00 0.00 0.00 0.00 0.00 0.00 0.00 0.00 0.00 0.00 0.00 0.00 0.00 0.00 0.00 0.00 0.00 0.00 0.00 0.00 0.00 0.00 0.00 0.00 0.00 0.00 0.00 0.00 0.00 0.00 0.00 0.00 0.00 0.00 0.00 0.00 0.00 0.00 0.00
0.01 0.01 0.03 0.04 0.01 0.00 0.00 0.00 0.00 0.00 0.00 0.00 0.00 0.00 0.00 0.00 0.00 0.00 0.00 0.00 0.00 0.00 0.00 0.00 0.00 0.00 0.00 0.00 0.00 0.00 0.00 0.00 0.00 0.00 0.00 0.00 0.00 0.00 0.00 0.00 0.00 0.00 0.00 0.00
0.00 0.00 0.00 0.00 0.00 0.00 0.00 0.00 0.00 0.00 0.00 0.00 0.00 0.00 0.00 0.00 0.00 0.00 0.00 0.00 0.00 0.00 0.00 0.00 0.00 0.00 0.00 0.00 0.00 0.00 0.00 0.00 0.00 0.00 0.00 0.00 0.00 0.00 0.00 0.00 0.00 0.00 0.00 0.00
0.00 0.00 0.00 0.00 0.00 0.00 0.00 0.00 0.00 0.00 0.00 0.00 0.00 0.00 0.00 0.00 0.00 0.00 0.00 0.00 0.00 0.00 0.00 0.00 0.00 0.00 0.00 0.00 0.00 0.00 0.00 0.00 0.00 0.00 0.00 0.00 0.00 0.00 0.00 0.00 0.00 0.00 0.00 0.00
0.00 0.00 0.00 0.00 0.00 0.00 0.00 0.00 0.00 0.00 0.00 0.00 0.00 0.00 0.00 0.00 0.00 0.00 0.00 0.00 0.00 0.00 0.00 0.00 0.00 0.00 0.00 0.00 0.00 0.00 0.00 0.00 0.00 0.00 0.00 0.00 0.00 0.00 0.00 0.00 0.00 0.00 0.00 0.00
0.00 0.00 0.00 0.00 0.00 0.00 0.00 0.00 0.00 0.00 0.00 0.00 0.00 0.00 0.00 0.00 0.00 0.00 0.00 0.00 0.00 0.00 0.00 0.00 0.00 0.00 0.00 0.00 0.00 0.00 0.00 0.00 0.00 0.00 0.00 0.00 0.00 0.00 0.00 0.00 0.00 0.00 0.00 0.00

GFSCGP_prec_precacc_033.txt.gz
Total_Precipitation_Accumulation
0.63 0.57 0.35 0.16 0.06 0.01 0.01 0.02 0.02 0.00 0.00 0.00 0.00 0.00 0.00 0.00 0.00 0.00 0.00 0.00 0.00 0.00 0.00 0.00 0.00 0.00 0.00 0.00 0.00 0.00 0.00 0.00 0.00 0.00 0.00 0.00 0.00 0.00 0.00 0.00 0.00 0.00 0.00 0.00
0.79 0.46 0.14 0.10 0.05 0.05 0.03 0.04 0.02 0.01 0.00 0.01 0.00 0.00 0.00 0.00 0.00 0.00 0.00 0.00 0.00 0.00 0.00 0.00 0.00 0.00 0.00 0.00 0.00 0.00 0.00 0.00 0.00 0.00 0.00 0.00 0.00 0.00 0.00 0.00 0.00 0.00 0.00 0.00
0.61 0.35 0.15 0.12 0.19 0.12 0.11 0.04 0.03 0.01 0.01 0.01 0.01 0.00 0.00 0.00 0.00 0.00 0.00 0.00 0.00 0.00 0.00 0.00 0.00 0.00 0.00 0.00 0.00 0.00 0.00 0.00 0.00 0.00 0.00 0.00 0.00 0.00 0.00 0.00 0.00 0.00 0.00 0.00
0.48 0.44 0.24 0.22 0.29 0.11 0.16 0.04 0.02 0.04 0.05 0.03 0.03 0.03 0.00 0.00 0.00 0.00 0.00 0.00 0.00 0.00 0.00 0.00 0.00 0.00 0.00 0.00 0.00 0.00 0.00 0.00 0.00 0.00 0.00 0.00 0.00 0.00 0.00 0.00 0.00 0.00 0.00 0.00
0.66 0.49 0.24 0.32 0.22 0.16 0.08 0.06 0.02 0.07 0.17 0.10 0.04 0.07 0.01 0.00 0.00 0.00 0.00 0.00 0.00 0.00 0.00 0.00 0.00 0.00 0.00 0.00 0.00 0.00 0.00 0.00 0.00 0.00 0.00 0.00 0.00 0.00 0.00 0.00 0.00 0.00 0.00 0.00
0.34 0.41 0.33 0.21 0.13 0.22 0.11 0.17 0.22 0.18 0.23 0.42 0.07 0.06 0.02 0.00 0.00 0.00 0.00 0.00 0.00 0.00 0.00 0.00 0.00 0.00 0.00 0.00 0.00 0.00 0.00 0.00 0.00 0.00 0.00 0.00 0.00 0.00 0.00 0.00 0.00 0.00 0.00 0.00
0.59 0.72 0.59 0.26 0.34 0.43 0.41 0.54 0.87 0.75 0.43 0.30 0.10 0.05 0.05 0.00 0.00 0.00 0.00 0.00 0.00 0.00 0.00 0.00 0.00 0.00 0.00 0.00 0.00 0.00 0.00 0.00 0.00 0.00 0.00 0.00 0.00 0.00 0.00 0.00 0.00 0.00 0.00 0.00
0.50 0.64 0.70 0.33 0.60 0.69 0.53 0.53 0.62 0.49 0.23 0.05 0.04 0.12 0.01 0.00 0.00 0.00 0.00 0.00 0.00 0.00 0.00 0.00 0.00 0.00 0.00 0.00 0.00 0.00 0.00 0.00 0.00 0.00 0.00 0.00 0.00 0.00 0.00 0.00 0.00 0.00 0.00 0.00
0.29 0.59 0.56 0.23 0.48 0.42 0.48 0.44 0.33 0.32 0.18 0.13 0.02 0.01 0.00 0.00 0.00 0.00 0.00 0.00 0.00 0.00 0.00 0.00 0.00 0.00 0.00 0.00 0.00 0.00 0.00 0.00 0.00 0.00 0.00 0.00 0.00 0.00 0.00 0.00 0.00 0.00 0.00 0.00
0.24 0.67 0.69 0.59 0.88 0.63 0.36 0.18 0.26 0.62 0.43 0.23 0.06 0.00 0.00 0.00 0.00 0.00 0.00 0.00 0.00 0.00 0.00 0.00 0.00 0.00 0.00 0.00 0.00 0.00 0.00 0.00 0.00 0.00 0.00 0.00 0.00 0.00 0.00 0.00 0.00 0.00 0.00 0.00
0.40 0.72 0.76 1.04 1.03 0.61 0.46 0.45 0.25 0.24 0.16 0.23 0.16 0.00 0.00 0.00 0.00 0.00 0.00 0.00 0.00 0.00 0.00 0.00 0.00 0.00 0.00 0.00 0.00 0.00 0.00 0.00 0.00 0.00 0.00 0.00 0.00 0.00 0.00 0.00 0.00 0.00 0.00 0.00
0.36 0.69 0.83 0.69 0.27 0.20 0.30 0.26 0.12 0.27 0.23 0.14 0.19 0.03 0.00 0.00 0.00 0.00 0.01 0.02 0.00 0.00 0.00 0.00 0.00 0.00 0.00 0.00 0.00 0.00 0.00 0.00 0.00 0.00 0.00 0.00 0.00 0.00 0.00 0.00 0.00 0.00 0.00 0.00
0.43 0.84 0.80 0.62 0.50 0.46 0.60 0.32 0.14 0.16 0.31 0.23 0.16 0.02 0.00 0.00 0.00 0.00 0.00 0.01 0.01 0.00 0.00 0.00 0.00 0.00 0.00 0.00 0.00 0.00 0.00 0.00 0.00 0.00 0.00 0.00 0.00 0.00 0.00 0.00 0.00 0.00 0.00 0.00
0.41 0.85 0.90 0.70 0.39 0.33 0.28 0.19 0.11 0.14 0.21 0.20 0.18 0.03 0.01 0.01 0.01 0.00 0.00 0.01 0.00 0.00 0.00 0.00 0.00 0.00 0.00 0.00 0.00 0.00 0.00 0.00 0.00 0.00 0.00 0.00 0.00 0.00 0.00 0.00 0.00 0.00 0.00 0.00
0.42 0.85 0.84 0.45 0.21 0.24 0.23 0.19 0.10 0.23 0.17 0.14 0.07 0.06 0.02 0.02 0.01 0.02 0.01 0.00 0.00 0.00 0.00 0.00 0.00 0.00 0.00 0.00 0.00 0.00 0.00 0.00 0.00 0.00 0.00 0.00 0.00 0.00 0.00 0.00 0.00 0.00 0.00 0.00
0.29 0.61 0.68 0.56 0.14 0.15 0.19 0.31 0.11 0.43 0.20 0.16 0.14 0.11 0.00 0.00 0.00 0.00 0.00 0.00 0.00 0.00 0.00 0.00 0.00 0.00 0.00 0.00 0.00 0.00 0.00 0.00 0.00 0.00 0.00 0.00 0.00 0.00 0.00 0.00 0.00 0.00 0.00 0.00
0.17 0.37 0.53 0.51 0.31 0.18 0.28 0.30 0.47 0.43 0.17 0.21 0.25 0.12 0.00 0.00 0.00 0.00 0.00 0.00 0.00 0.00 0.00 0.00 0.00 0.00 0.00 0.00 0.00 0.00 0.00 0.00 0.00 0.00 0.00 0.00 0.00 0.00 0.00 0.00 0.00 0.00 0.00 0.00
0.02 0.12 0.26 0.18 0.03 0.08 0.05 0.07 0.24 0.18 0.16 0.21 0.10 0.05 0.01 0.00 0.00 0.00 0.00 0.00 0.00 0.00 0.00 0.00 0.00 0.00 0.00 0.00 0.00 0.00 0.00 0.00 0.00 0.00 0.00 0.00 0.00 0.00 0.00 0.00 0.00 0.00 0.00 0.00
0.04 0.08 0.05 0.02 0.00 0.01 0.00 0.00 0.01 0.02 0.07 0.06 0.04 0.01 0.00 0.00 0.00 0.00 0.00 0.00 0.00 0.00 0.00 0.00 0.00 0.00 0.00 0.00 0.00 0.00 0.00 0.00 0.00 0.00 0.00 0.00 0.00 0.00 0.00 0.00 0.00 0.00 0.00 0.00
0.03 0.14 0.12 0.02 0.00 0.00 0.00 0.00 0.00 0.00 0.01 0.00 0.00 0.00 0.00 0.00 0.00 0.00 0.00 0.00 0.00 0.00 0.00 0.00 0.00 0.00 0.00 0.00 0.00 0.00 0.00 0.00 0.00 0.00 0.00 0.00 0.00 0.00 0.00 0.00 0.00 0.00 0.00 0.00
0.03 0.07 0.14 0.05 0.02 0.00 0.00 0.00 0.00 0.00 0.00 0.00 0.00 0.00 0.00 0.00 0.01 0.00 0.00 0.00 0.00 0.00 0.00 0.00 0.00 0.00 0.00 0.00 0.00 0.00 0.00 0.00 0.00 0.00 0.00 0.00 0.00 0.00 0.00 0.00 0.00 0.00 0.00 0.00
0.01 0.01 0.03 0.04 0.01 0.00 0.00 0.00 0.00 0.00 0.00 0.00 0.00 0.00 0.00 0.00 0.00 0.00 0.00 0.00 0.00 0.00 0.00 0.00 0.00 0.00 0.00 0.00 0.00 0.00 0.00 0.00 0.00 0.00 0.00 0.00 0.00 0.00 0.00 0.00 0.00 0.00 0.00 0.00
0.00 0.00 0.00 0.00 0.00 0.00 0.00 0.00 0.00 0.00 0.00 0.00 0.00 0.00 0.00 0.00 0.00 0.00 0.00 0.00 0.00 0.00 0.00 0.00 0.00 0.00 0.00 0.00 0.00 0.00 0.00 0.00 0.00 0.00 0.00 0.00 0.00 0.00 0.00 0.00 0.00 0.00 0.00 0.00
0.00 0.00 0.00 0.00 0.00 0.00 0.00 0.00 0.00 0.00 0.00 0.00 0.00 0.00 0.00 0.00 0.00 0.00 0.00 0.00 0.00 0.00 0.00 0.00 0.00 0.00 0.00 0.00 0.00 0.00 0.00 0.00 0.00 0.00 0.00 0.00 0.00 0.00 0.00 0.00 0.00 0.00 0.00 0.00
0.00 0.00 0.00 0.00 0.00 0.00 0.00 0.00 0.00 0.00 0.00 0.00 0.00 0.00 0.00 0.00 0.00 0.00 0.00 0.00 0.00 0.00 0.00 0.00 0.00 0.00 0.00 0.00 0.00 0.00 0.00 0.00 0.00 0.00 0.00 0.00 0.00 0.00 0.00 0.00 0.00 0.00 0.00 0.00
0.00 0.00 0.00 0.00 0.00 0.00 0.00 0.00 0.00 0.00 0.00 0.00 0.00 0.00 0.00 0.00 0.00 0.00 0.00 0.00 0.00 0.00 0.00 0.00 0.00 0.00 0.00 0.00 0.00 0.00 0.00 0.00 0.00 0.00 0.00 0.00 0.00 0.00 0.00 0.00 0.00 0.00 0.00 0.00

GFSCGP_prec_precacc_036.txt.gz
Total_Precipitation_Accumulation
0.63 0.57 0.35 0.16 0.06 0.01 0.01 0.02 0.02 0.00 0.00 0.00 0.00 0.00 0.00 0.00 0.00 0.00 0.00 0.00 0.00 0.00 0.00 0.00 0.00 0.00 0.00 0.00 0.00 0.00 0.00 0.00 0.00 0.00 0.00 0.00 0.00 0.00 0.00 0.00 0.00 0.00 0.00 0.00
0.79 0.46 0.14 0.10 0.05 0.05 0.03 0.04 0.02 0.01 0.00 0.01 0.00 0.00 0.00 0.00 0.00 0.00 0.00 0.00 0.00 0.00 0.00 0.00 0.00 0.00 0.00 0.00 0.00 0.00 0.00 0.00 0.00 0.00 0.00 0.00 0.02 0.01 0.00 0.00 0.00 0.00 0.00 0.00
0.61 0.35 0.15 0.12 0.19 0.12 0.11 0.04 0.03 0.01 0.01 0.01 0.01 0.00 0.00 0.00 0.00 0.00 0.00 0.00 0.00 0.00 0.00 0.00 0.00 0.00 0.00 0.00 0.00 0.00 0.00 0.00 0.00 0.00 0.00 0.00 0.01 0.00 0.00 0.00 0.00 0.00 0.00 0.00
0.48 0.44 0.24 0.22 0.29 0.11 0.16 0.04 0.02 0.04 0.05 0.03 0.03 0.03 0.00 0.00 0.00 0.00 0.00 0.00 0.00 0.00 0.00 0.00 0.00 0.00 0.00 0.00 0.00 0.00 0.00 0.00 0.00 0.00 0.00 0.00 0.00 0.00 0.00 0.00 0.00 0.00 0.00 0.00
0.66 0.49 0.24 0.32 0.22 0.16 0.08 0.06 0.02 0.07 0.18 0.10 0.04 0.07 0.01 0.00 0.00 0.00 0.00 0.00 0.00 0.00 0.00 0.00 0.00 0.00 0.00 0.00 0.00 0.00 0.00 0.00 0.00 0.00 0.00 0.00 0.00 0.00 0.00 0.00 0.00 0.00 0.00 0.00
0.34 0.41 0.33 0.21 0.13 0.22 0.12 0.18 0.23 0.20 0.29 0.49 0.07 0.06 0.02 0.00 0.00 0.00 0.00 0.00 0.00 0.00 0.00 0.00 0.00 0.00 0.00 0.00 0.00 0.00 0.00 0.00 0.00 0.00 0.00 0.00 0.00 0.00 0.00 0.00 0.00 0.00 0.00 0.00
0.60 0.72 0.59 0.26 0.35 0.43 0.41 0.56 0.93 0.81 0.52 0.34 0.10 0.05 0.05 0.00 0.00 0.00 0.00 0.00 0.00 0.00 0.00 0.00 0.00 0.00 0.00 0.00 0.00 0.00 0.00 0.00 0.00 0.00 0.00 0.00 0.00 0.00 0.00 0.00 0.00 0.00 0.00 0.00
0.50 0.65 0.71 0.33 0.60 0.69 0.53 0.54 0.63 0.52 0.25 0.06 0.04 0.12 0.01 0.00 0.00 0.00 0.00 0.00 0.00 0.00 0.00 0.00 0.00 0.00 0.00 0.00 0.00 0.00 0.00 0.00 0.00 0.00 0.00 0.00 0.00 0.00 0.00 0.00 0.00 0.00 0.00 0.00
0.29 0.59 0.56 0.23 0.48 0.42 0.48 0.46 0.33 0.35 0.23 0.22 0.04 0.01 0.00 0.00 0.00 0.00 0.00 0.00 0.00 0.00 0.00 0.00 0.00 0.00 0.00 0.00 0.00 0.00 0.00 0.00 0.00 0.00 0.00 0.00 0.00 0.00 0.00 0.00 0.00 0.00 0.00 0.00
0.24 0.67 0.69 0.59 0.88 0.63 0.36 0.19 0.30 0.73 0.49 0.27 0.07 0.00 0.00 0.00 0.00 0.00 0.00 0.00 0.00 0.00 0.00 0.00 0.00 0.00 0.00 0.00 0.00 0.00 0.00 0.00 0.00 0.00 0.00 0.00 0.00 0.00 0.00 0.00 0.00 0.00 0.00 0.00
0.40 0.73 0.76 1.04 1.03 0.62 0.54 0.60 0.35 0.26 0.16 0.23 0.16 0.00 0.00 0.00 0.00 0.00 0.00 0.00 0.00 0.00 0.00 0.00 0.00 0.00 0.00 0.00 0.00 0.00 0.00 0.00 0.00 0.00 0.00 0.00 0.00 0.00 0.00 0.00 0.00 0.00 0.00 0.00
0.36 0.72 0.84 0.69 0.27 0.22 0.34 0.29 0.21 0.37 0.24 0.14 0.20 0.03 0.00 0.00 0.00 0.00 0.01 0.02 0.01 0.00 0.00 0.00 0.00 0.00 0.00 0.00 0.00 0.00 0.00 0.00 0.00 0.00 0.00 0.00 0.00 0.00 0.00 0.00 0.00 0.00 0.00 0.00
0.43 0.87 0.83 0.62 0.53 0.56 0.75 0.40 0.25 0.26 0.39 0.26 0.16 0.02 0.00 0.00 0.00 0.00 0.00 0.03 0.02 0.01 0.00 0.00 0.00 0.00 0.00 0.00 0.00 0.00 0.00 0.00 0.00 0.00 0.00 0.00 0.00 0.00 0.00 0.00 0.00 0.00 0.00 0.00
0.41 0.86 0.93 0.75 0.43 0.52 0.54 0.31 0.27 0.29 0.34 0.22 0.18 0.03 0.01 0.01 0.01 0.00 0.00 0.02 0.04 0.01 0.00 0.00 0.00 0.00 0.00 0.00 0.00 0.00 0.00 0.00 0.00 0.00 0.00 0.00 0.00 0.00 0.00 0.00 0.00 0.00 0.00 0.00
0.42 0.87 0.88 0.49 0.28 0.37 0.39 0.33 0.23 0.34 0.20 0.15 0.07 0.07 0.03 0.02 0.01 0.02 0.01 0.01 0.02 0.00 0.00 0.00 0.00 0.00 0.00 0.00 0.00 0.00 0.00 0.00 0.00 0.00 0.00 0.00 0.00 0.00 0.00 0.00 0.00 0.00 0.00 0.00
0.32 0.67 0.73 0.61 0.24 0.31 0.31 0.36 0.16 0.46 0.21 0.16 0.14 0.12 0.01 0.01 0.01 0.00 0.00 0.00 0.01 0.00 0.00 0.00 0.00 0.00 0.00 0.00 0.00 0.00 0.00 0.00 0.00 0.00 0.00 0.00 0.00 0.00 0.00 0.00 0.00 0.00 0.00 0.00
0.23 0.45 0.65 0.62 0.48 0.25 0.40 0.42 0.50 0.43 0.17 0.21 0.26 0.14 0.01 0.01 0.01 0.00 0.00 0.01 0.00 0.00 0.00 0.00 0.00 0.00 0.00 0.00 0.00 0.00 0.00 0.00 0.00 0.00 0.00 0.00 0.00 0.00 0.00 0.00 0.00 0.00 0.00 0.00
0.03 0.18 0.38 0.27 0.13 0.14 0.10 0.10 0.30 0.25 0.22 0.24 0.13 0.06 0.02 0.00 0.00 0.00 0.00 0.00 0.00 0.00 0.00 0.00 0.00 0.00 0.00 0.00 0.00 0.00 0.00 0.00 0.00 0.00 0.00 0.00 0.00 0.00 0.00 0.00 0.00 0.00 0.00 0.00
0.04 0.11 0.15 0.08 0.03 0.02 0.00 0.00 0.02 0.11 0.20 0.13 0.06 0.01 0.00 0.00 0.00 0.00 0.00 0.00 0.00 0.00 0.00 0.00 0.00 0.00 0.00 0.00 0.00 0.00 0.00 0.00 0.00 0.00 0.00 0.00 0.00 0.00 0.00 0.00 0.00 0.00 0.00 0.00
0.03 0.15 0.17 0.03 0.03 0.01 0.00 0.00 0.00 0.00 0.03 0.01 0.01 0.02 0.02 0.01 0.01 0.00 0.00 0.00 0.00 0.00 0.00 0.00 0.00 0.00 0.00 0.00 0.00 0.00 0.00 0.00 0.00 0.00 0.00 0.00 0.00 0.00 0.00 0.00 0.00 0.00 0.00 0.00
0.04 0.08 0.15 0.06 0.03 0.00 0.00 0.00 0.00 0.00 0.00 0.00 0.00 0.00 0.01 0.01 0.02 0.01 0.00 0.00 0.00 0.00 0.00 0.00 0.00 0.00 0.00 0.00 0.00 0.00 0.00 0.00 0.00 0.00 0.00 0.00 0.00 0.00 0.00 0.00 0.00 0.00 0.00 0.00
0.01 0.01 0.03 0.04 0.01 0.00 0.00 0.00 0.00 0.00 0.00 0.00 0.00 0.00 0.00 0.00 0.00 0.00 0.00 0.00 0.00 0.00 0.00 0.00 0.00 0.00 0.00 0.00 0.00 0.00 0.00 0.00 0.00 0.00 0.00 0.00 0.00 0.00 0.00 0.00 0.00 0.00 0.00 0.00
0.00 0.00 0.00 0.00 0.00 0.00 0.00 0.00 0.00 0.00 0.00 0.00 0.00 0.00 0.00 0.00 0.00 0.00 0.00 0.00 0.00 0.00 0.00 0.00 0.00 0.00 0.00 0.00 0.00 0.00 0.00 0.00 0.00 0.00 0.00 0.00 0.00 0.00 0.00 0.00 0.00 0.00 0.00 0.00
0.00 0.00 0.00 0.00 0.00 0.00 0.00 0.00 0.00 0.00 0.00 0.00 0.00 0.00 0.00 0.00 0.00 0.00 0.00 0.00 0.00 0.00 0.00 0.00 0.00 0.00 0.00 0.00 0.00 0.00 0.00 0.00 0.00 0.00 0.00 0.00 0.00 0.00 0.00 0.00 0.00 0.00 0.00 0.00
0.00 0.00 0.00 0.00 0.00 0.00 0.00 0.00 0.00 0.00 0.00 0.00 0.00 0.00 0.00 0.00 0.00 0.00 0.00 0.00 0.00 0.00 0.00 0.00 0.00 0.00 0.00 0.00 0.00 0.00 0.00 0.00 0.00 0.00 0.00 0.00 0.00 0.00 0.00 0.00 0.00 0.00 0.00 0.00
0.00 0.00 0.00 0.00 0.00 0.00 0.00 0.00 0.00 0.00 0.00 0.00 0.00 0.00 0.00 0.00 0.00 0.00 0.00 0.00 0.00 0.00 0.00 0.00 0.00 0.00 0.00 0.00 0.00 0.00 0.00 0.00 0.00 0.00 0.00 0.00 0.00 0.00 0.00 0.00 0.00 0.00 0.00 0.00

GFSCGP_prec_precacc_039.txt.gz
Total_Precipitation_Accumulation
0.63 0.57 0.35 0.16 0.06 0.01 0.01 0.02 0.02 0.00 0.00 0.00 0.00 0.00 0.00 0.00 0.00 0.00 0.00 0.00 0.00 0.00 0.00 0.00 0.00 0.00 0.00 0.00 0.00 0.00 0.00 0.00 0.00 0.00 0.00 0.00 0.03 0.06 0.02 0.01 0.00 0.00 0.00 0.00
0.79 0.46 0.14 0.10 0.05 0.05 0.03 0.04 0.02 0.01 0.00 0.01 0.00 0.00 0.00 0.00 0.00 0.00 0.00 0.00 0.00 0.00 0.00 0.00 0.00 0.00 0.00 0.00 0.00 0.00 0.00 0.00 0.00 0.00 0.00 0.00 0.09 0.07 0.06 0.01 0.00 0.01 0.00 0.00
0.61 0.35 0.15 0.12 0.19 0.12 0.11 0.04 0.03 0.01 0.01 0.01 0.01 0.00 0.00 0.00 0.00 0.00 0.00 0.00 0.00 0.00 0.00 0.00 0.00 0.00 0.00 0.00 0.00 0.00 0.00 0.00 0.00 0.00 0.00 0.00 0.05 0.04 0.02 0.00 0.01 0.01 0.00 0.00
0.48 0.44 0.24 0.22 0.29 0.11 0.16 0.04 0.02 0.04 0.05 0.03 0.03 0.03 0.00 0.00 0.00 0.00 0.00 0.00 0.00 0.00 0.00 0.00 0.00 0.00 0.00 0.00 0.00 0.00 0.00 0.00 0.00 0.00 0.00 0.00 0.02 0.03 0.01 0.00 0.00 0.00 0.00 0.00
0.66 0.49 0.24 0.32 0.22 0.16 0.08 0.06 0.02 0.07 0.18 0.11 0.04 0.08 0.01 0.00 0.00 0.00 0.00 0.00 0.00 0.00 0.00 0.00 0.00 0.00 0.00 0.00 0.00 0.00 0.00 0.00 0.00 0.00 0.00 0.00 0.00 0.02 0.00 0.00 0.00 0.00 0.00 0.00
0.34 0.41 0.33 0.21 0.13 0.22 0.12 0.18 0.24 0.21 0.31 0.52 0.07 0.06 0.02 0.00 0.00 0.00 0.00 0.00 0.00 0.00 0.00 0.00 0.00 0.00 0.00 0.00 0.00 0.00 0.00 0.00 0.00 0.00 0.00 0.00 0.00 0.00 0.00 0.00 0.00 0.00 0.00 0.00
0.60 0.73 0.59 0.26 0.35 0.43 0.41 0.58 0.94 0.82 0.56 0.35 0.10 0.05 0.05 0.00 0.00 0.00 0.00 0.00 0.00 0.00 0.00 0.00 0.00 0.00 0.00 0.00 0.00 0.00 0.00 0.00 0.00 0.00 0.00 0.00 0.00 0.00 0.00 0.00 0.00 0.00 0.00 0.00
0.50 0.65 0.71 0.33 0.60 0.69 0.53 0.54 0.64 0.52 0.25 0.06 0.04 0.12 0.01 0.00 0.00 0.00 0.00 0.00 0.00 0.00 0.00 0.00 0.00 0.00 0.00 0.00 0.00 0.00 0.00 0.00 0.00 0.00 0.00 0.00 0.00 0.00 0.00 0.00 0.00 0.00 0.00 0.00
0.29 0.59 0.56 0.23 0.48 0.42 0.48 0.47 0.33 0.36 0.23 0.23 0.04 0.01 0.00 0.00 0.00 0.00 0.00 0.00 0.00 0.00 0.00 0.00 0.00 0.00 0.00 0.00 0.00 0.00 0.00 0.00 0.00 0.00 0.00 0.00 0.00 0.00 0.00 0.00 0.00 0.00 0.00 0.00
0.24 0.67 0.69 0.59 0.88 0.63 0.36 0.19 0.33 0.79 0.53 0.29 0.07 0.00 0.00 0.00 0.00 0.00 0.00 0.00 0.00 0.00 0.00 0.00 0.00 0.00 0.00 0.00 0.00 0.00 0.00 0.00 0.00 0.00 0.00 0.00 0.00 0.00 0.00 0.00 0.00 0.00 0.00 0.00
0.40 0.73 0.76 1.04 1.03 0.62 0.55 0.64 0.44 0.39 0.23 0.25 0.16 0.00 0.00 0.00 0.00 0.00 0.00 0.00 0.00 0.00 0.00 0.00 0.00 0.00 0.00 0.00 0.00 0.00 0.00 0.00 0.00 0.00 0.00 0.00 0.00 0.00 0.00 0.00 0.00 0.00 0.00 0.00
0.36 0.74 0.85 0.69 0.27 0.22 0.34 0.30 0.28 0.62 0.33 0.20 0.21 0.03 0.00 0.01 0.01 0.00 0.01 0.02 0.01 0.00 0.00 0.00 0.00 0.00 0.00 0.00 0.00 0.00 0.00 0.00 0.00 0.00 0.00 0.00 0.00 0.00 0.00 0.00 0.00 0.00 0.00 0.00
0.43 0.89 0.83 0.62 0.53 0.58 0.79 0.41 0.33 0.43 0.63 0.43 0.21 0.03 0.00 0.00 0.00 0.00 0.00 0.03 0.02 0.01 0.00 0.00 0.00 0.00 0.00 0.00 0.00 0.00 0.00 0.00 0.00 0.00 0.00 0.00 0.00 0.00 0.00 0.00 0.00 0.00 0.00 0.00
0.41 0.87 0.93 0.75 0.43 0.56 0.76 0.41 0.42 0.57 0.61 0.28 0.21 0.03 0.01 0.01 0.02 0.01 0.00 0.02 0.04 0.01 0.00 0.00 0.00 0.00 0.00 0.00 0.00 0.00 0.00 0.00 0.00 0.00 0.00 0.00 0.00 0.00 0.00 0.00 0.00 0.00 0.00 0.00
0.43 0.88 0.88 0.49 0.28 0.42 0.52 0.50 0.39 0.54 0.25 0.20 0.09 0.07 0.03 0.03 0.02 0.02 0.01 0.01 0.02 0.00 0.00 0.00 0.00 0.00 0.00 0.00 0.00 0.00 0.00 0.00 0.00 0.00 0.00 0.00 0.00 0.00 0.00 0.00 0.00 0.00 0.00 0.00
0.32 0.69 0.74 0.61 0.24 0.38 0.47 0.47 0.24 0.48 0.21 0.18 0.14 0.12 0.01 0.01 0.01 0.00 0.00 0.01 0.02 0.00 0.00 0.00 0.00 0.00 0.00 0.00 0.00 0.00 0.00 0.00 0.00 0.00 0.00 0.00 0.00 0.00 0.00 0.00 0.00 0.00 0.00 0.00
0.25 0.48 0.69 0.63 0.48 0.28 0.46 0.55 0.60 0.44 0.18 0.22 0.26 0.14 0.01 0.01 0.01 0.00 0.01 0.02 0.01 0.00 0.00 0.00 0.00 0.00 0.00 0.00 0.00 0.00 0.00 0.00 0.00 0.00 0.00 0.00 0.00 0.00 0.00 0.00 0.00 0.00 0.00 0.00
0.04 0.20 0.40 0.28 0.14 0.15 0.11 0.14 0.39 0.26 0.22 0.24 0.14 0.07 0.02 0.00 0.00 0.00 0.00 0.00 0.00 0.00 0.00 0.00 0.00 0.00 0.00 0.00 0.00 0.00 0.00 0.00 0.00 0.00 0.00 0.00 0.00 0.00 0.00 0.00 0.00 0.00 0.00 0.00
0.04 0.11 0.18 0.11 0.05 0.03 0.00 0.00 0.05 0.13 0.20 0.13 0.06 0.01 0.00 0.00 0.00 0.00 0.00 0.00 0.00 0.00 0.00 0.00 0.00 0.00 0.00 0.00 0.00 0.00 0.00 0.00 0.00 0.00 0.00 0.00 0.00 0.00 0.00 0.00 0.00 0.00 0.00 0.00
0.03 0.15 0.19 0.05 0.07 0.01 0.00 0.00 0.00 0.01 0.04 0.01 0.01 0.02 0.02 0.01 0.01 0.00 0.00 0.00 0.00 0.00 0.00 0.00 0.00 0.00 0.00 0.00 0.00 0.00 0.00 0.00 0.00 0.00 0.00 0.00 0.00 0.00 0.00 0.00 0.00 0.00 0.00 0.00
0.04 0.08 0.16 0.08 0.06 0.00 0.00 0.00 0.00 0.01 0.02 0.00 0.00 0.00 0.01 0.01 0.02 0.01 0.00 0.00 0.00 0.00 0.00 0.00 0.00 0.00 0.00 0.00 0.00 0.00 0.00 0.00 0.00 0.00 0.00 0.00 0.00 0.00 0.00 0.00 0.00 0.00 0.00 0.00
0.01 0.02 0.03 0.05 0.01 0.00 0.00 0.00 0.00 0.00 0.00 0.00 0.00 0.00 0.00 0.00 0.02 0.01 0.00 0.00 0.00 0.00 0.00 0.00 0.00 0.00 0.00 0.00 0.00 0.00 0.00 0.00 0.00 0.00 0.00 0.00 0.00 0.00 0.00 0.00 0.00 0.00 0.00 0.00
0.00 0.00 0.00 0.00 0.00 0.00 0.00 0.00 0.00 0.00 0.00 0.00 0.00 0.00 0.00 0.00 0.01 0.00 0.01 0.00 0.00 0.00 0.00 0.00 0.00 0.00 0.00 0.00 0.00 0.00 0.00 0.00 0.00 0.00 0.00 0.00 0.00 0.00 0.00 0.00 0.00 0.00 0.00 0.00
0.00 0.00 0.00 0.00 0.00 0.00 0.00 0.00 0.00 0.00 0.00 0.00 0.00 0.00 0.00 0.00 0.00 0.00 0.00 0.00 0.00 0.00 0.00 0.00 0.00 0.00 0.00 0.00 0.00 0.00 0.00 0.00 0.00 0.00 0.00 0.00 0.00 0.00 0.00 0.00 0.00 0.00 0.00 0.00
0.00 0.00 0.00 0.00 0.00 0.00 0.00 0.00 0.00 0.00 0.00 0.00 0.00 0.00 0.00 0.00 0.00 0.00 0.00 0.00 0.00 0.00 0.00 0.00 0.00 0.00 0.00 0.00 0.00 0.00 0.00 0.00 0.00 0.00 0.00 0.00 0.00 0.00 0.00 0.00 0.00 0.00 0.00 0.00
0.00 0.00 0.00 0.00 0.00 0.00 0.00 0.00 0.00 0.00 0.00 0.00 0.00 0.00 0.00 0.00 0.00 0.00 0.00 0.00 0.00 0.00 0.00 0.00 0.00 0.00 0.00 0.00 0.00 0.00 0.00 0.00 0.00 0.00 0.00 0.00 0.00 0.00 0.00 0.00 0.00 0.00 0.00 0.00

GFSCGP_prec_precacc_042.txt.gz
Total_Precipitation_Accumulation
0.63 0.57 0.35 0.16 0.06 0.01 0.01 0.02 0.02 0.00 0.00 0.00 0.00 0.00 0.00 0.00 0.00 0.00 0.00 0.00 0.00 0.00 0.00 0.00 0.00 0.00 0.00 0.00 0.00 0.00 0.00 0.00 0.00 0.00 0.00 0.00 0.03 0.10 0.10 0.10 0.05 0.03 0.01 0.00
0.79 0.46 0.14 0.10 0.05 0.05 0.03 0.04 0.02 0.01 0.00 0.01 0.00 0.00 0.00 0.00 0.00 0.00 0.00 0.00 0.00 0.00 0.00 0.00 0.00 0.00 0.00 0.00 0.00 0.00 0.00 0.00 0.00 0.00 0.00 0.00 0.10 0.13 0.15 0.06 0.04 0.05 0.01 0.00
0.61 0.35 0.15 0.12 0.19 0.12 0.11 0.04 0.03 0.01 0.01 0.01 0.01 0.00 0.00 0.00 0.00 0.00 0.00 0.00 0.00 0.00 0.00 0.00 0.00 0.00 0.00 0.00 0.00 0.00 0.00 0.00 0.00 0.00 0.00 0.00 0.05 0.05 0.03 0.01 0.02 0.03 0.01 0.00
0.48 0.44 0.24 0.22 0.29 0.11 0.16 0.04 0.02 0.04 0.06 0.03 0.03 0.03 0.00 0.00 0.00 0.00 0.00 0.00 0.00 0.00 0.00 0.00 0.00 0.00 0.00 0.00 0.00 0.00 0.00 0.00 0.00 0.00 0.00 0.00 0.02 0.05 0.04 0.02 0.02 0.02 0.01 0.00
0.66 0.49 0.24 0.32 0.22 0.16 0.08 0.06 0.02 0.07 0.18 0.11 0.05 0.08 0.01 0.00 0.00 0.00 0.00 0.00 0.00 0.00 0.00 0.00 0.00 0.00 0.00 0.00 0.00 0.00 0.00 0.00 0.00 0.00 0.00 0.00 0.00 0.02 0.04 0.02 0.01 0.01 0.00 0.00
0.34 0.41 0.33 0.21 0.13 0.22 0.12 0.18 0.24 0.22 0.33 0.54 0.07 0.06 0.02 0.00 0.00 0.00 0.00 0.00 0.00 0.00 0.00 0.00 0.00 0.00 0.00 0.00 0.00 0.00 0.00 0.00 0.00 0.00 0.00 0.00 0.00 0.03 0.04 0.01 0.01 0.01 0.01 0.00
0.61 0.73 0.59 0.26 0.35 0.43 0.42 0.60 0.95 0.83 0.58 0.36 0.10 0.05 0.05 0.00 0.00 0.00 0.00 0.00 0.00 0.00 0.00 0.00 0.00 0.00 0.00 0.00 0.00 0.00 0.00 0.00 0.00 0.00 0.00 0.00 0.00 0.01 0.02 0.01 0.00 0.00 0.00 0.00
0.50 0.65 0.71 0.33 0.61 0.70 0.53 0.55 0.64 0.52 0.25 0.06 0.04 0.12 0.01 0.00 0.00 0.00 0.00 0.00 0.00 0.00 0.00 0.00 0.00 0.00 0.00 0.00 0.00 0.00 0.00 0.00 0.00 0.00 0.00 0.00 0.00 0.00 0.00 0.00 0.00 0.00 0.00 0.00
0.29 0.59 0.56 0.23 0.48 0.42 0.49 0.47 0.33 0.36 0.23 0.24 0.04 0.01 0.00 0.00 0.00 0.00 0.00 0.00 0.00 0.00 0.00 0.00 0.00 0.00 0.00 0.00 0.00 0.00 0.00 0.00 0.00 0.00 0.00 0.00 0.00 0.00 0.00 0.00 0.00 0.00 0.00 0.00
0.24 0.67 0.69 0.59 0.89 0.64 0.36 0.19 0.33 0.81 0.55 0.30 0.07 0.00 0.00 0.00 0.00 0.00 0.00 0.00 0.00 0.00 0.00 0.00 0.00 0.00 0.00 0.00 0.00 0.00 0.00 0.00 0.00 0.00 0.00 0.00 0.00 0.00 0.00 0.00 0.00 0.00 0.00 0.00
0.40 0.73 0.77 1.05 1.03 0.62 0.55 0.64 0.45 0.44 0.28 0.28 0.19 0.01 0.00 0.00 0.00 0.00 0.00 0.00 0.00 0.00 0.00 0.00 0.00 0.00 0.00 0.00 0.00 0.00 0.00 0.00 0.00 0.00 0.00 0.00 0.00 0.00 0.00 0.00 0.00 0.00 0.00 0.00
0.36 0.74 0.86 0.69 0.27 0.22 0.34 0.30 0.30 0.76 0.42 0.34 0.31 0.07 0.00 0.01 0.01 0.00 0.01 0.02 0.01 0.00 0.00 0.00 0.00 0.00 0.00 0.00 0.00 0.00 0.00 0.00 0.00 0.00 0.00 0.00 0.00 0.00 0.00 0.00 0.00 0.00 0.00 0.00
0.43 0.89 0.84 0.62 0.53 0.58 0.79 0.41 0.34 0.55 0.84 0.58 0.31 0.09 0.00 0.00 0.00 0.00 0.01 0.03 0.02 0.01 0.00 0.00 0.00 0.00 0.00 0.00 0.00 0.00 0.00 0.00 0.00 0.00 0.00 0.00 0.00 0.00 0.00 0.00 0.00 0.00 0.00 0.00
0.41 0.87 0.93 0.75 0.43 0.57 0.82 0.45 0.53 0.89 0.83 0.32 0.26 0.03 0.01 0.01 0.02 0.01 0.00 0.02 0.04 0.01 0.00 0.00 0.00 0.00 0.00 0.00 0.00 0.00 0.00 0.00 0.00 0.00 0.00 0.00 0.00 0.00 0.00 0.00 0.00 0.00 0.00 0.00
0.43 0.89 0.88 0.49 0.28 0.42 0.57 0.56 0.48 0.77 0.35 0.28 0.10 0.07 0.03 0.03 0.02 0.02 0.01 0.01 0.02 0.01 0.00 0.00 0.00 0.00 0.00 0.00 0.00 0.00 0.00 0.00 0.00 0.00 0.00 0.00 0.00 0.00 0.00 0.00 0.00 0.00 0.00 0.00
0.33 0.70 0.75 0.61 0.24 0.38 0.48 0.55 0.34 0.52 0.22 0.19 0.15 0.12 0.01 0.01 0.01 0.00 0.00 0.01 0.02 0.00 0.00 0.00 0.00 0.00 0.00 0.00 0.00 0.00 0.00 0.00 0.00 0.00 0.00 0.00 0.00 0.00 0.00 0.00 0.00 0.00 0.00 0.00
0.26 0.49 0.71 0.64 0.48 0.28 0.46 0.58 0.66 0.46 0.18 0.22 0.27 0.14 0.01 0.01 0.01 0.00 0.01 0.02 0.02 0.00 0.00 0.00 0.00 0.00 0.00 0.00 0.00 0.00 0.00 0.00 0.00 0.00 0.00 0.00 0.00 0.00 0.00 0.00 0.00 0.00 0.00 0.00
0.05 0.21 0.44 0.30 0.15 0.15 0.11 0.14 0.43 0.27 0.22 0.24 0.14 0.07 0.02 0.00 0.00 0.01 0.02 0.01 0.01 0.00 0.00 0.00 0.00 0.00 0.00 0.00 0.00 0.00 0.00 0.00 0.00 0.00 0.00 0.00 0.00 0.00 0.00 0.00 0.00 0.00 0.00 0.00
0.04 0.12 0.21 0.13 0.06 0.03 0.00 0.00 0.07 0.13 0.20 0.13 0.06 0.01 0.00 0.00 0.01 0.15 0.08 0.02 0.00 0.00 0.00 0.00 0.00 0.00 0.00 0.00 0.00 0.00 0.00 0.00 0.00 0.00 0.00 0.00 0.00 0.00 0.00 0.00 0.00 0.00 0.00 0.00
0.03 0.15 0.21 0.07 0.10 0.02 0.00 0.00 0.00 0.01 0.05 0.02 0.01 0.02 0.02 0.01 0.02 0.02 0.05 0.02 0.00 0.00 0.00 0.00 0.00 0.00 0.00 0.00 0.00 0.00 0.00 0.00 0.00 0.00 0.00 0.00 0.00 0.00 0.00 0.00 0.00 0.00 0.00 0.00
0.06 0.11 0.18 0.10 0.12 0.00 0.00 0.00 0.00 0.04 0.05 0.01 0.02 0.01 0.01 0.01 0.02 0.01 0.00 0.00 0.00 0.00 0.00 0.00 0.00 0.00 0.00 0.00 0.00 0.00 0.00 0.00 0.00 0.00 0.00 0.00 0.00 0.00 0.00 0.00 0.00 0.00 0.00 0.00
0.02 0.02 0.05 0.06 0.03 0.00 0.00 0.00 0.00 0.00 0.01 0.01 0.02 0.01 0.01 0.01 0.02 0.02 0.00 0.00 0.00 0.00 0.00 0.01 0.00 0.00 0.00 0.00 0.00 0.00 0.00 0.00 0.00 0.00 0.00 0.00 0.00 0.00 0.00 0.00 0.00 0.00 0.00 0.00
0.00 0.00 0.00 0.00 0.00 0.00 0.00 0.00 0.00 0.00 0.00 0.00 0.01 0.01 0.04 0.05 0.03 0.01 0.01 0.00 0.00 0.00 0.00 0.00 0.00 0.00 0.00 0.00 0.00 0.00 0.00 0.00 0.00 0.00 0.00 0.00 0.00 0.00 0.00 0.00 0.00 0.00 0.00 0.00
0.00 0.00 0.00 0.00 0.00 0.00 0.00 0.00 0.00 0.00 0.00 0.00 0.00 0.00 0.00 0.00 0.00 0.01 0.03 0.01 0.00 0.00 0.00 0.00 0.00 0.00 0.00 0.00 0.00 0.00 0.00 0.00 0.00 0.00 0.00 0.00 0.00 0.00 0.00 0.00 0.00 0.00 0.00 0.00
0.00 0.00 0.00 0.00 0.00 0.00 0.00 0.00 0.00 0.00 0.00 0.00 0.00 0.00 0.00 0.00 0.00 0.00 0.00 0.00 0.00 0.00 0.00 0.00 0.00 0.00 0.00 0.00 0.00 0.00 0.00 0.00 0.00 0.00 0.00 0.00 0.00 0.00 0.00 0.00 0.00 0.00 0.00 0.00
0.00 0.00 0.00 0.00 0.00 0.00 0.00 0.00 0.00 0.00 0.00 0.00 0.00 0.00 0.00 0.00 0.00 0.00 0.00 0.00 0.00 0.00 0.00 0.00 0.00 0.00 0.00 0.00 0.00 0.00 0.00 0.00 0.00 0.00 0.00 0.00 0.00 0.00 0.00 0.00 0.00 0.00 0.00 0.00

GFSCGP_prec_precacc_045.txt.gz
Total_Precipitation_Accumulation
0.63 0.57 0.35 0.16 0.06 0.01 0.01 0.02 0.02 0.00 0.00 0.00 0.00 0.00 0.00 0.00 0.00 0.00 0.00 0.00 0.00 0.00 0.00 0.00 0.00 0.00 0.00 0.00 0.00 0.00 0.00 0.00 0.00 0.00 0.00 0.00 0.03 0.11 0.15 0.16 0.09 0.04 0.02 0.00
0.79 0.46 0.14 0.10 0.05 0.05 0.03 0.04 0.02 0.01 0.00 0.01 0.00 0.00 0.00 0.00 0.00 0.00 0.00 0.00 0.00 0.00 0.00 0.00 0.00 0.00 0.00 0.00 0.00 0.00 0.00 0.00 0.00 0.00 0.00 0.00 0.10 0.13 0.20 0.15 0.08 0.10 0.09 0.05
0.61 0.35 0.15 0.12 0.19 0.12 0.11 0.04 0.03 0.01 0.01 0.01 0.01 0.00 0.00 0.00 0.00 0.00 0.00 0.00 0.00 0.00 0.00 0.00 0.00 0.00 0.00 0.00 0.00 0.00 0.00 0.00 0.00 0.00 0.00 0.00 0.05 0.06 0.06 0.03 0.04 0.08 0.08 0.07
0.48 0.44 0.24 0.22 0.29 0.11 0.16 0.04 0.02 0.04 0.06 0.03 0.03 0.03 0.00 0.00 0.00 0.00 0.00 0.00 0.00 0.00 0.00 0.00 0.00 0.00 0.00 0.00 0.00 0.00 0.00 0.00 0.00 0.00 0.00 0.00 0.02 0.05 0.06 0.07 0.07 0.07 0.05 0.03
0.66 0.49 0.24 0.32 0.22 0.16 0.08 0.06 0.02 0.07 0.18 0.11 0.05 0.08 0.01 0.00 0.00 0.00 0.00 0.00 0.00 0.00 0.00 0.00 0.00 0.00 0.00 0.00 0.00 0.00 0.00 0.00 0.00 0.00 0.00 0.00 0.00 0.02 0.05 0.04 0.03 0.05 0.05 0.01
0.34 0.41 0.33 0.21 0.13 0.22 0.12 0.18 0.24 0.22 0.34 0.54 0.07 0.06 0.02 0.00 0.00 0.00 0.00 0.00 0.00 0.00 0.00 0.00 0.00 0.00 0.00 0.00 0.00 0.00 0.00 0.00 0.00 0.00 0.00 0.00 0.00 0.03 0.05 0.04 0.04 0.06 0.04 0.01
0.61 0.73 0.59 0.26 0.35 0.44 0.42 0.60 0.95 0.83 0.59 0.36 0.10 0.05 0.05 0.00 0.00 0.00 0.00 0.00 0.00 0.00 0.00 0.00 0.00 0.00 0.00 0.00 0.00 0.00 0.00 0.00 0.00 0.00 0.00 0.00 0.00 0.01 0.05 0.06 0.04 0.03 0.02 0.01
0.50 0.65 0.71 0.33 0.61 0.70 0.54 0.55 0.64 0.52 0.25 0.06 0.04 0.12 0.01 0.00 0.00 0.00 0.00 0.00 0.00 0.00 0.00 0.00 0.00 0.00 0.00 0.00 0.00 0.00 0.00 0.00 0.00 0.00 0.00 0.00 0.00 0.00 0.01 0.01 0.00 0.00 0.00 0.00
0.29 0.59 0.56 0.23 0.48 0.42 0.49 0.48 0.33 0.36 0.23 0.24 0.04 0.01 0.00 0.00 0.00 0.00 0.00 0.00 0.00 0.00 0.00 0.00 0.00 0.00 0.00 0.00 0.00 0.00 0.00 0.00 0.00 0.00 0.00 0.00 0.00 0.00 0.00 0.00 0.00 0.00 0.00 0.00
0.24 0.67 0.69 0.59 0.89 0.64 0.36 0.19 0.33 0.82 0.56 0.30 0.07 0.00 0.00 0.00 0.00 0.00 0.00 0.00 0.00 0.00 0.00 0.00 0.00 0.00 0.00 0.00 0.00 0.00 0.00 0.00 0.00 0.00 0.00 0.00 0.00 0.00 0.00 0.00 0.00 0.00 0.00 0.00
0.40 0.73 0.77 1.05 1.03 0.62 0.55 0.65 0.46 0.44 0.28 0.28 0.19 0.01 0.00 0.00 0.00 0.00 0.00 0.00 0.00 0.00 0.00 0.00 0.00 0.00 0.00 0.00 0.00 0.00 0.00 0.00 0.00 0.00 0.00 0.00 0.00 0.00 0.00 0.00 0.00 0.00 0.00 0.00
0.36 0.74 0.86 0.69 0.27 0.22 0.34 0.30 0.30 0.77 0.42 0.39 0.35 0.09 0.00 0.01 0.01 0.00 0.01 0.02 0.01 0.00 0.00 0.00 0.00 0.00 0.00 0.00 0.00 0.00 0.00 0.00 0.00 0.00 0.00 0.00 0.00 0.00 0.00 0.00 0.00 0.00 0.00 0.00
0.43 0.90 0.84 0.62 0.53 0.58 0.79 0.41 0.35 0.58 0.93 0.65 0.40 0.13 0.00 0.00 0.00 0.00 0.01 0.03 0.02 0.01 0.00 0.00 0.00 0.00 0.00 0.00 0.00 0.00 0.00 0.00 0.00 0.00 0.00 0.00 0.00 0.00 0.00 0.00 0.00 0.00 0.00 0.00
0.41 0.88 0.93 0.75 0.43 0.57 0.82 0.45 0.57 1.09 1.01 0.34 0.28 0.03 0.01 0.01 0.02 0.01 0.00 0.02 0.04 0.01 0.00 0.00 0.00 0.00 0.00 0.00 0.00 0.00 0.00 0.00 0.00 0.00 0.00 0.00 0.00 0.00 0.00 0.00 0.00 0.00 0.00 0.00
0.43 0.90 0.88 0.49 0.28 0.42 0.57 0.56 0.49 0.89 0.49 0.41 0.13 0.07 0.03 0.03 0.02 0.02 0.01 0.01 0.03 0.02 0.01 0.00 0.00 0.00 0.00 0.00 0.00 0.00 0.00 0.00 0.00 0.00 0.00 0.00 0.00 0.00 0.00 0.00 0.00 0.00 0.00 0.00
0.33 0.71 0.75 0.61 0.24 0.38 0.48 0.55 0.36 0.56 0.25 0.22 0.15 0.12 0.01 0.01 0.01 0.00 0.00 0.02 0.04 0.04 0.02 0.01 0.00 0.00 0.00 0.00 0.00 0.00 0.00 0.00 0.00 0.00 0.00 0.00 0.00 0.00 0.00 0.00 0.00 0.00 0.00 0.00
0.27 0.50 0.72 0.64 0.48 0.28 0.46 0.58 0.68 0.48 0.19 0.22 0.27 0.14 0.01 0.01 0.04 0.05 0.03 0.04 0.03 0.02 0.00 0.00 0.00 0.00 0.00 0.00 0.00 0.00 0.00 0.00 0.00 0.00 0.00 0.00 0.00 0.00 0.00 0.00 0.00 0.00 0.00 0.00
0.06 0.22 0.45 0.31 0.15 0.16 0.11 0.14 0.44 0.28 0.23 0.24 0.14 0.07 0.02 0.00 0.00 0.01 0.03 0.02 0.01 0.01 0.00 0.00 0.00 0.00 0.00 0.00 0.01 0.01 0.00 0.00 0.00 0.00 0.00 0.00 0.00 0.00 0.00 0.00 0.00 0.00 0.00 0.00
0.05 0.13 0.22 0.14 0.07 0.03 0.00 0.00 0.07 0.13 0.20 0.13 0.06 0.01 0.00 0.00 0.16 0.29 0.12 0.04 0.01 0.00 0.00 0.00 0.00 0.00 0.00 0.01 0.02 0.01 0.00 0.00 0.01 0.01 0.00 0.00 0.00 0.00 0.00 0.00 0.00 0.00 0.00 0.00
0.04 0.16 0.23 0.08 0.12 0.02 0.00 0.00 0.01 0.02 0.08 0.02 0.02 0.03 0.02 0.01 0.18 0.16 0.13 0.03 0.01 0.00 0.00 0.00 0.00 0.01 0.04 0.07 0.05 0.03 0.03 0.02 0.01 0.01 0.00 0.00 0.00 0.00 0.00 0.00 0.00 0.00 0.00 0.00
0.06 0.13 0.20 0.12 0.16 0.01 0.00 0.00 0.01 0.05 0.09 0.01 0.04 0.02 0.01 0.01 0.02 0.04 0.05 0.02 0.00 0.00 0.00 0.01 0.01 0.02 0.02 0.02 0.01 0.01 0.00 0.00 0.00 0.00 0.00 0.00 0.00 0.00 0.00 0.00 0.00 0.00 0.00 0.00
0.02 0.03 0.06 0.09 0.07 0.00 0.00 0.00 0.00 0.00 0.01 0.02 0.08 0.01 0.01 0.01 0.02 0.02 0.00 0.00 0.00 0.00 0.00 0.01 0.00 0.00 0.00 0.00 0.00 0.00 0.00 0.00 0.00 0.00 0.00 0.00 0.00 0.00 0.00 0.00 0.00 0.00 0.00 0.00
0.00 0.00 0.00 0.00 0.00 0.00 0.00 0.00 0.00 0.00 0.00 0.00 0.02 0.09 0.10 0.07 0.14 0.06 0.01 0.00 0.01 0.02 0.01 0.03 0.02 0.01 0.01 0.00 0.00 0.00 0.00 0.00 0.00 0.00 0.00 0.00 0.00 0.00 0.00 0.00 0.00 0.00 0.00 0.00
0.00 0.00 0.00 0.00 0.00 0.00 0.00 0.00 0.00 0.00 0.00 0.00 0.00 0.01 0.10 0.03 0.02 0.02 0.04 0.02 0.00 0.00 0.00 0.01 0.01 0.00 0.00 0.00 0.00 0.00 0.00 0.00 0.00 0.00 0.00 0.00 0.00 0.00 0.00 0.00 0.00 0.00 0.00 0.00
0.00 0.00 0.00 0.00 0.00 0.00 0.00 0.00 0.00 0.00 0.00 0.00 0.00 0.00 0.00 0.00 0.01 0.01 0.07 0.03 0.00 0.00 0.00 0.00 0.00 0.00 0.00 0.00 0.00 0.00 0.00 0.00 0.00 0.00 0.00 0.00 0.00 0.00 0.00 0.00 0.00 0.00 0.00 0.00
0.00 0.00 0.00 0.00 0.00 0.00 0.00 0.00 0.00 0.00 0.00 0.00 0.00 0.00 0.00 0.00 0.00 0.00 0.00 0.00 0.00 0.00 0.00 0.00 0.00 0.00 0.00 0.00 0.00 0.00 0.00 0.00 0.00 0.00 0.00 0.00 0.00 0.00 0.00 0.00 0.00 0.00 0.00 0.00

GFSCGP_prec_precacc_048.txt.gz
Total_Precipitation_Accumulation
0.63 0.57 0.35 0.16 0.06 0.01 0.01 0.02 0.02 0.00 0.00 0.00 0.00 0.00 0.00 0.00 0.00 0.00 0.00 0.00 0.00 0.00 0.00 0.00 0.00 0.00 0.00 0.00 0.00 0.00 0.00 0.00 0.00 0.00 0.00 0.00 0.05 0.13 0.16 0.18 0.10 0.08 0.04 0.00
0.79 0.46 0.14 0.10 0.05 0.05 0.03 0.04 0.02 0.01 0.00 0.01 0.00 0.00 0.00 0.00 0.00 0.00 0.00 0.00 0.00 0.00 0.00 0.00 0.00 0.00 0.00 0.00 0.00 0.00 0.00 0.00 0.00 0.00 0.00 0.00 0.11 0.14 0.20 0.16 0.10 0.11 0.10 0.07
0.61 0.35 0.15 0.12 0.19 0.12 0.11 0.04 0.03 0.01 0.01 0.01 0.01 0.00 0.00 0.00 0.00 0.00 0.00 0.00 0.00 0.00 0.00 0.00 0.00 0.00 0.00 0.00 0.00 0.00 0.00 0.00 0.00 0.00 0.00 0.00 0.06 0.06 0.07 0.05 0.05 0.09 0.11 0.11
0.48 0.44 0.24 0.22 0.29 0.11 0.16 0.04 0.02 0.04 0.06 0.03 0.03 0.03 0.00 0.00 0.00 0.00 0.00 0.00 0.00 0.00 0.00 0.00 0.00 0.00 0.00 0.00 0.00 0.00 0.00 0.00 0.00 0.00 0.00 0.00 0.02 0.06 0.08 0.12 0.10 0.08 0.08 0.06
0.66 0.49 0.24 0.32 0.22 0.16 0.08 0.06 0.02 0.07 0.18 0.11 0.05 0.08 0.01 0.00 0.00 0.00 0.00 0.00 0.00 0.00 0.00 0.00 0.00 0.00 0.00 0.00 0.00 0.00 0.00 0.00 0.00 0.00 0.00 0.00 0.00 0.03 0.07 0.05 0.04 0.07 0.07 0.04
0.34 0.41 0.33 0.21 0.13 0.22 0.12 0.18 0.24 0.22 0.34 0.54 0.07 0.06 0.02 0.00 0.00 0.00 0.00 0.00 0.00 0.00 0.00 0.00 0.00 0.00 0.00 0.00 0.00 0.00 0.00 0.00 0.00 0.00 0.00 0.00 0.00 0.03 0.05 0.04 0.06 0.09 0.06 0.03
0.61 0.73 0.59 0.26 0.35 0.44 0.42 0.61 0.95 0.83 0.59 0.36 0.10 0.05 0.05 0.00 0.00 0.00 0.00 0.00 0.00 0.00 0.00 0.00 0.00 0.00 0.00 0.00 0.00 0.00 0.00 0.00 0.00 0.00 0.00 0.00 0.00 0.01 0.05 0.06 0.04 0.04 0.03 0.02
0.50 0.65 0.71 0.33 0.61 0.70 0.54 0.55 0.64 0.52 0.25 0.06 0.04 0.12 0.01 0.00 0.00 0.00 0.00 0.00 0.00 0.00 0.00 0.00 0.00 0.00 0.00 0.00 0.00 0.00 0.00 0.00 0.00 0.00 0.00 0.00 0.00 0.00 0.01 0.01 0.01 0.04 0.03 0.02
0.29 0.59 0.56 0.23 0.48 0.42 0.49 0.48 0.34 0.37 0.24 0.24 0.04 0.01 0.00 0.00 0.00 0.00 0.00 0.00 0.00 0.00 0.00 0.00 0.00 0.00 0.00 0.00 0.00 0.00 0.00 0.00 0.00 0.00 0.00 0.00 0.00 0.00 0.01 0.01 0.01 0.02 0.01 0.01
0.24 0.67 0.69 0.59 0.89 0.64 0.36 0.19 0.33 0.83 0.56 0.30 0.07 0.00 0.00 0.00 0.00 0.00 0.00 0.00 0.00 0.00 0.00 0.00 0.00 0.00 0.00 0.00 0.00 0.00 0.00 0.00 0.00 0.00 0.00 0.00 0.00 0.00 0.00 0.00 0.00 0.00 0.00 0.00
0.40 0.73 0.77 1.05 1.03 0.62 0.55 0.65 0.46 0.45 0.29 0.28 0.19 0.01 0.00 0.00 0.00 0.00 0.00 0.00 0.00 0.00 0.00 0.00 0.00 0.00 0.00 0.00 0.00 0.00 0.00 0.00 0.00 0.00 0.00 0.00 0.00 0.00 0.00 0.00 0.00 0.00 0.00 0.00
0.36 0.75 0.86 0.69 0.27 0.22 0.34 0.30 0.30 0.77 0.42 0.40 0.36 0.10 0.00 0.01 0.01 0.00 0.01 0.02 0.01 0.00 0.00 0.00 0.00 0.00 0.00 0.00 0.00 0.00 0.00 0.00 0.00 0.00 0.00 0.00 0.00 0.00 0.00 0.00 0.00 0.00 0.00 0.00
0.43 0.90 0.84 0.62 0.53 0.58 0.79 0.41 0.35 0.59 0.97 0.67 0.42 0.14 0.00 0.00 0.00 0.00 0.01 0.03 0.02 0.01 0.00 0.00 0.00 0.00 0.00 0.01 0.04 0.04 0.01 0.00 0.00 0.00 0.00 0.00 0.00 0.00 0.00 0.00 0.00 0.00 0.00 0.00
0.41 0.88 0.93 0.75 0.43 0.57 0.82 0.45 0.57 1.13 1.08 0.35 0.29 0.04 0.01 0.01 0.02 0.01 0.00 0.02 0.04 0.01 0.00 0.00 0.00 0.00 0.00 0.04 0.05 0.01 0.00 0.00 0.00 0.00 0.00 0.00 0.00 0.00 0.00 0.00 0.00 0.00 0.00 0.00
0.43 0.90 0.88 0.49 0.28 0.42 0.57 0.56 0.49 0.94 0.52 0.50 0.16 0.07 0.03 0.03 0.02 0.02 0.01 0.01 0.03 0.02 0.02 0.00 0.00 0.00 0.00 0.01 0.01 0.00 0.00 0.00 0.00 0.00 0.00 0.00 0.00 0.00 0.00 0.00 0.00 0.00 0.00 0.00
0.33 0.71 0.75 0.61 0.24 0.38 0.48 0.55 0.36 0.56 0.27 0.26 0.16 0.13 0.01 0.01 0.01 0.00 0.01 0.04 0.06 0.05 0.03 0.01 0.00 0.00 0.00 0.00 0.00 0.00 0.00 0.00 0.00 0.01 0.02 0.01 0.00 0.00 0.00 0.00 0.00 0.00 0.00 0.00
0.28 0.51 0.73 0.64 0.48 0.28 0.47 0.58 0.68 0.48 0.20 0.24 0.27 0.14 0.01 0.01 0.04 0.06 0.04 0.06 0.04 0.02 0.01 0.01 0.00 0.00 0.00 0.00 0.00 0.00 0.00 0.01 0.01 0.02 0.02 0.01 0.00 0.00 0.00 0.00 0.00 0.00 0.00 0.00
0.06 0.23 0.46 0.31 0.15 0.16 0.11 0.14 0.44 0.28 0.23 0.26 0.14 0.07 0.02 0.00 0.00 0.01 0.04 0.02 0.01 0.01 0.00 0.00 0.00 0.00 0.00 0.00 0.01 0.01 0.01 0.01 0.02 0.01 0.01 0.00 0.00 0.00 0.00 0.00 0.00 0.00 0.00 0.00
0.05 0.15 0.24 0.15 0.07 0.03 0.00 0.00 0.07 0.13 0.22 0.14 0.07 0.01 0.00 0.00 0.22 0.34 0.14 0.04 0.01 0.00 0.00 0.00 0.00 0.00 0.00 0.01 0.02 0.02 0.01 0.01 0.02 0.01 0.01 0.02 0.01 0.00 0.00 0.00 0.00 0.00 0.00 0.00
0.04 0.17 0.25 0.09 0.12 0.02 0.00 0.00 0.01 0.02 0.15 0.02 0.05 0.03 0.02 0.01 0.29 0.31 0.22 0.04 0.01 0.00 0.00 0.00 0.00 0.01 0.04 0.08 0.08 0.06 0.05 0.06 0.06 0.06 0.05 0.04 0.02 0.01 0.00 0.00 0.00 0.00 0.00 0.00
0.07 0.16 0.23 0.13 0.17 0.01 0.00 0.00 0.01 0.06 0.10 0.01 0.05 0.03 0.01 0.01 0.03 0.06 0.06 0.04 0.07 0.11 0.10 0.12 0.07 0.16 0.22 0.33 0.31 0.27 0.22 0.23 0.19 0.14 0.15 0.07 0.01 0.00 0.00 0.00 0.00 0.00 0.00 0.00
0.02 0.03 0.06 0.10 0.08 0.00 0.00 0.00 0.00 0.00 0.01 0.02 0.10 0.02 0.01 0.01 0.02 0.02 0.00 0.01 0.02 0.04 0.05 0.07 0.16 0.19 0.24 0.35 0.27 0.24 0.19 0.10 0.07 0.02 0.00 0.00 0.00 0.00 0.00 0.00 0.00 0.00 0.00 0.00
0.00 0.00 0.00 0.00 0.00 0.00 0.00 0.00 0.00 0.00 0.00 0.00 0.02 0.10 0.13 0.11 0.19 0.07 0.01 0.01 0.03 0.03 0.01 0.04 0.03 0.01 0.01 0.01 0.00 0.00 0.00 0.00 0.00 0.00 0.00 0.00 0.00 0.00 0.00 0.00 0.00 0.00 0.00 0.00
0.00 0.00 0.00 0.00 0.00 0.00 0.00 0.00 0.00 0.00 0.00 0.00 0.00 0.01 0.20 0.06 0.07 0.03 0.05 0.03 0.03 0.04 0.02 0.04 0.04 0.04 0.02 0.01 0.01 0.00 0.00 0.00 0.00 0.00 0.00 0.00 0.00 0.00 0.00 0.00 0.00 0.00 0.00 0.00
0.00 0.00 0.00 0.00 0.00 0.00 0.00 0.00 0.00 0.00 0.00 0.00 0.00 0.00 0.00 0.02 0.05 0.01 0.12 0.05 0.00 0.00 0.00 0.00 0.00 0.00 0.00 0.00 0.00 0.00 0.00 0.00 0.00 0.00 0.00 0.00 0.00 0.00 0.00 0.00 0.00 0.00 0.00 0.00
0.00 0.00 0.00 0.00 0.00 0.00 0.00 0.00 0.00 0.00 0.00 0.00 0.00 0.00 0.00 0.00 0.01 0.00 0.00 0.00 0.00 0.00 0.00 0.00 0.00 0.00 0.00 0.00 0.00 0.00 0.00 0.00 0.00 0.00 0.00 0.00 0.00 0.00 0.00 0.00 0.00 0.00 0.00 0.00

GFSCGP_prec_precacc_051.txt.gz
Total_Precipitation_Accumulation
0.65 0.58 0.35 0.16 0.06 0.01 0.01 0.02 0.02 0.00 0.00 0.00 0.00 0.00 0.00 0.00 0.00 0.00 0.00 0.00 0.00 0.00 0.00 0.00 0.00 0.00 0.00 0.00 0.00 0.00 0.00 0.00 0.00 0.01 0.00 0.00 0.08 0.15 0.19 0.19 0.10 0.08 0.05 0.01
0.80 0.46 0.14 0.10 0.05 0.05 0.03 0.04 0.02 0.01 0.00 0.01 0.00 0.00 0.00 0.00 0.00 0.00 0.00 0.00 0.00 0.00 0.00 0.00 0.00 0.00 0.00 0.00 0.00 0.00 0.00 0.00 0.00 0.00 0.00 0.01 0.13 0.18 0.25 0.19 0.10 0.11 0.12 0.11
0.61 0.35 0.15 0.12 0.19 0.12 0.11 0.04 0.03 0.01 0.01 0.01 0.01 0.00 0.00 0.00 0.00 0.00 0.00 0.00 0.00 0.00 0.00 0.00 0.00 0.00 0.00 0.00 0.00 0.00 0.00 0.00 0.00 0.00 0.00 0.01 0.11 0.13 0.11 0.08 0.05 0.09 0.12 0.18
0.48 0.44 0.24 0.22 0.29 0.11 0.16 0.04 0.02 0.04 0.06 0.03 0.03 0.03 0.00 0.00 0.00 0.00 0.00 0.00 0.00 0.00 0.00 0.00 0.00 0.00 0.00 0.00 0.00 0.00 0.00 0.00 0.00 0.00 0.00 0.00 0.03 0.10 0.11 0.20 0.16 0.11 0.10 0.11
0.66 0.49 0.24 0.32 0.22 0.16 0.08 0.06 0.02 0.07 0.18 0.11 0.05 0.08 0.01 0.00 0.00 0.00 0.00 0.00 0.00 0.00 0.00 0.00 0.00 0.00 0.00 0.00 0.00 0.00 0.00 0.00 0.00 0.00 0.00 0.00 0.02 0.08 0.13 0.13 0.09 0.12 0.11 0.08
0.34 0.41 0.33 0.21 0.13 0.22 0.12 0.18 0.24 0.22 0.34 0.54 0.07 0.06 0.02 0.00 0.00 0.00 0.00 0.00 0.00 0.00 0.00 0.00 0.00 0.00 0.00 0.00 0.00 0.00 0.00 0.00 0.00 0.00 0.00 0.00 0.01 0.05 0.09 0.07 0.08 0.12 0.10 0.05
0.61 0.73 0.59 0.26 0.35 0.44 0.42 0.61 0.95 0.83 0.60 0.36 0.10 0.05 0.05 0.00 0.00 0.00 0.00 0.00 0.00 0.00 0.00 0.00 0.00 0.00 0.00 0.00 0.00 0.00 0.00 0.00 0.00 0.00 0.00 0.00 0.00 0.03 0.08 0.08 0.07 0.06 0.04 0.03
0.50 0.65 0.71 0.33 0.61 0.70 0.54 0.55 0.64 0.52 0.25 0.06 0.04 0.12 0.01 0.00 0.00 0.00 0.00 0.00 0.00 0.00 0.00 0.00 0.00 0.00 0.00 0.00 0.00 0.00 0.00 0.00 0.00 0.00 0.00 0.00 0.00 0.02 0.04 0.04 0.03 0.06 0.05 0.03
0.29 0.59 0.56 0.23 0.48 0.42 0.49 0.48 0.34 0.37 0.24 0.24 0.04 0.01 0.00 0.00 0.00 0.00 0.00 0.00 0.00 0.00 0.00 0.00 0.00 0.00 0.00 0.00 0.00 0.00 0.00 0.00 0.00 0.02 0.02 0.01 0.01 0.02 0.03 0.03 0.02 0.03 0.03 0.01
0.24 0.67 0.69 0.59 0.89 0.64 0.36 0.19 0.33 0.83 0.56 0.30 0.07 0.00 0.00 0.00 0.00 0.00 0.00 0.00 0.00 0.00 0.00 0.00 0.00 0.00 0.00 0.00 0.00 0.00 0.00 0.00 0.01 0.03 0.01 0.00 0.02 0.03 0.02 0.02 0.01 0.01 0.00 0.00
0.40 0.73 0.77 1.05 1.03 0.62 0.55 0.65 0.46 0.45 0.29 0.28 0.19 0.01 0.00 0.00 0.00 0.00 0.00 0.00 0.00 0.00 0.00 0.00 0.00 0.00 0.00 0.00 0.00 0.00 0.00 0.00 0.01 0.00 0.00 0.01 0.01 0.01 0.01 0.01 0.00 0.00 0.00 0.00
0.36 0.75 0.86 0.69 0.27 0.22 0.34 0.30 0.30 0.77 0.42 0.40 0.36 0.10 0.00 0.01 0.01 0.00 0.01 0.02 0.01 0.00 0.00 0.00 0.00 0.00 0.00 0.00 0.00 0.00 0.02 0.02 0.01 0.00 0.00 0.01 0.00 0.00 0.00 0.01 0.00 0.00 0.01 0.00
0.43 0.90 0.84 0.63 0.53 0.58 0.79 0.41 0.35 0.59 0.97 0.67 0.42 0.14 0.00 0.00 0.00 0.00 0.01 0.03 0.02 0.01 0.00 0.00 0.00 0.00 0.00 0.02 0.05 0.08 0.03 0.00 0.00 0.00 0.00 0.00 0.00 0.00 0.00 0.00 0.00 0.01 0.00 0.01
0.41 0.88 0.93 0.75 0.43 0.57 0.82 0.45 0.57 1.13 1.09 0.36 0.29 0.04 0.01 0.01 0.02 0.01 0.00 0.02 0.04 0.01 0.01 0.00 0.00 0.00 0.02 0.06 0.09 0.09 0.01 0.00 0.00 0.00 0.00 0.00 0.00 0.01 0.00 0.00 0.00 0.01 0.01 0.01
0.43 0.90 0.88 0.49 0.28 0.42 0.57 0.56 0.49 0.94 0.52 0.52 0.16 0.07 0.03 0.03 0.02 0.02 0.01 0.01 0.04 0.05 0.04 0.02 0.00 0.00 0.00 0.04 0.04 0.06 0.07 0.04 0.01 0.01 0.01 0.01 0.01 0.00 0.00 0.00 0.00 0.00 0.00 0.01
0.33 0.71 0.75 0.61 0.24 0.38 0.48 0.55 0.36 0.56 0.27 0.26 0.17 0.13 0.01 0.01 0.01 0.00 0.01 0.04 0.07 0.07 0.04 0.02 0.00 0.00 0.00 0.00 0.00 0.02 0.05 0.05 0.02 0.02 0.02 0.02 0.00 0.00 0.00 0.00 0.00 0.00 0.00 0.00
0.28 0.51 0.73 0.64 0.48 0.28 0.47 0.58 0.68 0.48 0.20 0.25 0.28 0.15 0.01 0.01 0.04 0.06 0.04 0.06 0.04 0.03 0.02 0.01 0.00 0.00 0.00 0.00 0.00 0.01 0.02 0.01 0.02 0.02 0.02 0.01 0.00 0.01 0.02 0.02 0.01 0.00 0.00 0.00
0.06 0.23 0.46 0.31 0.15 0.16 0.11 0.14 0.44 0.28 0.23 0.26 0.14 0.07 0.02 0.00 0.00 0.02 0.04 0.02 0.01 0.01 0.00 0.00 0.00 0.00 0.00 0.00 0.01 0.01 0.02 0.02 0.03 0.02 0.02 0.02 0.05 0.07 0.04 0.01 0.00 0.00 0.00 0.01
0.05 0.16 0.25 0.15 0.07 0.03 0.00 0.00 0.07 0.13 0.22 0.14 0.07 0.02 0.00 0.00 0.22 0.35 0.14 0.04 0.01 0.00 0.00 0.00 0.00 0.00 0.00 0.01 0.02 0.02 0.02 0.02 0.05 0.04 0.04 0.06 0.07 0.03 0.01 0.01 0.01 0.00 0.00 0.00
0.05 0.17 0.26 0.09 0.12 0.02 0.00 0.00 0.01 0.02 0.15 0.02 0.05 0.04 0.02 0.01 0.29 0.32 0.23 0.05 0.02 0.00 0.00 0.00 0.00 0.01 0.04 0.08 0.08 0.07 0.07 0.09 0.25 0.24 0.17 0.11 0.07 0.08 0.12 0.09 0.04 0.02 0.00 0.00
0.08 0.17 0.24 0.14 0.18 0.01 0.00 0.00 0.01 0.06 0.10 0.01 0.06 0.06 0.01 0.01 0.03 0.06 0.07 0.10 0.08 0.12 0.11 0.13 0.08 0.16 0.24 0.37 0.35 0.40 0.34 0.38 0.49 0.33 0.29 0.30 0.34 0.21 0.11 0.05 0.01 0.00 0.00 0.00
0.02 0.04 0.07 0.11 0.08 0.00 0.00 0.00 0.00 0.00 0.01 0.02 0.10 0.03 0.02 0.01 0.02 0.02 0.00 0.07 0.09 0.13 0.11 0.30 0.45 0.50 0.57 0.67 0.63 0.52 0.52 0.48 0.46 0.35 0.22 0.17 0.08 0.02 0.00 0.00 0.00 0.00 0.00 0.00
0.00 0.00 0.00 0.00 0.00 0.00 0.00 0.00 0.00 0.00 0.00 0.00 0.02 0.10 0.13 0.12 0.19 0.07 0.01 0.01 0.03 0.07 0.03 0.11 0.19 0.10 0.13 0.16 0.25 0.16 0.15 0.12 0.07 0.05 0.01 0.00 0.00 0.00 0.00 0.00 0.00 0.00 0.00 0.00
0.00 0.00 0.00 0.00 0.00 0.00 0.00 0.00 0.00 0.00 0.00 0.00 0.00 0.01 0.22 0.07 0.08 0.03 0.05 0.03 0.04 0.05 0.02 0.04 0.04 0.04 0.03 0.02 0.01 0.01 0.00 0.00 0.00 0.00 0.00 0.00 0.00 0.00 0.00 0.00 0.00 0.00 0.00 0.00
0.00 0.00 0.00 0.00 0.00 0.00 0.00 0.00 0.00 0.00 0.00 0.00 0.00 0.00 0.00 0.05 0.06 0.01 0.15 0.07 0.00 0.00 0.00 0.00 0.01 0.02 0.00 0.00 0.00 0.00 0.00 0.00 0.00 0.00 0.00 0.00 0.00 0.00 0.00 0.00 0.00 0.00 0.00 0.00
0.00 0.00 0.00 0.00 0.00 0.00 0.00 0.00 0.00 0.00 0.00 0.00 0.00 0.00 0.00 0.00 0.07 0.01 0.03 0.02 0.00 0.00 0.00 0.00 0.00 0.00 0.00 0.00 0.00 0.00 0.00 0.00 0.00 0.00 0.00 0.00 0.00 0.00 0.00 0.00 0.00 0.00 0.00 0.00

GFSCGP_prec_precacc_054.txt.gz
Total_Precipitation_Accumulation
0.66 0.58 0.36 0.16 0.06 0.01 0.01 0.02 0.02 0.00 0.00 0.00 0.00 0.00 0.00 0.00 0.00 0.00 0.00 0.00 0.00 0.00 0.00 0.00 0.00 0.00 0.00 0.00 0.00 0.00 0.00 0.00 0.03 0.05 0.03 0.05 0.16 0.18 0.23 0.24 0.12 0.08 0.05 0.01
0.81 0.46 0.14 0.10 0.05 0.05 0.03 0.04 0.02 0.01 0.00 0.01 0.00 0.00 0.00 0.00 0.00 0.00 0.00 0.00 0.00 0.00 0.00 0.00 0.00 0.00 0.00 0.00 0.00 0.00 0.00 0.00 0.00 0.00 0.01 0.04 0.21 0.23 0.33 0.30 0.17 0.12 0.12 0.14
0.62 0.35 0.15 0.12 0.19 0.12 0.11 0.04 0.03 0.01 0.01 0.01 0.01 0.00 0.00 0.00 0.00 0.00 0.00 0.00 0.00 0.00 0.00 0.00 0.00 0.00 0.00 0.00 0.00 0.00 0.00 0.00 0.00 0.00 0.03 0.08 0.18 0.19 0.20 0.15 0.06 0.09 0.12 0.25
0.48 0.44 0.24 0.22 0.29 0.11 0.16 0.04 0.02 0.04 0.06 0.03 0.03 0.03 0.00 0.00 0.00 0.00 0.00 0.00 0.00 0.00 0.00 0.00 0.00 0.00 0.00 0.00 0.00 0.00 0.00 0.00 0.00 0.00 0.01 0.02 0.04 0.10 0.12 0.21 0.20 0.15 0.12 0.21
0.67 0.49 0.24 0.32 0.22 0.16 0.08 0.06 0.02 0.07 0.18 0.11 0.05 0.08 0.01 0.00 0.00 0.00 0.00 0.00 0.00 0.00 0.00 0.00 0.00 0.00 0.00 0.00 0.00 0.00 0.00 0.00 0.00 0.00 0.00 0.00 0.02 0.08 0.14 0.17 0.15 0.21 0.21 0.21
0.34 0.41 0.33 0.21 0.13 0.22 0.12 0.18 0.24 0.22 0.34 0.54 0.07 0.06 0.02 0.00 0.00 0.00 0.00 0.00 0.00 0.00 0.00 0.00 0.00 0.00 0.00 0.00 0.00 0.00 0.00 0.00 0.00 0.00 0.00 0.00 0.01 0.06 0.10 0.09 0.12 0.18 0.18 0.13
0.61 0.73 0.59 0.26 0.35 0.44 0.42 0.61 0.95 0.83 0.60 0.36 0.10 0.05 0.05 0.00 0.00 0.00 0.00 0.00 0.00 0.00 0.00 0.00 0.00 0.00 0.00 0.00 0.00 0.00 0.00 0.00 0.00 0.00 0.00 0.00 0.00 0.03 0.09 0.10 0.10 0.11 0.09 0.08
0.50 0.65 0.71 0.33 0.61 0.70 0.54 0.55 0.64 0.52 0.25 0.06 0.04 0.12 0.01 0.00 0.00 0.00 0.00 0.00 0.00 0.00 0.00 0.00 0.00 0.00 0.00 0.00 0.00 0.00 0.00 0.00 0.00 0.00 0.00 0.00 0.00 0.03 0.05 0.06 0.06 0.08 0.08 0.07
0.29 0.59 0.56 0.23 0.48 0.42 0.49 0.48 0.34 0.37 0.24 0.24 0.04 0.01 0.00 0.00 0.00 0.00 0.00 0.00 0.00 0.00 0.00 0.00 0.00 0.00 0.00 0.00 0.00 0.00 0.00 0.00 0.00 0.02 0.02 0.01 0.01 0.03 0.05 0.06 0.07 0.07 0.06 0.04
0.24 0.67 0.69 0.59 0.89 0.64 0.36 0.19 0.33 0.83 0.56 0.30 0.07 0.00 0.00 0.00 0.00 0.00 0.00 0.00 0.00 0.00 0.00 0.00 0.00 0.00 0.00 0.00 0.00 0.00 0.00 0.00 0.01 0.03 0.01 0.00 0.03 0.05 0.05 0.05 0.06 0.04 0.03 0.03
0.40 0.73 0.77 1.05 1.03 0.62 0.55 0.65 0.46 0.45 0.29 0.28 0.19 0.01 0.00 0.00 0.00 0.00 0.00 0.00 0.00 0.00 0.00 0.00 0.00 0.00 0.00 0.00 0.00 0.00 0.00 0.00 0.01 0.00 0.00 0.02 0.03 0.04 0.05 0.06 0.05 0.02 0.01 0.01
0.36 0.75 0.86 0.69 0.27 0.22 0.34 0.30 0.30 0.77 0.42 0.40 0.36 0.10 0.00 0.01 0.01 0.00 0.01 0.02 0.01 0.00 0.00 0.00 0.00 0.00 0.00 0.00 0.00 0.00 0.02 0.02 0.01 0.00 0.01 0.03 0.03 0.03 0.04 0.05 0.04 0.02 0.02 0.01
0.43 0.90 0.84 0.63 0.54 0.58 0.79 0.41 0.35 0.59 0.97 0.67 0.42 0.14 0.00 0.00 0.00 0.00 0.01 0.03 0.02 0.01 0.00 0.00 0.00 0.00 0.00 0.02 0.05 0.09 0.03 0.00 0.00 0.01 0.01 0.02 0.02 0.02 0.03 0.02 0.02 0.01 0.01 0.01
0.41 0.88 0.93 0.75 0.43 0.57 0.82 0.45 0.57 1.13 1.09 0.36 0.29 0.04 0.01 0.01 0.02 0.01 0.00 0.02 0.04 0.01 0.01 0.00 0.00 0.00 0.02 0.07 0.10 0.10 0.01 0.01 0.02 0.02 0.01 0.02 0.02 0.01 0.01 0.00 0.01 0.01 0.02 0.01
0.43 0.90 0.88 0.49 0.28 0.42 0.57 0.56 0.49 0.94 0.52 0.52 0.16 0.07 0.03 0.03 0.02 0.02 0.01 0.01 0.04 0.05 0.04 0.02 0.02 0.03 0.02 0.04 0.04 0.06 0.09 0.07 0.06 0.05 0.03 0.02 0.02 0.01 0.01 0.01 0.01 0.01 0.01 0.01
0.33 0.71 0.75 0.61 0.24 0.38 0.48 0.55 0.36 0.56 0.27 0.26 0.17 0.13 0.01 0.01 0.01 0.00 0.01 0.04 0.07 0.07 0.04 0.02 0.01 0.01 0.01 0.00 0.00 0.02 0.08 0.09 0.09 0.10 0.06 0.03 0.01 0.01 0.01 0.01 0.01 0.01 0.02 0.03
0.28 0.51 0.73 0.64 0.48 0.28 0.47 0.58 0.68 0.48 0.20 0.25 0.28 0.15 0.01 0.01 0.04 0.06 0.05 0.06 0.04 0.03 0.02 0.01 0.00 0.00 0.00 0.00 0.00 0.01 0.03 0.05 0.09 0.08 0.06 0.04 0.01 0.01 0.02 0.03 0.04 0.05 0.03 0.04
0.06 0.23 0.46 0.31 0.15 0.16 0.11 0.14 0.44 0.28 0.23 0.26 0.14 0.07 0.02 0.00 0.00 0.02 0.04 0.02 0.01 0.01 0.00 0.01 0.00 0.00 0.00 0.00 0.01 0.02 0.09 0.11 0.23 0.06 0.08 0.03 0.05 0.10 0.10 0.13 0.11 0.10 0.14 0.05
0.05 0.16 0.25 0.15 0.07 0.03 0.00 0.00 0.07 0.13 0.22 0.14 0.07 0.02 0.00 0.00 0.22 0.35 0.15 0.04 0.01 0.00 0.00 0.00 0.00 0.00 0.00 0.01 0.02 0.02 0.04 0.10 0.15 0.07 0.05 0.10 0.21 0.22 0.16 0.14 0.19 0.07 0.05 0.03
0.05 0.18 0.26 0.09 0.12 0.02 0.00 0.00 0.01 0.02 0.15 0.02 0.05 0.04 0.02 0.01 0.29 0.32 0.24 0.05 0.02 0.00 0.00 0.00 0.00 0.01 0.04 0.08 0.08 0.07 0.07 0.10 0.31 0.31 0.29 0.27 0.44 0.31 0.31 0.19 0.11 0.13 0.13 0.08
0.09 0.18 0.26 0.14 0.18 0.01 0.00 0.00 0.01 0.06 0.10 0.01 0.06 0.06 0.01 0.01 0.03 0.06 0.08 0.11 0.08 0.12 0.12 0.14 0.08 0.16 0.24 0.37 0.35 0.41 0.43 0.60 0.83 0.54 0.52 0.53 0.59 0.39 0.31 0.29 0.20 0.11 0.05 0.02
0.02 0.04 0.07 0.11 0.09 0.00 0.00 0.00 0.00 0.00 0.01 0.02 0.10 0.03 0.02 0.01 0.02 0.02 0.01 0.07 0.11 0.14 0.12 0.33 0.47 0.52 0.60 0.72 0.65 0.62 0.68 0.66 0.76 0.54 0.39 0.32 0.19 0.15 0.10 0.08 0.05 0.02 0.01 0.00
0.00 0.00 0.00 0.00 0.00 0.00 0.00 0.00 0.00 0.00 0.00 0.00 0.02 0.10 0.13 0.12 0.19 0.07 0.02 0.01 0.03 0.07 0.03 0.12 0.22 0.13 0.18 0.29 0.33 0.25 0.23 0.21 0.16 0.13 0.06 0.04 0.02 0.01 0.00 0.00 0.00 0.00 0.00 0.00
0.00 0.00 0.00 0.00 0.00 0.00 0.00 0.00 0.00 0.00 0.00 0.00 0.00 0.01 0.22 0.07 0.08 0.03 0.06 0.04 0.05 0.05 0.02 0.04 0.04 0.04 0.04 0.04 0.04 0.03 0.02 0.01 0.01 0.01 0.01 0.00 0.00 0.00 0.00 0.00 0.00 0.00 0.00 0.00
0.00 0.00 0.00 0.00 0.00 0.00 0.00 0.00 0.00 0.00 0.00 0.00 0.00 0.00 0.00 0.05 0.06 0.02 0.16 0.08 0.00 0.00 0.00 0.00 0.01 0.02 0.00 0.00 0.00 0.00 0.00 0.00 0.00 0.00 0.00 0.00 0.00 0.00 0.00 0.00 0.00 0.00 0.00 0.00
0.00 0.00 0.00 0.00 0.00 0.00 0.00 0.00 0.00 0.00 0.00 0.00 0.00 0.00 0.00 0.00 0.12 0.01 0.05 0.02 0.00 0.00 0.00 0.00 0.00 0.00 0.00 0.00 0.00 0.00 0.00 0.00 0.00 0.00 0.00 0.00 0.00 0.00 0.00 0.00 0.00 0.00 0.00 0.00

GFSCGP_prec_precacc_057.txt.gz
Total_Precipitation_Accumulation
0.75 0.92 0.46 0.28 0.13 0.02 0.01 0.02 0.02 0.00 0.00 0.00 0.00 0.00 0.00 0.00 0.00 0.00 0.00 0.00 0.00 0.00 0.00 0.00 0.00 0.00 0.00 0.00 0.00 0.00 0.00 0.00 0.04 0.07 0.04 0.07 0.17 0.23 0.26 0.25 0.14 0.09 0.06 0.02
0.82 0.54 0.20 0.13 0.10 0.09 0.03 0.04 0.02 0.01 0.00 0.01 0.00 0.00 0.00 0.00 0.00 0.00 0.00 0.00 0.00 0.00 0.00 0.00 0.00 0.00 0.00 0.00 0.00 0.00 0.00 0.00 0.00 0.00 0.01 0.04 0.23 0.25 0.41 0.43 0.23 0.14 0.13 0.17
0.62 0.35 0.15 0.13 0.19 0.12 0.11 0.04 0.03 0.01 0.01 0.01 0.01 0.00 0.00 0.00 0.00 0.00 0.00 0.00 0.00 0.00 0.00 0.00 0.00 0.00 0.00 0.00 0.00 0.00 0.00 0.00 0.00 0.00 0.05 0.14 0.27 0.25 0.26 0.20 0.08 0.10 0.13 0.32
0.49 0.44 0.24 0.22 0.29 0.11 0.16 0.04 0.02 0.04 0.06 0.03 0.03 0.03 0.00 0.00 0.00 0.00 0.00 0.00 0.00 0.00 0.00 0.00 0.00 0.00 0.00 0.00 0.00 0.00 0.00 0.00 0.00 0.00 0.01 0.02 0.04 0.11 0.12 0.21 0.20 0.17 0.16 0.31
0.67 0.49 0.24 0.32 0.22 0.16 0.08 0.06 0.02 0.07 0.18 0.11 0.05 0.08 0.01 0.00 0.00 0.00 0.00 0.00 0.00 0.00 0.00 0.00 0.00 0.00 0.00 0.00 0.00 0.00 0.00 0.00 0.00 0.00 0.00 0.00 0.02 0.08 0.14 0.17 0.17 0.25 0.24 0.29
0.34 0.41 0.33 0.21 0.13 0.22 0.12 0.18 0.24 0.22 0.34 0.54 0.07 0.06 0.02 0.00 0.00 0.00 0.00 0.00 0.00 0.00 0.00 0.00 0.00 0.00 0.00 0.00 0.00 0.00 0.00 0.00 0.00 0.00 0.00 0.00 0.01 0.06 0.14 0.12 0.16 0.22 0.21 0.18
0.62 0.73 0.59 0.26 0.35 0.44 0.42 0.61 0.95 0.83 0.60 0.36 0.10 0.05 0.05 0.00 0.00 0.00 0.00 0.00 0.00 0.00 0.00 0.00 0.00 0.00 0.00 0.00 0.00 0.00 0.00 0.00 0.00 0.00 0.00 0.00 0.00 0.03 0.09 0.11 0.10 0.12 0.10 0.09
0.51 0.65 0.71 0.33 0.61 0.70 0.54 0.55 0.64 0.52 0.25 0.06 0.04 0.12 0.01 0.00 0.00 0.00 0.00 0.00 0.00 0.00 0.00 0.00 0.00 0.00 0.00 0.00 0.00 0.00 0.00 0.00 0.00 0.00 0.00 0.00 0.00 0.03 0.05 0.06 0.07 0.13 0.10 0.09
0.29 0.59 0.56 0.23 0.48 0.42 0.49 0.48 0.34 0.37 0.24 0.24 0.04 0.01 0.00 0.00 0.00 0.00 0.00 0.00 0.00 0.00 0.00 0.00 0.00 0.00 0.00 0.00 0.00 0.00 0.00 0.00 0.00 0.02 0.02 0.01 0.01 0.03 0.05 0.06 0.08 0.10 0.09 0.08
0.24 0.67 0.69 0.59 0.89 0.64 0.36 0.19 0.33 0.83 0.56 0.30 0.07 0.00 0.00 0.00 0.00 0.00 0.00 0.00 0.00 0.00 0.00 0.00 0.00 0.00 0.00 0.00 0.00 0.00 0.00 0.00 0.01 0.03 0.01 0.00 0.03 0.05 0.05 0.05 0.06 0.06 0.06 0.06
0.40 0.73 0.78 1.05 1.03 0.62 0.55 0.65 0.46 0.45 0.29 0.28 0.19 0.01 0.00 0.00 0.00 0.00 0.00 0.00 0.00 0.00 0.00 0.00 0.00 0.00 0.00 0.00 0.00 0.00 0.00 0.00 0.01 0.00 0.00 0.02 0.03 0.04 0.05 0.06 0.06 0.04 0.03 0.03
0.36 0.75 0.87 0.69 0.27 0.22 0.34 0.30 0.30 0.77 0.42 0.40 0.36 0.10 0.00 0.01 0.01 0.00 0.01 0.02 0.01 0.00 0.00 0.00 0.00 0.00 0.00 0.00 0.00 0.00 0.02 0.02 0.01 0.00 0.01 0.03 0.03 0.03 0.04 0.06 0.06 0.05 0.05 0.02
0.43 0.90 0.84 0.63 0.54 0.58 0.79 0.41 0.35 0.59 0.97 0.67 0.42 0.14 0.00 0.00 0.00 0.00 0.01 0.03 0.02 0.01 0.00 0.00 0.00 0.00 0.00 0.02 0.05 0.09 0.03 0.00 0.00 0.01 0.01 0.02 0.03 0.04 0.05 0.04 0.04 0.03 0.02 0.01
0.41 0.88 0.93 0.75 0.43 0.57 0.82 0.45 0.57 1.13 1.09 0.36 0.29 0.04 0.01 0.01 0.02 0.01 0.00 0.02 0.04 0.01 0.01 0.00 0.00 0.00 0.02 0.07 0.10 0.10 0.01 0.01 0.02 0.03 0.03 0.04 0.04 0.04 0.04 0.05 0.04 0.02 0.02 0.01
0.43 0.90 0.88 0.49 0.28 0.42 0.57 0.56 0.49 0.94 0.52 0.52 0.16 0.07 0.03 0.03 0.02 0.02 0.01 0.01 0.04 0.05 0.04 0.02 0.02 0.03 0.02 0.05 0.05 0.06 0.09 0.07 0.07 0.07 0.05 0.05 0.05 0.04 0.03 0.02 0.02 0.01 0.01 0.01
0.33 0.71 0.75 0.61 0.24 0.38 0.48 0.55 0.36 0.56 0.27 0.26 0.17 0.13 0.01 0.01 0.01 0.00 0.01 0.04 0.07 0.07 0.04 0.02 0.01 0.01 0.01 0.00 0.00 0.02 0.08 0.09 0.09 0.11 0.06 0.04 0.02 0.01 0.01 0.01 0.01 0.01 0.02 0.03
0.28 0.51 0.73 0.64 0.48 0.28 0.47 0.58 0.68 0.48 0.20 0.25 0.28 0.15 0.01 0.01 0.04 0.06 0.05 0.06 0.04 0.03 0.02 0.01 0.00 0.00 0.00 0.00 0.00 0.01 0.03 0.05 0.09 0.08 0.06 0.05 0.02 0.02 0.03 0.03 0.05 0.06 0.05 0.07
0.06 0.23 0.46 0.31 0.15 0.16 0.11 0.14 0.44 0.28 0.23 0.26 0.14 0.07 0.02 0.00 0.00 0.02 0.04 0.02 0.01 0.01 0.00 0.01 0.00 0.00 0.00 0.00 0.01 0.02 0.09 0.12 0.40 0.10 0.15 0.16 0.14 0.16 0.14 0.16 0.14 0.17 0.23 0.16
0.05 0.16 0.25 0.15 0.07 0.03 0.00 0.00 0.07 0.13 0.22 0.14 0.07 0.02 0.00 0.00 0.22 0.35 0.15 0.04 0.01 0.00 0.00 0.00 0.00 0.00 0.00 0.01 0.02 0.02 0.04 0.13 0.36 0.22 0.24 0.33 0.28 0.24 0.21 0.24 0.32 0.24 0.25 0.30
0.05 0.18 0.26 0.10 0.12 0.02 0.00 0.00 0.01 0.02 0.15 0.02 0.05 0.04 0.02 0.01 0.29 0.32 0.24 0.05 0.02 0.00 0.00 0.00 0.00 0.02 0.05 0.08 0.08 0.07 0.07 0.10 0.31 0.32 0.30 0.28 0.47 0.39 0.45 0.37 0.31 0.34 0.37 0.27
0.10 0.19 0.27 0.15 0.18 0.01 0.00 0.00 0.01 0.06 0.10 0.01 0.06 0.06 0.01 0.01 0.03 0.06 0.08 0.11 0.08 0.12 0.12 0.14 0.08 0.16 0.24 0.37 0.35 0.41 0.43 0.62 0.88 0.57 0.59 0.64 0.76 0.62 0.53 0.56 0.43 0.23 0.12 0.07
0.02 0.04 0.08 0.12 0.09 0.00 0.00 0.00 0.00 0.00 0.01 0.02 0.10 0.03 0.02 0.01 0.02 0.02 0.01 0.07 0.11 0.14 0.12 0.33 0.47 0.52 0.60 0.72 0.65 0.63 0.71 0.74 0.89 0.66 0.54 0.46 0.35 0.24 0.14 0.11 0.08 0.04 0.03 0.02
0.00 0.00 0.00 0.00 0.00 0.00 0.00 0.00 0.00 0.00 0.00 0.00 0.02 0.10 0.13 0.12 0.19 0.07 0.02 0.01 0.03 0.07 0.03 0.12 0.22 0.13 0.18 0.29 0.34 0.25 0.24 0.23 0.19 0.15 0.09 0.08 0.04 0.02 0.01 0.00 0.00 0.00 0.00 0.00
0.00 0.00 0.00 0.00 0.00 0.00 0.00 0.00 0.00 0.00 0.00 0.00 0.00 0.01 0.22 0.07 0.08 0.03 0.06 0.04 0.05 0.05 0.02 0.04 0.04 0.04 0.04 0.04 0.04 0.03 0.02 0.02 0.01 0.01 0.01 0.00 0.00 0.00 0.00 0.00 0.00 0.00 0.00 0.00
0.01 0.00 0.00 0.00 0.00 0.00 0.00 0.00 0.00 0.00 0.00 0.00 0.00 0.00 0.00 0.05 0.06 0.02 0.16 0.08 0.00 0.00 0.00 0.00 0.01 0.02 0.00 0.00 0.00 0.00 0.00 0.00 0.00 0.00 0.00 0.00 0.00 0.00 0.00 0.00 0.00 0.00 0.00 0.00
0.00 0.00 0.00 0.00 0.00 0.00 0.00 0.00 0.00 0.00 0.00 0.00 0.00 0.00 0.00 0.00 0.12 0.01 0.05 0.03 0.00 0.00 0.00 0.00 0.00 0.00 0.00 0.00 0.00 0.00 0.00 0.00 0.00 0.00 0.00 0.00 0.00 0.00 0.00 0.00 0.00 0.00 0.00 0.00

GFSCGP_prec_precacc_060.txt.gz
Total_Precipitation_Accumulation
1.02 1.39 0.55 0.33 0.14 0.02 0.01 0.02 0.02 0.00 0.00 0.00 0.00 0.00 0.00 0.00 0.00 0.00 0.00 0.00 0.00 0.00 0.00 0.00 0.00 0.00 0.00 0.00 0.00 0.00 0.00 0.00 0.04 0.07 0.04 0.08 0.18 0.27 0.28 0.29 0.19 0.14 0.09 0.06
1.06 1.07 0.41 0.23 0.19 0.11 0.03 0.04 0.02 0.01 0.00 0.01 0.00 0.00 0.00 0.00 0.00 0.00 0.00 0.00 0.00 0.00 0.00 0.00 0.00 0.00 0.00 0.00 0.00 0.00 0.00 0.00 0.00 0.00 0.01 0.04 0.25 0.27 0.45 0.52 0.28 0.24 0.17 0.26
0.67 0.54 0.34 0.34 0.44 0.28 0.13 0.04 0.03 0.01 0.01 0.01 0.01 0.00 0.00 0.00 0.00 0.00 0.00 0.00 0.00 0.00 0.00 0.00 0.00 0.00 0.00 0.00 0.00 0.00 0.00 0.00 0.00 0.00 0.05 0.14 0.27 0.26 0.28 0.21 0.08 0.11 0.21 0.44
0.52 0.45 0.27 0.28 0.39 0.22 0.23 0.04 0.02 0.04 0.06 0.03 0.03 0.03 0.00 0.00 0.00 0.00 0.00 0.00 0.00 0.00 0.00 0.00 0.00 0.00 0.00 0.00 0.00 0.00 0.00 0.00 0.00 0.00 0.01 0.02 0.04 0.11 0.12 0.21 0.20 0.17 0.17 0.38
0.68 0.49 0.25 0.32 0.22 0.16 0.08 0.06 0.02 0.07 0.18 0.11 0.05 0.08 0.01 0.00 0.00 0.00 0.00 0.00 0.00 0.00 0.00 0.00 0.00 0.00 0.00 0.00 0.00 0.00 0.00 0.00 0.00 0.00 0.00 0.00 0.02 0.08 0.14 0.17 0.17 0.25 0.25 0.34
0.34 0.41 0.34 0.21 0.13 0.22 0.12 0.18 0.24 0.22 0.34 0.54 0.07 0.06 0.02 0.00 0.00 0.00 0.00 0.00 0.00 0.00 0.00 0.00 0.00 0.00 0.00 0.00 0.00 0.00 0.00 0.00 0.00 0.00 0.00 0.00 0.01 0.06 0.14 0.13 0.16 0.23 0.25 0.22
0.62 0.73 0.59 0.26 0.35 0.44 0.42 0.61 0.95 0.83 0.60 0.36 0.10 0.05 0.05 0.00 0.00 0.00 0.00 0.00 0.00 0.00 0.00 0.00 0.00 0.00 0.00 0.00 0.00 0.00 0.00 0.00 0.00 0.00 0.00 0.00 0.00 0.03 0.10 0.12 0.11 0.16 0.15 0.11
0.51 0.65 0.71 0.33 0.61 0.70 0.54 0.55 0.64 0.52 0.25 0.06 0.04 0.12 0.01 0.00 0.00 0.00 0.00 0.00 0.00 0.00 0.00 0.00 0.00 0.00 0.00 0.00 0.00 0.00 0.00 0.00 0.00 0.00 0.00 0.00 0.00 0.03 0.05 0.07 0.07 0.14 0.13 0.15
0.29 0.59 0.56 0.23 0.48 0.42 0.49 0.48 0.34 0.37 0.24 0.24 0.04 0.01 0.00 0.00 0.00 0.00 0.00 0.00 0.00 0.00 0.00 0.00 0.00 0.00 0.00 0.00 0.00 0.00 0.00 0.00 0.00 0.02 0.02 0.01 0.01 0.03 0.05 0.06 0.08 0.10 0.09 0.10
0.24 0.67 0.69 0.59 0.89 0.64 0.36 0.19 0.33 0.83 0.56 0.30 0.07 0.00 0.00 0.00 0.00 0.00 0.00 0.00 0.00 0.00 0.00 0.00 0.00 0.00 0.00 0.00 0.00 0.00 0.00 0.00 0.01 0.03 0.01 0.00 0.03 0.05 0.05 0.05 0.06 0.06 0.07 0.07
0.40 0.73 0.78 1.05 1.03 0.62 0.55 0.65 0.46 0.45 0.29 0.28 0.19 0.01 0.00 0.00 0.00 0.00 0.00 0.00 0.00 0.00 0.00 0.00 0.00 0.00 0.00 0.00 0.00 0.00 0.00 0.00 0.01 0.00 0.00 0.02 0.03 0.04 0.05 0.06 0.06 0.04 0.03 0.04
0.36 0.75 0.87 0.70 0.27 0.22 0.34 0.30 0.30 0.77 0.42 0.40 0.36 0.10 0.00 0.01 0.01 0.00 0.01 0.02 0.01 0.00 0.00 0.00 0.00 0.00 0.00 0.00 0.00 0.00 0.02 0.02 0.01 0.00 0.01 0.03 0.03 0.03 0.04 0.06 0.06 0.05 0.05 0.03
0.43 0.90 0.84 0.63 0.54 0.58 0.79 0.41 0.35 0.59 0.97 0.67 0.42 0.14 0.00 0.00 0.00 0.00 0.01 0.03 0.02 0.01 0.00 0.00 0.00 0.00 0.00 0.02 0.05 0.09 0.03 0.00 0.00 0.01 0.01 0.02 0.03 0.04 0.05 0.04 0.04 0.03 0.02 0.02
0.41 0.88 0.93 0.75 0.43 0.57 0.82 0.45 0.57 1.13 1.09 0.36 0.29 0.04 0.01 0.01 0.02 0.01 0.00 0.02 0.04 0.01 0.01 0.00 0.00 0.00 0.02 0.07 0.10 0.10 0.01 0.01 0.02 0.03 0.03 0.04 0.05 0.05 0.04 0.05 0.04 0.03 0.03 0.02
0.43 0.90 0.88 0.49 0.28 0.42 0.57 0.56 0.49 0.94 0.52 0.52 0.16 0.07 0.03 0.03 0.02 0.02 0.01 0.01 0.04 0.05 0.04 0.02 0.02 0.03 0.02 0.05 0.05 0.06 0.09 0.07 0.07 0.07 0.05 0.05 0.05 0.05 0.04 0.04 0.04 0.04 0.03 0.03
0.33 0.71 0.75 0.61 0.24 0.38 0.48 0.55 0.36 0.56 0.27 0.26 0.17 0.13 0.01 0.01 0.01 0.00 0.01 0.04 0.07 0.07 0.04 0.02 0.01 0.01 0.01 0.00 0.00 0.02 0.08 0.09 0.09 0.11 0.06 0.04 0.02 0.04 0.04 0.05 0.05 0.05 0.09 0.05
0.28 0.51 0.73 0.64 0.48 0.28 0.47 0.58 0.68 0.48 0.20 0.25 0.28 0.15 0.01 0.01 0.04 0.06 0.05 0.06 0.04 0.03 0.02 0.01 0.00 0.00 0.00 0.00 0.00 0.01 0.03 0.05 0.09 0.08 0.06 0.05 0.03 0.04 0.06 0.07 0.12 0.10 0.06 0.08
0.06 0.23 0.46 0.31 0.15 0.16 0.11 0.14 0.44 0.28 0.23 0.26 0.14 0.07 0.02 0.00 0.00 0.02 0.04 0.02 0.01 0.01 0.00 0.01 0.00 0.00 0.00 0.00 0.01 0.02 0.09 0.12 0.40 0.10 0.15 0.16 0.14 0.17 0.19 0.27 0.21 0.19 0.25 0.19
0.05 0.16 0.25 0.16 0.07 0.03 0.00 0.00 0.07 0.13 0.22 0.14 0.07 0.02 0.00 0.00 0.22 0.35 0.15 0.04 0.01 0.00 0.00 0.00 0.00 0.00 0.00 0.02 0.02 0.02 0.04 0.14 0.36 0.22 0.25 0.36 0.31 0.28 0.25 0.31 0.38 0.30 0.40 0.46
0.05 0.18 0.27 0.10 0.12 0.02 0.00 0.00 0.01 0.02 0.16 0.02 0.05 0.04 0.02 0.01 0.29 0.32 0.24 0.05 0.02 0.00 0.00 0.00 0.00 0.02 0.05 0.08 0.08 0.07 0.07 0.10 0.31 0.32 0.31 0.30 0.48 0.40 0.47 0.42 0.45 0.57 0.48 0.44
0.10 0.19 0.28 0.15 0.18 0.01 0.00 0.00 0.01 0.06 0.10 0.01 0.06 0.06 0.01 0.01 0.03 0.06 0.08 0.11 0.08 0.12 0.12 0.14 0.08 0.16 0.24 0.37 0.35 0.41 0.43 0.62 0.88 0.57 0.60 0.64 0.77 0.66 0.59 0.64 0.53 0.38 0.24 0.15
0.03 0.05 0.08 0.13 0.09 0.00 0.00 0.00 0.00 0.00 0.01 0.02 0.10 0.03 0.02 0.01 0.02 0.02 0.01 0.07 0.11 0.14 0.12 0.33 0.47 0.53 0.60 0.72 0.65 0.63 0.71 0.74 0.90 0.67 0.57 0.54 0.47 0.39 0.29 0.24 0.16 0.09 0.07 0.05
0.00 0.00 0.00 0.00 0.00 0.00 0.00 0.00 0.00 0.00 0.00 0.00 0.02 0.10 0.13 0.12 0.19 0.07 0.02 0.01 0.03 0.07 0.03 0.12 0.22 0.13 0.18 0.29 0.34 0.25 0.24 0.23 0.20 0.16 0.12 0.13 0.08 0.05 0.02 0.00 0.00 0.00 0.00 0.00
0.00 0.00 0.00 0.00 0.00 0.00 0.00 0.00 0.00 0.00 0.00 0.00 0.00 0.01 0.22 0.07 0.08 0.03 0.06 0.04 0.05 0.05 0.02 0.04 0.04 0.04 0.04 0.04 0.04 0.03 0.02 0.02 0.01 0.01 0.01 0.00 0.00 0.00 0.00 0.00 0.00 0.00 0.00 0.00
0.01 0.00 0.00 0.00 0.00 0.00 0.00 0.00 0.00 0.00 0.00 0.00 0.00 0.00 0.00 0.05 0.07 0.02 0.16 0.08 0.00 0.00 0.00 0.00 0.01 0.02 0.00 0.00 0.00 0.00 0.00 0.00 0.00 0.00 0.00 0.00 0.00 0.00 0.00 0.00 0.00 0.00 0.00 0.00
0.00 0.00 0.00 0.00 0.00 0.00 0.00 0.00 0.00 0.00 0.00 0.00 0.00 0.00 0.00 0.00 0.12 0.01 0.06 0.03 0.00 0.00 0.00 0.00 0.00 0.00 0.00 0.00 0.00 0.00 0.00 0.00 0.00 0.00 0.00 0.00 0.00 0.00 0.00 0.00 0.00 0.00 0.00 0.00

GFSCGP_prec_precacc_063.txt.gz
Total_Precipitation_Accumulation
1.17 1.70 0.75 0.34 0.14 0.02 0.01 0.02 0.02 0.00 0.00 0.00 0.00 0.00 0.00 0.00 0.00 0.00 0.00 0.00 0.00 0.00 0.00 0.00 0.00 0.00 0.00 0.00 0.00 0.00 0.00 0.00 0.04 0.07 0.04 0.09 0.18 0.29 0.28 0.32 0.27 0.19 0.11 0.12
1.22 1.44 0.58 0.27 0.20 0.12 0.03 0.04 0.02 0.01 0.00 0.01 0.00 0.00 0.00 0.00 0.00 0.00 0.00 0.00 0.00 0.00 0.00 0.00 0.00 0.00 0.00 0.00 0.00 0.00 0.00 0.00 0.00 0.00 0.01 0.04 0.25 0.28 0.46 0.55 0.29 0.26 0.21 0.32
0.85 0.80 0.63 0.50 0.52 0.31 0.14 0.04 0.03 0.01 0.01 0.01 0.01 0.00 0.00 0.00 0.00 0.00 0.00 0.00 0.00 0.00 0.00 0.00 0.00 0.00 0.00 0.00 0.00 0.00 0.00 0.00 0.00 0.00 0.05 0.14 0.27 0.26 0.28 0.21 0.09 0.11 0.21 0.48
0.69 0.61 0.56 0.66 0.68 0.41 0.32 0.05 0.02 0.04 0.06 0.03 0.03 0.03 0.00 0.00 0.00 0.00 0.00 0.00 0.00 0.00 0.00 0.00 0.00 0.00 0.00 0.00 0.00 0.00 0.00 0.00 0.00 0.00 0.01 0.02 0.04 0.11 0.12 0.21 0.20 0.17 0.17 0.39
0.75 0.55 0.32 0.43 0.42 0.36 0.20 0.11 0.03 0.07 0.18 0.11 0.05 0.08 0.01 0.00 0.00 0.00 0.00 0.00 0.00 0.00 0.00 0.00 0.00 0.00 0.00 0.00 0.00 0.00 0.00 0.00 0.00 0.00 0.00 0.00 0.02 0.08 0.14 0.17 0.17 0.25 0.25 0.34
0.39 0.43 0.40 0.26 0.15 0.24 0.13 0.19 0.24 0.22 0.34 0.54 0.07 0.06 0.02 0.00 0.00 0.00 0.00 0.00 0.00 0.00 0.00 0.00 0.00 0.00 0.00 0.00 0.00 0.00 0.00 0.00 0.00 0.00 0.00 0.00 0.01 0.06 0.14 0.13 0.16 0.23 0.25 0.23
0.71 0.76 0.61 0.28 0.36 0.44 0.42 0.61 0.95 0.83 0.60 0.36 0.10 0.05 0.05 0.00 0.00 0.00 0.00 0.00 0.00 0.00 0.00 0.00 0.00 0.00 0.00 0.00 0.00 0.00 0.00 0.00 0.00 0.00 0.00 0.00 0.00 0.03 0.10 0.12 0.11 0.16 0.16 0.13
0.55 0.69 0.72 0.34 0.61 0.70 0.54 0.55 0.64 0.52 0.25 0.06 0.04 0.12 0.01 0.00 0.00 0.00 0.00 0.00 0.00 0.00 0.00 0.00 0.00 0.00 0.00 0.00 0.00 0.00 0.00 0.00 0.00 0.00 0.00 0.00 0.00 0.03 0.05 0.07 0.07 0.14 0.13 0.16
0.29 0.59 0.56 0.23 0.48 0.42 0.49 0.48 0.34 0.37 0.24 0.24 0.04 0.01 0.00 0.00 0.00 0.00 0.00 0.00 0.00 0.00 0.00 0.00 0.00 0.00 0.00 0.00 0.00 0.00 0.00 0.00 0.00 0.02 0.02 0.01 0.01 0.03 0.05 0.06 0.08 0.10 0.09 0.10
0.24 0.67 0.69 0.59 0.89 0.64 0.36 0.19 0.33 0.83 0.56 0.30 0.07 0.00 0.00 0.00 0.00 0.00 0.00 0.00 0.00 0.00 0.00 0.00 0.00 0.00 0.00 0.00 0.00 0.00 0.00 0.00 0.01 0.03 0.01 0.00 0.03 0.05 0.05 0.05 0.06 0.06 0.07 0.07
0.40 0.73 0.78 1.05 1.03 0.62 0.55 0.65 0.46 0.45 0.29 0.28 0.19 0.01 0.00 0.00 0.00 0.00 0.00 0.00 0.00 0.00 0.00 0.00 0.00 0.00 0.00 0.00 0.00 0.00 0.00 0.00 0.01 0.00 0.00 0.02 0.03 0.04 0.05 0.06 0.06 0.04 0.03 0.04
0.36 0.75 0.87 0.70 0.27 0.22 0.34 0.30 0.30 0.77 0.42 0.40 0.36 0.10 0.00 0.01 0.01 0.00 0.01 0.02 0.01 0.00 0.00 0.00 0.00 0.00 0.00 0.00 0.00 0.00 0.02 0.02 0.01 0.00 0.01 0.03 0.03 0.03 0.04 0.06 0.06 0.05 0.05 0.03
0.43 0.90 0.84 0.63 0.54 0.58 0.79 0.41 0.35 0.59 0.97 0.67 0.42 0.14 0.00 0.00 0.00 0.00 0.01 0.03 0.02 0.01 0.00 0.00 0.00 0.00 0.00 0.02 0.05 0.09 0.03 0.00 0.00 0.01 0.01 0.02 0.03 0.04 0.05 0.04 0.04 0.03 0.02 0.02
0.41 0.88 0.93 0.75 0.43 0.57 0.82 0.45 0.57 1.13 1.09 0.36 0.29 0.04 0.01 0.01 0.02 0.01 0.00 0.02 0.04 0.01 0.01 0.00 0.00 0.00 0.02 0.07 0.10 0.10 0.01 0.01 0.02 0.03 0.03 0.04 0.05 0.05 0.04 0.05 0.05 0.03 0.03 0.02
0.43 0.90 0.88 0.49 0.28 0.42 0.57 0.56 0.49 0.94 0.52 0.52 0.16 0.07 0.03 0.03 0.02 0.02 0.01 0.01 0.04 0.05 0.04 0.02 0.02 0.03 0.02 0.05 0.05 0.06 0.09 0.07 0.07 0.07 0.05 0.05 0.05 0.05 0.04 0.04 0.05 0.05 0.04 0.04
0.33 0.71 0.75 0.61 0.24 0.38 0.48 0.55 0.36 0.56 0.27 0.26 0.17 0.13 0.01 0.01 0.01 0.00 0.01 0.04 0.07 0.07 0.04 0.02 0.01 0.01 0.01 0.00 0.00 0.02 0.08 0.09 0.09 0.11 0.06 0.04 0.02 0.05 0.05 0.06 0.06 0.06 0.14 0.12
0.28 0.51 0.73 0.64 0.48 0.28 0.47 0.58 0.68 0.48 0.20 0.25 0.28 0.15 0.01 0.01 0.04 0.06 0.05 0.06 0.04 0.03 0.02 0.01 0.00 0.00 0.00 0.00 0.00 0.01 0.03 0.05 0.09 0.08 0.06 0.05 0.03 0.04 0.07 0.09 0.16 0.20 0.21 0.46
0.06 0.23 0.46 0.31 0.15 0.16 0.11 0.14 0.44 0.28 0.23 0.26 0.14 0.07 0.02 0.00 0.00 0.02 0.04 0.02 0.01 0.01 0.00 0.01 0.00 0.00 0.00 0.00 0.01 0.02 0.09 0.12 0.40 0.10 0.15 0.16 0.14 0.17 0.20 0.33 0.42 0.42 0.35 0.27
0.05 0.16 0.25 0.16 0.07 0.03 0.00 0.00 0.07 0.13 0.22 0.14 0.07 0.02 0.00 0.00 0.22 0.35 0.15 0.04 0.01 0.00 0.00 0.00 0.00 0.00 0.00 0.02 0.02 0.02 0.04 0.14 0.36 0.22 0.25 0.36 0.31 0.28 0.26 0.40 0.48 0.33 0.46 0.56
0.05 0.18 0.27 0.10 0.12 0.02 0.00 0.00 0.01 0.02 0.16 0.02 0.05 0.04 0.02 0.01 0.29 0.32 0.24 0.05 0.02 0.00 0.00 0.00 0.00 0.02 0.05 0.08 0.08 0.07 0.07 0.10 0.31 0.32 0.31 0.30 0.48 0.40 0.48 0.44 0.49 0.71 0.56 0.52
0.10 0.19 0.28 0.15 0.18 0.01 0.00 0.00 0.01 0.07 0.10 0.01 0.06 0.06 0.01 0.01 0.03 0.06 0.08 0.11 0.08 0.12 0.12 0.14 0.08 0.16 0.24 0.37 0.35 0.41 0.43 0.62 0.88 0.57 0.60 0.64 0.78 0.67 0.60 0.65 0.56 0.48 0.34 0.24
0.03 0.05 0.08 0.13 0.09 0.00 0.00 0.00 0.00 0.00 0.01 0.02 0.10 0.03 0.02 0.01 0.02 0.02 0.01 0.07 0.11 0.14 0.12 0.33 0.48 0.53 0.60 0.72 0.65 0.63 0.71 0.75 0.91 0.67 0.59 0.57 0.49 0.43 0.34 0.27 0.18 0.10 0.09 0.05
0.00 0.00 0.00 0.00 0.00 0.00 0.00 0.00 0.00 0.00 0.00 0.00 0.02 0.10 0.13 0.12 0.19 0.07 0.02 0.01 0.03 0.07 0.03 0.12 0.22 0.13 0.18 0.29 0.34 0.25 0.24 0.23 0.20 0.16 0.13 0.13 0.08 0.05 0.03 0.00 0.00 0.00 0.00 0.00
0.00 0.00 0.00 0.00 0.00 0.00 0.00 0.00 0.00 0.00 0.00 0.00 0.00 0.01 0.22 0.07 0.08 0.03 0.06 0.04 0.05 0.05 0.02 0.04 0.04 0.04 0.04 0.04 0.04 0.03 0.02 0.02 0.01 0.01 0.01 0.00 0.00 0.00 0.00 0.00 0.00 0.00 0.00 0.00
0.01 0.00 0.00 0.00 0.00 0.00 0.00 0.00 0.00 0.00 0.00 0.00 0.00 0.00 0.00 0.05 0.07 0.02 0.16 0.08 0.00 0.00 0.00 0.00 0.01 0.02 0.00 0.00 0.00 0.00 0.00 0.00 0.00 0.00 0.00 0.00 0.00 0.00 0.00 0.00 0.00 0.00 0.00 0.00
0.00 0.00 0.00 0.00 0.00 0.00 0.00 0.00 0.00 0.00 0.00 0.00 0.00 0.00 0.00 0.00 0.12 0.01 0.06 0.03 0.00 0.00 0.00 0.00 0.00 0.00 0.00 0.00 0.00 0.00 0.00 0.00 0.00 0.00 0.00 0.00 0.00 0.00 0.00 0.00 0.00 0.00 0.00 0.00

GFSCGP_prec_precacc_066.txt.gz
Total_Precipitation_Accumulation
1.22 1.80 1.04 0.43 0.15 0.02 0.01 0.02 0.02 0.00 0.00 0.00 0.00 0.00 0.00 0.00 0.00 0.00 0.00 0.00 0.00 0.00 0.00 0.00 0.00 0.00 0.00 0.00 0.00 0.00 0.00 0.00 0.04 0.07 0.04 0.09 0.18 0.29 0.29 0.33 0.29 0.23 0.13 0.12
1.28 1.50 0.62 0.29 0.23 0.12 0.03 0.04 0.02 0.01 0.00 0.01 0.00 0.00 0.00 0.00 0.00 0.00 0.00 0.00 0.00 0.00 0.00 0.00 0.00 0.00 0.00 0.00 0.00 0.00 0.00 0.00 0.00 0.00 0.01 0.04 0.25 0.28 0.47 0.57 0.31 0.27 0.22 0.32
0.94 0.85 0.70 0.62 0.57 0.33 0.14 0.04 0.03 0.01 0.01 0.01 0.01 0.00 0.00 0.00 0.00 0.00 0.00 0.00 0.00 0.00 0.00 0.00 0.00 0.00 0.00 0.00 0.00 0.00 0.00 0.00 0.00 0.00 0.05 0.14 0.27 0.26 0.29 0.22 0.09 0.11 0.21 0.48
0.87 0.76 0.75 0.93 0.78 0.44 0.35 0.05 0.02 0.04 0.06 0.03 0.03 0.03 0.00 0.00 0.00 0.00 0.00 0.00 0.00 0.00 0.00 0.00 0.00 0.00 0.00 0.00 0.00 0.00 0.00 0.00 0.00 0.00 0.01 0.02 0.04 0.11 0.12 0.21 0.20 0.17 0.18 0.40
0.98 0.75 0.51 0.72 0.56 0.41 0.26 0.12 0.03 0.07 0.18 0.11 0.05 0.08 0.01 0.00 0.00 0.00 0.00 0.00 0.00 0.00 0.00 0.00 0.00 0.00 0.00 0.00 0.00 0.00 0.00 0.00 0.00 0.00 0.00 0.00 0.02 0.08 0.14 0.17 0.17 0.25 0.25 0.35
0.50 0.54 0.55 0.34 0.33 0.34 0.20 0.22 0.25 0.22 0.34 0.54 0.07 0.06 0.02 0.00 0.00 0.00 0.00 0.00 0.00 0.00 0.00 0.00 0.00 0.00 0.00 0.00 0.00 0.00 0.00 0.00 0.00 0.00 0.00 0.00 0.01 0.06 0.14 0.13 0.16 0.23 0.25 0.23
0.88 0.90 0.70 0.48 0.53 0.56 0.47 0.63 0.97 0.83 0.60 0.36 0.10 0.05 0.05 0.00 0.00 0.00 0.00 0.00 0.00 0.00 0.00 0.00 0.00 0.00 0.00 0.00 0.00 0.00 0.00 0.00 0.00 0.00 0.00 0.00 0.00 0.03 0.10 0.12 0.12 0.16 0.16 0.13
0.70 0.82 0.83 0.47 0.63 0.72 0.54 0.55 0.64 0.52 0.25 0.06 0.04 0.12 0.01 0.00 0.00 0.00 0.00 0.00 0.00 0.00 0.00 0.00 0.00 0.00 0.00 0.00 0.00 0.00 0.00 0.00 0.00 0.00 0.00 0.00 0.00 0.03 0.05 0.07 0.07 0.14 0.13 0.16
0.34 0.63 0.60 0.26 0.49 0.42 0.49 0.48 0.34 0.37 0.24 0.24 0.04 0.01 0.00 0.00 0.00 0.00 0.00 0.00 0.00 0.00 0.00 0.00 0.00 0.00 0.00 0.00 0.00 0.00 0.00 0.00 0.00 0.02 0.02 0.01 0.01 0.03 0.05 0.06 0.08 0.10 0.09 0.10
0.25 0.68 0.70 0.59 0.89 0.64 0.36 0.19 0.33 0.83 0.56 0.30 0.07 0.00 0.00 0.00 0.00 0.00 0.00 0.00 0.00 0.00 0.00 0.00 0.00 0.00 0.00 0.00 0.00 0.00 0.00 0.00 0.01 0.03 0.01 0.00 0.03 0.05 0.05 0.05 0.06 0.06 0.07 0.07
0.40 0.73 0.79 1.05 1.03 0.62 0.55 0.65 0.46 0.45 0.29 0.28 0.19 0.01 0.00 0.00 0.00 0.00 0.00 0.00 0.00 0.00 0.00 0.00 0.00 0.00 0.00 0.00 0.00 0.00 0.00 0.00 0.01 0.00 0.00 0.02 0.03 0.04 0.05 0.06 0.06 0.04 0.03 0.04
0.36 0.75 0.87 0.70 0.27 0.22 0.34 0.30 0.30 0.77 0.42 0.40 0.36 0.10 0.00 0.01 0.01 0.00 0.01 0.02 0.01 0.00 0.00 0.00 0.00 0.00 0.00 0.00 0.00 0.00 0.02 0.02 0.01 0.00 0.01 0.03 0.03 0.03 0.04 0.06 0.06 0.05 0.05 0.03
0.43 0.90 0.84 0.63 0.54 0.58 0.79 0.41 0.35 0.59 0.97 0.67 0.42 0.14 0.00 0.00 0.00 0.00 0.01 0.03 0.02 0.01 0.00 0.00 0.00 0.00 0.00 0.02 0.05 0.09 0.03 0.00 0.00 0.01 0.01 0.02 0.03 0.04 0.05 0.04 0.04 0.03 0.02 0.02
0.41 0.88 0.93 0.75 0.43 0.57 0.82 0.45 0.57 1.13 1.09 0.36 0.29 0.04 0.01 0.01 0.02 0.01 0.00 0.02 0.04 0.01 0.01 0.00 0.00 0.00 0.02 0.07 0.10 0.10 0.01 0.01 0.02 0.03 0.03 0.04 0.05 0.05 0.04 0.05 0.05 0.03 0.03 0.02
0.43 0.90 0.88 0.49 0.28 0.42 0.57 0.56 0.49 0.94 0.52 0.52 0.16 0.07 0.03 0.03 0.02 0.02 0.01 0.01 0.04 0.05 0.04 0.02 0.02 0.03 0.02 0.05 0.05 0.06 0.09 0.07 0.07 0.07 0.05 0.05 0.05 0.05 0.04 0.04 0.05 0.05 0.04 0.04
0.33 0.71 0.75 0.61 0.24 0.38 0.48 0.55 0.36 0.56 0.27 0.26 0.17 0.13 0.01 0.01 0.01 0.00 0.01 0.04 0.07 0.07 0.04 0.02 0.01 0.01 0.01 0.00 0.00 0.02 0.08 0.09 0.09 0.11 0.06 0.04 0.02 0.05 0.05 0.06 0.06 0.07 0.14 0.12
0.28 0.51 0.73 0.64 0.48 0.28 0.47 0.58 0.68 0.48 0.20 0.25 0.28 0.15 0.01 0.01 0.04 0.06 0.05 0.06 0.04 0.03 0.02 0.01 0.00 0.00 0.00 0.00 0.00 0.01 0.03 0.05 0.09 0.08 0.06 0.05 0.03 0.04 0.07 0.09 0.16 0.21 0.27 0.56
0.06 0.23 0.46 0.31 0.15 0.16 0.11 0.14 0.44 0.28 0.23 0.26 0.14 0.07 0.02 0.00 0.00 0.02 0.04 0.02 0.01 0.01 0.00 0.01 0.00 0.00 0.00 0.00 0.01 0.02 0.09 0.12 0.40 0.10 0.15 0.16 0.14 0.17 0.20 0.33 0.45 0.48 0.47 0.47
0.05 0.16 0.25 0.16 0.07 0.03 0.00 0.00 0.07 0.13 0.22 0.14 0.07 0.02 0.00 0.00 0.22 0.35 0.15 0.04 0.01 0.00 0.00 0.00 0.00 0.00 0.00 0.02 0.02 0.02 0.04 0.14 0.36 0.22 0.25 0.36 0.31 0.28 0.26 0.40 0.50 0.37 0.51 0.67
0.05 0.18 0.27 0.10 0.12 0.02 0.00 0.00 0.01 0.02 0.17 0.02 0.05 0.04 0.02 0.01 0.29 0.32 0.24 0.05 0.02 0.00 0.00 0.00 0.00 0.02 0.05 0.08 0.08 0.07 0.07 0.10 0.31 0.33 0.31 0.30 0.48 0.40 0.48 0.44 0.49 0.75 0.60 0.54
0.10 0.19 0.28 0.15 0.18 0.01 0.00 0.00 0.01 0.08 0.12 0.01 0.06 0.06 0.01 0.01 0.03 0.06 0.08 0.11 0.08 0.12 0.12 0.14 0.08 0.16 0.24 0.37 0.35 0.41 0.43 0.62 0.88 0.57 0.60 0.64 0.78 0.67 0.61 0.66 0.57 0.50 0.37 0.26
0.03 0.05 0.09 0.13 0.10 0.00 0.00 0.00 0.00 0.00 0.01 0.02 0.10 0.03 0.02 0.01 0.02 0.02 0.01 0.07 0.11 0.14 0.12 0.33 0.48 0.53 0.60 0.72 0.65 0.63 0.71 0.75 0.91 0.67 0.59 0.57 0.49 0.44 0.35 0.27 0.18 0.10 0.09 0.05
0.00 0.00 0.00 0.00 0.00 0.00 0.00 0.00 0.00 0.00 0.00 0.00 0.02 0.10 0.13 0.12 0.19 0.07 0.02 0.01 0.03 0.07 0.03 0.12 0.22 0.13 0.18 0.29 0.34 0.25 0.24 0.23 0.20 0.16 0.13 0.13 0.08 0.05 0.03 0.00 0.00 0.00 0.00 0.00
0.00 0.00 0.00 0.00 0.00 0.00 0.00 0.00 0.00 0.00 0.00 0.00 0.00 0.01 0.22 0.07 0.08 0.03 0.06 0.04 0.05 0.05 0.02 0.04 0.04 0.04 0.04 0.05 0.04 0.03 0.02 0.02 0.01 0.01 0.01 0.00 0.00 0.00 0.00 0.00 0.00 0.00 0.00 0.00
0.01 0.00 0.00 0.00 0.00 0.00 0.00 0.00 0.00 0.00 0.00 0.00 0.00 0.00 0.00 0.05 0.07 0.02 0.16 0.08 0.00 0.00 0.00 0.00 0.01 0.02 0.00 0.00 0.00 0.00 0.00 0.00 0.00 0.00 0.00 0.00 0.00 0.00 0.00 0.00 0.00 0.00 0.00 0.00
0.00 0.00 0.00 0.00 0.00 0.00 0.00 0.00 0.00 0.00 0.01 0.00 0.00 0.00 0.00 0.00 0.12 0.01 0.06 0.03 0.00 0.00 0.00 0.00 0.00 0.00 0.00 0.00 0.00 0.00 0.00 0.00 0.00 0.00 0.00 0.00 0.00 0.00 0.00 0.00 0.00 0.00 0.00 0.00

GFSCGP_prec_precacc_069.txt.gz
Total_Precipitation_Accumulation
1.39 1.85 1.17 0.50 0.16 0.02 0.01 0.02 0.02 0.00 0.00 0.00 0.00 0.00 0.00 0.00 0.00 0.00 0.00 0.00 0.00 0.00 0.00 0.00 0.00 0.00 0.00 0.00 0.00 0.00 0.00 0.00 0.04 0.07 0.05 0.10 0.22 0.34 0.29 0.33 0.30 0.23 0.13 0.13
1.31 1.51 0.64 0.37 0.25 0.14 0.03 0.04 0.02 0.01 0.00 0.01 0.00 0.00 0.00 0.00 0.00 0.00 0.00 0.00 0.00 0.00 0.00 0.00 0.00 0.00 0.00 0.00 0.00 0.00 0.00 0.00 0.00 0.00 0.01 0.04 0.27 0.29 0.47 0.59 0.31 0.27 0.22 0.32
0.94 0.86 0.71 0.76 0.71 0.40 0.15 0.04 0.03 0.01 0.01 0.01 0.01 0.00 0.00 0.00 0.00 0.00 0.00 0.00 0.00 0.00 0.00 0.00 0.00 0.00 0.00 0.00 0.00 0.00 0.00 0.00 0.00 0.00 0.05 0.14 0.27 0.26 0.29 0.22 0.09 0.11 0.21 0.49
0.90 0.77 0.76 0.98 1.01 0.54 0.37 0.05 0.02 0.04 0.06 0.03 0.03 0.03 0.00 0.00 0.00 0.00 0.00 0.00 0.00 0.00 0.00 0.00 0.00 0.00 0.00 0.00 0.00 0.00 0.00 0.00 0.00 0.00 0.01 0.02 0.04 0.11 0.12 0.21 0.20 0.17 0.18 0.41
0.99 0.77 0.53 0.75 0.70 0.56 0.28 0.12 0.03 0.07 0.18 0.11 0.05 0.08 0.01 0.00 0.00 0.00 0.00 0.00 0.00 0.00 0.00 0.00 0.00 0.00 0.00 0.00 0.00 0.00 0.00 0.00 0.00 0.00 0.00 0.00 0.02 0.08 0.14 0.17 0.17 0.25 0.26 0.36
0.55 0.61 0.67 0.41 0.42 0.51 0.23 0.23 0.25 0.22 0.34 0.54 0.07 0.06 0.02 0.00 0.00 0.00 0.00 0.00 0.00 0.00 0.00 0.00 0.00 0.00 0.00 0.00 0.00 0.00 0.00 0.00 0.00 0.00 0.00 0.00 0.01 0.06 0.14 0.13 0.16 0.23 0.25 0.24
1.02 0.99 0.81 0.60 0.73 0.75 0.54 0.71 1.03 0.86 0.60 0.36 0.10 0.05 0.05 0.00 0.00 0.00 0.00 0.00 0.00 0.00 0.00 0.00 0.00 0.00 0.00 0.00 0.00 0.00 0.00 0.00 0.00 0.00 0.00 0.00 0.00 0.03 0.10 0.12 0.12 0.16 0.16 0.13
0.87 1.02 0.97 0.66 0.74 0.85 0.61 0.66 0.71 0.53 0.25 0.06 0.04 0.12 0.01 0.00 0.00 0.00 0.00 0.00 0.00 0.00 0.00 0.00 0.00 0.00 0.00 0.00 0.00 0.00 0.00 0.00 0.00 0.00 0.00 0.00 0.00 0.03 0.05 0.07 0.07 0.14 0.13 0.16
0.41 0.71 0.69 0.38 0.54 0.46 0.53 0.50 0.34 0.37 0.24 0.24 0.04 0.01 0.00 0.00 0.00 0.00 0.00 0.00 0.00 0.00 0.00 0.00 0.00 0.00 0.00 0.00 0.00 0.00 0.00 0.00 0.00 0.02 0.02 0.01 0.01 0.03 0.05 0.06 0.08 0.10 0.09 0.10
0.25 0.72 0.75 0.62 0.93 0.65 0.37 0.20 0.33 0.83 0.56 0.30 0.07 0.00 0.00 0.00 0.00 0.00 0.00 0.00 0.00 0.00 0.00 0.00 0.00 0.00 0.00 0.00 0.00 0.00 0.00 0.00 0.01 0.03 0.01 0.00 0.03 0.05 0.05 0.05 0.06 0.06 0.07 0.07
0.40 0.74 0.79 1.06 1.05 0.63 0.55 0.65 0.46 0.45 0.29 0.28 0.19 0.01 0.00 0.00 0.00 0.00 0.00 0.00 0.00 0.00 0.00 0.00 0.00 0.00 0.00 0.00 0.00 0.00 0.00 0.00 0.01 0.00 0.00 0.02 0.03 0.04 0.05 0.06 0.06 0.04 0.03 0.04
0.36 0.75 0.88 0.70 0.27 0.22 0.34 0.30 0.30 0.77 0.42 0.40 0.36 0.10 0.00 0.01 0.01 0.00 0.01 0.02 0.01 0.00 0.00 0.00 0.00 0.00 0.00 0.00 0.00 0.00 0.02 0.02 0.01 0.00 0.01 0.03 0.03 0.03 0.04 0.06 0.06 0.05 0.05 0.03
0.43 0.90 0.84 0.63 0.54 0.58 0.79 0.41 0.35 0.59 0.97 0.67 0.42 0.14 0.00 0.00 0.00 0.00 0.01 0.03 0.02 0.01 0.00 0.00 0.00 0.00 0.00 0.02 0.05 0.09 0.03 0.00 0.00 0.01 0.01 0.02 0.03 0.04 0.05 0.04 0.04 0.03 0.02 0.02
0.41 0.88 0.93 0.75 0.43 0.57 0.82 0.45 0.57 1.13 1.09 0.36 0.29 0.04 0.01 0.01 0.02 0.01 0.00 0.02 0.04 0.01 0.01 0.00 0.00 0.00 0.02 0.07 0.10 0.10 0.01 0.01 0.02 0.03 0.03 0.04 0.05 0.05 0.04 0.05 0.05 0.03 0.03 0.02
0.43 0.90 0.88 0.49 0.28 0.42 0.57 0.56 0.49 0.94 0.52 0.52 0.16 0.07 0.03 0.03 0.02 0.02 0.01 0.01 0.04 0.05 0.04 0.02 0.02 0.03 0.02 0.05 0.05 0.06 0.09 0.07 0.07 0.07 0.05 0.05 0.05 0.05 0.04 0.04 0.05 0.05 0.04 0.04
0.33 0.71 0.75 0.61 0.24 0.38 0.48 0.55 0.36 0.56 0.27 0.26 0.17 0.13 0.01 0.01 0.01 0.00 0.01 0.04 0.07 0.07 0.04 0.02 0.01 0.01 0.01 0.00 0.00 0.02 0.08 0.09 0.09 0.11 0.06 0.04 0.02 0.05 0.05 0.06 0.06 0.07 0.14 0.12
0.28 0.51 0.73 0.64 0.48 0.28 0.47 0.58 0.68 0.48 0.20 0.25 0.28 0.15 0.01 0.01 0.04 0.06 0.05 0.06 0.04 0.03 0.02 0.01 0.00 0.00 0.00 0.00 0.00 0.01 0.03 0.05 0.09 0.08 0.06 0.05 0.03 0.04 0.07 0.09 0.16 0.21 0.27 0.56
0.06 0.23 0.46 0.31 0.15 0.16 0.11 0.14 0.44 0.28 0.23 0.26 0.14 0.07 0.02 0.00 0.00 0.02 0.04 0.02 0.01 0.01 0.00 0.01 0.00 0.00 0.00 0.00 0.01 0.02 0.09 0.12 0.40 0.10 0.15 0.16 0.14 0.17 0.20 0.33 0.45 0.48 0.47 0.48
0.05 0.16 0.25 0.16 0.07 0.03 0.00 0.00 0.07 0.13 0.22 0.14 0.07 0.02 0.00 0.00 0.22 0.35 0.15 0.04 0.01 0.00 0.00 0.00 0.00 0.00 0.00 0.02 0.02 0.02 0.04 0.14 0.36 0.22 0.25 0.36 0.31 0.28 0.26 0.40 0.50 0.37 0.51 0.67
0.05 0.18 0.27 0.10 0.12 0.02 0.00 0.00 0.01 0.02 0.18 0.02 0.05 0.04 0.02 0.01 0.29 0.32 0.24 0.05 0.02 0.00 0.00 0.00 0.00 0.02 0.05 0.08 0.08 0.07 0.07 0.10 0.31 0.33 0.31 0.30 0.48 0.40 0.48 0.44 0.49 0.75 0.60 0.54
0.11 0.19 0.28 0.15 0.18 0.01 0.00 0.00 0.01 0.08 0.13 0.01 0.06 0.06 0.01 0.01 0.03 0.06 0.08 0.11 0.08 0.12 0.12 0.14 0.08 0.16 0.24 0.37 0.35 0.41 0.43 0.62 0.88 0.57 0.60 0.64 0.78 0.67 0.61 0.66 0.57 0.50 0.37 0.26
0.03 0.05 0.09 0.13 0.10 0.00 0.00 0.00 0.00 0.01 0.01 0.02 0.10 0.03 0.02 0.01 0.02 0.02 0.01 0.07 0.11 0.14 0.12 0.33 0.48 0.53 0.60 0.72 0.65 0.63 0.71 0.75 0.91 0.67 0.59 0.57 0.49 0.44 0.35 0.27 0.18 0.10 0.09 0.05
0.00 0.00 0.00 0.00 0.00 0.00 0.00 0.00 0.00 0.00 0.00 0.00 0.02 0.10 0.13 0.12 0.19 0.07 0.02 0.01 0.03 0.07 0.03 0.12 0.22 0.13 0.18 0.29 0.34 0.25 0.24 0.23 0.20 0.16 0.13 0.13 0.08 0.05 0.03 0.00 0.00 0.00 0.00 0.00
0.00 0.00 0.00 0.00 0.00 0.00 0.00 0.00 0.00 0.00 0.00 0.00 0.00 0.01 0.22 0.07 0.08 0.03 0.06 0.04 0.05 0.05 0.02 0.04 0.04 0.04 0.04 0.05 0.04 0.03 0.02 0.02 0.01 0.01 0.01 0.00 0.00 0.00 0.00 0.00 0.00 0.00 0.00 0.00
0.01 0.00 0.00 0.00 0.00 0.00 0.00 0.00 0.00 0.00 0.00 0.00 0.00 0.00 0.00 0.05 0.07 0.02 0.16 0.08 0.00 0.00 0.00 0.00 0.01 0.02 0.00 0.00 0.00 0.00 0.00 0.00 0.00 0.00 0.00 0.00 0.00 0.00 0.00 0.00 0.00 0.00 0.00 0.00
0.00 0.00 0.00 0.00 0.00 0.00 0.00 0.00 0.00 0.00 0.01 0.00 0.00 0.00 0.00 0.00 0.12 0.01 0.06 0.03 0.00 0.00 0.00 0.00 0.00 0.00 0.00 0.00 0.00 0.00 0.00 0.00 0.00 0.00 0.00 0.00 0.00 0.00 0.00 0.00 0.00 0.00 0.00 0.00

GFSCGP_prec_precacc_072.txt.gz
Total_Precipitation_Accumulation
1.47 2.10 1.28 0.50 0.16 0.03 0.02 0.02 0.02 0.00 0.00 0.00 0.00 0.00 0.00 0.00 0.00 0.00 0.00 0.00 0.00 0.00 0.00 0.00 0.00 0.00 0.00 0.00 0.00 0.00 0.00 0.00 0.04 0.07 0.05 0.11 0.23 0.36 0.29 0.34 0.30 0.24 0.13 0.13
1.53 1.60 0.66 0.38 0.26 0.15 0.04 0.05 0.02 0.01 0.00 0.01 0.00 0.00 0.00 0.00 0.00 0.00 0.00 0.00 0.00 0.00 0.00 0.00 0.00 0.00 0.00 0.00 0.00 0.00 0.00 0.00 0.00 0.00 0.02 0.05 0.27 0.29 0.48 0.61 0.31 0.27 0.23 0.35
1.03 0.88 0.72 0.77 0.72 0.41 0.16 0.04 0.03 0.01 0.01 0.01 0.01 0.00 0.00 0.00 0.00 0.00 0.00 0.00 0.00 0.00 0.00 0.00 0.00 0.00 0.00 0.00 0.00 0.00 0.00 0.00 0.00 0.00 0.05 0.14 0.27 0.26 0.29 0.22 0.09 0.14 0.25 0.52
0.95 0.78 0.77 1.00 1.08 0.59 0.39 0.05 0.02 0.04 0.06 0.03 0.03 0.03 0.00 0.00 0.00 0.00 0.00 0.00 0.00 0.00 0.00 0.00 0.00 0.00 0.00 0.00 0.00 0.00 0.00 0.00 0.00 0.00 0.01 0.02 0.04 0.11 0.12 0.21 0.20 0.17 0.19 0.47
1.07 0.79 0.54 0.76 0.72 0.68 0.42 0.13 0.03 0.09 0.18 0.11 0.05 0.08 0.01 0.00 0.00 0.00 0.00 0.00 0.00 0.00 0.00 0.00 0.00 0.00 0.00 0.00 0.00 0.00 0.00 0.00 0.00 0.00 0.00 0.00 0.02 0.08 0.14 0.17 0.17 0.25 0.26 0.36
0.55 0.63 0.67 0.41 0.42 0.67 0.42 0.31 0.28 0.24 0.36 0.56 0.07 0.06 0.02 0.00 0.00 0.00 0.00 0.00 0.00 0.00 0.00 0.00 0.00 0.00 0.00 0.00 0.00 0.00 0.00 0.00 0.00 0.00 0.00 0.00 0.01 0.06 0.14 0.13 0.16 0.23 0.25 0.24
1.03 0.99 0.81 0.60 0.74 0.85 0.82 0.86 1.10 0.92 0.62 0.37 0.10 0.05 0.05 0.00 0.00 0.00 0.00 0.00 0.00 0.00 0.00 0.00 0.00 0.00 0.00 0.00 0.00 0.00 0.00 0.00 0.00 0.00 0.00 0.00 0.00 0.03 0.10 0.12 0.12 0.16 0.16 0.13
0.88 1.05 1.00 0.70 0.77 0.90 0.73 0.75 0.80 0.56 0.26 0.06 0.04 0.12 0.01 0.00 0.00 0.00 0.00 0.00 0.00 0.00 0.00 0.00 0.00 0.00 0.00 0.00 0.00 0.00 0.00 0.00 0.00 0.00 0.00 0.00 0.00 0.03 0.05 0.07 0.07 0.14 0.13 0.16
0.44 0.76 0.74 0.45 0.60 0.55 0.67 0.56 0.41 0.37 0.24 0.24 0.04 0.01 0.00 0.00 0.00 0.00 0.00 0.00 0.00 0.00 0.00 0.00 0.00 0.00 0.00 0.00 0.00 0.00 0.00 0.00 0.00 0.02 0.02 0.01 0.01 0.03 0.05 0.06 0.08 0.10 0.09 0.10
0.25 0.75 0.81 0.69 0.99 0.70 0.46 0.24 0.36 0.86 0.56 0.30 0.07 0.00 0.00 0.00 0.00 0.00 0.00 0.00 0.00 0.00 0.00 0.00 0.00 0.00 0.00 0.00 0.00 0.00 0.00 0.00 0.01 0.03 0.01 0.00 0.03 0.05 0.05 0.05 0.06 0.06 0.07 0.07
0.40 0.74 0.83 1.10 1.09 0.65 0.58 0.70 0.46 0.45 0.29 0.28 0.19 0.01 0.00 0.00 0.00 0.00 0.00 0.00 0.00 0.00 0.00 0.00 0.00 0.00 0.00 0.00 0.00 0.00 0.00 0.00 0.01 0.00 0.00 0.02 0.03 0.04 0.05 0.06 0.06 0.04 0.03 0.04
0.36 0.75 0.88 0.71 0.27 0.22 0.34 0.31 0.30 0.77 0.42 0.40 0.36 0.10 0.00 0.01 0.01 0.00 0.01 0.02 0.01 0.00 0.00 0.00 0.00 0.00 0.00 0.00 0.00 0.00 0.02 0.02 0.01 0.00 0.01 0.03 0.03 0.03 0.04 0.06 0.06 0.05 0.05 0.03
0.43 0.90 0.84 0.63 0.54 0.58 0.79 0.41 0.35 0.59 0.97 0.67 0.42 0.14 0.00 0.00 0.00 0.00 0.01 0.03 0.02 0.01 0.00 0.00 0.00 0.00 0.00 0.02 0.05 0.09 0.03 0.00 0.00 0.01 0.01 0.02 0.03 0.04 0.05 0.04 0.04 0.03 0.02 0.02
0.41 0.88 0.93 0.75 0.43 0.57 0.82 0.45 0.57 1.13 1.09 0.36 0.29 0.04 0.01 0.01 0.02 0.01 0.00 0.02 0.04 0.01 0.01 0.00 0.00 0.00 0.02 0.07 0.10 0.10 0.01 0.01 0.02 0.03 0.03 0.04 0.05 0.05 0.04 0.05 0.05 0.03 0.03 0.02
0.43 0.90 0.88 0.49 0.28 0.42 0.57 0.56 0.49 0.94 0.52 0.52 0.16 0.07 0.03 0.03 0.02 0.02 0.01 0.01 0.04 0.05 0.04 0.02 0.02 0.03 0.02 0.05 0.05 0.06 0.09 0.07 0.07 0.07 0.05 0.05 0.05 0.05 0.04 0.04 0.05 0.05 0.04 0.04
0.33 0.71 0.75 0.61 0.24 0.38 0.48 0.55 0.36 0.56 0.27 0.26 0.17 0.13 0.01 0.01 0.01 0.00 0.01 0.04 0.07 0.07 0.04 0.02 0.01 0.01 0.01 0.00 0.00 0.02 0.08 0.09 0.09 0.11 0.06 0.04 0.02 0.05 0.05 0.06 0.06 0.07 0.14 0.12
0.28 0.51 0.73 0.64 0.48 0.28 0.47 0.58 0.68 0.48 0.20 0.25 0.28 0.15 0.01 0.01 0.04 0.06 0.05 0.06 0.04 0.03 0.02 0.01 0.00 0.00 0.00 0.00 0.00 0.01 0.03 0.05 0.09 0.08 0.06 0.05 0.03 0.04 0.07 0.09 0.16 0.21 0.27 0.56
0.06 0.23 0.46 0.31 0.15 0.16 0.11 0.14 0.44 0.28 0.23 0.26 0.14 0.07 0.02 0.00 0.00 0.02 0.04 0.02 0.01 0.01 0.00 0.01 0.00 0.00 0.00 0.00 0.01 0.02 0.09 0.12 0.40 0.10 0.15 0.16 0.14 0.17 0.20 0.33 0.45 0.48 0.47 0.48
0.05 0.16 0.25 0.16 0.07 0.03 0.00 0.00 0.07 0.13 0.22 0.14 0.07 0.02 0.00 0.00 0.22 0.35 0.15 0.04 0.01 0.00 0.00 0.00 0.00 0.00 0.00 0.02 0.02 0.02 0.04 0.14 0.36 0.22 0.25 0.36 0.31 0.28 0.26 0.40 0.50 0.37 0.51 0.67
0.05 0.18 0.27 0.10 0.12 0.02 0.00 0.00 0.01 0.02 0.19 0.02 0.05 0.04 0.02 0.01 0.29 0.32 0.24 0.05 0.02 0.00 0.00 0.00 0.00 0.02 0.05 0.08 0.08 0.07 0.07 0.10 0.31 0.33 0.31 0.30 0.48 0.40 0.48 0.44 0.49 0.75 0.60 0.54
0.11 0.19 0.28 0.15 0.18 0.01 0.00 0.00 0.01 0.09 0.14 0.01 0.06 0.06 0.01 0.01 0.03 0.06 0.08 0.11 0.08 0.12 0.12 0.14 0.08 0.16 0.24 0.37 0.35 0.41 0.43 0.62 0.88 0.58 0.60 0.65 0.78 0.67 0.61 0.66 0.57 0.50 0.37 0.26
0.03 0.05 0.09 0.14 0.10 0.00 0.00 0.00 0.00 0.01 0.01 0.02 0.10 0.03 0.02 0.01 0.02 0.02 0.01 0.07 0.11 0.14 0.12 0.33 0.48 0.53 0.60 0.72 0.65 0.63 0.71 0.75 0.91 0.67 0.59 0.57 0.49 0.44 0.35 0.27 0.18 0.10 0.09 0.05
0.00 0.00 0.00 0.00 0.00 0.00 0.00 0.00 0.00 0.00 0.00 0.00 0.02 0.10 0.13 0.12 0.19 0.07 0.02 0.01 0.03 0.07 0.03 0.12 0.22 0.13 0.18 0.29 0.34 0.25 0.24 0.23 0.20 0.16 0.13 0.13 0.08 0.05 0.03 0.00 0.00 0.00 0.00 0.00
0.00 0.00 0.00 0.00 0.00 0.00 0.00 0.00 0.00 0.00 0.00 0.00 0.00 0.01 0.22 0.07 0.08 0.03 0.06 0.04 0.05 0.05 0.02 0.04 0.04 0.04 0.04 0.05 0.04 0.03 0.02 0.02 0.01 0.01 0.01 0.00 0.00 0.00 0.00 0.00 0.00 0.00 0.00 0.00
0.01 0.00 0.00 0.00 0.00 0.00 0.00 0.00 0.00 0.00 0.00 0.00 0.00 0.00 0.00 0.05 0.07 0.02 0.16 0.08 0.00 0.00 0.00 0.00 0.01 0.02 0.00 0.00 0.00 0.00 0.00 0.00 0.00 0.00 0.00 0.00 0.00 0.00 0.00 0.00 0.00 0.00 0.00 0.00
0.00 0.00 0.00 0.00 0.00 0.00 0.00 0.00 0.00 0.00 0.01 0.00 0.00 0.00 0.00 0.00 0.12 0.01 0.06 0.03 0.00 0.00 0.00 0.00 0.00 0.00 0.00 0.00 0.00 0.00 0.00 0.00 0.00 0.00 0.00 0.00 0.00 0.00 0.00 0.00 0.00 0.00 0.00 0.00

GFSCGP_prec_precacc_075.txt.gz
Total_Precipitation_Accumulation
1.52 2.25 1.44 0.51 0.16 0.03 0.02 0.02 0.02 0.00 0.00 0.00 0.00 0.00 0.00 0.00 0.00 0.00 0.00 0.00 0.00 0.00 0.00 0.00 0.00 0.00 0.00 0.00 0.00 0.00 0.00 0.00 0.04 0.11 0.09 0.12 0.24 0.37 0.29 0.37 0.33 0.25 0.14 0.13
1.58 1.75 0.76 0.38 0.26 0.15 0.04 0.06 0.02 0.01 0.00 0.01 0.00 0.00 0.00 0.00 0.00 0.00 0.00 0.00 0.00 0.00 0.00 0.00 0.00 0.00 0.00 0.00 0.00 0.00 0.00 0.00 0.00 0.01 0.02 0.07 0.29 0.30 0.52 0.64 0.32 0.28 0.27 0.38
1.06 0.93 0.79 0.78 0.72 0.41 0.16 0.04 0.03 0.01 0.01 0.01 0.01 0.00 0.00 0.00 0.00 0.00 0.00 0.00 0.00 0.00 0.00 0.00 0.00 0.00 0.00 0.00 0.00 0.00 0.00 0.00 0.00 0.00 0.05 0.15 0.27 0.26 0.29 0.22 0.10 0.19 0.30 0.54
0.99 0.79 0.81 1.01 1.08 0.59 0.39 0.05 0.02 0.06 0.06 0.03 0.03 0.03 0.00 0.00 0.00 0.00 0.00 0.00 0.00 0.00 0.00 0.00 0.00 0.00 0.00 0.00 0.00 0.00 0.00 0.00 0.00 0.00 0.01 0.02 0.04 0.11 0.12 0.21 0.20 0.17 0.21 0.50
1.13 0.81 0.58 0.77 0.73 0.68 0.42 0.13 0.04 0.13 0.20 0.11 0.05 0.08 0.01 0.00 0.00 0.00 0.00 0.00 0.00 0.00 0.00 0.00 0.00 0.00 0.00 0.00 0.00 0.00 0.00 0.00 0.00 0.00 0.00 0.00 0.02 0.08 0.14 0.17 0.17 0.25 0.26 0.36
0.63 0.66 0.69 0.42 0.42 0.67 0.42 0.32 0.30 0.26 0.40 0.63 0.07 0.06 0.02 0.00 0.00 0.00 0.00 0.00 0.00 0.00 0.00 0.00 0.00 0.00 0.00 0.00 0.00 0.00 0.00 0.00 0.00 0.00 0.00 0.00 0.01 0.06 0.14 0.13 0.16 0.24 0.26 0.24
1.11 1.07 0.82 0.60 0.74 0.85 0.84 1.01 1.23 1.04 0.71 0.40 0.10 0.05 0.05 0.00 0.00 0.00 0.00 0.00 0.00 0.00 0.00 0.00 0.00 0.00 0.00 0.00 0.00 0.00 0.00 0.00 0.00 0.00 0.00 0.00 0.00 0.03 0.10 0.12 0.12 0.16 0.16 0.13
0.94 1.11 1.01 0.70 0.77 0.90 0.75 0.95 0.96 0.60 0.27 0.06 0.04 0.12 0.01 0.00 0.00 0.00 0.00 0.00 0.00 0.00 0.00 0.00 0.00 0.00 0.00 0.00 0.00 0.00 0.00 0.00 0.00 0.00 0.00 0.00 0.00 0.03 0.05 0.07 0.07 0.14 0.13 0.16
0.44 0.78 0.75 0.46 0.60 0.55 0.69 0.64 0.51 0.38 0.24 0.24 0.04 0.01 0.00 0.00 0.00 0.00 0.00 0.00 0.00 0.00 0.00 0.00 0.00 0.00 0.00 0.00 0.00 0.00 0.00 0.00 0.00 0.02 0.02 0.01 0.01 0.03 0.05 0.06 0.08 0.10 0.09 0.10
0.25 0.76 0.82 0.70 1.00 0.71 0.47 0.25 0.39 0.97 0.59 0.30 0.07 0.00 0.00 0.00 0.00 0.00 0.00 0.00 0.00 0.00 0.00 0.00 0.00 0.00 0.00 0.00 0.00 0.00 0.00 0.00 0.01 0.03 0.01 0.00 0.03 0.05 0.05 0.05 0.06 0.06 0.07 0.07
0.40 0.75 0.86 1.13 1.10 0.66 0.60 0.74 0.46 0.48 0.33 0.28 0.19 0.01 0.00 0.00 0.00 0.00 0.00 0.00 0.00 0.00 0.00 0.00 0.00 0.00 0.00 0.00 0.00 0.00 0.00 0.00 0.01 0.00 0.00 0.02 0.03 0.04 0.05 0.06 0.06 0.04 0.03 0.04
0.36 0.75 0.89 0.72 0.27 0.22 0.34 0.32 0.30 0.78 0.43 0.40 0.36 0.10 0.00 0.01 0.01 0.00 0.01 0.02 0.01 0.00 0.00 0.00 0.00 0.00 0.00 0.00 0.00 0.00 0.02 0.02 0.01 0.00 0.01 0.03 0.03 0.03 0.04 0.06 0.06 0.05 0.05 0.03
0.43 0.90 0.84 0.63 0.54 0.58 0.79 0.42 0.35 0.59 0.97 0.67 0.42 0.14 0.00 0.00 0.00 0.00 0.01 0.03 0.02 0.01 0.00 0.00 0.00 0.00 0.00 0.02 0.05 0.09 0.03 0.00 0.00 0.01 0.01 0.02 0.03 0.04 0.05 0.04 0.04 0.03 0.02 0.02
0.41 0.88 0.93 0.75 0.43 0.57 0.82 0.45 0.57 1.13 1.09 0.36 0.29 0.04 0.01 0.01 0.02 0.01 0.00 0.02 0.04 0.01 0.01 0.00 0.00 0.00 0.02 0.07 0.10 0.10 0.01 0.01 0.02 0.03 0.03 0.04 0.05 0.05 0.04 0.05 0.05 0.03 0.03 0.02
0.43 0.90 0.88 0.49 0.28 0.42 0.57 0.56 0.49 0.94 0.52 0.52 0.16 0.07 0.03 0.03 0.02 0.02 0.01 0.01 0.04 0.05 0.04 0.02 0.02 0.03 0.02 0.05 0.05 0.06 0.09 0.07 0.07 0.07 0.05 0.05 0.05 0.05 0.04 0.04 0.05 0.05 0.04 0.04
0.33 0.71 0.75 0.61 0.24 0.38 0.48 0.55 0.36 0.56 0.27 0.26 0.17 0.13 0.01 0.01 0.01 0.00 0.01 0.04 0.07 0.07 0.04 0.02 0.01 0.01 0.01 0.00 0.00 0.02 0.08 0.09 0.09 0.11 0.06 0.04 0.02 0.05 0.05 0.06 0.06 0.07 0.14 0.12
0.28 0.51 0.73 0.64 0.48 0.28 0.47 0.58 0.68 0.48 0.20 0.25 0.28 0.15 0.01 0.01 0.04 0.06 0.05 0.06 0.04 0.03 0.02 0.01 0.00 0.00 0.00 0.00 0.00 0.01 0.03 0.05 0.09 0.08 0.06 0.05 0.03 0.04 0.07 0.09 0.16 0.21 0.27 0.56
0.06 0.23 0.46 0.31 0.15 0.16 0.11 0.14 0.44 0.28 0.23 0.26 0.14 0.07 0.02 0.00 0.00 0.02 0.04 0.02 0.01 0.01 0.00 0.01 0.00 0.00 0.00 0.00 0.01 0.02 0.09 0.12 0.40 0.10 0.15 0.16 0.14 0.17 0.20 0.33 0.45 0.48 0.47 0.48
0.05 0.16 0.25 0.16 0.07 0.03 0.00 0.00 0.07 0.13 0.22 0.14 0.07 0.02 0.00 0.00 0.22 0.35 0.15 0.04 0.01 0.00 0.00 0.00 0.00 0.00 0.00 0.02 0.02 0.02 0.04 0.14 0.36 0.22 0.25 0.36 0.31 0.28 0.26 0.40 0.50 0.37 0.51 0.67
0.05 0.18 0.27 0.10 0.12 0.02 0.00 0.00 0.01 0.02 0.19 0.02 0.05 0.04 0.02 0.01 0.29 0.32 0.24 0.05 0.02 0.00 0.00 0.00 0.00 0.02 0.05 0.08 0.08 0.07 0.07 0.10 0.31 0.33 0.31 0.30 0.48 0.40 0.48 0.44 0.49 0.75 0.60 0.54
0.11 0.19 0.28 0.15 0.18 0.01 0.00 0.00 0.01 0.09 0.14 0.01 0.06 0.06 0.01 0.01 0.03 0.06 0.08 0.11 0.08 0.12 0.12 0.14 0.08 0.16 0.24 0.37 0.35 0.41 0.43 0.62 0.88 0.58 0.60 0.65 0.78 0.67 0.61 0.66 0.57 0.50 0.37 0.26
0.03 0.05 0.09 0.14 0.10 0.00 0.00 0.00 0.00 0.01 0.01 0.02 0.10 0.03 0.02 0.01 0.02 0.02 0.01 0.07 0.11 0.14 0.12 0.33 0.48 0.53 0.60 0.72 0.65 0.63 0.71 0.75 0.91 0.67 0.59 0.57 0.49 0.44 0.35 0.27 0.18 0.10 0.09 0.05
0.00 0.00 0.00 0.00 0.00 0.00 0.00 0.00 0.00 0.00 0.00 0.00 0.02 0.10 0.13 0.12 0.19 0.07 0.02 0.01 0.03 0.07 0.03 0.12 0.22 0.13 0.18 0.29 0.34 0.25 0.24 0.23 0.20 0.16 0.13 0.13 0.08 0.05 0.03 0.00 0.00 0.00 0.00 0.00
0.00 0.00 0.00 0.00 0.00 0.00 0.00 0.00 0.00 0.00 0.00 0.00 0.00 0.01 0.22 0.07 0.08 0.03 0.06 0.04 0.05 0.05 0.02 0.04 0.04 0.04 0.04 0.05 0.04 0.03 0.02 0.02 0.01 0.01 0.01 0.00 0.00 0.00 0.00 0.00 0.00 0.00 0.00 0.00
0.01 0.00 0.00 0.00 0.00 0.00 0.00 0.00 0.00 0.00 0.00 0.00 0.00 0.00 0.00 0.05 0.07 0.02 0.16 0.08 0.00 0.00 0.00 0.00 0.01 0.02 0.00 0.00 0.00 0.00 0.00 0.00 0.00 0.00 0.00 0.00 0.00 0.00 0.00 0.00 0.00 0.00 0.00 0.00
0.00 0.00 0.00 0.00 0.00 0.00 0.00 0.00 0.00 0.00 0.01 0.00 0.00 0.00 0.00 0.00 0.12 0.01 0.06 0.03 0.00 0.00 0.00 0.00 0.00 0.00 0.00 0.00 0.00 0.00 0.00 0.00 0.00 0.00 0.00 0.00 0.00 0.00 0.00 0.00 0.00 0.00 0.00 0.00

GFSCGP_prec_precacc_078.txt.gz
Total_Precipitation_Accumulation
1.55 2.29 1.61 0.56 0.16 0.03 0.02 0.02 0.02 0.00 0.00 0.00 0.00 0.00 0.00 0.00 0.00 0.00 0.00 0.00 0.00 0.00 0.00 0.00 0.00 0.00 0.00 0.00 0.00 0.00 0.00 0.00 0.06 0.13 0.10 0.13 0.25 0.37 0.29 0.37 0.34 0.26 0.14 0.13
1.63 1.77 0.81 0.41 0.26 0.15 0.04 0.06 0.02 0.01 0.00 0.01 0.00 0.00 0.00 0.00 0.00 0.00 0.00 0.00 0.00 0.00 0.00 0.00 0.00 0.00 0.00 0.00 0.00 0.00 0.00 0.00 0.01 0.03 0.06 0.08 0.32 0.36 0.53 0.64 0.32 0.28 0.28 0.39
1.14 0.94 0.86 0.88 0.72 0.42 0.17 0.05 0.03 0.01 0.01 0.01 0.01 0.00 0.00 0.00 0.00 0.00 0.00 0.00 0.00 0.00 0.00 0.00 0.00 0.00 0.00 0.00 0.00 0.00 0.00 0.00 0.00 0.00 0.06 0.15 0.28 0.26 0.30 0.22 0.11 0.24 0.35 0.58
1.02 0.80 0.86 1.19 1.09 0.59 0.40 0.07 0.04 0.06 0.06 0.03 0.03 0.03 0.00 0.00 0.00 0.00 0.00 0.00 0.00 0.00 0.00 0.00 0.00 0.00 0.00 0.00 0.00 0.00 0.00 0.00 0.00 0.00 0.01 0.02 0.04 0.11 0.12 0.23 0.23 0.21 0.24 0.52
1.14 0.82 0.62 0.92 0.74 0.68 0.43 0.13 0.05 0.13 0.20 0.12 0.05 0.08 0.01 0.00 0.00 0.00 0.00 0.00 0.00 0.00 0.00 0.00 0.00 0.00 0.00 0.00 0.00 0.00 0.00 0.00 0.00 0.00 0.00 0.00 0.02 0.08 0.14 0.17 0.17 0.25 0.26 0.36
0.66 0.68 0.78 0.47 0.44 0.69 0.42 0.33 0.31 0.28 0.44 0.69 0.07 0.06 0.02 0.00 0.00 0.00 0.00 0.00 0.00 0.00 0.00 0.00 0.00 0.00 0.00 0.00 0.00 0.00 0.00 0.00 0.00 0.00 0.00 0.00 0.01 0.06 0.14 0.13 0.16 0.24 0.26 0.24
1.19 1.10 0.94 0.68 0.75 0.87 0.84 1.02 1.27 1.09 0.78 0.42 0.10 0.05 0.05 0.00 0.00 0.00 0.00 0.00 0.00 0.00 0.00 0.00 0.00 0.00 0.00 0.00 0.00 0.00 0.00 0.00 0.00 0.00 0.00 0.00 0.00 0.03 0.10 0.12 0.12 0.16 0.16 0.13
1.06 1.21 1.07 0.75 0.78 0.91 0.76 0.95 0.96 0.61 0.27 0.06 0.04 0.12 0.01 0.00 0.00 0.00 0.00 0.00 0.00 0.00 0.00 0.00 0.00 0.00 0.00 0.00 0.00 0.00 0.00 0.00 0.00 0.00 0.00 0.00 0.00 0.03 0.05 0.07 0.07 0.14 0.13 0.16
0.48 0.85 0.77 0.46 0.60 0.55 0.69 0.65 0.56 0.44 0.24 0.24 0.04 0.01 0.00 0.00 0.00 0.00 0.00 0.00 0.00 0.00 0.00 0.00 0.00 0.00 0.00 0.00 0.00 0.00 0.00 0.00 0.00 0.02 0.02 0.01 0.01 0.03 0.05 0.06 0.08 0.10 0.09 0.10
0.25 0.79 0.84 0.70 1.00 0.71 0.47 0.25 0.43 1.09 0.64 0.30 0.07 0.00 0.00 0.00 0.00 0.00 0.00 0.00 0.00 0.00 0.00 0.00 0.00 0.00 0.00 0.00 0.00 0.00 0.00 0.00 0.01 0.03 0.01 0.00 0.03 0.05 0.05 0.05 0.06 0.06 0.07 0.07
0.40 0.75 0.88 1.13 1.10 0.66 0.60 0.74 0.46 0.48 0.34 0.29 0.19 0.01 0.00 0.00 0.00 0.00 0.00 0.00 0.00 0.00 0.00 0.00 0.00 0.00 0.00 0.00 0.00 0.00 0.00 0.00 0.01 0.00 0.00 0.02 0.03 0.04 0.05 0.06 0.06 0.04 0.03 0.04
0.36 0.75 0.90 0.72 0.27 0.22 0.34 0.32 0.30 0.78 0.44 0.40 0.36 0.10 0.00 0.01 0.01 0.00 0.01 0.02 0.01 0.00 0.00 0.00 0.00 0.00 0.00 0.00 0.00 0.00 0.02 0.02 0.01 0.00 0.01 0.03 0.03 0.03 0.04 0.06 0.06 0.05 0.05 0.03
0.43 0.90 0.85 0.65 0.55 0.59 0.79 0.42 0.35 0.59 0.97 0.67 0.42 0.14 0.00 0.00 0.00 0.00 0.01 0.03 0.02 0.01 0.00 0.00 0.00 0.00 0.00 0.02 0.05 0.09 0.03 0.00 0.00 0.01 0.01 0.02 0.03 0.04 0.05 0.04 0.04 0.03 0.02 0.02
0.41 0.88 0.93 0.75 0.43 0.57 0.82 0.45 0.57 1.13 1.09 0.36 0.29 0.04 0.01 0.01 0.02 0.01 0.00 0.02 0.04 0.01 0.01 0.00 0.00 0.00 0.02 0.07 0.10 0.10 0.01 0.01 0.02 0.03 0.03 0.04 0.05 0.05 0.04 0.05 0.05 0.03 0.03 0.02
0.43 0.90 0.88 0.49 0.28 0.42 0.57 0.56 0.49 0.94 0.52 0.52 0.16 0.07 0.03 0.03 0.02 0.02 0.01 0.01 0.04 0.05 0.04 0.02 0.02 0.03 0.02 0.05 0.05 0.06 0.09 0.07 0.07 0.07 0.05 0.05 0.05 0.05 0.04 0.04 0.05 0.05 0.04 0.04
0.33 0.71 0.75 0.61 0.24 0.38 0.48 0.55 0.36 0.56 0.27 0.26 0.17 0.13 0.01 0.01 0.01 0.00 0.01 0.04 0.07 0.07 0.04 0.02 0.01 0.01 0.01 0.00 0.00 0.02 0.08 0.09 0.09 0.11 0.06 0.04 0.02 0.05 0.05 0.06 0.06 0.07 0.14 0.12
0.28 0.51 0.73 0.64 0.48 0.28 0.47 0.58 0.68 0.48 0.20 0.25 0.28 0.15 0.01 0.01 0.04 0.06 0.05 0.06 0.04 0.03 0.02 0.01 0.00 0.00 0.00 0.00 0.00 0.01 0.03 0.05 0.09 0.08 0.06 0.05 0.03 0.04 0.07 0.09 0.16 0.21 0.27 0.56
0.06 0.23 0.46 0.31 0.15 0.16 0.11 0.14 0.44 0.28 0.23 0.26 0.14 0.07 0.02 0.00 0.00 0.02 0.04 0.02 0.01 0.01 0.00 0.01 0.00 0.00 0.00 0.00 0.01 0.02 0.09 0.12 0.40 0.10 0.15 0.16 0.14 0.17 0.20 0.33 0.45 0.48 0.47 0.48
0.05 0.16 0.25 0.16 0.07 0.03 0.00 0.00 0.07 0.13 0.22 0.14 0.07 0.02 0.00 0.00 0.22 0.35 0.15 0.04 0.01 0.00 0.00 0.00 0.00 0.00 0.00 0.02 0.02 0.02 0.04 0.14 0.36 0.22 0.25 0.36 0.31 0.28 0.26 0.40 0.50 0.37 0.51 0.67
0.05 0.18 0.27 0.10 0.12 0.02 0.00 0.00 0.01 0.02 0.19 0.02 0.05 0.04 0.02 0.01 0.29 0.32 0.24 0.05 0.02 0.00 0.00 0.00 0.00 0.02 0.05 0.08 0.08 0.07 0.07 0.10 0.31 0.33 0.31 0.30 0.48 0.40 0.48 0.44 0.49 0.75 0.60 0.54
0.11 0.19 0.28 0.15 0.18 0.01 0.00 0.00 0.01 0.09 0.14 0.01 0.06 0.06 0.01 0.01 0.03 0.06 0.08 0.11 0.08 0.12 0.12 0.14 0.08 0.16 0.24 0.37 0.35 0.41 0.43 0.62 0.88 0.58 0.60 0.65 0.78 0.67 0.61 0.66 0.57 0.50 0.37 0.26
0.03 0.05 0.09 0.14 0.10 0.00 0.00 0.00 0.00 0.01 0.01 0.02 0.10 0.03 0.02 0.01 0.02 0.02 0.01 0.07 0.11 0.14 0.12 0.33 0.48 0.53 0.60 0.72 0.65 0.63 0.71 0.75 0.91 0.67 0.59 0.57 0.49 0.44 0.35 0.27 0.18 0.10 0.09 0.05
0.00 0.00 0.00 0.00 0.00 0.00 0.00 0.00 0.00 0.00 0.00 0.00 0.02 0.10 0.13 0.12 0.19 0.07 0.02 0.01 0.03 0.07 0.03 0.12 0.22 0.13 0.18 0.29 0.34 0.25 0.24 0.23 0.20 0.16 0.13 0.13 0.08 0.05 0.03 0.00 0.00 0.00 0.00 0.00
0.00 0.00 0.00 0.00 0.00 0.00 0.00 0.00 0.00 0.00 0.00 0.00 0.00 0.01 0.22 0.07 0.08 0.03 0.06 0.04 0.05 0.05 0.02 0.04 0.04 0.04 0.04 0.05 0.04 0.03 0.02 0.02 0.01 0.01 0.01 0.00 0.00 0.00 0.00 0.00 0.00 0.00 0.00 0.00
0.01 0.00 0.00 0.00 0.00 0.00 0.00 0.00 0.00 0.00 0.00 0.00 0.00 0.00 0.00 0.05 0.07 0.02 0.16 0.08 0.00 0.00 0.00 0.00 0.01 0.02 0.00 0.00 0.00 0.00 0.00 0.00 0.00 0.00 0.00 0.00 0.00 0.00 0.00 0.00 0.00 0.00 0.00 0.00
0.00 0.00 0.00 0.00 0.00 0.00 0.00 0.00 0.00 0.00 0.01 0.00 0.00 0.00 0.00 0.00 0.12 0.01 0.06 0.03 0.00 0.00 0.00 0.00 0.00 0.00 0.00 0.00 0.00 0.00 0.00 0.00 0.00 0.00 0.00 0.00 0.00 0.00 0.00 0.00 0.00 0.00 0.00 0.00

GFSCGP_prec_precacc_081.txt.gz
Total_Precipitation_Accumulation
1.58 2.36 1.78 0.75 0.17 0.03 0.02 0.02 0.02 0.00 0.00 0.00 0.00 0.00 0.00 0.00 0.00 0.00 0.00 0.00 0.00 0.00 0.00 0.00 0.00 0.00 0.00 0.00 0.00 0.00 0.00 0.01 0.07 0.14 0.11 0.14 0.25 0.37 0.29 0.37 0.34 0.26 0.14 0.13
1.67 1.80 0.95 0.47 0.27 0.15 0.04 0.06 0.02 0.01 0.00 0.01 0.00 0.00 0.00 0.00 0.00 0.00 0.00 0.00 0.00 0.00 0.00 0.00 0.00 0.00 0.00 0.00 0.00 0.00 0.00 0.00 0.03 0.07 0.09 0.10 0.32 0.36 0.54 0.66 0.33 0.31 0.32 0.43
1.15 0.94 1.00 1.04 0.74 0.42 0.17 0.05 0.03 0.01 0.01 0.01 0.01 0.00 0.00 0.00 0.00 0.00 0.00 0.00 0.00 0.00 0.00 0.00 0.00 0.00 0.00 0.00 0.00 0.00 0.00 0.00 0.01 0.02 0.08 0.17 0.28 0.26 0.30 0.23 0.12 0.29 0.44 0.61
1.02 0.81 0.96 1.39 1.12 0.59 0.41 0.07 0.04 0.06 0.06 0.03 0.03 0.03 0.00 0.00 0.00 0.00 0.00 0.00 0.00 0.00 0.00 0.00 0.00 0.00 0.00 0.00 0.00 0.00 0.00 0.00 0.00 0.00 0.01 0.03 0.04 0.12 0.13 0.27 0.29 0.27 0.27 0.52
1.14 0.82 0.64 1.07 0.79 0.68 0.43 0.14 0.05 0.13 0.20 0.12 0.05 0.08 0.01 0.00 0.00 0.00 0.00 0.00 0.00 0.00 0.00 0.00 0.00 0.00 0.00 0.00 0.00 0.00 0.00 0.00 0.00 0.00 0.00 0.00 0.02 0.08 0.14 0.18 0.17 0.25 0.26 0.36
0.67 0.68 0.81 0.53 0.50 0.70 0.44 0.34 0.32 0.29 0.45 0.69 0.07 0.06 0.02 0.00 0.00 0.00 0.00 0.00 0.00 0.00 0.00 0.00 0.00 0.00 0.00 0.00 0.00 0.00 0.00 0.00 0.00 0.00 0.00 0.00 0.01 0.06 0.14 0.13 0.16 0.24 0.26 0.24
1.23 1.14 1.00 0.76 0.91 0.91 0.86 1.03 1.33 1.15 0.84 0.43 0.10 0.05 0.05 0.00 0.00 0.00 0.00 0.00 0.00 0.00 0.00 0.00 0.00 0.00 0.00 0.00 0.00 0.00 0.00 0.00 0.00 0.00 0.00 0.00 0.00 0.03 0.10 0.12 0.12 0.16 0.16 0.13
1.09 1.32 1.20 0.95 0.90 0.94 0.76 0.96 0.98 0.61 0.28 0.06 0.04 0.12 0.01 0.00 0.00 0.00 0.00 0.00 0.00 0.00 0.00 0.00 0.00 0.00 0.00 0.00 0.00 0.00 0.00 0.00 0.00 0.00 0.00 0.00 0.00 0.03 0.05 0.07 0.07 0.14 0.13 0.16
0.50 0.90 0.86 0.64 0.64 0.55 0.69 0.65 0.56 0.44 0.24 0.24 0.04 0.01 0.00 0.00 0.00 0.00 0.00 0.00 0.00 0.00 0.00 0.00 0.00 0.00 0.00 0.00 0.00 0.00 0.00 0.00 0.00 0.02 0.02 0.01 0.01 0.03 0.05 0.06 0.08 0.10 0.09 0.10
0.25 0.82 0.86 0.77 1.01 0.72 0.47 0.25 0.43 1.09 0.64 0.30 0.07 0.00 0.00 0.00 0.00 0.00 0.00 0.00 0.00 0.00 0.00 0.00 0.00 0.00 0.00 0.00 0.00 0.00 0.00 0.00 0.01 0.03 0.01 0.00 0.03 0.05 0.05 0.05 0.06 0.06 0.07 0.07
0.40 0.75 0.90 1.14 1.11 0.67 0.60 0.74 0.46 0.48 0.34 0.29 0.19 0.01 0.00 0.00 0.00 0.00 0.00 0.00 0.00 0.00 0.00 0.00 0.00 0.00 0.00 0.00 0.00 0.00 0.00 0.00 0.01 0.00 0.00 0.02 0.03 0.04 0.05 0.06 0.06 0.04 0.03 0.04
0.36 0.75 0.90 0.73 0.27 0.22 0.34 0.32 0.30 0.78 0.44 0.40 0.36 0.10 0.00 0.01 0.01 0.00 0.01 0.02 0.01 0.00 0.00 0.00 0.00 0.00 0.00 0.00 0.00 0.00 0.02 0.02 0.01 0.00 0.01 0.03 0.03 0.03 0.04 0.06 0.06 0.05 0.05 0.03
0.43 0.90 0.86 0.66 0.56 0.59 0.79 0.42 0.35 0.59 0.97 0.67 0.42 0.14 0.00 0.00 0.00 0.00 0.01 0.03 0.02 0.01 0.00 0.00 0.00 0.00 0.00 0.02 0.05 0.09 0.03 0.00 0.00 0.01 0.01 0.02 0.03 0.04 0.05 0.04 0.04 0.03 0.02 0.02
0.41 0.88 0.93 0.75 0.44 0.58 0.82 0.45 0.57 1.13 1.09 0.36 0.29 0.04 0.01 0.01 0.02 0.01 0.00 0.02 0.04 0.01 0.01 0.00 0.00 0.00 0.02 0.07 0.10 0.10 0.01 0.01 0.02 0.03 0.03 0.04 0.05 0.05 0.04 0.05 0.05 0.03 0.03 0.02
0.43 0.90 0.88 0.49 0.28 0.42 0.57 0.56 0.49 0.94 0.52 0.52 0.16 0.07 0.03 0.03 0.02 0.02 0.01 0.01 0.04 0.05 0.04 0.02 0.02 0.03 0.02 0.05 0.05 0.06 0.09 0.07 0.07 0.07 0.05 0.05 0.05 0.05 0.04 0.04 0.05 0.05 0.04 0.04
0.33 0.71 0.75 0.61 0.24 0.38 0.48 0.55 0.36 0.56 0.27 0.26 0.17 0.13 0.01 0.01 0.01 0.00 0.01 0.04 0.07 0.07 0.04 0.02 0.01 0.01 0.01 0.00 0.00 0.02 0.08 0.09 0.09 0.11 0.06 0.04 0.02 0.05 0.05 0.06 0.06 0.07 0.14 0.12
0.28 0.51 0.73 0.64 0.48 0.28 0.47 0.58 0.68 0.48 0.20 0.25 0.28 0.15 0.01 0.01 0.04 0.06 0.05 0.06 0.04 0.03 0.02 0.01 0.00 0.00 0.00 0.00 0.00 0.01 0.03 0.05 0.09 0.08 0.06 0.05 0.03 0.04 0.07 0.09 0.16 0.21 0.27 0.56
0.06 0.23 0.46 0.31 0.15 0.16 0.11 0.14 0.44 0.28 0.23 0.26 0.14 0.07 0.02 0.00 0.00 0.02 0.04 0.02 0.01 0.01 0.00 0.01 0.00 0.00 0.00 0.00 0.01 0.02 0.09 0.12 0.40 0.10 0.15 0.16 0.14 0.17 0.20 0.33 0.45 0.48 0.47 0.48
0.05 0.16 0.25 0.16 0.07 0.03 0.00 0.00 0.07 0.13 0.22 0.14 0.07 0.02 0.00 0.00 0.22 0.35 0.15 0.04 0.01 0.00 0.00 0.00 0.00 0.00 0.00 0.02 0.02 0.02 0.04 0.14 0.36 0.22 0.25 0.36 0.31 0.28 0.26 0.40 0.50 0.37 0.51 0.67
0.05 0.18 0.27 0.10 0.12 0.02 0.00 0.00 0.01 0.02 0.19 0.02 0.05 0.04 0.02 0.01 0.29 0.32 0.24 0.05 0.02 0.00 0.00 0.00 0.00 0.02 0.05 0.08 0.08 0.07 0.07 0.10 0.31 0.33 0.31 0.30 0.48 0.40 0.48 0.44 0.49 0.75 0.60 0.54
0.11 0.19 0.28 0.15 0.18 0.01 0.00 0.00 0.01 0.09 0.14 0.01 0.06 0.06 0.01 0.01 0.03 0.06 0.08 0.11 0.08 0.12 0.12 0.14 0.08 0.16 0.24 0.37 0.35 0.41 0.43 0.62 0.88 0.58 0.60 0.65 0.78 0.67 0.61 0.66 0.57 0.50 0.37 0.26
0.03 0.05 0.09 0.14 0.10 0.00 0.00 0.00 0.00 0.01 0.01 0.02 0.10 0.03 0.02 0.01 0.02 0.02 0.01 0.07 0.11 0.14 0.12 0.33 0.48 0.53 0.60 0.72 0.65 0.63 0.71 0.75 0.91 0.67 0.59 0.57 0.49 0.44 0.35 0.27 0.18 0.10 0.09 0.05
0.00 0.00 0.00 0.00 0.00 0.00 0.00 0.00 0.00 0.00 0.00 0.00 0.02 0.10 0.13 0.12 0.19 0.07 0.02 0.01 0.03 0.07 0.03 0.12 0.22 0.13 0.18 0.29 0.34 0.25 0.24 0.23 0.20 0.16 0.13 0.13 0.08 0.05 0.03 0.00 0.00 0.00 0.00 0.00
0.00 0.00 0.00 0.00 0.00 0.00 0.00 0.00 0.00 0.00 0.00 0.00 0.00 0.01 0.22 0.07 0.08 0.03 0.06 0.04 0.05 0.05 0.02 0.04 0.04 0.04 0.04 0.05 0.04 0.03 0.02 0.02 0.01 0.01 0.01 0.00 0.00 0.00 0.00 0.00 0.00 0.00 0.00 0.00
0.01 0.00 0.00 0.00 0.00 0.00 0.00 0.00 0.00 0.00 0.00 0.00 0.00 0.00 0.00 0.05 0.07 0.02 0.16 0.08 0.00 0.00 0.00 0.00 0.01 0.02 0.00 0.00 0.00 0.00 0.00 0.00 0.00 0.00 0.00 0.00 0.00 0.00 0.00 0.00 0.00 0.00 0.00 0.00
0.00 0.00 0.00 0.00 0.00 0.00 0.00 0.00 0.00 0.00 0.01 0.00 0.00 0.00 0.00 0.00 0.12 0.01 0.06 0.03 0.00 0.00 0.00 0.00 0.00 0.00 0.00 0.00 0.00 0.00 0.00 0.00 0.00 0.00 0.00 0.00 0.00 0.00 0.00 0.00 0.00 0.00 0.00 0.00

GFSCGP_prec_precacc_084.txt.gz
Total_Precipitation_Accumulation
1.80 2.39 1.80 0.85 0.25 0.04 0.02 0.02 0.02 0.00 0.00 0.00 0.00 0.00 0.00 0.00 0.00 0.00 0.01 0.03 0.01 0.00 0.00 0.00 0.01 0.02 0.01 0.00 0.00 0.00 0.00 0.03 0.09 0.15 0.11 0.14 0.26 0.39 0.31 0.39 0.35 0.26 0.14 0.13
1.84 1.81 0.95 0.52 0.37 0.16 0.04 0.06 0.02 0.01 0.00 0.01 0.00 0.00 0.00 0.00 0.00 0.00 0.00 0.00 0.00 0.00 0.00 0.00 0.00 0.00 0.00 0.00 0.00 0.00 0.00 0.00 0.03 0.07 0.11 0.12 0.35 0.36 0.55 0.68 0.35 0.37 0.36 0.46
1.22 0.94 1.00 1.16 0.92 0.45 0.17 0.05 0.03 0.01 0.01 0.01 0.01 0.00 0.00 0.00 0.00 0.00 0.00 0.00 0.00 0.00 0.00 0.00 0.00 0.00 0.00 0.00 0.00 0.00 0.00 0.00 0.01 0.04 0.10 0.18 0.29 0.26 0.31 0.24 0.16 0.39 0.50 0.63
1.04 0.81 1.01 1.63 1.35 0.62 0.41 0.07 0.04 0.06 0.06 0.03 0.03 0.03 0.00 0.00 0.00 0.00 0.00 0.00 0.00 0.00 0.00 0.00 0.00 0.00 0.00 0.00 0.00 0.00 0.00 0.00 0.00 0.00 0.01 0.03 0.05 0.12 0.15 0.30 0.33 0.31 0.30 0.55
1.15 0.82 0.67 1.30 1.00 0.71 0.43 0.14 0.05 0.13 0.20 0.12 0.05 0.08 0.01 0.00 0.00 0.00 0.00 0.00 0.00 0.00 0.00 0.00 0.00 0.00 0.00 0.00 0.00 0.00 0.00 0.00 0.00 0.00 0.00 0.00 0.02 0.08 0.15 0.18 0.18 0.26 0.27 0.38
0.69 0.69 0.83 0.64 0.71 0.71 0.45 0.35 0.32 0.29 0.45 0.69 0.07 0.06 0.02 0.00 0.00 0.00 0.00 0.00 0.00 0.00 0.00 0.00 0.00 0.00 0.00 0.00 0.00 0.00 0.00 0.00 0.00 0.00 0.00 0.00 0.01 0.06 0.14 0.13 0.16 0.24 0.26 0.24
1.25 1.19 1.02 0.80 1.07 0.98 0.90 1.04 1.37 1.17 0.85 0.43 0.10 0.05 0.05 0.00 0.00 0.00 0.00 0.00 0.00 0.00 0.00 0.00 0.00 0.00 0.00 0.00 0.00 0.00 0.00 0.00 0.00 0.00 0.00 0.00 0.00 0.03 0.10 0.12 0.12 0.16 0.16 0.13
1.11 1.43 1.22 0.96 1.00 1.07 0.80 0.96 0.98 0.61 0.28 0.06 0.04 0.12 0.01 0.00 0.00 0.00 0.00 0.00 0.00 0.00 0.00 0.00 0.00 0.00 0.00 0.00 0.00 0.00 0.00 0.00 0.00 0.00 0.00 0.00 0.00 0.03 0.05 0.07 0.07 0.14 0.13 0.16
0.50 0.97 0.88 0.71 0.69 0.62 0.70 0.66 0.56 0.44 0.24 0.24 0.04 0.01 0.00 0.00 0.00 0.00 0.00 0.00 0.00 0.00 0.00 0.00 0.00 0.00 0.00 0.00 0.00 0.00 0.00 0.00 0.00 0.02 0.02 0.01 0.01 0.03 0.05 0.06 0.08 0.10 0.09 0.10
0.25 0.88 0.92 0.93 1.13 0.85 0.48 0.25 0.43 1.09 0.64 0.30 0.07 0.00 0.00 0.00 0.00 0.00 0.00 0.00 0.00 0.00 0.00 0.00 0.00 0.00 0.00 0.00 0.00 0.00 0.00 0.00 0.01 0.03 0.01 0.00 0.03 0.05 0.05 0.05 0.06 0.06 0.07 0.07
0.40 0.76 0.96 1.23 1.23 0.76 0.61 0.74 0.46 0.48 0.34 0.29 0.19 0.01 0.00 0.00 0.00 0.00 0.00 0.00 0.00 0.00 0.00 0.00 0.00 0.00 0.00 0.00 0.00 0.00 0.00 0.00 0.01 0.00 0.00 0.02 0.03 0.04 0.05 0.06 0.06 0.04 0.03 0.04
0.36 0.75 0.91 0.74 0.28 0.23 0.34 0.32 0.30 0.78 0.44 0.40 0.36 0.10 0.00 0.01 0.01 0.00 0.01 0.02 0.01 0.00 0.00 0.00 0.00 0.00 0.00 0.00 0.00 0.00 0.02 0.02 0.01 0.00 0.01 0.03 0.03 0.03 0.04 0.06 0.06 0.05 0.05 0.03
0.43 0.90 0.86 0.67 0.56 0.59 0.79 0.42 0.35 0.59 0.97 0.67 0.42 0.14 0.00 0.00 0.00 0.00 0.01 0.03 0.02 0.01 0.00 0.00 0.00 0.00 0.00 0.02 0.05 0.09 0.03 0.00 0.00 0.01 0.01 0.02 0.03 0.04 0.05 0.04 0.04 0.03 0.02 0.02
0.41 0.88 0.93 0.75 0.44 0.58 0.82 0.45 0.57 1.13 1.09 0.36 0.29 0.04 0.01 0.01 0.02 0.01 0.00 0.02 0.04 0.01 0.01 0.00 0.00 0.00 0.02 0.07 0.10 0.10 0.01 0.01 0.02 0.03 0.03 0.04 0.05 0.05 0.04 0.05 0.05 0.03 0.03 0.02
0.43 0.90 0.88 0.49 0.28 0.42 0.57 0.56 0.49 0.94 0.52 0.52 0.16 0.07 0.03 0.03 0.02 0.02 0.01 0.01 0.04 0.05 0.04 0.02 0.02 0.03 0.02 0.05 0.05 0.06 0.09 0.07 0.07 0.07 0.05 0.05 0.05 0.05 0.04 0.04 0.05 0.05 0.04 0.04
0.33 0.71 0.75 0.61 0.24 0.38 0.48 0.55 0.36 0.56 0.27 0.26 0.17 0.13 0.01 0.01 0.01 0.00 0.01 0.04 0.07 0.07 0.04 0.02 0.01 0.01 0.01 0.00 0.00 0.02 0.08 0.09 0.09 0.11 0.06 0.04 0.02 0.05 0.05 0.06 0.06 0.07 0.14 0.12
0.28 0.51 0.73 0.64 0.48 0.28 0.47 0.58 0.68 0.48 0.20 0.25 0.28 0.15 0.01 0.01 0.04 0.06 0.05 0.06 0.04 0.03 0.02 0.01 0.00 0.00 0.00 0.00 0.00 0.01 0.03 0.05 0.09 0.08 0.06 0.05 0.03 0.04 0.07 0.09 0.16 0.21 0.27 0.56
0.06 0.23 0.46 0.31 0.15 0.16 0.11 0.14 0.44 0.28 0.23 0.26 0.14 0.07 0.02 0.00 0.00 0.02 0.04 0.02 0.01 0.01 0.00 0.01 0.00 0.00 0.00 0.00 0.01 0.02 0.09 0.12 0.40 0.10 0.15 0.16 0.14 0.17 0.20 0.33 0.45 0.48 0.47 0.48
0.05 0.16 0.25 0.16 0.07 0.03 0.00 0.00 0.07 0.13 0.22 0.14 0.07 0.02 0.00 0.00 0.22 0.35 0.15 0.04 0.01 0.00 0.00 0.00 0.00 0.00 0.00 0.02 0.02 0.02 0.04 0.14 0.36 0.22 0.25 0.36 0.31 0.28 0.26 0.40 0.50 0.37 0.51 0.67
0.05 0.18 0.27 0.10 0.12 0.02 0.00 0.00 0.01 0.02 0.19 0.02 0.05 0.04 0.02 0.01 0.29 0.32 0.24 0.05 0.02 0.00 0.00 0.00 0.00 0.02 0.05 0.08 0.08 0.07 0.07 0.10 0.31 0.33 0.31 0.30 0.48 0.40 0.48 0.44 0.49 0.75 0.60 0.54
0.11 0.19 0.28 0.15 0.18 0.01 0.00 0.00 0.01 0.09 0.14 0.01 0.06 0.06 0.01 0.01 0.03 0.06 0.08 0.11 0.08 0.12 0.12 0.14 0.08 0.16 0.24 0.37 0.35 0.41 0.43 0.62 0.88 0.58 0.60 0.65 0.78 0.67 0.61 0.66 0.57 0.50 0.37 0.26
0.03 0.05 0.09 0.14 0.10 0.00 0.00 0.00 0.00 0.01 0.01 0.02 0.10 0.03 0.02 0.01 0.02 0.02 0.01 0.07 0.11 0.14 0.12 0.33 0.48 0.53 0.60 0.72 0.65 0.63 0.71 0.75 0.91 0.67 0.59 0.57 0.49 0.44 0.35 0.27 0.18 0.10 0.09 0.05
0.00 0.00 0.00 0.00 0.00 0.00 0.00 0.00 0.00 0.00 0.00 0.00 0.02 0.10 0.13 0.12 0.19 0.07 0.02 0.01 0.03 0.07 0.03 0.12 0.22 0.13 0.18 0.29 0.34 0.25 0.24 0.23 0.20 0.16 0.13 0.13 0.08 0.05 0.03 0.00 0.00 0.00 0.00 0.00
0.00 0.00 0.00 0.00 0.00 0.00 0.00 0.00 0.00 0.00 0.00 0.00 0.00 0.01 0.22 0.07 0.08 0.03 0.06 0.04 0.05 0.05 0.02 0.04 0.04 0.04 0.04 0.05 0.04 0.03 0.02 0.02 0.01 0.01 0.01 0.00 0.00 0.00 0.00 0.00 0.00 0.00 0.00 0.00
0.01 0.00 0.00 0.00 0.00 0.00 0.00 0.00 0.00 0.00 0.00 0.00 0.00 0.00 0.00 0.05 0.07 0.02 0.16 0.08 0.00 0.00 0.00 0.00 0.01 0.02 0.00 0.00 0.00 0.00 0.00 0.00 0.00 0.00 0.00 0.00 0.00 0.00 0.00 0.00 0.00 0.00 0.00 0.00
0.00 0.00 0.00 0.00 0.00 0.00 0.00 0.00 0.00 0.00 0.01 0.00 0.00 0.00 0.00 0.00 0.12 0.01 0.06 0.03 0.00 0.00 0.00 0.00 0.00 0.00 0.00 0.00 0.00 0.00 0.00 0.00 0.00 0.00 0.00 0.00 0.00 0.00 0.00 0.00 0.00 0.00 0.00 0.00

GFSCGP_prec_precacc_087.txt.gz
Total_Precipitation_Accumulation
1.99 2.57 1.87 0.98 0.40 0.06 0.02 0.02 0.02 0.00 0.00 0.01 0.00 0.00 0.00 0.00 0.00 0.00 0.01 0.03 0.01 0.00 0.00 0.00 0.01 0.04 0.04 0.03 0.06 0.11 0.11 0.16 0.20 0.28 0.19 0.17 0.27 0.41 0.31 0.39 0.35 0.26 0.14 0.13
1.96 1.87 0.95 0.54 0.43 0.24 0.04 0.06 0.02 0.01 0.00 0.02 0.00 0.00 0.00 0.00 0.00 0.00 0.00 0.00 0.00 0.00 0.00 0.00 0.00 0.00 0.00 0.01 0.02 0.03 0.05 0.06 0.08 0.18 0.20 0.17 0.40 0.37 0.55 0.68 0.35 0.39 0.39 0.48
1.28 0.97 1.01 1.20 0.96 0.59 0.17 0.05 0.03 0.01 0.01 0.01 0.01 0.00 0.00 0.00 0.00 0.00 0.00 0.00 0.00 0.00 0.00 0.00 0.00 0.00 0.00 0.00 0.00 0.00 0.01 0.04 0.09 0.12 0.16 0.20 0.29 0.28 0.33 0.26 0.20 0.45 0.55 0.64
1.08 0.83 1.02 1.65 1.43 0.78 0.42 0.07 0.04 0.06 0.06 0.03 0.03 0.03 0.00 0.00 0.00 0.00 0.00 0.00 0.00 0.00 0.00 0.00 0.00 0.00 0.00 0.00 0.00 0.00 0.00 0.01 0.02 0.04 0.03 0.03 0.06 0.13 0.15 0.30 0.34 0.32 0.31 0.57
1.17 0.82 0.68 1.31 1.07 0.96 0.46 0.14 0.05 0.13 0.20 0.12 0.05 0.08 0.01 0.00 0.00 0.00 0.00 0.00 0.00 0.00 0.00 0.00 0.00 0.00 0.00 0.00 0.00 0.00 0.00 0.00 0.00 0.01 0.01 0.01 0.03 0.08 0.15 0.18 0.18 0.26 0.28 0.39
0.69 0.69 0.83 0.65 0.85 1.01 0.49 0.35 0.33 0.29 0.45 0.69 0.07 0.06 0.02 0.00 0.00 0.00 0.00 0.00 0.00 0.00 0.00 0.00 0.00 0.00 0.00 0.00 0.00 0.00 0.00 0.00 0.00 0.00 0.00 0.01 0.01 0.06 0.14 0.13 0.16 0.24 0.26 0.24
1.26 1.19 1.03 0.83 1.35 1.28 0.96 1.05 1.39 1.18 0.85 0.43 0.10 0.05 0.05 0.00 0.00 0.00 0.00 0.00 0.00 0.00 0.00 0.00 0.00 0.00 0.00 0.00 0.00 0.00 0.00 0.00 0.00 0.00 0.00 0.00 0.00 0.03 0.10 0.12 0.12 0.16 0.16 0.13
1.12 1.49 1.25 0.99 1.28 1.38 0.85 0.96 0.98 0.61 0.28 0.06 0.04 0.12 0.01 0.00 0.00 0.00 0.00 0.00 0.00 0.00 0.00 0.00 0.00 0.00 0.00 0.00 0.00 0.00 0.00 0.00 0.00 0.00 0.00 0.00 0.00 0.03 0.05 0.07 0.07 0.14 0.13 0.16
0.51 1.01 0.90 0.73 0.79 0.84 0.82 0.67 0.56 0.44 0.24 0.24 0.04 0.01 0.00 0.00 0.00 0.00 0.00 0.00 0.00 0.00 0.00 0.00 0.00 0.00 0.00 0.00 0.00 0.00 0.00 0.00 0.00 0.02 0.02 0.01 0.01 0.03 0.05 0.06 0.08 0.10 0.09 0.10
0.25 0.92 0.94 0.95 1.15 0.93 0.56 0.26 0.43 1.09 0.64 0.30 0.07 0.00 0.00 0.00 0.00 0.00 0.00 0.00 0.00 0.00 0.00 0.00 0.00 0.00 0.00 0.00 0.00 0.00 0.00 0.00 0.01 0.03 0.01 0.00 0.03 0.05 0.05 0.05 0.06 0.06 0.07 0.07
0.40 0.79 1.01 1.25 1.25 0.81 0.62 0.75 0.46 0.48 0.34 0.29 0.19 0.01 0.00 0.00 0.00 0.00 0.00 0.00 0.00 0.00 0.00 0.00 0.00 0.00 0.00 0.00 0.00 0.00 0.00 0.00 0.01 0.00 0.00 0.02 0.03 0.04 0.05 0.06 0.06 0.04 0.03 0.04
0.36 0.75 0.94 0.75 0.28 0.25 0.34 0.32 0.30 0.78 0.44 0.40 0.36 0.10 0.00 0.01 0.01 0.00 0.01 0.02 0.01 0.00 0.00 0.00 0.00 0.00 0.00 0.00 0.00 0.00 0.02 0.02 0.01 0.00 0.01 0.03 0.03 0.03 0.04 0.06 0.06 0.05 0.05 0.03
0.43 0.90 0.87 0.69 0.57 0.61 0.82 0.42 0.35 0.59 0.97 0.67 0.42 0.14 0.00 0.00 0.00 0.00 0.01 0.03 0.02 0.01 0.00 0.00 0.00 0.00 0.00 0.02 0.05 0.09 0.03 0.00 0.00 0.01 0.01 0.02 0.03 0.04 0.05 0.04 0.04 0.03 0.02 0.02
0.41 0.88 0.93 0.76 0.44 0.58 0.82 0.45 0.57 1.13 1.09 0.36 0.29 0.04 0.01 0.01 0.02 0.01 0.00 0.02 0.04 0.01 0.01 0.00 0.00 0.00 0.02 0.07 0.10 0.10 0.01 0.01 0.02 0.03 0.03 0.04 0.05 0.05 0.04 0.05 0.05 0.03 0.03 0.02
0.44 0.90 0.88 0.49 0.28 0.42 0.57 0.56 0.49 0.94 0.52 0.52 0.16 0.07 0.03 0.03 0.02 0.02 0.01 0.01 0.04 0.05 0.04 0.02 0.02 0.03 0.02 0.05 0.05 0.06 0.09 0.07 0.07 0.07 0.05 0.05 0.05 0.05 0.04 0.04 0.05 0.05 0.04 0.04
0.33 0.71 0.75 0.61 0.24 0.38 0.48 0.55 0.36 0.56 0.27 0.26 0.17 0.13 0.01 0.01 0.01 0.00 0.01 0.04 0.07 0.07 0.04 0.02 0.01 0.01 0.01 0.00 0.00 0.02 0.08 0.09 0.09 0.11 0.06 0.04 0.02 0.05 0.05 0.06 0.06 0.07 0.14 0.12
0.28 0.51 0.73 0.64 0.48 0.28 0.47 0.58 0.68 0.48 0.20 0.25 0.28 0.15 0.01 0.01 0.04 0.06 0.05 0.06 0.04 0.03 0.02 0.01 0.00 0.00 0.00 0.00 0.00 0.01 0.03 0.05 0.09 0.08 0.06 0.05 0.03 0.04 0.07 0.09 0.16 0.21 0.27 0.56
0.06 0.23 0.46 0.31 0.15 0.16 0.11 0.14 0.44 0.28 0.23 0.26 0.14 0.07 0.02 0.00 0.00 0.02 0.04 0.02 0.01 0.01 0.00 0.01 0.00 0.00 0.00 0.00 0.01 0.02 0.09 0.12 0.40 0.10 0.15 0.16 0.14 0.17 0.20 0.33 0.45 0.48 0.47 0.48
0.05 0.16 0.25 0.16 0.07 0.03 0.00 0.00 0.07 0.13 0.22 0.14 0.07 0.02 0.00 0.00 0.22 0.35 0.15 0.04 0.01 0.00 0.00 0.00 0.00 0.00 0.00 0.02 0.02 0.02 0.04 0.14 0.36 0.22 0.25 0.36 0.31 0.28 0.26 0.40 0.50 0.37 0.51 0.67
0.05 0.18 0.27 0.10 0.12 0.02 0.00 0.00 0.01 0.02 0.19 0.02 0.05 0.04 0.02 0.01 0.29 0.32 0.24 0.05 0.02 0.00 0.00 0.00 0.00 0.02 0.05 0.08 0.08 0.07 0.07 0.10 0.31 0.33 0.31 0.30 0.48 0.40 0.48 0.44 0.49 0.75 0.60 0.54
0.11 0.19 0.28 0.15 0.18 0.01 0.00 0.00 0.01 0.09 0.14 0.01 0.06 0.06 0.01 0.01 0.03 0.06 0.08 0.11 0.08 0.12 0.12 0.14 0.08 0.16 0.24 0.37 0.35 0.41 0.43 0.62 0.88 0.58 0.60 0.65 0.78 0.67 0.61 0.66 0.57 0.50 0.37 0.26
0.03 0.05 0.09 0.14 0.10 0.00 0.00 0.00 0.00 0.01 0.01 0.02 0.10 0.03 0.02 0.01 0.02 0.02 0.01 0.07 0.11 0.14 0.12 0.33 0.48 0.53 0.60 0.72 0.65 0.63 0.71 0.75 0.91 0.67 0.59 0.57 0.49 0.44 0.35 0.27 0.18 0.10 0.09 0.05
0.00 0.00 0.00 0.00 0.00 0.00 0.00 0.00 0.00 0.00 0.00 0.00 0.02 0.10 0.13 0.12 0.19 0.07 0.02 0.01 0.03 0.07 0.03 0.12 0.22 0.13 0.18 0.29 0.34 0.25 0.24 0.23 0.20 0.16 0.13 0.13 0.08 0.05 0.03 0.00 0.00 0.00 0.00 0.00
0.00 0.00 0.00 0.00 0.00 0.00 0.00 0.00 0.00 0.00 0.00 0.00 0.00 0.01 0.22 0.07 0.08 0.03 0.06 0.04 0.05 0.05 0.02 0.04 0.04 0.04 0.04 0.05 0.04 0.03 0.02 0.02 0.01 0.01 0.01 0.00 0.00 0.01 0.00 0.00 0.00 0.00 0.00 0.00
0.01 0.00 0.00 0.00 0.00 0.00 0.00 0.00 0.00 0.00 0.00 0.00 0.00 0.00 0.00 0.05 0.07 0.02 0.16 0.08 0.00 0.00 0.00 0.00 0.01 0.02 0.00 0.00 0.00 0.00 0.00 0.00 0.00 0.00 0.00 0.00 0.00 0.01 0.00 0.00 0.00 0.00 0.00 0.00
0.00 0.00 0.00 0.00 0.00 0.00 0.00 0.00 0.00 0.00 0.01 0.00 0.00 0.00 0.00 0.00 0.12 0.01 0.06 0.03 0.00 0.00 0.00 0.00 0.00 0.00 0.00 0.00 0.00 0.00 0.00 0.00 0.00 0.00 0.00 0.00 0.00 0.00 0.00 0.00 0.00 0.00 0.00 0.00

GFSCGP_prec_precacc_090.txt.gz
Total_Precipitation_Accumulation
2.00 2.60 1.93 0.99 0.45 0.11 0.02 0.02 0.02 0.00 0.00 0.01 0.00 0.00 0.00 0.00 0.00 0.00 0.01 0.03 0.01 0.00 0.00 0.00 0.01 0.04 0.04 0.03 0.07 0.16 0.23 0.28 0.26 0.32 0.29 0.28 0.32 0.45 0.32 0.39 0.35 0.26 0.14 0.13
1.98 1.87 0.96 0.54 0.48 0.32 0.05 0.06 0.02 0.01 0.01 0.03 0.00 0.00 0.00 0.00 0.00 0.00 0.00 0.00 0.00 0.00 0.00 0.00 0.01 0.00 0.02 0.02 0.03 0.05 0.06 0.11 0.12 0.23 0.30 0.29 0.50 0.47 0.60 0.71 0.36 0.41 0.40 0.50
1.28 0.97 1.01 1.23 1.04 0.75 0.18 0.05 0.04 0.02 0.01 0.01 0.02 0.00 0.00 0.00 0.00 0.00 0.00 0.00 0.00 0.00 0.00 0.00 0.01 0.01 0.00 0.01 0.01 0.01 0.02 0.05 0.11 0.19 0.24 0.28 0.40 0.42 0.51 0.38 0.34 0.57 0.63 0.68
1.08 0.83 1.03 1.68 1.46 0.94 0.45 0.07 0.05 0.07 0.06 0.03 0.03 0.03 0.00 0.00 0.00 0.00 0.00 0.00 0.00 0.00 0.00 0.00 0.00 0.01 0.00 0.00 0.00 0.00 0.01 0.03 0.05 0.07 0.10 0.14 0.15 0.22 0.23 0.34 0.37 0.32 0.31 0.58
1.18 0.85 0.69 1.32 1.09 1.04 0.50 0.14 0.06 0.15 0.21 0.12 0.05 0.09 0.01 0.00 0.00 0.00 0.00 0.00 0.00 0.00 0.00 0.00 0.00 0.00 0.00 0.00 0.00 0.00 0.00 0.00 0.03 0.06 0.06 0.07 0.06 0.11 0.19 0.24 0.25 0.29 0.29 0.40
0.69 0.70 0.86 0.65 0.85 1.07 0.56 0.36 0.36 0.33 0.48 0.70 0.07 0.06 0.02 0.00 0.00 0.00 0.00 0.00 0.00 0.00 0.00 0.00 0.00 0.00 0.00 0.00 0.00 0.00 0.00 0.00 0.00 0.02 0.04 0.07 0.05 0.09 0.17 0.15 0.17 0.24 0.26 0.24
1.27 1.19 1.04 0.84 1.37 1.40 1.22 1.13 1.44 1.22 0.87 0.43 0.10 0.05 0.05 0.00 0.00 0.00 0.00 0.00 0.00 0.00 0.00 0.00 0.00 0.00 0.00 0.00 0.00 0.00 0.00 0.00 0.00 0.00 0.00 0.01 0.01 0.04 0.11 0.13 0.12 0.16 0.16 0.13
1.13 1.49 1.25 0.99 1.30 1.61 1.01 1.03 0.99 0.62 0.29 0.06 0.04 0.12 0.01 0.00 0.00 0.00 0.00 0.00 0.00 0.00 0.00 0.00 0.00 0.00 0.00 0.00 0.00 0.00 0.00 0.00 0.00 0.00 0.00 0.00 0.00 0.03 0.05 0.07 0.07 0.14 0.13 0.16
0.52 1.02 0.90 0.73 0.85 1.16 0.97 0.68 0.57 0.44 0.24 0.24 0.04 0.01 0.00 0.00 0.00 0.00 0.00 0.00 0.00 0.00 0.00 0.00 0.00 0.00 0.00 0.00 0.00 0.00 0.00 0.00 0.00 0.02 0.02 0.01 0.01 0.03 0.05 0.06 0.08 0.10 0.09 0.10
0.28 0.94 0.95 1.00 1.25 1.11 0.73 0.27 0.43 1.09 0.64 0.30 0.07 0.00 0.00 0.00 0.00 0.00 0.00 0.00 0.00 0.00 0.00 0.00 0.00 0.00 0.00 0.00 0.00 0.00 0.00 0.00 0.01 0.03 0.01 0.00 0.03 0.05 0.05 0.05 0.06 0.06 0.07 0.07
0.42 0.82 1.07 1.37 1.32 0.86 0.73 0.76 0.46 0.48 0.34 0.29 0.19 0.01 0.00 0.00 0.00 0.00 0.00 0.00 0.00 0.00 0.00 0.00 0.00 0.00 0.00 0.00 0.00 0.00 0.00 0.00 0.01 0.00 0.00 0.02 0.03 0.04 0.05 0.06 0.06 0.04 0.03 0.04
0.36 0.79 0.97 0.79 0.29 0.26 0.38 0.32 0.30 0.78 0.44 0.40 0.36 0.10 0.00 0.01 0.01 0.00 0.01 0.02 0.01 0.00 0.00 0.00 0.00 0.00 0.00 0.00 0.00 0.00 0.02 0.02 0.01 0.00 0.01 0.03 0.03 0.03 0.04 0.06 0.06 0.05 0.05 0.03
0.43 0.91 0.90 0.72 0.58 0.61 0.83 0.42 0.35 0.59 0.97 0.67 0.42 0.14 0.00 0.00 0.00 0.00 0.01 0.03 0.02 0.01 0.00 0.00 0.00 0.00 0.00 0.02 0.05 0.09 0.03 0.00 0.00 0.01 0.01 0.02 0.03 0.04 0.05 0.04 0.04 0.03 0.02 0.02
0.41 0.88 0.93 0.76 0.44 0.58 0.82 0.45 0.57 1.13 1.09 0.36 0.29 0.04 0.01 0.01 0.02 0.01 0.00 0.02 0.04 0.01 0.01 0.00 0.00 0.00 0.02 0.07 0.10 0.10 0.01 0.01 0.02 0.03 0.03 0.04 0.05 0.05 0.04 0.05 0.05 0.03 0.03 0.02
0.44 0.90 0.88 0.49 0.28 0.42 0.57 0.56 0.49 0.94 0.52 0.52 0.16 0.07 0.03 0.03 0.02 0.02 0.01 0.01 0.04 0.05 0.04 0.02 0.02 0.03 0.02 0.05 0.05 0.06 0.09 0.07 0.07 0.07 0.05 0.05 0.05 0.05 0.04 0.04 0.05 0.05 0.04 0.04
0.35 0.71 0.75 0.61 0.24 0.38 0.48 0.55 0.36 0.56 0.27 0.26 0.17 0.13 0.01 0.01 0.01 0.00 0.01 0.04 0.07 0.07 0.04 0.02 0.01 0.01 0.01 0.00 0.00 0.02 0.08 0.09 0.09 0.11 0.06 0.04 0.02 0.05 0.05 0.06 0.06 0.07 0.14 0.12
0.28 0.51 0.73 0.64 0.48 0.28 0.47 0.58 0.68 0.48 0.20 0.25 0.28 0.15 0.01 0.01 0.04 0.06 0.05 0.06 0.04 0.03 0.02 0.01 0.00 0.00 0.00 0.00 0.00 0.01 0.03 0.05 0.09 0.08 0.06 0.05 0.03 0.04 0.07 0.09 0.16 0.21 0.27 0.56
0.06 0.23 0.46 0.31 0.15 0.16 0.11 0.14 0.44 0.28 0.23 0.26 0.14 0.07 0.02 0.00 0.00 0.02 0.04 0.02 0.01 0.01 0.00 0.01 0.00 0.00 0.00 0.00 0.01 0.02 0.09 0.12 0.40 0.10 0.15 0.16 0.14 0.17 0.20 0.33 0.45 0.48 0.47 0.48
0.05 0.16 0.25 0.16 0.07 0.03 0.00 0.00 0.07 0.13 0.22 0.14 0.07 0.02 0.00 0.00 0.22 0.35 0.15 0.04 0.01 0.00 0.00 0.00 0.00 0.00 0.00 0.02 0.02 0.02 0.04 0.14 0.36 0.22 0.25 0.36 0.31 0.28 0.26 0.40 0.50 0.37 0.51 0.67
0.05 0.18 0.27 0.10 0.12 0.02 0.00 0.00 0.01 0.02 0.19 0.02 0.05 0.04 0.02 0.01 0.29 0.32 0.24 0.05 0.02 0.00 0.00 0.00 0.00 0.02 0.05 0.08 0.08 0.07 0.07 0.10 0.31 0.33 0.31 0.30 0.48 0.40 0.48 0.44 0.49 0.75 0.60 0.54
0.11 0.19 0.28 0.15 0.18 0.01 0.00 0.00 0.01 0.09 0.14 0.01 0.06 0.06 0.01 0.01 0.03 0.06 0.08 0.11 0.08 0.12 0.12 0.14 0.08 0.16 0.24 0.37 0.35 0.41 0.43 0.62 0.88 0.58 0.60 0.65 0.78 0.67 0.61 0.66 0.57 0.50 0.37 0.26
0.03 0.05 0.09 0.14 0.10 0.00 0.00 0.00 0.00 0.01 0.01 0.02 0.10 0.03 0.02 0.01 0.02 0.02 0.01 0.07 0.11 0.14 0.12 0.33 0.48 0.53 0.60 0.72 0.65 0.63 0.71 0.75 0.91 0.67 0.59 0.57 0.49 0.44 0.35 0.27 0.18 0.10 0.09 0.05
0.00 0.00 0.00 0.00 0.00 0.00 0.00 0.00 0.00 0.00 0.00 0.00 0.02 0.10 0.13 0.12 0.19 0.07 0.02 0.01 0.03 0.07 0.03 0.12 0.22 0.13 0.18 0.29 0.34 0.25 0.24 0.23 0.20 0.16 0.13 0.13 0.08 0.05 0.03 0.00 0.00 0.00 0.00 0.00
0.00 0.00 0.00 0.00 0.00 0.00 0.00 0.00 0.00 0.00 0.00 0.00 0.00 0.01 0.22 0.07 0.08 0.03 0.06 0.04 0.05 0.05 0.02 0.04 0.04 0.04 0.04 0.05 0.04 0.03 0.02 0.02 0.01 0.01 0.01 0.00 0.00 0.01 0.00 0.00 0.00 0.00 0.00 0.00
0.01 0.00 0.00 0.00 0.00 0.00 0.00 0.00 0.00 0.01 0.01 0.00 0.00 0.00 0.00 0.05 0.07 0.02 0.16 0.08 0.00 0.00 0.00 0.00 0.01 0.02 0.00 0.00 0.00 0.00 0.00 0.00 0.00 0.00 0.00 0.00 0.00 0.01 0.00 0.00 0.00 0.00 0.00 0.00
0.00 0.00 0.00 0.00 0.00 0.00 0.00 0.00 0.00 0.00 0.01 0.00 0.00 0.00 0.00 0.00 0.12 0.01 0.06 0.03 0.00 0.00 0.00 0.00 0.00 0.00 0.00 0.00 0.00 0.00 0.00 0.00 0.00 0.00 0.00 0.00 0.00 0.00 0.00 0.00 0.00 0.00 0.00 0.00

GFSCGP_prec_precacc_093.txt.gz
Total_Precipitation_Accumulation
2.01 2.66 1.98 1.01 0.46 0.16 0.03 0.03 0.02 0.00 0.00 0.02 0.00 0.00 0.00 0.00 0.00 0.00 0.01 0.03 0.01 0.00 0.00 0.00 0.01 0.04 0.04 0.03 0.11 0.18 0.24 0.34 0.29 0.33 0.34 0.33 0.39 0.52 0.35 0.40 0.35 0.26 0.14 0.13
2.00 1.89 0.96 0.55 0.54 0.42 0.08 0.07 0.03 0.02 0.02 0.05 0.01 0.00 0.00 0.00 0.00 0.00 0.00 0.00 0.00 0.00 0.00 0.00 0.01 0.00 0.02 0.02 0.06 0.14 0.07 0.11 0.15 0.24 0.32 0.32 0.59 0.50 0.63 0.74 0.44 0.45 0.40 0.50
1.31 0.99 1.01 1.25 1.14 0.87 0.21 0.05 0.04 0.02 0.02 0.02 0.03 0.01 0.00 0.00 0.00 0.00 0.00 0.00 0.00 0.00 0.00 0.00 0.01 0.01 0.01 0.02 0.02 0.05 0.07 0.07 0.11 0.19 0.26 0.31 0.46 0.44 0.51 0.41 0.41 0.67 0.76 0.72
1.09 0.84 1.03 1.69 1.49 0.99 0.47 0.07 0.05 0.08 0.08 0.04 0.03 0.03 0.00 0.00 0.00 0.00 0.00 0.00 0.00 0.00 0.00 0.00 0.00 0.01 0.02 0.01 0.02 0.01 0.03 0.04 0.09 0.10 0.11 0.14 0.18 0.28 0.29 0.38 0.41 0.34 0.47 0.73
1.25 0.85 0.70 1.32 1.09 1.06 0.57 0.15 0.07 0.16 0.22 0.14 0.05 0.09 0.01 0.00 0.00 0.00 0.00 0.00 0.00 0.00 0.00 0.00 0.00 0.00 0.01 0.01 0.01 0.00 0.00 0.00 0.05 0.08 0.09 0.13 0.10 0.19 0.27 0.27 0.28 0.31 0.34 0.52
0.73 0.73 0.89 0.68 0.87 1.08 0.62 0.37 0.39 0.36 0.52 0.73 0.08 0.06 0.02 0.00 0.00 0.00 0.00 0.00 0.00 0.00 0.00 0.00 0.00 0.00 0.01 0.00 0.00 0.00 0.00 0.00 0.01 0.04 0.08 0.13 0.08 0.14 0.24 0.21 0.22 0.26 0.27 0.26
1.28 1.28 1.08 0.89 1.42 1.47 1.34 1.20 1.57 1.31 0.94 0.44 0.10 0.05 0.05 0.00 0.00 0.00 0.00 0.00 0.00 0.00 0.00 0.00 0.00 0.00 0.00 0.00 0.00 0.00 0.00 0.00 0.00 0.00 0.02 0.04 0.06 0.08 0.15 0.19 0.19 0.23 0.19 0.14
1.14 1.52 1.29 1.02 1.32 1.68 1.12 1.09 1.05 0.63 0.29 0.07 0.04 0.12 0.01 0.00 0.00 0.00 0.00 0.00 0.00 0.00 0.00 0.00 0.00 0.00 0.00 0.00 0.00 0.00 0.00 0.00 0.00 0.00 0.00 0.00 0.01 0.03 0.07 0.08 0.07 0.14 0.13 0.16
0.54 1.04 0.92 0.74 0.85 1.21 1.13 0.70 0.57 0.44 0.24 0.24 0.04 0.01 0.00 0.00 0.00 0.00 0.00 0.00 0.00 0.00 0.00 0.00 0.00 0.00 0.00 0.00 0.00 0.00 0.00 0.00 0.00 0.02 0.02 0.01 0.01 0.03 0.05 0.06 0.08 0.10 0.09 0.10
0.30 0.96 0.97 1.01 1.25 1.15 0.87 0.29 0.44 1.10 0.64 0.31 0.07 0.00 0.00 0.00 0.00 0.00 0.00 0.00 0.00 0.00 0.00 0.00 0.00 0.00 0.00 0.00 0.00 0.00 0.00 0.00 0.01 0.03 0.01 0.00 0.03 0.05 0.05 0.05 0.06 0.06 0.07 0.07
0.42 0.84 1.11 1.41 1.34 0.89 0.79 0.79 0.47 0.50 0.34 0.29 0.19 0.01 0.00 0.00 0.00 0.00 0.00 0.00 0.00 0.00 0.00 0.00 0.00 0.00 0.00 0.00 0.00 0.00 0.00 0.00 0.01 0.00 0.00 0.02 0.03 0.04 0.05 0.06 0.06 0.04 0.03 0.04
0.38 0.83 1.04 0.89 0.31 0.26 0.39 0.34 0.32 0.80 0.44 0.40 0.36 0.10 0.00 0.01 0.01 0.00 0.01 0.02 0.01 0.00 0.00 0.00 0.00 0.00 0.00 0.00 0.00 0.00 0.02 0.02 0.01 0.00 0.01 0.03 0.03 0.03 0.04 0.06 0.06 0.05 0.05 0.03
0.46 0.97 0.98 0.79 0.60 0.62 0.84 0.42 0.35 0.59 0.98 0.68 0.43 0.14 0.00 0.00 0.00 0.00 0.01 0.03 0.02 0.01 0.00 0.00 0.00 0.00 0.00 0.02 0.05 0.09 0.03 0.00 0.00 0.01 0.01 0.02 0.03 0.04 0.05 0.04 0.04 0.03 0.02 0.02
0.43 0.93 0.97 0.78 0.44 0.58 0.82 0.45 0.57 1.13 1.10 0.36 0.29 0.04 0.01 0.01 0.02 0.01 0.00 0.02 0.04 0.01 0.01 0.00 0.00 0.00 0.02 0.07 0.10 0.10 0.01 0.01 0.02 0.03 0.03 0.04 0.05 0.05 0.04 0.05 0.05 0.03 0.03 0.02
0.45 0.93 0.88 0.49 0.28 0.42 0.57 0.56 0.49 0.94 0.52 0.52 0.16 0.07 0.03 0.03 0.02 0.02 0.01 0.01 0.04 0.05 0.04 0.02 0.02 0.03 0.02 0.05 0.05 0.06 0.09 0.07 0.07 0.07 0.05 0.05 0.05 0.05 0.04 0.04 0.05 0.05 0.04 0.04
0.35 0.71 0.75 0.61 0.24 0.38 0.48 0.55 0.36 0.56 0.27 0.26 0.17 0.13 0.01 0.01 0.01 0.00 0.01 0.04 0.07 0.07 0.04 0.02 0.01 0.01 0.01 0.00 0.00 0.02 0.08 0.09 0.09 0.11 0.06 0.04 0.02 0.05 0.05 0.06 0.06 0.07 0.14 0.12
0.28 0.51 0.73 0.64 0.48 0.28 0.47 0.58 0.68 0.48 0.20 0.25 0.28 0.15 0.01 0.01 0.04 0.06 0.05 0.06 0.04 0.03 0.02 0.01 0.00 0.00 0.00 0.00 0.00 0.01 0.03 0.05 0.09 0.08 0.06 0.05 0.03 0.04 0.07 0.09 0.16 0.21 0.27 0.56
0.06 0.23 0.46 0.31 0.15 0.16 0.11 0.14 0.44 0.28 0.23 0.26 0.14 0.07 0.02 0.00 0.00 0.02 0.04 0.02 0.01 0.01 0.00 0.01 0.00 0.00 0.00 0.00 0.01 0.02 0.09 0.12 0.40 0.10 0.15 0.16 0.14 0.17 0.20 0.33 0.45 0.48 0.47 0.48
0.05 0.16 0.25 0.16 0.07 0.03 0.00 0.00 0.07 0.13 0.22 0.14 0.07 0.02 0.00 0.00 0.22 0.35 0.15 0.04 0.01 0.00 0.00 0.00 0.00 0.00 0.00 0.02 0.02 0.02 0.04 0.14 0.36 0.22 0.25 0.36 0.31 0.28 0.26 0.40 0.50 0.37 0.51 0.67
0.05 0.18 0.27 0.10 0.12 0.02 0.00 0.00 0.01 0.02 0.19 0.02 0.05 0.04 0.02 0.01 0.29 0.32 0.24 0.05 0.02 0.00 0.00 0.00 0.00 0.02 0.05 0.08 0.08 0.07 0.07 0.10 0.31 0.33 0.31 0.30 0.48 0.40 0.48 0.44 0.49 0.75 0.60 0.54
0.11 0.19 0.28 0.15 0.18 0.01 0.00 0.00 0.01 0.09 0.14 0.01 0.06 0.06 0.01 0.01 0.03 0.06 0.08 0.11 0.08 0.12 0.12 0.14 0.08 0.16 0.24 0.37 0.35 0.41 0.43 0.62 0.88 0.58 0.60 0.65 0.78 0.67 0.61 0.66 0.57 0.50 0.37 0.26
0.03 0.05 0.09 0.14 0.10 0.00 0.00 0.00 0.00 0.01 0.01 0.02 0.10 0.03 0.02 0.01 0.02 0.02 0.01 0.07 0.11 0.14 0.12 0.33 0.48 0.53 0.60 0.72 0.65 0.63 0.71 0.75 0.91 0.67 0.59 0.57 0.49 0.44 0.35 0.27 0.18 0.10 0.09 0.05
0.00 0.00 0.00 0.00 0.00 0.00 0.00 0.00 0.00 0.00 0.00 0.00 0.02 0.10 0.13 0.12 0.19 0.07 0.02 0.01 0.03 0.07 0.03 0.12 0.22 0.13 0.18 0.29 0.34 0.25 0.24 0.23 0.20 0.16 0.13 0.13 0.08 0.05 0.03 0.00 0.00 0.00 0.00 0.00
0.00 0.00 0.00 0.00 0.00 0.00 0.00 0.00 0.00 0.00 0.00 0.00 0.00 0.01 0.22 0.07 0.08 0.03 0.06 0.04 0.05 0.05 0.02 0.04 0.04 0.04 0.04 0.05 0.04 0.03 0.02 0.02 0.01 0.01 0.01 0.00 0.00 0.01 0.00 0.00 0.00 0.00 0.00 0.00
0.01 0.00 0.00 0.00 0.00 0.00 0.00 0.00 0.00 0.01 0.02 0.00 0.00 0.00 0.00 0.05 0.07 0.02 0.16 0.08 0.00 0.00 0.00 0.00 0.01 0.02 0.00 0.00 0.00 0.00 0.00 0.00 0.00 0.00 0.00 0.00 0.00 0.01 0.00 0.00 0.00 0.00 0.00 0.00
0.00 0.00 0.00 0.01 0.00 0.00 0.00 0.00 0.00 0.00 0.01 0.00 0.00 0.00 0.00 0.00 0.12 0.01 0.06 0.03 0.00 0.00 0.00 0.00 0.00 0.01 0.00 0.00 0.00 0.00 0.00 0.00 0.00 0.00 0.00 0.00 0.00 0.00 0.00 0.00 0.01 0.00 0.00 0.00

GFSCGP_prec_precacc_096.txt.gz
Total_Precipitation_Accumulation
2.01 2.67 2.02 1.06 0.50 0.19 0.07 0.03 0.02 0.00 0.00 0.02 0.00 0.00 0.00 0.00 0.00 0.00 0.01 0.03 0.01 0.00 0.00 0.00 0.01 0.04 0.04 0.06 0.12 0.18 0.25 0.37 0.29 0.34 0.35 0.41 0.42 0.55 0.41 0.41 0.36 0.26 0.14 0.13
2.01 1.90 0.96 0.56 0.58 0.49 0.15 0.09 0.03 0.02 0.02 0.05 0.01 0.00 0.00 0.00 0.00 0.00 0.00 0.00 0.00 0.00 0.00 0.00 0.01 0.00 0.02 0.03 0.07 0.14 0.08 0.14 0.15 0.25 0.36 0.35 0.76 0.61 0.80 0.84 0.54 0.53 0.43 0.52
1.32 1.01 1.02 1.26 1.19 0.95 0.23 0.06 0.04 0.02 0.04 0.06 0.04 0.04 0.00 0.00 0.00 0.00 0.00 0.00 0.00 0.00 0.00 0.00 0.01 0.01 0.01 0.02 0.03 0.05 0.07 0.07 0.16 0.27 0.37 0.43 0.56 0.52 0.67 0.56 0.60 0.78 0.90 0.84
1.09 0.84 1.04 1.71 1.53 1.01 0.51 0.08 0.06 0.09 0.10 0.16 0.05 0.07 0.01 0.00 0.00 0.00 0.00 0.00 0.00 0.00 0.00 0.00 0.00 0.01 0.02 0.02 0.05 0.02 0.03 0.05 0.10 0.21 0.27 0.25 0.26 0.39 0.44 0.54 0.54 0.44 0.61 0.83
1.32 0.87 0.71 1.34 1.12 1.07 0.59 0.17 0.10 0.21 0.24 0.15 0.07 0.09 0.01 0.00 0.00 0.00 0.00 0.00 0.00 0.00 0.00 0.00 0.00 0.00 0.01 0.01 0.04 0.06 0.01 0.01 0.05 0.13 0.18 0.25 0.18 0.24 0.31 0.32 0.33 0.39 0.44 0.58
0.83 0.75 0.93 0.71 0.88 1.10 0.64 0.38 0.41 0.42 0.57 0.82 0.09 0.06 0.02 0.00 0.00 0.00 0.00 0.00 0.00 0.00 0.00 0.00 0.00 0.00 0.01 0.01 0.01 0.02 0.02 0.02 0.03 0.08 0.12 0.16 0.11 0.18 0.29 0.26 0.26 0.30 0.33 0.34
1.39 1.31 1.10 0.90 1.43 1.49 1.39 1.25 1.68 1.53 1.05 0.48 0.10 0.05 0.05 0.00 0.00 0.00 0.00 0.00 0.00 0.00 0.00 0.00 0.00 0.00 0.00 0.00 0.01 0.02 0.01 0.01 0.00 0.01 0.04 0.07 0.09 0.12 0.16 0.21 0.20 0.24 0.21 0.17
1.19 1.55 1.31 1.06 1.35 1.69 1.17 1.18 1.13 0.67 0.31 0.07 0.05 0.13 0.01 0.00 0.00 0.00 0.00 0.00 0.00 0.00 0.00 0.00 0.00 0.00 0.00 0.00 0.00 0.00 0.00 0.00 0.00 0.00 0.00 0.00 0.03 0.08 0.11 0.10 0.07 0.15 0.14 0.17
0.58 1.06 0.93 0.76 0.87 1.23 1.19 0.74 0.63 0.45 0.24 0.25 0.04 0.01 0.00 0.00 0.00 0.00 0.00 0.00 0.00 0.00 0.00 0.00 0.00 0.00 0.00 0.00 0.00 0.00 0.00 0.00 0.00 0.02 0.02 0.01 0.01 0.03 0.05 0.06 0.08 0.10 0.09 0.10
0.31 0.99 0.98 1.01 1.25 1.15 0.91 0.31 0.51 1.12 0.66 0.32 0.08 0.00 0.00 0.00 0.00 0.00 0.00 0.00 0.00 0.00 0.00 0.00 0.00 0.00 0.00 0.00 0.00 0.00 0.00 0.00 0.01 0.03 0.01 0.00 0.03 0.05 0.05 0.05 0.06 0.06 0.07 0.07
0.42 0.85 1.13 1.41 1.34 0.89 0.81 0.80 0.48 0.51 0.35 0.30 0.20 0.01 0.00 0.00 0.00 0.00 0.00 0.00 0.00 0.00 0.00 0.00 0.00 0.00 0.00 0.00 0.00 0.00 0.00 0.00 0.01 0.00 0.00 0.02 0.03 0.04 0.05 0.06 0.06 0.04 0.03 0.04
0.40 0.85 1.06 0.90 0.32 0.26 0.39 0.34 0.33 0.84 0.46 0.41 0.37 0.10 0.00 0.01 0.01 0.00 0.01 0.02 0.01 0.00 0.00 0.00 0.00 0.00 0.00 0.00 0.00 0.00 0.02 0.02 0.01 0.00 0.01 0.03 0.03 0.03 0.04 0.06 0.06 0.05 0.05 0.03
0.54 1.01 1.06 0.83 0.62 0.62 0.84 0.42 0.36 0.60 0.99 0.69 0.46 0.14 0.00 0.00 0.00 0.00 0.01 0.03 0.02 0.01 0.00 0.00 0.00 0.00 0.00 0.02 0.05 0.09 0.03 0.00 0.00 0.01 0.01 0.02 0.03 0.04 0.05 0.04 0.04 0.03 0.02 0.02
0.47 0.97 1.02 0.81 0.45 0.58 0.82 0.45 0.57 1.13 1.10 0.37 0.31 0.04 0.01 0.01 0.02 0.01 0.00 0.02 0.04 0.01 0.01 0.00 0.00 0.00 0.02 0.07 0.10 0.10 0.01 0.01 0.02 0.03 0.03 0.04 0.05 0.05 0.04 0.05 0.05 0.03 0.03 0.02
0.46 0.99 0.91 0.49 0.28 0.42 0.57 0.56 0.49 0.94 0.52 0.52 0.16 0.07 0.03 0.03 0.02 0.02 0.01 0.01 0.04 0.05 0.04 0.02 0.02 0.03 0.02 0.05 0.05 0.06 0.09 0.07 0.07 0.07 0.05 0.05 0.05 0.05 0.04 0.04 0.05 0.05 0.04 0.04
0.35 0.72 0.75 0.61 0.24 0.38 0.48 0.55 0.36 0.56 0.27 0.26 0.17 0.13 0.01 0.01 0.01 0.00 0.01 0.04 0.07 0.07 0.04 0.02 0.01 0.01 0.01 0.00 0.00 0.02 0.08 0.09 0.09 0.11 0.06 0.04 0.02 0.05 0.05 0.06 0.06 0.07 0.14 0.12
0.28 0.51 0.74 0.66 0.48 0.28 0.47 0.58 0.68 0.48 0.20 0.25 0.28 0.15 0.01 0.01 0.04 0.06 0.05 0.06 0.04 0.03 0.02 0.01 0.00 0.00 0.00 0.00 0.00 0.01 0.03 0.05 0.09 0.08 0.06 0.05 0.03 0.04 0.07 0.09 0.16 0.21 0.27 0.56
0.06 0.23 0.46 0.31 0.15 0.16 0.11 0.14 0.44 0.28 0.23 0.26 0.14 0.07 0.02 0.00 0.00 0.02 0.04 0.02 0.01 0.01 0.00 0.01 0.00 0.00 0.00 0.00 0.01 0.02 0.09 0.12 0.40 0.10 0.15 0.16 0.14 0.17 0.20 0.33 0.45 0.48 0.47 0.48
0.05 0.16 0.25 0.16 0.07 0.03 0.00 0.00 0.07 0.13 0.22 0.14 0.07 0.02 0.00 0.00 0.22 0.35 0.15 0.04 0.01 0.00 0.00 0.00 0.00 0.00 0.00 0.02 0.02 0.02 0.04 0.14 0.36 0.22 0.25 0.36 0.31 0.28 0.26 0.40 0.50 0.37 0.51 0.67
0.05 0.18 0.27 0.10 0.12 0.02 0.00 0.00 0.01 0.02 0.19 0.02 0.05 0.04 0.02 0.01 0.29 0.32 0.24 0.05 0.02 0.00 0.00 0.00 0.00 0.02 0.05 0.08 0.08 0.07 0.07 0.10 0.31 0.33 0.31 0.30 0.48 0.40 0.48 0.44 0.49 0.75 0.60 0.54
0.11 0.19 0.28 0.16 0.18 0.01 0.00 0.00 0.01 0.09 0.15 0.01 0.06 0.06 0.01 0.01 0.03 0.06 0.08 0.11 0.08 0.12 0.12 0.14 0.08 0.16 0.24 0.37 0.35 0.41 0.43 0.62 0.88 0.58 0.60 0.65 0.78 0.67 0.61 0.66 0.57 0.50 0.37 0.26
0.03 0.05 0.09 0.14 0.10 0.00 0.00 0.00 0.01 0.01 0.01 0.02 0.10 0.03 0.02 0.01 0.02 0.02 0.01 0.07 0.11 0.14 0.12 0.33 0.48 0.53 0.60 0.72 0.65 0.63 0.71 0.75 0.91 0.67 0.59 0.57 0.49 0.44 0.35 0.27 0.18 0.10 0.09 0.05
0.00 0.00 0.00 0.00 0.00 0.00 0.00 0.00 0.00 0.00 0.00 0.00 0.02 0.10 0.13 0.12 0.19 0.07 0.02 0.01 0.03 0.07 0.03 0.12 0.22 0.13 0.18 0.29 0.34 0.25 0.24 0.23 0.20 0.16 0.13 0.13 0.08 0.05 0.03 0.00 0.00 0.00 0.00 0.00
0.00 0.00 0.00 0.00 0.00 0.00 0.00 0.00 0.00 0.00 0.00 0.00 0.00 0.01 0.22 0.07 0.08 0.03 0.06 0.04 0.05 0.05 0.02 0.04 0.04 0.04 0.04 0.05 0.04 0.03 0.02 0.02 0.01 0.01 0.01 0.00 0.00 0.01 0.00 0.00 0.00 0.00 0.00 0.00
0.01 0.00 0.00 0.00 0.00 0.00 0.00 0.00 0.00 0.01 0.02 0.00 0.00 0.00 0.01 0.06 0.07 0.02 0.16 0.08 0.00 0.00 0.00 0.00 0.01 0.02 0.00 0.00 0.00 0.00 0.00 0.00 0.00 0.00 0.00 0.00 0.00 0.01 0.00 0.00 0.00 0.00 0.00 0.00
0.00 0.00 0.01 0.02 0.00 0.00 0.00 0.00 0.00 0.00 0.01 0.00 0.00 0.00 0.00 0.01 0.12 0.01 0.06 0.03 0.00 0.00 0.00 0.00 0.00 0.01 0.00 0.00 0.00 0.00 0.00 0.00 0.00 0.00 0.00 0.00 0.00 0.00 0.00 0.00 0.01 0.00 0.00 0.00

GFSCGP_prec_precacc_099.txt.gz
Total_Precipitation_Accumulation
2.01 2.67 2.02 1.07 0.57 0.27 0.10 0.06 0.03 0.00 0.01 0.02 0.01 0.00 0.01 0.00 0.02 0.02 0.02 0.03 0.01 0.00 0.00 0.00 0.01 0.04 0.05 0.10 0.16 0.20 0.27 0.37 0.31 0.35 0.35 0.41 0.42 0.56 0.43 0.42 0.38 0.27 0.14 0.13
2.01 1.90 0.96 0.58 0.58 0.54 0.27 0.12 0.03 0.02 0.02 0.05 0.02 0.00 0.00 0.00 0.00 0.00 0.00 0.00 0.00 0.00 0.00 0.00 0.01 0.00 0.02 0.05 0.12 0.27 0.15 0.15 0.15 0.25 0.38 0.40 0.82 0.63 0.85 0.90 0.57 0.60 0.50 0.53
1.32 1.02 1.02 1.28 1.20 1.02 0.31 0.10 0.04 0.03 0.05 0.07 0.04 0.04 0.01 0.00 0.00 0.00 0.00 0.00 0.00 0.00 0.00 0.00 0.01 0.01 0.01 0.02 0.03 0.07 0.16 0.19 0.23 0.32 0.57 0.65 0.79 0.67 0.71 0.64 0.78 1.03 1.19 1.09
1.09 0.84 1.05 1.73 1.56 1.10 0.57 0.11 0.06 0.10 0.11 0.19 0.08 0.07 0.01 0.00 0.00 0.00 0.00 0.00 0.00 0.00 0.00 0.00 0.00 0.01 0.02 0.02 0.05 0.03 0.04 0.05 0.14 0.31 0.32 0.31 0.35 0.52 0.55 0.72 0.78 0.64 0.80 1.03
1.34 0.89 0.73 1.40 1.14 1.09 0.63 0.19 0.10 0.22 0.24 0.18 0.17 0.12 0.01 0.00 0.00 0.00 0.00 0.00 0.00 0.00 0.00 0.00 0.00 0.00 0.01 0.01 0.04 0.06 0.01 0.01 0.09 0.18 0.26 0.28 0.18 0.25 0.33 0.37 0.39 0.46 0.48 0.61
0.86 0.79 0.99 0.77 0.90 1.11 0.66 0.42 0.43 0.45 0.60 0.88 0.14 0.10 0.02 0.00 0.00 0.00 0.00 0.00 0.00 0.00 0.00 0.00 0.00 0.00 0.01 0.01 0.02 0.02 0.04 0.06 0.16 0.15 0.16 0.17 0.13 0.20 0.32 0.28 0.29 0.34 0.39 0.39
1.48 1.43 1.15 0.92 1.43 1.50 1.43 1.32 1.72 1.63 1.19 0.51 0.10 0.05 0.05 0.00 0.00 0.00 0.00 0.00 0.00 0.00 0.00 0.00 0.00 0.00 0.00 0.00 0.01 0.04 0.03 0.05 0.05 0.06 0.06 0.09 0.12 0.14 0.18 0.22 0.21 0.26 0.24 0.20
1.25 1.58 1.32 1.06 1.35 1.71 1.22 1.25 1.19 0.73 0.35 0.07 0.05 0.13 0.01 0.00 0.00 0.00 0.00 0.00 0.00 0.00 0.00 0.00 0.00 0.00 0.00 0.00 0.00 0.00 0.01 0.03 0.01 0.01 0.00 0.00 0.03 0.08 0.11 0.10 0.08 0.16 0.15 0.18
0.59 1.07 0.93 0.76 0.87 1.24 1.23 0.78 0.69 0.46 0.25 0.25 0.04 0.01 0.00 0.00 0.00 0.00 0.00 0.00 0.00 0.00 0.00 0.00 0.00 0.00 0.00 0.00 0.00 0.00 0.00 0.00 0.01 0.02 0.02 0.01 0.01 0.03 0.05 0.06 0.08 0.10 0.10 0.10
0.31 1.00 0.98 1.02 1.25 1.16 0.91 0.32 0.53 1.12 0.66 0.33 0.08 0.00 0.00 0.00 0.00 0.00 0.00 0.00 0.00 0.00 0.00 0.00 0.00 0.00 0.00 0.00 0.00 0.00 0.00 0.00 0.01 0.03 0.01 0.01 0.03 0.05 0.05 0.05 0.06 0.07 0.07 0.07
0.42 0.85 1.14 1.41 1.34 0.89 0.81 0.80 0.50 0.52 0.35 0.30 0.20 0.01 0.00 0.00 0.00 0.00 0.00 0.00 0.00 0.00 0.00 0.00 0.00 0.00 0.00 0.00 0.00 0.00 0.00 0.00 0.01 0.00 0.00 0.02 0.03 0.04 0.05 0.06 0.06 0.04 0.03 0.04
0.40 0.86 1.06 0.91 0.32 0.26 0.39 0.34 0.34 0.84 0.46 0.42 0.38 0.10 0.00 0.01 0.01 0.00 0.01 0.02 0.01 0.00 0.00 0.00 0.00 0.00 0.00 0.00 0.00 0.00 0.02 0.02 0.01 0.00 0.01 0.03 0.03 0.04 0.04 0.06 0.06 0.05 0.05 0.03
0.56 1.03 1.07 0.85 0.62 0.63 0.84 0.42 0.36 0.60 0.99 0.70 0.57 0.15 0.00 0.00 0.00 0.00 0.01 0.03 0.02 0.01 0.00 0.00 0.00 0.00 0.00 0.02 0.05 0.09 0.03 0.00 0.00 0.01 0.01 0.02 0.03 0.04 0.05 0.04 0.04 0.03 0.02 0.02
0.49 0.98 1.06 0.84 0.45 0.58 0.82 0.45 0.57 1.13 1.10 0.38 0.36 0.04 0.01 0.01 0.02 0.01 0.00 0.02 0.04 0.01 0.01 0.00 0.00 0.00 0.02 0.07 0.10 0.10 0.01 0.01 0.02 0.03 0.03 0.04 0.05 0.05 0.04 0.05 0.05 0.03 0.03 0.02
0.48 1.07 0.91 0.49 0.28 0.42 0.57 0.56 0.49 0.94 0.52 0.52 0.17 0.07 0.03 0.03 0.02 0.02 0.01 0.01 0.04 0.05 0.04 0.02 0.02 0.03 0.02 0.05 0.05 0.06 0.09 0.07 0.07 0.07 0.05 0.05 0.05 0.05 0.04 0.04 0.05 0.05 0.04 0.04
0.35 0.72 0.75 0.61 0.24 0.38 0.48 0.55 0.36 0.56 0.27 0.26 0.17 0.13 0.01 0.01 0.01 0.00 0.01 0.04 0.07 0.07 0.04 0.02 0.01 0.01 0.01 0.00 0.00 0.02 0.08 0.09 0.09 0.11 0.06 0.04 0.02 0.05 0.05 0.06 0.06 0.07 0.14 0.12
0.28 0.51 0.75 0.67 0.48 0.28 0.47 0.58 0.68 0.48 0.20 0.25 0.28 0.15 0.01 0.01 0.04 0.06 0.05 0.06 0.04 0.03 0.02 0.01 0.00 0.00 0.00 0.00 0.00 0.01 0.03 0.05 0.09 0.08 0.06 0.05 0.03 0.04 0.07 0.09 0.16 0.21 0.27 0.56
0.06 0.23 0.46 0.31 0.15 0.16 0.11 0.14 0.44 0.28 0.23 0.26 0.14 0.07 0.02 0.00 0.00 0.02 0.04 0.02 0.01 0.01 0.00 0.01 0.00 0.00 0.00 0.00 0.01 0.02 0.09 0.12 0.40 0.10 0.15 0.16 0.14 0.17 0.20 0.33 0.45 0.48 0.47 0.48
0.05 0.16 0.25 0.16 0.07 0.03 0.00 0.00 0.07 0.13 0.22 0.14 0.07 0.02 0.00 0.00 0.22 0.35 0.15 0.04 0.01 0.00 0.00 0.00 0.00 0.00 0.00 0.02 0.02 0.02 0.04 0.14 0.36 0.22 0.25 0.36 0.31 0.28 0.26 0.40 0.50 0.37 0.51 0.67
0.05 0.18 0.27 0.10 0.12 0.02 0.00 0.00 0.01 0.02 0.19 0.02 0.05 0.04 0.02 0.01 0.29 0.32 0.24 0.05 0.02 0.00 0.00 0.00 0.00 0.02 0.05 0.08 0.08 0.07 0.07 0.10 0.31 0.33 0.31 0.30 0.48 0.40 0.48 0.44 0.49 0.75 0.60 0.54
0.11 0.19 0.28 0.16 0.18 0.01 0.00 0.00 0.01 0.09 0.15 0.01 0.06 0.06 0.01 0.01 0.03 0.06 0.08 0.11 0.08 0.12 0.12 0.14 0.08 0.16 0.24 0.37 0.35 0.41 0.43 0.62 0.88 0.58 0.60 0.65 0.78 0.67 0.61 0.66 0.57 0.50 0.37 0.26
0.03 0.05 0.09 0.14 0.10 0.00 0.00 0.00 0.01 0.01 0.01 0.02 0.10 0.03 0.02 0.01 0.02 0.02 0.01 0.07 0.11 0.14 0.12 0.33 0.48 0.53 0.60 0.72 0.65 0.63 0.71 0.75 0.91 0.67 0.59 0.57 0.49 0.44 0.35 0.27 0.18 0.10 0.09 0.05
0.00 0.00 0.00 0.00 0.00 0.00 0.00 0.00 0.00 0.00 0.00 0.00 0.02 0.10 0.13 0.12 0.19 0.07 0.02 0.01 0.03 0.07 0.03 0.12 0.22 0.13 0.18 0.29 0.34 0.25 0.24 0.23 0.20 0.16 0.13 0.13 0.08 0.05 0.03 0.00 0.00 0.00 0.00 0.00
0.00 0.00 0.00 0.00 0.00 0.00 0.00 0.00 0.00 0.00 0.00 0.00 0.00 0.01 0.22 0.07 0.08 0.03 0.06 0.04 0.05 0.05 0.02 0.04 0.04 0.04 0.04 0.05 0.04 0.03 0.02 0.02 0.01 0.01 0.01 0.00 0.00 0.01 0.00 0.00 0.00 0.00 0.00 0.00
0.01 0.00 0.00 0.01 0.00 0.00 0.00 0.00 0.00 0.01 0.02 0.00 0.00 0.00 0.01 0.08 0.07 0.02 0.16 0.08 0.00 0.00 0.00 0.00 0.01 0.02 0.00 0.00 0.00 0.00 0.00 0.00 0.00 0.00 0.00 0.00 0.00 0.01 0.00 0.00 0.00 0.00 0.00 0.00
0.00 0.00 0.01 0.03 0.01 0.02 0.01 0.00 0.00 0.00 0.01 0.01 0.01 0.00 0.01 0.01 0.12 0.01 0.06 0.03 0.00 0.00 0.00 0.00 0.00 0.01 0.00 0.00 0.00 0.00 0.00 0.00 0.00 0.00 0.00 0.00 0.00 0.00 0.00 0.00 0.01 0.00 0.00 0.00

GFSCGP_prec_precacc_102.txt.gz
Total_Precipitation_Accumulation
2.01 2.67 2.02 1.08 0.60 0.38 0.14 0.06 0.05 0.00 0.03 0.03 0.01 0.01 0.06 0.06 0.14 0.21 0.19 0.06 0.02 0.01 0.00 0.00 0.02 0.06 0.08 0.17 0.25 0.26 0.39 0.49 0.41 0.39 0.38 0.42 0.42 0.56 0.44 0.44 0.39 0.28 0.14 0.13
2.01 1.90 0.97 0.58 0.61 0.67 0.34 0.13 0.06 0.03 0.04 0.07 0.03 0.01 0.03 0.03 0.06 0.12 0.20 0.06 0.00 0.01 0.00 0.00 0.01 0.00 0.02 0.10 0.14 0.32 0.24 0.17 0.17 0.37 0.49 0.46 0.83 0.65 0.87 0.92 0.58 0.62 0.52 0.55
1.32 1.03 1.02 1.28 1.23 1.10 0.36 0.12 0.06 0.04 0.06 0.09 0.05 0.07 0.09 0.04 0.02 0.03 0.11 0.09 0.00 0.00 0.00 0.00 0.01 0.01 0.02 0.04 0.04 0.08 0.17 0.19 0.32 0.40 0.86 0.90 0.91 0.77 0.81 0.66 0.78 1.05 1.23 1.16
1.09 0.84 1.05 1.73 1.58 1.13 0.62 0.13 0.06 0.11 0.14 0.25 0.10 0.09 0.05 0.03 0.01 0.00 0.01 0.03 0.00 0.00 0.00 0.00 0.00 0.01 0.03 0.04 0.07 0.04 0.04 0.05 0.14 0.39 0.42 0.34 0.44 0.67 0.59 0.84 0.96 0.77 0.87 1.11
1.34 0.90 0.74 1.41 1.14 1.11 0.72 0.23 0.11 0.22 0.24 0.19 0.19 0.12 0.01 0.00 0.00 0.00 0.00 0.00 0.00 0.00 0.00 0.00 0.00 0.00 0.01 0.03 0.07 0.10 0.04 0.01 0.09 0.21 0.32 0.36 0.25 0.26 0.34 0.43 0.51 0.61 0.62 0.75
0.88 0.80 1.04 0.80 0.91 1.12 0.69 0.50 0.45 0.47 0.61 0.90 0.14 0.11 0.02 0.00 0.00 0.00 0.00 0.00 0.00 0.00 0.00 0.00 0.00 0.00 0.01 0.02 0.05 0.06 0.08 0.08 0.19 0.24 0.26 0.23 0.16 0.21 0.39 0.49 0.46 0.46 0.47 0.49
1.64 1.62 1.23 0.94 1.43 1.53 1.51 1.44 1.88 1.77 1.26 0.53 0.10 0.08 0.05 0.00 0.00 0.00 0.00 0.00 0.00 0.00 0.00 0.00 0.00 0.00 0.00 0.01 0.02 0.06 0.06 0.12 0.17 0.12 0.08 0.10 0.14 0.19 0.24 0.29 0.27 0.29 0.25 0.20
1.48 1.70 1.40 1.07 1.35 1.72 1.31 1.31 1.26 0.79 0.37 0.09 0.05 0.13 0.01 0.00 0.00 0.00 0.00 0.00 0.00 0.00 0.00 0.00 0.00 0.00 0.00 0.01 0.02 0.04 0.05 0.05 0.07 0.05 0.02 0.01 0.04 0.09 0.12 0.10 0.08 0.16 0.15 0.18
0.60 1.11 0.94 0.76 0.87 1.24 1.27 0.83 0.70 0.46 0.25 0.25 0.05 0.01 0.00 0.00 0.00 0.00 0.00 0.00 0.00 0.00 0.00 0.00 0.00 0.00 0.00 0.00 0.00 0.01 0.01 0.02 0.03 0.03 0.02 0.01 0.01 0.03 0.05 0.06 0.08 0.10 0.10 0.10
0.31 1.00 0.99 1.02 1.25 1.17 0.93 0.35 0.54 1.12 0.66 0.33 0.08 0.00 0.00 0.00 0.00 0.00 0.00 0.00 0.00 0.00 0.00 0.00 0.00 0.00 0.00 0.00 0.00 0.00 0.00 0.00 0.02 0.04 0.02 0.01 0.03 0.05 0.05 0.05 0.06 0.07 0.07 0.07
0.42 0.85 1.15 1.41 1.34 0.90 0.82 0.81 0.50 0.52 0.35 0.30 0.20 0.01 0.00 0.00 0.00 0.00 0.00 0.00 0.00 0.00 0.00 0.00 0.00 0.00 0.00 0.00 0.00 0.00 0.00 0.00 0.01 0.00 0.01 0.02 0.03 0.04 0.05 0.06 0.06 0.04 0.03 0.04
0.40 0.86 1.06 0.91 0.32 0.26 0.39 0.34 0.34 0.84 0.46 0.42 0.38 0.10 0.00 0.01 0.01 0.00 0.01 0.02 0.01 0.00 0.00 0.00 0.00 0.00 0.00 0.00 0.00 0.00 0.02 0.02 0.01 0.00 0.01 0.03 0.03 0.04 0.04 0.06 0.06 0.05 0.05 0.03
0.56 1.03 1.07 0.85 0.62 0.63 0.84 0.42 0.36 0.60 0.99 0.70 0.57 0.15 0.00 0.00 0.00 0.00 0.01 0.03 0.02 0.01 0.00 0.00 0.00 0.00 0.00 0.02 0.05 0.09 0.03 0.00 0.00 0.01 0.01 0.02 0.03 0.04 0.05 0.04 0.04 0.03 0.02 0.02
0.50 0.99 1.08 0.84 0.45 0.58 0.82 0.45 0.57 1.13 1.11 0.40 0.37 0.05 0.01 0.01 0.02 0.01 0.00 0.02 0.04 0.01 0.01 0.00 0.00 0.00 0.02 0.07 0.10 0.10 0.01 0.01 0.02 0.03 0.03 0.04 0.05 0.05 0.04 0.05 0.05 0.03 0.03 0.02
0.49 1.08 0.91 0.49 0.28 0.42 0.57 0.56 0.49 0.94 0.52 0.58 0.18 0.07 0.03 0.03 0.02 0.02 0.01 0.01 0.04 0.05 0.04 0.02 0.02 0.03 0.02 0.05 0.05 0.06 0.09 0.07 0.07 0.07 0.05 0.05 0.05 0.05 0.04 0.04 0.05 0.05 0.04 0.04
0.35 0.72 0.75 0.61 0.24 0.38 0.48 0.55 0.36 0.56 0.27 0.28 0.17 0.13 0.01 0.01 0.01 0.00 0.01 0.04 0.07 0.07 0.04 0.02 0.01 0.01 0.01 0.00 0.00 0.02 0.08 0.09 0.09 0.11 0.06 0.04 0.02 0.05 0.05 0.06 0.06 0.07 0.14 0.12
0.28 0.51 0.75 0.67 0.48 0.28 0.47 0.58 0.68 0.48 0.20 0.25 0.28 0.15 0.01 0.01 0.04 0.06 0.05 0.06 0.04 0.03 0.02 0.01 0.00 0.00 0.00 0.00 0.00 0.01 0.03 0.05 0.09 0.08 0.06 0.05 0.03 0.04 0.07 0.09 0.16 0.21 0.27 0.56
0.06 0.23 0.46 0.31 0.15 0.16 0.11 0.14 0.44 0.28 0.23 0.26 0.14 0.07 0.02 0.00 0.00 0.02 0.04 0.02 0.01 0.01 0.00 0.01 0.00 0.00 0.00 0.00 0.01 0.02 0.09 0.12 0.40 0.10 0.15 0.16 0.14 0.17 0.20 0.33 0.45 0.48 0.47 0.48
0.05 0.16 0.25 0.16 0.07 0.03 0.00 0.00 0.07 0.13 0.22 0.14 0.07 0.02 0.00 0.00 0.22 0.35 0.15 0.04 0.01 0.00 0.00 0.00 0.00 0.00 0.00 0.02 0.02 0.02 0.04 0.14 0.36 0.22 0.25 0.36 0.31 0.28 0.26 0.40 0.50 0.37 0.51 0.67
0.05 0.18 0.27 0.10 0.12 0.02 0.00 0.00 0.01 0.02 0.19 0.02 0.05 0.04 0.02 0.01 0.29 0.32 0.24 0.05 0.02 0.00 0.00 0.00 0.00 0.02 0.05 0.08 0.08 0.07 0.07 0.10 0.31 0.33 0.31 0.30 0.48 0.40 0.48 0.44 0.49 0.75 0.60 0.54
0.11 0.19 0.28 0.16 0.18 0.01 0.00 0.00 0.01 0.09 0.15 0.01 0.06 0.06 0.01 0.01 0.03 0.06 0.08 0.11 0.08 0.12 0.12 0.14 0.08 0.16 0.24 0.37 0.35 0.41 0.43 0.62 0.88 0.58 0.60 0.65 0.78 0.67 0.61 0.66 0.57 0.50 0.37 0.26
0.03 0.05 0.09 0.14 0.10 0.00 0.00 0.00 0.01 0.01 0.02 0.02 0.10 0.03 0.02 0.01 0.02 0.02 0.01 0.07 0.11 0.14 0.12 0.33 0.48 0.53 0.60 0.72 0.65 0.63 0.71 0.75 0.91 0.67 0.59 0.57 0.49 0.44 0.35 0.27 0.18 0.10 0.09 0.05
0.00 0.00 0.00 0.00 0.00 0.00 0.00 0.00 0.00 0.00 0.00 0.00 0.02 0.10 0.13 0.12 0.19 0.07 0.02 0.01 0.03 0.07 0.03 0.12 0.22 0.13 0.18 0.29 0.34 0.25 0.24 0.23 0.20 0.16 0.13 0.13 0.08 0.05 0.03 0.00 0.00 0.00 0.00 0.00
0.00 0.00 0.00 0.00 0.00 0.00 0.00 0.00 0.00 0.00 0.00 0.00 0.00 0.01 0.22 0.07 0.08 0.03 0.06 0.04 0.05 0.05 0.02 0.04 0.04 0.04 0.04 0.05 0.04 0.03 0.02 0.02 0.01 0.01 0.01 0.00 0.00 0.01 0.00 0.00 0.00 0.00 0.00 0.00
0.01 0.00 0.00 0.01 0.00 0.00 0.00 0.00 0.00 0.01 0.02 0.00 0.00 0.00 0.02 0.10 0.09 0.03 0.16 0.08 0.00 0.00 0.00 0.00 0.01 0.02 0.00 0.00 0.00 0.00 0.00 0.00 0.00 0.00 0.00 0.00 0.00 0.01 0.00 0.00 0.00 0.00 0.00 0.00
0.00 0.00 0.01 0.03 0.01 0.02 0.02 0.01 0.00 0.00 0.01 0.01 0.02 0.01 0.01 0.02 0.12 0.01 0.06 0.03 0.00 0.00 0.00 0.00 0.00 0.01 0.00 0.00 0.00 0.00 0.00 0.00 0.00 0.00 0.00 0.00 0.00 0.00 0.00 0.00 0.01 0.01 0.01 0.01

GFSCGP_prec_precacc_105.txt.gz
Total_Precipitation_Accumulation
2.01 2.67 2.02 1.08 0.61 0.44 0.20 0.07 0.07 0.03 0.09 0.08 0.02 0.03 0.28 0.42 0.34 0.30 0.21 0.06 0.02 0.01 0.00 0.04 0.19 0.23 0.26 0.44 0.50 0.42 0.69 0.84 0.73 0.53 0.41 0.48 0.43 0.56 0.46 0.45 0.41 0.29 0.14 0.13
2.01 1.90 0.97 0.59 0.63 0.68 0.41 0.14 0.09 0.06 0.08 0.14 0.05 0.02 0.09 0.28 0.30 0.30 0.25 0.07 0.01 0.02 0.00 0.00 0.06 0.22 0.26 0.29 0.31 0.45 0.38 0.36 0.39 0.61 0.64 0.66 0.86 0.65 0.91 0.97 0.62 0.62 0.52 0.55
1.32 1.03 1.02 1.29 1.31 1.11 0.41 0.12 0.08 0.06 0.12 0.14 0.09 0.11 0.13 0.17 0.22 0.16 0.24 0.16 0.01 0.01 0.00 0.00 0.01 0.07 0.16 0.24 0.21 0.16 0.22 0.23 0.41 0.65 1.17 1.19 1.14 0.91 0.86 0.67 0.78 1.05 1.24 1.16
1.09 0.84 1.05 1.73 1.62 1.15 0.64 0.13 0.07 0.13 0.16 0.32 0.16 0.16 0.07 0.06 0.11 0.10 0.11 0.18 0.05 0.00 0.00 0.00 0.00 0.02 0.04 0.05 0.13 0.23 0.12 0.06 0.19 0.53 0.64 0.58 0.52 0.80 0.66 0.90 0.98 0.79 0.89 1.11
1.34 0.90 0.75 1.42 1.15 1.14 0.81 0.24 0.11 0.23 0.27 0.23 0.24 0.13 0.01 0.01 0.03 0.04 0.01 0.06 0.07 0.01 0.00 0.00 0.00 0.00 0.01 0.03 0.09 0.12 0.17 0.16 0.20 0.37 0.50 0.45 0.41 0.43 0.47 0.50 0.53 0.70 0.75 0.86
0.89 0.80 1.08 0.82 0.92 1.17 0.86 0.53 0.46 0.51 0.66 0.92 0.15 0.11 0.02 0.00 0.00 0.00 0.00 0.00 0.03 0.01 0.00 0.00 0.00 0.00 0.01 0.03 0.07 0.09 0.11 0.09 0.25 0.27 0.33 0.28 0.18 0.22 0.40 0.60 0.73 0.72 0.79 0.75
1.70 1.76 1.33 0.95 1.44 1.59 1.74 1.49 1.94 1.86 1.31 0.54 0.10 0.08 0.05 0.00 0.00 0.00 0.00 0.00 0.00 0.00 0.00 0.00 0.00 0.00 0.00 0.02 0.03 0.09 0.09 0.15 0.26 0.22 0.13 0.11 0.16 0.19 0.26 0.37 0.40 0.40 0.35 0.29
1.68 1.81 1.42 1.08 1.35 1.75 1.49 1.37 1.27 0.82 0.38 0.09 0.06 0.13 0.01 0.00 0.00 0.00 0.00 0.00 0.00 0.00 0.00 0.00 0.00 0.00 0.00 0.01 0.04 0.07 0.07 0.10 0.13 0.09 0.05 0.03 0.06 0.10 0.15 0.13 0.10 0.16 0.16 0.18
0.62 1.16 0.95 0.76 0.87 1.25 1.35 0.86 0.72 0.46 0.25 0.25 0.05 0.01 0.00 0.00 0.00 0.00 0.00 0.00 0.00 0.00 0.00 0.00 0.00 0.00 0.00 0.00 0.01 0.01 0.02 0.04 0.06 0.06 0.04 0.02 0.01 0.05 0.06 0.06 0.08 0.10 0.10 0.10
0.31 1.01 0.99 1.02 1.25 1.17 0.96 0.38 0.57 1.12 0.66 0.33 0.08 0.00 0.00 0.00 0.00 0.00 0.00 0.00 0.00 0.00 0.00 0.00 0.00 0.00 0.00 0.00 0.00 0.00 0.01 0.02 0.03 0.05 0.03 0.02 0.03 0.06 0.05 0.05 0.06 0.07 0.07 0.07
0.42 0.85 1.15 1.41 1.34 0.90 0.82 0.81 0.51 0.52 0.35 0.30 0.20 0.01 0.00 0.00 0.00 0.00 0.00 0.00 0.00 0.00 0.00 0.00 0.00 0.00 0.00 0.00 0.00 0.00 0.00 0.01 0.02 0.02 0.02 0.04 0.03 0.04 0.05 0.06 0.06 0.04 0.03 0.04
0.40 0.86 1.06 0.91 0.32 0.26 0.39 0.34 0.34 0.84 0.46 0.42 0.38 0.10 0.00 0.01 0.01 0.00 0.01 0.02 0.01 0.00 0.00 0.00 0.00 0.00 0.00 0.00 0.00 0.00 0.02 0.02 0.01 0.02 0.03 0.04 0.03 0.04 0.04 0.06 0.06 0.05 0.05 0.03
0.56 1.03 1.07 0.85 0.62 0.63 0.84 0.42 0.36 0.60 0.99 0.70 0.57 0.15 0.00 0.00 0.00 0.00 0.01 0.03 0.02 0.01 0.00 0.00 0.00 0.00 0.00 0.02 0.05 0.09 0.03 0.00 0.00 0.01 0.01 0.02 0.03 0.04 0.05 0.04 0.04 0.03 0.02 0.02
0.50 0.99 1.08 0.84 0.45 0.58 0.82 0.45 0.57 1.13 1.11 0.40 0.37 0.05 0.01 0.01 0.02 0.01 0.00 0.02 0.04 0.01 0.01 0.00 0.00 0.00 0.02 0.07 0.10 0.10 0.01 0.01 0.02 0.03 0.03 0.04 0.05 0.05 0.04 0.05 0.05 0.03 0.03 0.02
0.49 1.09 0.92 0.49 0.28 0.42 0.57 0.56 0.49 0.94 0.52 0.58 0.18 0.07 0.03 0.03 0.02 0.02 0.01 0.01 0.04 0.05 0.04 0.02 0.02 0.03 0.02 0.05 0.05 0.06 0.09 0.07 0.07 0.07 0.05 0.05 0.05 0.05 0.04 0.04 0.05 0.05 0.04 0.04
0.35 0.72 0.75 0.61 0.24 0.38 0.48 0.55 0.36 0.56 0.27 0.28 0.17 0.13 0.01 0.01 0.01 0.00 0.01 0.04 0.07 0.07 0.04 0.02 0.01 0.01 0.01 0.00 0.00 0.02 0.08 0.09 0.09 0.11 0.06 0.04 0.02 0.05 0.05 0.06 0.06 0.07 0.14 0.12
0.28 0.51 0.75 0.67 0.48 0.28 0.47 0.58 0.68 0.48 0.20 0.25 0.28 0.15 0.01 0.01 0.04 0.06 0.05 0.06 0.04 0.03 0.02 0.01 0.00 0.00 0.00 0.00 0.00 0.01 0.03 0.05 0.09 0.08 0.06 0.05 0.03 0.04 0.07 0.09 0.16 0.21 0.27 0.56
0.06 0.23 0.46 0.31 0.15 0.16 0.11 0.14 0.44 0.28 0.23 0.26 0.14 0.07 0.02 0.00 0.00 0.02 0.04 0.02 0.01 0.01 0.00 0.01 0.00 0.00 0.00 0.00 0.01 0.02 0.09 0.12 0.40 0.10 0.15 0.16 0.14 0.17 0.20 0.33 0.45 0.48 0.47 0.48
0.05 0.16 0.25 0.16 0.07 0.03 0.00 0.00 0.07 0.13 0.22 0.14 0.07 0.02 0.00 0.00 0.22 0.35 0.15 0.04 0.01 0.00 0.00 0.00 0.00 0.00 0.00 0.02 0.02 0.02 0.04 0.14 0.36 0.22 0.25 0.36 0.31 0.28 0.26 0.40 0.50 0.37 0.51 0.67
0.05 0.18 0.27 0.10 0.12 0.02 0.00 0.00 0.01 0.02 0.19 0.02 0.05 0.04 0.02 0.01 0.29 0.32 0.24 0.05 0.02 0.00 0.00 0.00 0.00 0.02 0.05 0.08 0.08 0.07 0.07 0.10 0.31 0.33 0.31 0.30 0.48 0.40 0.48 0.44 0.49 0.75 0.60 0.54
0.11 0.19 0.28 0.16 0.18 0.01 0.00 0.00 0.01 0.09 0.15 0.02 0.06 0.06 0.01 0.01 0.03 0.06 0.08 0.11 0.08 0.12 0.12 0.14 0.08 0.16 0.24 0.37 0.35 0.41 0.43 0.62 0.88 0.58 0.60 0.65 0.78 0.67 0.61 0.66 0.57 0.50 0.37 0.26
0.03 0.05 0.09 0.14 0.10 0.00 0.00 0.00 0.01 0.01 0.02 0.03 0.10 0.03 0.02 0.01 0.02 0.02 0.01 0.07 0.11 0.14 0.12 0.33 0.48 0.53 0.60 0.72 0.65 0.63 0.71 0.75 0.91 0.67 0.59 0.57 0.49 0.44 0.35 0.27 0.18 0.10 0.09 0.05
0.00 0.00 0.00 0.00 0.00 0.00 0.00 0.00 0.00 0.00 0.00 0.00 0.02 0.10 0.13 0.12 0.19 0.07 0.02 0.01 0.03 0.07 0.03 0.12 0.22 0.13 0.18 0.29 0.34 0.25 0.24 0.23 0.20 0.16 0.13 0.13 0.08 0.05 0.03 0.00 0.00 0.00 0.00 0.00
0.00 0.00 0.00 0.00 0.00 0.00 0.00 0.00 0.00 0.00 0.00 0.00 0.00 0.01 0.22 0.07 0.08 0.03 0.06 0.04 0.05 0.05 0.02 0.04 0.04 0.04 0.04 0.05 0.04 0.03 0.02 0.02 0.01 0.01 0.01 0.00 0.00 0.01 0.00 0.00 0.00 0.00 0.00 0.00
0.01 0.00 0.00 0.01 0.00 0.00 0.00 0.00 0.00 0.01 0.02 0.00 0.00 0.01 0.03 0.10 0.10 0.04 0.16 0.08 0.00 0.00 0.00 0.00 0.01 0.02 0.00 0.00 0.00 0.00 0.00 0.00 0.00 0.00 0.00 0.00 0.00 0.01 0.00 0.00 0.00 0.00 0.00 0.00
0.00 0.00 0.01 0.03 0.01 0.02 0.02 0.01 0.00 0.00 0.01 0.01 0.02 0.01 0.02 0.02 0.13 0.01 0.06 0.03 0.00 0.00 0.00 0.00 0.00 0.01 0.00 0.00 0.00 0.00 0.00 0.00 0.00 0.00 0.00 0.00 0.00 0.00 0.00 0.00 0.01 0.01 0.01 0.01

GFSCGP_prec_precacc_108.txt.gz
Total_Precipitation_Accumulation
2.01 2.67 2.02 1.08 0.62 0.45 0.27 0.20 0.13 0.04 0.15 0.12 0.04 0.06 0.43 1.02 0.77 0.39 0.26 0.08 0.06 0.07 0.07 0.12 0.31 0.40 0.46 0.75 0.96 0.78 0.90 0.96 0.87 0.56 0.41 0.48 0.43 0.56 0.46 0.46 0.41 0.29 0.14 0.13
2.01 1.90 0.97 0.59 0.65 0.73 0.43 0.23 0.13 0.08 0.14 0.21 0.08 0.06 0.17 0.65 0.77 0.49 0.33 0.07 0.02 0.03 0.03 0.04 0.14 0.35 0.32 0.37 0.71 0.94 0.84 0.68 0.61 0.84 0.77 0.76 0.90 0.67 0.91 1.00 0.63 0.64 0.55 0.56
1.32 1.03 1.02 1.29 1.38 1.15 0.43 0.17 0.12 0.10 0.17 0.19 0.17 0.16 0.19 0.33 0.52 0.46 0.38 0.18 0.02 0.01 0.01 0.02 0.04 0.21 0.30 0.28 0.41 0.80 0.81 0.63 0.71 1.01 1.65 1.57 1.40 1.05 1.01 0.75 0.84 1.15 1.28 1.18
1.09 0.84 1.06 1.74 1.66 1.16 0.65 0.14 0.12 0.17 0.20 0.39 0.30 0.21 0.11 0.10 0.20 0.26 0.31 0.23 0.05 0.00 0.00 0.00 0.01 0.06 0.15 0.12 0.24 0.62 0.65 0.60 0.51 0.85 0.94 0.87 0.80 1.04 0.81 0.99 1.10 0.95 0.99 1.13
1.34 0.90 0.75 1.43 1.16 1.17 0.90 0.24 0.12 0.25 0.30 0.28 0.29 0.14 0.03 0.04 0.05 0.09 0.13 0.18 0.07 0.01 0.00 0.00 0.00 0.02 0.05 0.14 0.25 0.33 0.47 0.47 0.69 0.67 0.77 0.68 0.59 0.61 0.64 0.62 0.67 0.79 0.82 0.89
0.89 0.80 1.08 0.84 0.94 1.27 0.95 0.53 0.46 0.51 0.67 0.94 0.20 0.11 0.02 0.01 0.01 0.03 0.02 0.17 0.04 0.01 0.00 0.00 0.00 0.00 0.01 0.05 0.18 0.32 0.39 0.34 0.50 0.59 0.67 0.58 0.49 0.50 0.60 0.73 0.88 0.93 1.07 1.09
1.75 1.83 1.41 1.04 1.53 1.74 1.89 1.50 1.97 1.94 1.35 0.55 0.10 0.08 0.05 0.00 0.00 0.01 0.01 0.06 0.07 0.00 0.00 0.00 0.00 0.00 0.00 0.02 0.06 0.19 0.23 0.31 0.48 0.45 0.37 0.32 0.41 0.32 0.37 0.52 0.68 0.55 0.54 0.46
1.82 1.90 1.46 1.09 1.38 1.85 1.66 1.39 1.29 0.85 0.39 0.10 0.06 0.13 0.01 0.00 0.00 0.00 0.00 0.00 0.05 0.00 0.00 0.00 0.00 0.00 0.00 0.01 0.05 0.12 0.14 0.19 0.22 0.16 0.12 0.07 0.11 0.17 0.23 0.25 0.21 0.16 0.17 0.19
0.63 1.18 0.96 0.76 0.87 1.30 1.45 0.87 0.72 0.46 0.25 0.25 0.05 0.01 0.00 0.00 0.00 0.00 0.00 0.00 0.00 0.00 0.00 0.00 0.00 0.00 0.00 0.00 0.01 0.01 0.02 0.05 0.07 0.08 0.05 0.02 0.03 0.07 0.09 0.09 0.09 0.10 0.10 0.10
0.32 1.01 0.99 1.02 1.25 1.21 1.01 0.40 0.58 1.12 0.66 0.33 0.08 0.00 0.00 0.00 0.00 0.00 0.00 0.00 0.00 0.00 0.00 0.00 0.00 0.00 0.00 0.00 0.00 0.00 0.01 0.02 0.03 0.05 0.03 0.02 0.04 0.07 0.06 0.05 0.06 0.07 0.07 0.07
0.42 0.85 1.15 1.41 1.34 0.90 0.85 0.84 0.52 0.52 0.35 0.30 0.20 0.01 0.00 0.00 0.00 0.00 0.00 0.00 0.00 0.00 0.00 0.00 0.00 0.00 0.00 0.00 0.00 0.01 0.00 0.01 0.02 0.02 0.03 0.04 0.04 0.05 0.06 0.06 0.06 0.04 0.03 0.04
0.40 0.86 1.06 0.91 0.32 0.26 0.39 0.34 0.34 0.84 0.46 0.42 0.38 0.10 0.00 0.01 0.01 0.00 0.01 0.02 0.01 0.00 0.00 0.00 0.00 0.00 0.00 0.00 0.00 0.01 0.03 0.03 0.01 0.03 0.04 0.05 0.04 0.05 0.05 0.06 0.06 0.05 0.05 0.03
0.57 1.03 1.07 0.85 0.62 0.63 0.84 0.42 0.36 0.60 0.99 0.70 0.57 0.15 0.00 0.00 0.00 0.00 0.01 0.03 0.02 0.01 0.00 0.00 0.00 0.00 0.00 0.02 0.05 0.09 0.03 0.00 0.00 0.02 0.02 0.03 0.03 0.04 0.05 0.04 0.04 0.03 0.02 0.02
0.50 0.99 1.08 0.85 0.46 0.58 0.82 0.45 0.57 1.13 1.11 0.40 0.37 0.05 0.01 0.01 0.02 0.01 0.00 0.02 0.04 0.01 0.01 0.00 0.00 0.00 0.02 0.07 0.10 0.10 0.01 0.01 0.02 0.03 0.03 0.04 0.05 0.05 0.04 0.05 0.05 0.03 0.03 0.02
0.49 1.09 0.92 0.49 0.28 0.42 0.57 0.56 0.49 0.94 0.52 0.58 0.18 0.07 0.03 0.03 0.02 0.02 0.01 0.01 0.04 0.05 0.04 0.02 0.02 0.03 0.02 0.05 0.05 0.06 0.09 0.07 0.07 0.07 0.05 0.05 0.05 0.05 0.04 0.04 0.05 0.05 0.04 0.04
0.35 0.72 0.75 0.61 0.24 0.38 0.48 0.55 0.36 0.56 0.27 0.28 0.17 0.13 0.01 0.01 0.01 0.00 0.01 0.04 0.07 0.07 0.04 0.02 0.01 0.01 0.01 0.00 0.01 0.02 0.08 0.09 0.09 0.11 0.06 0.04 0.02 0.05 0.05 0.06 0.06 0.07 0.14 0.12
0.28 0.51 0.75 0.67 0.48 0.28 0.47 0.58 0.68 0.48 0.20 0.25 0.28 0.15 0.01 0.01 0.04 0.06 0.05 0.06 0.04 0.03 0.02 0.01 0.00 0.00 0.00 0.00 0.00 0.01 0.03 0.05 0.09 0.08 0.06 0.05 0.03 0.04 0.07 0.09 0.16 0.21 0.27 0.56
0.06 0.23 0.46 0.31 0.15 0.16 0.11 0.14 0.44 0.28 0.23 0.26 0.14 0.07 0.02 0.00 0.00 0.02 0.04 0.02 0.01 0.01 0.00 0.01 0.00 0.00 0.00 0.00 0.01 0.02 0.09 0.12 0.40 0.10 0.15 0.16 0.14 0.17 0.20 0.33 0.45 0.48 0.47 0.48
0.05 0.16 0.25 0.16 0.07 0.03 0.00 0.00 0.07 0.13 0.22 0.14 0.07 0.02 0.00 0.00 0.22 0.35 0.15 0.04 0.01 0.00 0.00 0.00 0.00 0.00 0.00 0.02 0.02 0.02 0.04 0.14 0.36 0.22 0.25 0.36 0.31 0.28 0.26 0.40 0.50 0.37 0.51 0.67
0.05 0.18 0.27 0.10 0.12 0.02 0.00 0.00 0.01 0.02 0.20 0.02 0.05 0.04 0.02 0.01 0.29 0.32 0.24 0.05 0.02 0.00 0.00 0.00 0.00 0.02 0.05 0.08 0.08 0.07 0.07 0.10 0.31 0.33 0.31 0.30 0.48 0.40 0.48 0.44 0.49 0.75 0.60 0.54
0.11 0.19 0.28 0.16 0.18 0.01 0.00 0.00 0.01 0.09 0.15 0.02 0.06 0.06 0.01 0.01 0.03 0.06 0.08 0.11 0.08 0.12 0.12 0.14 0.08 0.16 0.24 0.37 0.35 0.41 0.43 0.62 0.88 0.58 0.60 0.65 0.78 0.67 0.61 0.66 0.57 0.50 0.37 0.26
0.03 0.05 0.09 0.14 0.10 0.00 0.00 0.00 0.01 0.01 0.02 0.03 0.10 0.03 0.02 0.01 0.02 0.02 0.01 0.07 0.11 0.14 0.12 0.33 0.48 0.53 0.60 0.72 0.65 0.63 0.71 0.75 0.91 0.67 0.59 0.57 0.49 0.44 0.35 0.27 0.18 0.10 0.09 0.05
0.00 0.00 0.00 0.00 0.00 0.00 0.00 0.00 0.00 0.00 0.00 0.00 0.02 0.10 0.13 0.12 0.19 0.07 0.02 0.01 0.03 0.07 0.03 0.12 0.22 0.13 0.18 0.29 0.34 0.25 0.24 0.23 0.20 0.16 0.13 0.13 0.08 0.05 0.03 0.00 0.00 0.00 0.00 0.00
0.00 0.00 0.00 0.00 0.00 0.00 0.00 0.00 0.00 0.00 0.00 0.00 0.00 0.01 0.22 0.07 0.08 0.03 0.06 0.04 0.05 0.05 0.02 0.04 0.04 0.04 0.04 0.05 0.04 0.03 0.02 0.02 0.01 0.01 0.01 0.00 0.00 0.01 0.00 0.00 0.00 0.00 0.00 0.00
0.01 0.00 0.00 0.01 0.00 0.00 0.00 0.00 0.00 0.01 0.02 0.00 0.00 0.01 0.03 0.10 0.10 0.04 0.16 0.08 0.00 0.00 0.00 0.00 0.01 0.02 0.00 0.00 0.00 0.00 0.00 0.00 0.00 0.00 0.00 0.00 0.00 0.01 0.00 0.00 0.00 0.00 0.00 0.00
0.00 0.00 0.01 0.03 0.01 0.02 0.02 0.01 0.00 0.00 0.01 0.01 0.02 0.01 0.02 0.02 0.13 0.01 0.06 0.03 0.00 0.00 0.00 0.00 0.00 0.01 0.00 0.00 0.00 0.00 0.00 0.00 0.00 0.00 0.00 0.00 0.00 0.00 0.00 0.00 0.01 0.01 0.01 0.01

GFSCGP_prec_precacc_111.txt.gz
Total_Precipitation_Accumulation
2.01 2.67 2.02 1.08 0.62 0.46 0.29 0.23 0.18 0.06 0.17 0.12 0.04 0.06 0.44 1.13 1.12 0.77 0.47 0.16 0.10 0.10 0.13 0.28 0.43 0.71 0.73 0.92 1.02 0.78 0.91 0.96 0.87 0.56 0.41 0.48 0.43 0.56 0.46 0.46 0.41 0.29 0.14 0.13
2.01 1.90 0.97 0.59 0.65 0.76 0.48 0.30 0.17 0.09 0.19 0.23 0.10 0.10 0.19 0.74 1.06 0.88 0.64 0.17 0.07 0.07 0.07 0.14 0.27 0.53 0.74 0.60 0.92 1.16 1.07 0.71 0.68 0.90 0.78 0.76 0.90 0.67 0.91 1.00 0.63 0.66 0.56 0.56
1.32 1.03 1.02 1.29 1.38 1.18 0.48 0.26 0.19 0.11 0.25 0.34 0.20 0.24 0.24 0.41 0.77 0.75 0.64 0.32 0.07 0.03 0.03 0.09 0.15 0.32 0.54 0.64 0.63 1.15 1.72 1.15 0.87 1.16 1.76 1.68 1.47 1.05 1.03 0.76 0.85 1.18 1.32 1.22
1.09 0.84 1.06 1.76 1.71 1.19 0.72 0.24 0.16 0.21 0.33 0.68 0.37 0.29 0.17 0.16 0.35 0.44 0.54 0.40 0.13 0.02 0.01 0.02 0.10 0.16 0.23 0.29 0.59 1.02 1.37 2.11 1.05 1.08 1.17 1.09 0.98 1.13 0.92 1.11 1.23 1.06 1.06 1.16
1.34 0.90 0.75 1.43 1.18 1.22 0.97 0.43 0.18 0.27 0.32 0.42 0.41 0.16 0.09 0.10 0.16 0.19 0.31 0.41 0.15 0.01 0.00 0.01 0.04 0.08 0.15 0.21 0.41 0.63 0.99 1.24 2.13 1.40 1.17 0.93 0.74 0.70 0.76 0.74 0.76 0.83 0.86 0.97
0.89 0.80 1.08 0.91 0.97 1.34 0.97 0.55 0.50 0.52 0.69 1.06 0.25 0.12 0.06 0.05 0.05 0.05 0.12 0.45 0.11 0.01 0.00 0.00 0.00 0.01 0.06 0.12 0.28 0.41 0.57 0.64 1.49 2.13 1.59 1.30 0.70 0.60 0.78 0.82 0.95 1.00 1.20 1.30
1.79 1.91 1.49 1.11 1.56 1.75 1.89 1.50 1.97 1.94 1.37 0.62 0.12 0.08 0.05 0.00 0.01 0.02 0.04 0.31 0.10 0.00 0.00 0.00 0.00 0.01 0.04 0.10 0.15 0.25 0.35 0.44 0.86 1.06 1.17 1.62 1.25 0.62 0.66 0.83 0.90 0.76 0.79 0.73
1.84 1.93 1.48 1.10 1.43 1.99 1.68 1.39 1.29 0.85 0.39 0.11 0.06 0.13 0.01 0.00 0.00 0.00 0.00 0.09 0.11 0.00 0.00 0.00 0.00 0.00 0.01 0.04 0.12 0.17 0.20 0.28 0.35 0.53 0.75 0.82 1.20 1.31 0.87 0.65 0.44 0.38 0.34 0.37
0.64 1.18 0.96 0.76 0.96 1.47 1.48 0.87 0.73 0.46 0.25 0.25 0.05 0.01 0.00 0.00 0.00 0.00 0.00 0.05 0.08 0.01 0.00 0.00 0.00 0.00 0.00 0.01 0.03 0.03 0.05 0.10 0.15 0.18 0.39 0.22 0.16 0.31 0.32 0.30 0.24 0.17 0.16 0.13
0.32 1.01 0.99 1.02 1.32 1.27 1.01 0.40 0.58 1.12 0.66 0.33 0.08 0.00 0.00 0.00 0.00 0.00 0.00 0.02 0.09 0.04 0.01 0.00 0.00 0.00 0.00 0.00 0.00 0.01 0.03 0.04 0.05 0.08 0.09 0.09 0.14 0.19 0.15 0.14 0.13 0.09 0.07 0.07
0.42 0.85 1.15 1.41 1.35 0.91 0.87 0.84 0.52 0.52 0.35 0.30 0.20 0.02 0.00 0.00 0.00 0.00 0.00 0.00 0.03 0.08 0.01 0.00 0.00 0.00 0.00 0.00 0.01 0.03 0.02 0.02 0.03 0.03 0.04 0.06 0.06 0.08 0.10 0.09 0.07 0.04 0.03 0.04
0.40 0.86 1.06 0.91 0.32 0.27 0.39 0.34 0.34 0.84 0.46 0.42 0.38 0.11 0.00 0.01 0.01 0.00 0.01 0.02 0.01 0.04 0.01 0.00 0.00 0.00 0.00 0.00 0.00 0.03 0.05 0.04 0.01 0.03 0.04 0.06 0.05 0.06 0.06 0.07 0.06 0.05 0.05 0.03
0.57 1.03 1.07 0.85 0.62 0.63 0.84 0.42 0.36 0.60 0.99 0.70 0.57 0.15 0.00 0.00 0.00 0.00 0.01 0.03 0.02 0.01 0.00 0.00 0.00 0.00 0.00 0.02 0.05 0.09 0.04 0.00 0.00 0.02 0.03 0.03 0.04 0.04 0.05 0.05 0.04 0.03 0.02 0.02
0.50 0.99 1.08 0.85 0.46 0.58 0.82 0.45 0.57 1.13 1.11 0.40 0.37 0.05 0.01 0.01 0.02 0.01 0.00 0.02 0.04 0.01 0.01 0.00 0.00 0.00 0.02 0.07 0.10 0.10 0.01 0.01 0.02 0.03 0.04 0.05 0.06 0.06 0.05 0.05 0.05 0.03 0.03 0.02
0.49 1.09 0.92 0.49 0.28 0.42 0.57 0.56 0.49 0.94 0.52 0.58 0.18 0.07 0.03 0.03 0.02 0.02 0.01 0.01 0.04 0.05 0.04 0.02 0.02 0.03 0.02 0.05 0.05 0.06 0.09 0.07 0.07 0.07 0.05 0.05 0.06 0.05 0.04 0.04 0.05 0.05 0.04 0.04
0.35 0.72 0.75 0.61 0.24 0.38 0.48 0.55 0.36 0.56 0.27 0.28 0.17 0.13 0.01 0.01 0.01 0.00 0.01 0.04 0.07 0.07 0.04 0.02 0.01 0.01 0.01 0.00 0.01 0.02 0.08 0.09 0.09 0.11 0.06 0.04 0.02 0.05 0.05 0.06 0.06 0.07 0.14 0.12
0.28 0.51 0.75 0.67 0.48 0.28 0.47 0.58 0.68 0.48 0.20 0.25 0.28 0.15 0.01 0.01 0.04 0.06 0.05 0.06 0.04 0.03 0.02 0.01 0.00 0.00 0.00 0.00 0.00 0.01 0.03 0.05 0.09 0.08 0.06 0.05 0.03 0.04 0.07 0.09 0.16 0.21 0.27 0.56
0.06 0.23 0.46 0.31 0.15 0.16 0.11 0.14 0.44 0.28 0.23 0.26 0.14 0.07 0.02 0.00 0.00 0.02 0.04 0.02 0.01 0.01 0.00 0.01 0.00 0.00 0.00 0.00 0.01 0.02 0.09 0.12 0.40 0.11 0.15 0.16 0.14 0.17 0.20 0.33 0.45 0.48 0.47 0.48
0.05 0.16 0.25 0.16 0.07 0.03 0.00 0.00 0.07 0.13 0.22 0.14 0.07 0.02 0.00 0.00 0.22 0.35 0.15 0.04 0.01 0.00 0.00 0.00 0.00 0.00 0.00 0.02 0.02 0.02 0.04 0.14 0.36 0.22 0.25 0.36 0.31 0.28 0.26 0.40 0.50 0.37 0.51 0.67
0.05 0.18 0.27 0.10 0.12 0.02 0.00 0.00 0.01 0.02 0.20 0.02 0.05 0.04 0.02 0.01 0.29 0.32 0.24 0.05 0.02 0.00 0.00 0.00 0.00 0.02 0.05 0.08 0.08 0.07 0.07 0.10 0.31 0.33 0.31 0.30 0.48 0.40 0.48 0.44 0.49 0.75 0.60 0.54
0.11 0.19 0.28 0.16 0.18 0.01 0.00 0.00 0.01 0.09 0.15 0.02 0.06 0.06 0.01 0.01 0.03 0.06 0.08 0.11 0.08 0.12 0.12 0.14 0.08 0.16 0.24 0.37 0.35 0.41 0.43 0.62 0.88 0.58 0.60 0.65 0.78 0.67 0.61 0.66 0.57 0.50 0.37 0.26
0.03 0.05 0.09 0.14 0.10 0.00 0.00 0.00 0.01 0.01 0.02 0.03 0.10 0.03 0.02 0.01 0.02 0.02 0.01 0.07 0.11 0.14 0.12 0.33 0.48 0.53 0.60 0.72 0.65 0.63 0.71 0.75 0.91 0.67 0.59 0.57 0.49 0.44 0.35 0.27 0.18 0.10 0.09 0.05
0.00 0.00 0.00 0.00 0.00 0.00 0.00 0.00 0.00 0.00 0.00 0.00 0.02 0.10 0.13 0.12 0.19 0.07 0.02 0.01 0.03 0.07 0.03 0.12 0.22 0.13 0.18 0.29 0.34 0.25 0.24 0.23 0.20 0.16 0.13 0.13 0.08 0.05 0.03 0.00 0.00 0.00 0.00 0.00
0.00 0.00 0.00 0.00 0.00 0.00 0.00 0.00 0.00 0.00 0.00 0.00 0.00 0.01 0.22 0.07 0.08 0.03 0.06 0.04 0.05 0.05 0.02 0.04 0.04 0.04 0.04 0.05 0.04 0.03 0.02 0.02 0.01 0.02 0.01 0.00 0.00 0.01 0.00 0.00 0.00 0.00 0.00 0.00
0.01 0.00 0.00 0.01 0.00 0.00 0.00 0.00 0.00 0.01 0.02 0.00 0.00 0.01 0.03 0.10 0.10 0.04 0.16 0.08 0.00 0.00 0.00 0.00 0.01 0.02 0.00 0.00 0.00 0.00 0.01 0.01 0.01 0.01 0.02 0.03 0.02 0.02 0.00 0.00 0.00 0.00 0.00 0.00
0.00 0.00 0.01 0.03 0.01 0.02 0.02 0.01 0.00 0.00 0.01 0.01 0.02 0.01 0.02 0.02 0.13 0.02 0.06 0.03 0.00 0.00 0.00 0.00 0.00 0.01 0.00 0.00 0.00 0.00 0.00 0.00 0.00 0.00 0.00 0.02 0.03 0.02 0.03 0.02 0.01 0.01 0.01 0.01

GFSCGP_prec_precacc_114.txt.gz
Total_Precipitation_Accumulation
2.01 2.68 2.03 1.09 0.62 0.46 0.30 0.25 0.18 0.06 0.17 0.15 0.06 0.06 0.45 1.15 1.13 0.77 0.47 0.16 0.10 0.10 0.14 0.31 0.71 2.14 2.12 1.24 1.16 0.85 0.94 0.97 0.87 0.57 0.42 0.48 0.43 0.56 0.46 0.46 0.41 0.29 0.14 0.13
2.01 1.90 0.97 0.59 0.65 0.77 0.49 0.31 0.18 0.10 0.19 0.25 0.10 0.10 0.19 0.75 1.06 0.88 0.65 0.19 0.07 0.07 0.07 0.16 0.46 1.04 2.37 1.19 1.09 1.26 1.12 0.72 0.69 0.90 0.79 0.77 0.90 0.67 0.91 1.00 0.63 0.66 0.56 0.56
1.33 1.03 1.02 1.29 1.39 1.19 0.49 0.29 0.21 0.14 0.30 0.37 0.21 0.27 0.29 0.42 0.77 0.76 0.66 0.33 0.08 0.03 0.03 0.10 0.23 0.56 1.31 1.75 0.93 1.33 1.80 1.18 0.89 1.17 1.78 1.69 1.47 1.06 1.03 0.76 0.85 1.18 1.32 1.22
1.09 0.84 1.06 1.76 1.72 1.28 0.80 0.29 0.20 0.28 0.71 0.86 0.41 0.39 0.37 0.19 0.36 0.45 0.54 0.41 0.14 0.02 0.01 0.03 0.14 0.31 0.55 1.51 1.24 1.28 1.56 2.20 1.12 1.15 1.24 1.13 1.00 1.13 0.92 1.11 1.23 1.07 1.07 1.17
1.34 0.90 0.75 1.43 1.21 1.33 1.08 0.62 0.26 0.40 0.66 0.67 0.47 0.23 0.29 0.13 0.16 0.21 0.33 0.43 0.20 0.03 0.00 0.01 0.08 0.22 0.33 0.51 1.06 1.14 1.36 1.44 2.32 1.53 1.30 1.08 0.91 0.80 0.81 0.77 0.79 0.87 0.93 1.01
0.89 0.80 1.09 0.92 0.98 1.41 1.02 0.69 0.57 0.68 0.97 1.27 0.31 0.15 0.15 0.07 0.06 0.09 0.13 0.51 0.23 0.05 0.00 0.00 0.03 0.15 0.19 0.24 0.54 0.88 1.20 1.05 1.78 2.46 2.01 1.50 0.96 0.85 0.93 0.91 0.99 1.06 1.26 1.35
1.79 1.91 1.50 1.13 1.57 1.75 1.90 1.53 1.98 1.97 1.46 0.83 0.15 0.08 0.06 0.00 0.02 0.04 0.05 0.46 0.31 0.08 0.01 0.00 0.01 0.07 0.15 0.16 0.27 0.46 0.62 0.78 1.14 1.37 1.72 2.41 1.89 1.02 0.89 1.03 1.13 0.83 0.80 0.76
1.85 1.93 1.50 1.18 1.51 2.01 1.68 1.39 1.29 0.87 0.47 0.20 0.07 0.14 0.02 0.00 0.00 0.00 0.03 0.34 0.39 0.12 0.02 0.01 0.01 0.03 0.08 0.15 0.26 0.37 0.41 0.47 0.51 0.72 1.05 1.71 2.06 2.18 1.48 1.10 0.78 0.69 0.48 0.48
0.64 1.18 0.99 0.89 1.05 1.47 1.49 0.92 0.75 0.46 0.25 0.27 0.08 0.02 0.00 0.00 0.00 0.00 0.04 0.33 0.41 0.13 0.02 0.01 0.00 0.00 0.03 0.10 0.18 0.40 0.35 0.30 0.24 0.31 0.75 0.91 0.82 0.93 0.94 0.83 0.72 0.68 0.59 0.48
0.32 1.01 0.99 1.05 1.33 1.27 1.03 0.47 0.60 1.12 0.67 0.36 0.10 0.02 0.01 0.00 0.00 0.00 0.05 0.33 0.42 0.13 0.01 0.00 0.00 0.00 0.01 0.03 0.11 0.16 0.16 0.16 0.19 0.21 0.19 0.26 0.29 0.40 0.42 0.47 0.47 0.43 0.40 0.34
0.42 0.85 1.15 1.41 1.35 0.98 0.92 0.85 0.52 0.52 0.35 0.31 0.21 0.10 0.00 0.00 0.00 0.00 0.02 0.23 0.41 0.16 0.01 0.00 0.00 0.00 0.00 0.00 0.05 0.11 0.10 0.08 0.11 0.09 0.07 0.11 0.14 0.17 0.23 0.24 0.19 0.14 0.15 0.14
0.40 0.86 1.06 0.91 0.32 0.27 0.40 0.34 0.34 0.84 0.46 0.42 0.39 0.17 0.00 0.01 0.01 0.00 0.01 0.10 0.32 0.23 0.04 0.01 0.00 0.00 0.00 0.00 0.02 0.08 0.12 0.10 0.07 0.07 0.07 0.09 0.10 0.12 0.14 0.15 0.13 0.12 0.09 0.05
0.57 1.03 1.07 0.85 0.63 0.63 0.84 0.42 0.36 0.60 0.99 0.70 0.57 0.18 0.00 0.00 0.00 0.00 0.01 0.03 0.10 0.14 0.05 0.01 0.00 0.00 0.00 0.02 0.05 0.11 0.07 0.05 0.05 0.06 0.05 0.06 0.06 0.09 0.11 0.09 0.07 0.05 0.03 0.02
0.50 0.99 1.08 0.86 0.46 0.58 0.82 0.45 0.57 1.13 1.11 0.40 0.37 0.05 0.01 0.01 0.02 0.01 0.00 0.02 0.04 0.03 0.02 0.01 0.00 0.00 0.02 0.07 0.10 0.11 0.04 0.05 0.07 0.08 0.07 0.07 0.07 0.08 0.09 0.09 0.08 0.04 0.03 0.02
0.49 1.09 0.92 0.49 0.28 0.42 0.57 0.56 0.49 0.94 0.52 0.58 0.18 0.07 0.03 0.03 0.02 0.02 0.01 0.01 0.04 0.05 0.04 0.02 0.02 0.03 0.02 0.05 0.05 0.06 0.09 0.08 0.09 0.10 0.08 0.07 0.07 0.07 0.07 0.07 0.07 0.05 0.04 0.04
0.35 0.72 0.75 0.61 0.24 0.38 0.48 0.55 0.36 0.56 0.27 0.28 0.17 0.13 0.01 0.01 0.01 0.00 0.01 0.04 0.07 0.07 0.04 0.02 0.01 0.01 0.01 0.00 0.01 0.02 0.08 0.09 0.10 0.12 0.08 0.04 0.02 0.05 0.05 0.07 0.07 0.07 0.14 0.12
0.28 0.51 0.75 0.67 0.48 0.28 0.47 0.58 0.68 0.48 0.20 0.25 0.28 0.15 0.01 0.01 0.04 0.06 0.05 0.06 0.04 0.03 0.02 0.01 0.00 0.00 0.00 0.00 0.00 0.01 0.03 0.05 0.09 0.08 0.06 0.05 0.03 0.04 0.07 0.10 0.16 0.21 0.27 0.56
0.06 0.23 0.46 0.31 0.15 0.16 0.11 0.14 0.44 0.28 0.23 0.26 0.14 0.07 0.02 0.00 0.00 0.02 0.04 0.02 0.01 0.01 0.00 0.01 0.00 0.00 0.00 0.00 0.01 0.02 0.09 0.12 0.40 0.11 0.15 0.16 0.14 0.17 0.20 0.33 0.45 0.48 0.47 0.48
0.05 0.16 0.25 0.16 0.07 0.03 0.00 0.00 0.07 0.13 0.22 0.14 0.07 0.02 0.00 0.00 0.22 0.35 0.15 0.04 0.01 0.00 0.00 0.00 0.00 0.00 0.00 0.02 0.02 0.02 0.04 0.14 0.36 0.22 0.25 0.36 0.31 0.28 0.26 0.40 0.50 0.37 0.51 0.67
0.05 0.18 0.27 0.10 0.12 0.02 0.00 0.00 0.01 0.02 0.20 0.02 0.05 0.04 0.02 0.01 0.29 0.32 0.24 0.05 0.02 0.00 0.00 0.00 0.00 0.02 0.05 0.08 0.08 0.07 0.07 0.10 0.31 0.33 0.31 0.30 0.48 0.40 0.48 0.44 0.49 0.75 0.60 0.54
0.11 0.19 0.28 0.16 0.18 0.01 0.00 0.00 0.01 0.09 0.15 0.02 0.06 0.06 0.01 0.01 0.03 0.06 0.08 0.11 0.08 0.12 0.12 0.14 0.08 0.16 0.24 0.37 0.35 0.41 0.43 0.62 0.88 0.58 0.60 0.65 0.78 0.67 0.61 0.66 0.57 0.50 0.37 0.26
0.03 0.05 0.09 0.14 0.10 0.00 0.00 0.00 0.01 0.01 0.02 0.03 0.10 0.03 0.02 0.01 0.02 0.02 0.01 0.07 0.11 0.14 0.12 0.33 0.48 0.53 0.60 0.72 0.65 0.63 0.71 0.75 0.91 0.67 0.59 0.57 0.49 0.44 0.35 0.27 0.18 0.10 0.09 0.05
0.00 0.00 0.00 0.00 0.00 0.00 0.00 0.00 0.00 0.00 0.00 0.00 0.02 0.10 0.13 0.12 0.19 0.07 0.02 0.01 0.03 0.07 0.03 0.12 0.22 0.13 0.18 0.29 0.34 0.25 0.24 0.23 0.20 0.16 0.13 0.13 0.08 0.05 0.03 0.00 0.00 0.00 0.00 0.00
0.00 0.00 0.00 0.00 0.00 0.00 0.00 0.00 0.00 0.00 0.00 0.00 0.00 0.01 0.22 0.07 0.08 0.03 0.06 0.04 0.05 0.05 0.02 0.04 0.04 0.04 0.04 0.05 0.04 0.03 0.02 0.02 0.01 0.02 0.01 0.00 0.00 0.01 0.00 0.00 0.00 0.00 0.00 0.00
0.01 0.00 0.00 0.01 0.00 0.00 0.00 0.00 0.00 0.01 0.02 0.00 0.00 0.01 0.03 0.10 0.10 0.04 0.16 0.08 0.00 0.00 0.00 0.00 0.01 0.02 0.00 0.00 0.00 0.00 0.01 0.03 0.05 0.05 0.07 0.09 0.08 0.06 0.02 0.01 0.01 0.00 0.00 0.00
0.00 0.00 0.01 0.03 0.01 0.02 0.02 0.01 0.00 0.00 0.01 0.01 0.02 0.01 0.02 0.02 0.13 0.02 0.06 0.03 0.00 0.00 0.00 0.00 0.00 0.01 0.00 0.00 0.00 0.00 0.00 0.00 0.00 0.01 0.01 0.03 0.08 0.15 0.19 0.16 0.12 0.10 0.06 0.04

GFSCGP_prec_precacc_117.txt.gz
Total_Precipitation_Accumulation
2.02 2.69 2.03 1.09 0.63 0.47 0.31 0.26 0.19 0.06 0.17 0.15 0.08 0.09 0.46 1.17 1.16 0.78 0.48 0.18 0.10 0.10 0.14 0.31 0.73 2.22 2.50 1.74 1.79 1.47 1.22 1.05 0.92 0.60 0.45 0.50 0.44 0.56 0.46 0.46 0.41 0.29 0.14 0.13
2.02 1.91 0.97 0.59 0.65 0.77 0.49 0.32 0.19 0.10 0.20 0.27 0.11 0.11 0.19 0.76 1.08 0.91 0.67 0.20 0.08 0.07 0.07 0.16 0.47 1.20 2.65 1.80 1.50 1.71 1.41 0.86 0.71 0.91 0.80 0.78 0.90 0.67 0.91 1.00 0.63 0.66 0.56 0.56
1.33 1.03 1.02 1.29 1.39 1.19 0.50 0.31 0.21 0.15 0.32 0.40 0.22 0.28 0.29 0.42 0.77 0.78 0.67 0.33 0.08 0.03 0.03 0.10 0.23 0.68 1.54 2.56 1.47 1.66 2.18 1.40 0.94 1.18 1.82 1.72 1.50 1.06 1.03 0.77 0.85 1.18 1.32 1.22
1.09 0.84 1.06 1.76 1.72 1.35 0.87 0.33 0.31 0.36 0.83 0.94 0.43 0.44 0.37 0.19 0.36 0.45 0.54 0.41 0.14 0.02 0.01 0.03 0.14 0.38 0.78 2.02 1.90 1.73 2.30 2.55 1.21 1.19 1.27 1.14 1.00 1.13 0.92 1.11 1.23 1.07 1.07 1.17
1.34 0.90 0.75 1.43 1.22 1.45 1.15 0.68 0.32 0.50 0.90 0.77 0.50 0.55 0.37 0.14 0.16 0.21 0.33 0.44 0.20 0.03 0.00 0.01 0.08 0.26 0.54 0.95 1.99 1.91 2.35 2.13 2.48 1.63 1.42 1.12 0.92 0.81 0.81 0.77 0.79 0.87 0.93 1.01
0.89 0.80 1.09 0.92 0.99 1.44 1.06 0.76 0.70 1.00 1.44 1.41 0.35 0.37 0.47 0.26 0.11 0.13 0.16 0.52 0.23 0.06 0.00 0.00 0.03 0.19 0.35 0.61 1.41 2.02 2.43 1.66 2.17 2.64 2.17 1.58 1.03 0.91 0.97 0.92 1.00 1.06 1.27 1.38
1.79 1.91 1.50 1.13 1.58 1.75 1.90 1.55 2.11 2.27 1.77 0.97 0.23 0.23 0.19 0.08 0.08 0.11 0.09 0.47 0.32 0.08 0.01 0.00 0.01 0.10 0.21 0.46 0.88 1.22 2.33 1.78 1.66 1.81 1.87 2.58 2.05 1.20 1.04 1.13 1.24 0.88 0.82 0.78
1.85 1.95 1.52 1.20 1.54 2.02 1.68 1.41 1.37 1.04 0.66 0.32 0.09 0.19 0.13 0.04 0.01 0.01 0.04 0.34 0.40 0.13 0.02 0.01 0.01 0.06 0.13 0.30 0.68 0.76 0.92 1.04 0.90 1.20 1.44 1.99 2.64 2.51 1.69 1.28 0.95 0.89 0.56 0.49
0.65 1.19 0.99 0.90 1.06 1.48 1.50 0.94 0.76 0.51 0.31 0.34 0.19 0.10 0.06 0.01 0.01 0.01 0.06 0.39 0.47 0.15 0.02 0.02 0.00 0.03 0.06 0.22 0.32 0.59 0.55 0.46 0.46 0.52 1.10 1.15 1.07 1.25 1.39 1.25 0.89 0.82 0.77 0.58
0.32 1.02 0.99 1.05 1.34 1.29 1.06 0.49 0.61 1.13 0.71 0.47 0.18 0.08 0.11 0.01 0.01 0.08 0.18 0.45 0.51 0.18 0.02 0.03 0.02 0.04 0.03 0.10 0.25 0.27 0.31 0.31 0.39 0.40 0.39 0.47 0.46 0.58 0.67 0.87 0.84 0.65 0.60 0.60
0.42 0.86 1.16 1.44 1.45 1.07 0.94 0.85 0.52 0.52 0.36 0.35 0.25 0.22 0.07 0.01 0.01 0.06 0.16 0.41 0.65 0.31 0.05 0.03 0.04 0.02 0.01 0.05 0.15 0.18 0.18 0.25 0.47 0.34 0.20 0.22 0.20 0.21 0.29 0.38 0.41 0.37 0.37 0.33
0.40 0.86 1.08 0.93 0.33 0.27 0.40 0.34 0.34 0.85 0.46 0.42 0.40 0.26 0.02 0.01 0.02 0.04 0.12 0.29 0.61 0.42 0.09 0.04 0.07 0.01 0.01 0.01 0.06 0.13 0.19 0.24 0.29 0.25 0.13 0.12 0.11 0.13 0.15 0.17 0.19 0.20 0.18 0.17
0.58 1.04 1.09 0.88 0.64 0.63 0.84 0.42 0.36 0.60 0.99 0.70 0.59 0.25 0.00 0.00 0.00 0.02 0.08 0.22 0.43 0.39 0.11 0.02 0.05 0.00 0.01 0.05 0.10 0.14 0.12 0.13 0.15 0.16 0.10 0.09 0.06 0.10 0.13 0.12 0.13 0.12 0.11 0.10
0.50 0.99 1.09 0.87 0.47 0.58 0.82 0.45 0.57 1.13 1.11 0.41 0.39 0.09 0.01 0.01 0.02 0.01 0.00 0.04 0.12 0.18 0.11 0.03 0.00 0.00 0.03 0.10 0.14 0.14 0.08 0.08 0.11 0.15 0.12 0.12 0.10 0.11 0.13 0.15 0.17 0.13 0.12 0.09
0.49 1.09 0.92 0.49 0.28 0.42 0.57 0.56 0.49 0.94 0.52 0.59 0.19 0.07 0.03 0.03 0.02 0.02 0.01 0.01 0.04 0.07 0.10 0.10 0.06 0.03 0.02 0.05 0.06 0.08 0.12 0.10 0.11 0.11 0.09 0.09 0.09 0.09 0.10 0.10 0.12 0.11 0.08 0.07
0.35 0.72 0.75 0.61 0.24 0.38 0.48 0.55 0.36 0.56 0.27 0.28 0.17 0.13 0.01 0.01 0.01 0.00 0.01 0.04 0.07 0.07 0.04 0.03 0.04 0.04 0.02 0.00 0.01 0.02 0.09 0.10 0.11 0.13 0.10 0.06 0.05 0.07 0.08 0.08 0.08 0.09 0.15 0.13
0.28 0.51 0.75 0.67 0.48 0.28 0.47 0.58 0.68 0.48 0.20 0.25 0.28 0.15 0.01 0.01 0.04 0.06 0.05 0.06 0.04 0.03 0.02 0.01 0.00 0.00 0.00 0.00 0.00 0.01 0.03 0.06 0.10 0.09 0.07 0.06 0.05 0.07 0.10 0.12 0.18 0.23 0.28 0.56
0.06 0.23 0.46 0.31 0.15 0.16 0.11 0.14 0.44 0.28 0.23 0.26 0.14 0.07 0.02 0.00 0.00 0.02 0.04 0.02 0.01 0.01 0.00 0.01 0.00 0.00 0.00 0.00 0.01 0.02 0.09 0.12 0.40 0.12 0.18 0.18 0.15 0.19 0.21 0.34 0.45 0.48 0.47 0.48
0.05 0.16 0.25 0.16 0.07 0.03 0.00 0.00 0.07 0.14 0.23 0.14 0.07 0.02 0.00 0.00 0.22 0.35 0.15 0.04 0.01 0.00 0.00 0.00 0.00 0.00 0.00 0.02 0.02 0.02 0.04 0.14 0.36 0.22 0.25 0.36 0.31 0.28 0.26 0.40 0.50 0.37 0.51 0.67
0.05 0.18 0.27 0.10 0.12 0.02 0.00 0.00 0.01 0.02 0.20 0.02 0.05 0.04 0.02 0.01 0.29 0.32 0.24 0.05 0.02 0.00 0.00 0.00 0.00 0.02 0.05 0.08 0.08 0.07 0.07 0.10 0.31 0.33 0.31 0.31 0.49 0.40 0.49 0.44 0.49 0.75 0.60 0.54
0.11 0.19 0.28 0.16 0.18 0.01 0.00 0.00 0.01 0.10 0.16 0.02 0.06 0.06 0.01 0.01 0.03 0.06 0.08 0.11 0.08 0.12 0.12 0.14 0.08 0.16 0.24 0.37 0.35 0.41 0.43 0.62 0.88 0.58 0.60 0.65 0.78 0.67 0.61 0.66 0.57 0.50 0.37 0.26
0.03 0.05 0.09 0.14 0.10 0.00 0.00 0.00 0.01 0.01 0.02 0.03 0.10 0.03 0.02 0.01 0.02 0.02 0.01 0.07 0.11 0.14 0.12 0.33 0.48 0.53 0.60 0.72 0.65 0.63 0.71 0.75 0.91 0.67 0.59 0.57 0.49 0.44 0.35 0.27 0.18 0.10 0.09 0.05
0.00 0.00 0.00 0.00 0.00 0.00 0.00 0.00 0.00 0.00 0.00 0.00 0.02 0.10 0.13 0.12 0.19 0.07 0.02 0.01 0.03 0.07 0.03 0.12 0.22 0.13 0.18 0.29 0.34 0.25 0.24 0.23 0.20 0.16 0.13 0.13 0.08 0.05 0.03 0.00 0.00 0.00 0.00 0.00
0.00 0.00 0.00 0.00 0.00 0.00 0.00 0.00 0.00 0.00 0.00 0.00 0.00 0.01 0.22 0.07 0.08 0.03 0.06 0.04 0.05 0.05 0.02 0.04 0.04 0.04 0.04 0.05 0.04 0.03 0.02 0.02 0.01 0.02 0.01 0.00 0.00 0.01 0.00 0.00 0.00 0.00 0.00 0.00
0.01 0.00 0.00 0.01 0.00 0.00 0.00 0.00 0.00 0.01 0.02 0.00 0.00 0.01 0.03 0.10 0.10 0.04 0.16 0.08 0.00 0.00 0.00 0.00 0.01 0.02 0.00 0.00 0.00 0.00 0.01 0.03 0.06 0.09 0.13 0.16 0.13 0.10 0.04 0.02 0.02 0.01 0.00 0.00
0.00 0.00 0.01 0.03 0.01 0.02 0.02 0.01 0.00 0.00 0.01 0.01 0.02 0.01 0.02 0.02 0.13 0.02 0.06 0.03 0.00 0.00 0.00 0.00 0.00 0.01 0.00 0.00 0.00 0.00 0.00 0.00 0.00 0.01 0.01 0.04 0.11 0.22 0.31 0.32 0.32 0.31 0.25 0.20

GFSCGP_prec_precacc_120.txt.gz
Total_Precipitation_Accumulation
2.03 2.70 2.04 1.10 0.63 0.47 0.31 0.27 0.19 0.06 0.17 0.15 0.08 0.09 0.46 1.17 1.16 0.78 0.48 0.18 0.10 0.10 0.14 0.31 0.73 2.22 2.50 1.74 1.93 2.52 2.25 1.45 1.15 0.65 0.45 0.50 0.44 0.56 0.46 0.46 0.41 0.29 0.14 0.13
2.03 1.91 0.97 0.59 0.65 0.77 0.49 0.32 0.19 0.10 0.20 0.27 0.11 0.11 0.19 0.76 1.08 0.94 0.70 0.21 0.08 0.07 0.07 0.17 0.47 1.20 2.65 1.81 1.56 2.36 2.69 1.30 0.95 0.94 0.80 0.78 0.90 0.67 0.91 1.00 0.63 0.66 0.56 0.56
1.33 1.03 1.02 1.29 1.39 1.19 0.50 0.31 0.21 0.15 0.32 0.41 0.23 0.29 0.29 0.42 0.77 0.81 0.77 0.35 0.08 0.03 0.03 0.11 0.23 0.68 1.54 2.56 1.51 2.00 3.09 2.20 1.20 1.24 1.83 1.76 1.56 1.08 1.04 0.77 0.85 1.18 1.32 1.22
1.09 0.84 1.06 1.76 1.72 1.36 0.90 0.34 0.32 0.38 0.90 0.99 0.45 0.51 0.39 0.19 0.36 0.45 0.57 0.43 0.15 0.04 0.02 0.03 0.14 0.38 0.78 2.02 1.91 1.84 2.63 3.52 1.66 1.34 1.32 1.17 1.02 1.15 0.92 1.11 1.23 1.07 1.07 1.17
1.34 0.90 0.75 1.43 1.22 1.48 1.19 0.69 0.36 0.56 0.97 0.84 0.53 0.73 0.44 0.15 0.17 0.21 0.34 0.44 0.21 0.04 0.01 0.01 0.08 0.26 0.55 0.96 2.00 1.93 2.58 2.71 3.40 1.93 1.49 1.15 0.93 0.83 0.82 0.78 0.79 0.87 0.93 1.01
0.89 0.80 1.09 0.92 0.99 1.45 1.07 0.78 0.78 1.06 1.48 1.50 0.40 0.50 0.70 0.37 0.17 0.16 0.18 0.55 0.28 0.08 0.01 0.00 0.03 0.19 0.37 0.62 1.41 2.07 2.60 2.15 3.40 3.28 2.58 1.74 1.05 0.97 0.99 0.92 1.00 1.07 1.27 1.38
1.79 1.91 1.50 1.13 1.59 1.76 1.91 1.66 2.35 2.50 1.83 1.06 0.55 0.48 0.42 0.26 0.34 0.44 0.17 0.48 0.32 0.08 0.02 0.00 0.01 0.10 0.23 0.47 0.90 1.32 2.72 2.38 2.85 2.67 2.53 2.93 2.30 1.37 1.11 1.15 1.24 0.88 0.83 0.78
1.85 1.98 1.53 1.21 1.55 2.03 1.69 1.55 1.61 1.21 0.75 0.36 0.18 0.32 0.41 0.30 0.19 0.15 0.07 0.37 0.42 0.13 0.02 0.01 0.01 0.07 0.16 0.30 0.70 0.85 1.28 2.01 2.13 2.18 2.39 2.51 3.03 2.85 1.86 1.38 0.97 0.89 0.56 0.49
0.66 1.19 0.99 0.90 1.06 1.48 1.50 0.98 0.90 0.67 0.36 0.38 0.32 0.27 0.34 0.41 0.47 0.20 0.19 0.43 0.47 0.15 0.02 0.02 0.01 0.08 0.10 0.24 0.34 0.68 0.80 0.91 1.53 1.29 1.91 1.65 1.51 1.52 1.56 1.42 0.97 0.85 0.80 0.62
0.33 1.03 1.00 1.05 1.34 1.29 1.07 0.49 0.65 1.23 0.85 0.62 0.32 0.21 0.47 0.34 0.31 0.31 0.28 0.48 0.51 0.19 0.03 0.03 0.03 0.14 0.08 0.14 0.25 0.29 0.38 0.56 0.82 0.96 0.81 0.73 0.84 0.86 0.89 1.08 1.00 0.74 0.65 0.64
0.43 0.89 1.18 1.46 1.48 1.09 0.94 0.86 0.52 0.54 0.38 0.43 0.31 0.45 0.47 0.26 0.25 0.27 0.30 0.50 0.72 0.40 0.08 0.10 0.19 0.17 0.05 0.06 0.17 0.20 0.21 0.35 0.76 0.60 0.46 0.47 0.43 0.48 0.49 0.56 0.55 0.55 0.50 0.38
0.40 0.87 1.09 0.93 0.33 0.27 0.40 0.35 0.34 0.87 0.48 0.44 0.44 0.48 0.15 0.19 0.28 0.28 0.29 0.45 0.82 0.54 0.27 0.31 0.33 0.16 0.09 0.07 0.10 0.14 0.22 0.35 0.97 0.65 0.41 0.33 0.27 0.29 0.29 0.25 0.30 0.34 0.34 0.30
0.58 1.05 1.11 0.89 0.64 0.63 0.84 0.42 0.36 0.60 0.99 0.71 0.63 0.40 0.03 0.04 0.07 0.18 0.26 0.46 0.76 0.75 0.28 0.18 0.17 0.07 0.05 0.08 0.10 0.15 0.15 0.20 0.41 0.49 0.33 0.18 0.11 0.14 0.17 0.14 0.15 0.17 0.18 0.20
0.50 1.00 1.09 0.90 0.53 0.60 0.83 0.45 0.57 1.13 1.11 0.42 0.44 0.12 0.01 0.01 0.02 0.01 0.03 0.19 0.47 0.48 0.28 0.14 0.12 0.03 0.03 0.10 0.15 0.14 0.08 0.10 0.15 0.21 0.20 0.17 0.11 0.14 0.16 0.16 0.17 0.14 0.13 0.11
0.50 1.09 0.92 0.49 0.29 0.42 0.57 0.56 0.49 0.94 0.52 0.60 0.22 0.08 0.03 0.03 0.02 0.02 0.01 0.03 0.12 0.19 0.19 0.18 0.12 0.08 0.07 0.12 0.10 0.11 0.12 0.10 0.11 0.12 0.11 0.11 0.10 0.11 0.14 0.15 0.16 0.14 0.12 0.10
0.35 0.72 0.75 0.61 0.24 0.38 0.48 0.55 0.36 0.56 0.29 0.29 0.18 0.14 0.01 0.01 0.01 0.00 0.01 0.04 0.07 0.08 0.07 0.07 0.08 0.06 0.04 0.05 0.06 0.05 0.10 0.11 0.11 0.13 0.10 0.07 0.05 0.08 0.09 0.11 0.13 0.13 0.20 0.18
0.28 0.51 0.75 0.67 0.48 0.28 0.47 0.58 0.69 0.49 0.21 0.25 0.28 0.15 0.01 0.01 0.04 0.06 0.05 0.06 0.04 0.03 0.02 0.02 0.01 0.01 0.01 0.01 0.01 0.02 0.05 0.06 0.11 0.10 0.08 0.07 0.05 0.07 0.10 0.13 0.19 0.25 0.33 0.62
0.06 0.23 0.46 0.31 0.15 0.16 0.11 0.14 0.44 0.28 0.23 0.26 0.14 0.07 0.02 0.00 0.00 0.02 0.04 0.02 0.01 0.01 0.00 0.01 0.00 0.00 0.00 0.00 0.01 0.02 0.09 0.13 0.41 0.13 0.20 0.23 0.18 0.20 0.22 0.35 0.47 0.50 0.48 0.49
0.05 0.16 0.25 0.16 0.07 0.03 0.00 0.00 0.07 0.14 0.23 0.14 0.07 0.02 0.00 0.00 0.22 0.35 0.15 0.04 0.01 0.00 0.00 0.00 0.00 0.00 0.00 0.02 0.02 0.02 0.04 0.14 0.36 0.22 0.25 0.38 0.34 0.31 0.28 0.41 0.51 0.38 0.52 0.68
0.05 0.18 0.27 0.10 0.12 0.02 0.00 0.00 0.01 0.02 0.21 0.02 0.05 0.04 0.02 0.01 0.29 0.32 0.24 0.05 0.02 0.00 0.00 0.00 0.00 0.02 0.05 0.08 0.08 0.07 0.07 0.10 0.31 0.33 0.31 0.31 0.49 0.41 0.50 0.46 0.51 0.76 0.60 0.55
0.11 0.19 0.28 0.16 0.18 0.01 0.00 0.00 0.01 0.10 0.16 0.02 0.06 0.06 0.01 0.01 0.03 0.06 0.08 0.11 0.08 0.12 0.12 0.14 0.08 0.16 0.24 0.37 0.35 0.41 0.43 0.62 0.88 0.58 0.60 0.65 0.78 0.67 0.61 0.66 0.57 0.50 0.37 0.26
0.03 0.05 0.09 0.14 0.10 0.00 0.00 0.00 0.01 0.01 0.02 0.03 0.10 0.03 0.02 0.01 0.02 0.02 0.01 0.07 0.11 0.14 0.12 0.33 0.48 0.53 0.60 0.72 0.65 0.63 0.71 0.75 0.91 0.67 0.59 0.57 0.49 0.44 0.35 0.27 0.18 0.10 0.09 0.05
0.00 0.00 0.00 0.00 0.00 0.00 0.00 0.00 0.00 0.00 0.00 0.00 0.02 0.10 0.13 0.12 0.19 0.07 0.02 0.01 0.03 0.07 0.03 0.12 0.22 0.13 0.18 0.29 0.34 0.25 0.24 0.23 0.20 0.16 0.13 0.13 0.08 0.05 0.03 0.00 0.00 0.00 0.00 0.00
0.00 0.00 0.00 0.00 0.00 0.00 0.00 0.00 0.00 0.00 0.00 0.00 0.00 0.01 0.22 0.07 0.08 0.03 0.06 0.04 0.05 0.05 0.02 0.04 0.04 0.04 0.04 0.05 0.04 0.03 0.02 0.02 0.02 0.02 0.02 0.00 0.00 0.01 0.00 0.00 0.00 0.00 0.00 0.00
0.01 0.00 0.00 0.01 0.00 0.00 0.00 0.00 0.00 0.01 0.02 0.00 0.00 0.01 0.03 0.10 0.10 0.04 0.16 0.08 0.00 0.00 0.00 0.00 0.01 0.02 0.00 0.00 0.00 0.00 0.01 0.03 0.06 0.09 0.13 0.16 0.14 0.12 0.06 0.03 0.03 0.02 0.01 0.02
0.00 0.00 0.01 0.03 0.01 0.02 0.02 0.01 0.00 0.00 0.01 0.01 0.02 0.01 0.02 0.02 0.13 0.02 0.06 0.03 0.00 0.00 0.00 0.00 0.00 0.01 0.00 0.00 0.00 0.00 0.00 0.00 0.00 0.01 0.01 0.04 0.11 0.23 0.32 0.35 0.38 0.39 0.35 0.34

GFSCGP_prec_precacc_123.txt.gz
Total_Precipitation_Accumulation
2.03 2.70 2.04 1.10 0.63 0.47 0.31 0.27 0.19 0.06 0.17 0.15 0.08 0.09 0.46 1.17 1.16 0.78 0.48 0.18 0.10 0.10 0.14 0.31 0.73 2.22 2.50 1.74 1.93 2.53 2.34 2.00 1.28 0.74 0.63 0.75 0.87 0.67 0.47 0.46 0.41 0.29 0.14 0.13
2.03 1.92 0.97 0.59 0.65 0.77 0.49 0.32 0.19 0.10 0.20 0.27 0.11 0.11 0.19 0.76 1.08 0.94 0.70 0.22 0.08 0.07 0.07 0.17 0.47 1.20 2.66 1.81 1.56 2.36 2.77 2.01 1.48 1.03 0.85 0.85 0.97 0.70 0.91 1.00 0.63 0.66 0.56 0.56
1.34 1.03 1.02 1.29 1.39 1.19 0.50 0.31 0.21 0.15 0.32 0.41 0.23 0.29 0.29 0.42 0.77 0.81 0.77 0.36 0.09 0.04 0.04 0.12 0.24 0.68 1.55 2.58 1.52 2.00 3.12 2.62 1.98 1.60 1.86 1.78 1.60 1.11 1.04 0.77 0.85 1.18 1.32 1.22
1.09 0.84 1.06 1.76 1.72 1.36 0.90 0.34 0.32 0.39 0.94 1.00 0.46 0.53 0.39 0.19 0.36 0.45 0.57 0.44 0.17 0.07 0.03 0.06 0.15 0.38 0.78 2.03 1.93 1.85 2.66 3.88 2.35 2.03 1.42 1.18 1.04 1.15 0.92 1.11 1.23 1.07 1.07 1.17
1.34 0.90 0.75 1.43 1.22 1.48 1.19 0.69 0.37 0.59 1.03 0.89 0.54 0.78 0.44 0.15 0.17 0.21 0.34 0.44 0.22 0.04 0.01 0.01 0.08 0.26 0.56 0.98 2.01 1.94 2.62 2.93 4.31 2.78 1.81 1.20 0.94 0.83 0.82 0.78 0.79 0.87 0.93 1.01
0.89 0.80 1.09 0.92 0.99 1.45 1.07 0.78 0.79 1.10 1.55 1.54 0.42 0.56 0.73 0.40 0.18 0.17 0.19 0.56 0.30 0.12 0.03 0.00 0.03 0.19 0.39 0.68 1.45 2.08 2.62 2.31 4.02 4.40 3.24 1.96 1.09 0.98 0.99 0.92 1.01 1.07 1.28 1.38
1.79 1.91 1.50 1.13 1.59 1.76 1.91 1.73 2.40 2.54 1.85 1.09 0.65 0.59 0.50 0.41 0.42 0.47 0.21 0.54 0.40 0.14 0.07 0.01 0.01 0.10 0.27 0.52 0.94 1.34 2.76 2.44 3.11 3.50 3.75 3.43 2.57 1.48 1.15 1.17 1.24 0.88 0.83 0.78
1.85 1.98 1.53 1.21 1.55 2.03 1.69 1.67 1.73 1.27 0.84 0.43 0.34 0.49 0.58 0.48 0.39 0.42 0.21 0.48 0.43 0.15 0.04 0.02 0.01 0.07 0.19 0.37 0.74 0.86 1.30 2.03 2.18 2.51 3.50 3.39 3.64 3.19 2.02 1.48 0.99 0.89 0.56 0.49
0.67 1.20 0.99 0.90 1.06 1.49 1.51 1.08 0.99 0.72 0.40 0.45 0.41 0.33 0.47 0.63 0.76 0.49 0.30 0.44 0.47 0.15 0.02 0.02 0.01 0.09 0.18 0.32 0.39 0.71 0.84 0.93 1.57 1.41 2.38 2.69 2.21 1.97 1.85 1.61 1.11 0.88 0.80 0.62
0.34 1.04 1.00 1.05 1.34 1.29 1.11 0.58 0.71 1.30 0.94 0.69 0.34 0.33 0.77 0.65 0.73 0.72 0.43 0.53 0.52 0.19 0.03 0.03 0.04 0.19 0.21 0.23 0.32 0.38 0.45 0.60 0.90 1.09 1.23 1.55 1.57 1.56 1.29 1.32 1.21 0.84 0.68 0.66
0.43 0.91 1.19 1.47 1.49 1.09 0.97 0.92 0.55 0.56 0.40 0.46 0.36 0.70 0.95 0.75 0.68 0.57 0.48 0.58 0.82 0.47 0.09 0.10 0.28 0.39 0.24 0.12 0.21 0.22 0.23 0.36 0.79 0.71 0.84 0.91 1.05 1.12 0.89 0.90 0.94 0.75 0.58 0.43
0.41 0.87 1.10 0.94 0.33 0.27 0.40 0.35 0.34 0.88 0.49 0.46 0.50 0.70 0.42 0.51 0.65 0.62 0.65 0.92 1.19 0.66 0.34 0.55 0.74 0.50 0.21 0.10 0.14 0.17 0.25 0.37 1.00 0.78 0.64 0.58 0.49 0.50 0.49 0.47 0.60 0.95 0.50 0.35
0.58 1.05 1.11 0.89 0.65 0.64 0.85 0.42 0.36 0.60 0.99 0.72 0.71 0.64 0.17 0.17 0.24 0.49 0.73 0.83 1.01 1.16 0.73 0.65 0.54 0.35 0.20 0.20 0.22 0.24 0.20 0.24 0.83 0.89 0.59 0.35 0.28 0.30 0.34 0.29 0.27 0.47 0.60 0.39
0.50 1.00 1.10 0.96 0.61 0.62 0.85 0.46 0.57 1.13 1.11 0.43 0.54 0.17 0.02 0.04 0.09 0.18 0.31 0.58 1.06 1.09 0.76 0.54 0.45 0.33 0.20 0.20 0.28 0.18 0.10 0.15 0.30 0.50 0.36 0.23 0.20 0.23 0.21 0.19 0.22 0.20 0.22 0.28
0.50 1.09 0.92 0.49 0.29 0.42 0.57 0.57 0.49 0.94 0.52 0.62 0.24 0.08 0.03 0.03 0.03 0.07 0.16 0.40 0.62 0.54 0.61 0.53 0.34 0.25 0.18 0.19 0.13 0.12 0.14 0.13 0.16 0.22 0.21 0.16 0.12 0.13 0.16 0.16 0.17 0.17 0.15 0.14
0.35 0.72 0.75 0.61 0.24 0.38 0.48 0.55 0.36 0.57 0.29 0.29 0.18 0.14 0.01 0.01 0.01 0.01 0.05 0.15 0.32 0.41 0.35 0.13 0.11 0.10 0.08 0.08 0.09 0.07 0.14 0.11 0.13 0.18 0.14 0.08 0.09 0.12 0.13 0.14 0.14 0.15 0.21 0.19
0.28 0.51 0.75 0.67 0.48 0.28 0.47 0.58 0.69 0.49 0.21 0.25 0.28 0.15 0.01 0.01 0.04 0.06 0.06 0.07 0.07 0.11 0.13 0.09 0.07 0.07 0.07 0.05 0.05 0.05 0.06 0.07 0.11 0.10 0.08 0.08 0.07 0.09 0.12 0.15 0.20 0.29 0.39 0.71
0.06 0.23 0.46 0.31 0.15 0.16 0.11 0.14 0.44 0.28 0.23 0.26 0.14 0.07 0.02 0.00 0.00 0.02 0.04 0.02 0.01 0.01 0.01 0.02 0.02 0.03 0.06 0.04 0.03 0.04 0.10 0.13 0.41 0.13 0.20 0.23 0.19 0.20 0.22 0.35 0.47 0.51 0.49 0.51
0.05 0.16 0.25 0.16 0.07 0.03 0.00 0.00 0.07 0.14 0.23 0.14 0.07 0.02 0.00 0.00 0.22 0.35 0.15 0.04 0.01 0.00 0.00 0.00 0.00 0.00 0.00 0.02 0.02 0.02 0.04 0.14 0.36 0.22 0.25 0.38 0.35 0.32 0.28 0.42 0.51 0.39 0.52 0.69
0.05 0.18 0.27 0.10 0.12 0.02 0.00 0.00 0.01 0.02 0.21 0.02 0.05 0.04 0.02 0.01 0.29 0.32 0.24 0.05 0.02 0.00 0.00 0.00 0.00 0.02 0.05 0.08 0.08 0.07 0.07 0.10 0.31 0.33 0.31 0.31 0.49 0.41 0.51 0.47 0.51 0.76 0.60 0.55
0.11 0.19 0.28 0.16 0.18 0.01 0.00 0.00 0.01 0.10 0.16 0.02 0.06 0.06 0.01 0.01 0.03 0.06 0.08 0.11 0.08 0.12 0.12 0.14 0.08 0.16 0.24 0.37 0.35 0.41 0.43 0.62 0.88 0.58 0.60 0.65 0.78 0.67 0.62 0.67 0.58 0.50 0.37 0.27
0.03 0.05 0.09 0.14 0.10 0.00 0.00 0.00 0.01 0.01 0.02 0.03 0.10 0.03 0.02 0.01 0.02 0.02 0.01 0.07 0.11 0.14 0.12 0.33 0.48 0.53 0.60 0.72 0.65 0.63 0.71 0.75 0.91 0.67 0.59 0.57 0.49 0.44 0.35 0.27 0.18 0.10 0.09 0.06
0.00 0.00 0.00 0.00 0.00 0.00 0.00 0.00 0.00 0.00 0.00 0.00 0.02 0.10 0.13 0.12 0.19 0.07 0.02 0.01 0.03 0.07 0.03 0.12 0.22 0.13 0.18 0.29 0.34 0.25 0.24 0.23 0.20 0.16 0.13 0.13 0.08 0.05 0.03 0.00 0.00 0.00 0.00 0.00
0.00 0.00 0.00 0.00 0.00 0.00 0.00 0.00 0.00 0.00 0.00 0.00 0.00 0.01 0.22 0.07 0.08 0.03 0.06 0.04 0.05 0.05 0.02 0.04 0.04 0.04 0.04 0.05 0.04 0.03 0.02 0.02 0.02 0.02 0.02 0.00 0.00 0.01 0.00 0.00 0.00 0.00 0.00 0.00
0.01 0.00 0.00 0.01 0.00 0.00 0.00 0.00 0.00 0.01 0.02 0.00 0.00 0.01 0.03 0.10 0.10 0.04 0.16 0.08 0.00 0.00 0.00 0.00 0.01 0.02 0.00 0.00 0.00 0.00 0.01 0.03 0.06 0.09 0.13 0.16 0.14 0.12 0.06 0.03 0.03 0.02 0.01 0.02
0.00 0.00 0.01 0.03 0.01 0.02 0.02 0.01 0.00 0.00 0.01 0.01 0.02 0.01 0.02 0.02 0.13 0.02 0.06 0.03 0.00 0.00 0.00 0.00 0.00 0.01 0.00 0.00 0.00 0.00 0.00 0.00 0.00 0.01 0.01 0.04 0.11 0.23 0.32 0.35 0.38 0.40 0.38 0.37

GFSCGP_prec_precacc_126.txt.gz
Total_Precipitation_Accumulation
2.03 2.70 2.04 1.10 0.63 0.47 0.31 0.27 0.19 0.06 0.17 0.15 0.08 0.09 0.46 1.17 1.16 0.78 0.48 0.18 0.10 0.10 0.14 0.31 0.73 2.22 2.50 1.74 1.93 2.53 2.34 2.00 1.28 0.75 0.63 0.77 1.06 1.14 0.92 0.69 0.51 0.32 0.18 0.13
2.03 1.92 0.97 0.59 0.65 0.77 0.49 0.32 0.19 0.10 0.20 0.27 0.11 0.11 0.19 0.76 1.08 0.94 0.70 0.22 0.08 0.07 0.07 0.17 0.47 1.20 2.66 1.81 1.56 2.36 2.77 2.01 1.48 1.04 0.86 0.89 1.06 0.96 1.12 1.20 0.81 0.70 0.59 0.57
1.34 1.03 1.02 1.29 1.39 1.19 0.50 0.31 0.21 0.15 0.32 0.42 0.23 0.29 0.29 0.42 0.77 0.81 0.77 0.36 0.09 0.04 0.04 0.12 0.24 0.68 1.55 2.58 1.53 2.00 3.12 2.62 1.98 1.65 1.90 1.85 1.75 1.28 1.22 1.01 1.06 1.27 1.34 1.22
1.09 0.84 1.06 1.76 1.72 1.36 0.90 0.34 0.32 0.39 0.96 1.01 0.46 0.54 0.39 0.19 0.36 0.45 0.57 0.44 0.17 0.07 0.03 0.06 0.15 0.38 0.78 2.03 1.93 1.86 2.68 3.89 2.35 2.14 1.75 1.26 1.21 1.36 1.04 1.25 1.42 1.17 1.09 1.18
1.34 0.90 0.75 1.43 1.22 1.48 1.19 0.69 0.37 0.60 1.06 0.93 0.54 0.79 0.44 0.15 0.17 0.21 0.34 0.44 0.22 0.04 0.01 0.01 0.08 0.26 0.56 0.98 2.02 1.96 2.64 2.95 4.33 2.94 2.29 1.42 1.01 0.96 0.91 0.84 0.85 0.94 0.95 1.01
0.89 0.80 1.09 0.92 0.99 1.45 1.07 0.78 0.79 1.11 1.59 1.57 0.42 0.57 0.74 0.40 0.19 0.18 0.19 0.56 0.30 0.12 0.03 0.00 0.03 0.19 0.39 0.68 1.47 2.11 2.64 2.34 4.06 4.47 3.78 2.34 1.30 1.08 1.23 1.00 1.07 1.11 1.30 1.38
1.79 1.91 1.50 1.13 1.59 1.76 1.91 1.75 2.40 2.54 1.85 1.09 0.67 0.69 0.52 0.45 0.46 0.48 0.21 0.55 0.40 0.15 0.07 0.01 0.01 0.10 0.28 0.54 0.96 1.38 2.79 2.47 3.14 3.52 4.20 3.93 3.03 1.66 1.25 1.25 1.29 0.90 0.84 0.79
1.85 1.98 1.53 1.21 1.55 2.03 1.69 1.69 1.74 1.28 0.88 0.46 0.37 0.56 0.65 0.63 0.50 0.47 0.22 0.49 0.44 0.16 0.07 0.07 0.04 0.09 0.20 0.40 0.80 0.94 1.36 2.07 2.22 2.53 3.88 4.13 4.38 3.62 2.18 1.54 1.02 0.90 0.56 0.49
0.67 1.20 0.99 0.90 1.06 1.49 1.52 1.11 1.02 0.78 0.45 0.50 0.43 0.34 0.52 0.76 0.86 0.63 0.39 0.52 0.51 0.16 0.05 0.06 0.07 0.11 0.18 0.38 0.52 0.83 0.94 1.00 1.61 1.44 2.57 3.10 2.93 2.52 2.12 1.73 1.13 0.89 0.80 0.62
0.34 1.06 1.00 1.05 1.35 1.31 1.14 0.59 0.73 1.37 0.99 0.72 0.35 0.38 0.90 0.77 0.88 0.87 0.53 0.59 0.56 0.20 0.03 0.03 0.04 0.19 0.22 0.36 0.51 0.61 0.68 0.74 0.95 1.10 1.29 1.65 1.88 2.02 1.54 1.49 1.25 0.84 0.68 0.66
0.43 0.92 1.20 1.48 1.50 1.13 0.99 0.93 0.56 0.57 0.42 0.49 0.40 0.79 1.15 0.99 0.97 0.79 0.62 0.63 0.84 0.47 0.09 0.10 0.28 0.39 0.38 0.70 0.49 0.43 0.36 0.44 0.82 0.72 0.87 1.01 1.28 1.41 1.16 1.10 1.04 0.78 0.62 0.47
0.41 0.88 1.12 0.95 0.33 0.27 0.40 0.37 0.37 0.90 0.50 0.48 0.55 0.80 0.58 0.76 1.03 1.01 0.87 1.06 1.27 0.70 0.34 0.55 0.76 0.79 1.15 0.81 0.38 0.26 0.30 0.41 1.04 0.82 0.69 0.69 0.76 0.88 0.76 0.75 0.79 1.09 0.62 0.45
0.58 1.05 1.11 0.89 0.65 0.64 0.85 0.42 0.37 0.61 1.00 0.73 0.77 0.80 0.33 0.36 0.49 1.04 1.20 1.15 1.19 1.21 0.85 0.93 1.21 1.31 0.61 0.41 0.29 0.29 0.26 0.29 0.89 0.97 0.71 0.52 0.43 0.66 0.57 0.58 0.63 0.89 0.90 0.58
0.50 1.00 1.11 0.98 0.65 0.62 0.85 0.46 0.57 1.13 1.12 0.46 0.67 0.28 0.09 0.12 0.24 0.54 0.90 1.14 1.45 1.50 1.31 1.21 0.96 0.53 0.36 0.41 0.52 0.38 0.27 0.32 0.39 0.61 0.52 0.42 0.36 0.47 0.53 0.46 0.59 0.62 0.77 0.68
0.50 1.10 0.92 0.50 0.29 0.42 0.57 0.57 0.49 0.94 0.52 0.63 0.27 0.11 0.06 0.07 0.17 0.31 0.68 1.05 1.13 1.25 1.44 1.29 0.97 0.73 0.58 0.44 0.28 0.28 0.38 0.25 0.27 0.30 0.25 0.19 0.19 0.28 0.30 0.31 0.33 0.37 0.46 0.45
0.35 0.72 0.75 0.61 0.24 0.38 0.48 0.55 0.36 0.57 0.29 0.29 0.18 0.14 0.01 0.02 0.06 0.12 0.28 0.54 0.86 1.18 0.93 0.56 0.40 0.39 0.25 0.14 0.13 0.13 0.20 0.21 0.31 0.34 0.23 0.11 0.10 0.13 0.16 0.17 0.17 0.20 0.29 0.28
0.28 0.51 0.75 0.67 0.48 0.28 0.47 0.58 0.69 0.49 0.21 0.25 0.28 0.15 0.01 0.01 0.04 0.07 0.12 0.24 0.34 0.38 0.35 0.31 0.25 0.19 0.14 0.09 0.08 0.08 0.07 0.08 0.15 0.14 0.11 0.12 0.17 0.16 0.22 0.18 0.22 0.33 0.45 0.77
0.06 0.23 0.46 0.31 0.15 0.16 0.11 0.14 0.44 0.28 0.23 0.26 0.14 0.07 0.02 0.00 0.00 0.02 0.04 0.03 0.04 0.07 0.14 0.18 0.17 0.14 0.15 0.10 0.07 0.06 0.10 0.13 0.41 0.13 0.20 0.23 0.20 0.20 0.22 0.35 0.48 0.52 0.52 0.56
0.05 0.16 0.25 0.16 0.07 0.03 0.00 0.00 0.07 0.14 0.23 0.14 0.07 0.02 0.00 0.00 0.22 0.35 0.15 0.04 0.01 0.00 0.01 0.00 0.00 0.00 0.00 0.02 0.02 0.02 0.04 0.14 0.36 0.22 0.25 0.38 0.35 0.32 0.28 0.42 0.51 0.39 0.53 0.70
0.05 0.18 0.27 0.10 0.12 0.02 0.00 0.00 0.01 0.02 0.21 0.02 0.05 0.04 0.02 0.01 0.29 0.32 0.24 0.05 0.02 0.00 0.00 0.00 0.00 0.02 0.05 0.08 0.08 0.07 0.07 0.10 0.31 0.33 0.31 0.31 0.49 0.41 0.51 0.47 0.51 0.76 0.61 0.56
0.11 0.19 0.28 0.16 0.18 0.01 0.00 0.00 0.01 0.10 0.16 0.02 0.06 0.06 0.01 0.01 0.03 0.06 0.08 0.11 0.08 0.12 0.12 0.14 0.08 0.16 0.24 0.37 0.35 0.41 0.43 0.62 0.88 0.58 0.60 0.65 0.78 0.67 0.62 0.68 0.59 0.51 0.37 0.27
0.03 0.05 0.09 0.14 0.10 0.00 0.00 0.00 0.01 0.01 0.02 0.03 0.10 0.03 0.02 0.01 0.02 0.02 0.01 0.07 0.11 0.14 0.12 0.33 0.48 0.53 0.60 0.72 0.65 0.63 0.71 0.75 0.91 0.67 0.59 0.57 0.49 0.44 0.35 0.27 0.18 0.10 0.09 0.06
0.00 0.00 0.00 0.00 0.00 0.00 0.00 0.00 0.00 0.00 0.00 0.00 0.02 0.10 0.13 0.12 0.19 0.07 0.02 0.01 0.03 0.07 0.03 0.12 0.22 0.13 0.18 0.29 0.34 0.25 0.24 0.23 0.20 0.16 0.13 0.13 0.08 0.05 0.03 0.00 0.00 0.00 0.00 0.00
0.00 0.00 0.00 0.00 0.00 0.00 0.00 0.00 0.00 0.00 0.00 0.00 0.00 0.01 0.22 0.07 0.08 0.03 0.06 0.04 0.05 0.05 0.02 0.04 0.04 0.04 0.04 0.05 0.04 0.03 0.02 0.02 0.02 0.02 0.02 0.00 0.00 0.01 0.00 0.00 0.00 0.00 0.00 0.00
0.01 0.00 0.00 0.01 0.00 0.00 0.00 0.00 0.00 0.01 0.02 0.00 0.00 0.01 0.03 0.10 0.10 0.04 0.16 0.08 0.00 0.00 0.00 0.00 0.01 0.02 0.00 0.00 0.00 0.00 0.01 0.03 0.06 0.09 0.13 0.16 0.14 0.12 0.06 0.03 0.03 0.02 0.01 0.02
0.00 0.00 0.01 0.03 0.01 0.02 0.02 0.01 0.00 0.00 0.01 0.01 0.02 0.01 0.02 0.02 0.13 0.02 0.06 0.03 0.00 0.00 0.00 0.00 0.00 0.01 0.00 0.00 0.00 0.00 0.00 0.00 0.00 0.01 0.01 0.04 0.11 0.23 0.32 0.35 0.38 0.40 0.38 0.37

GFSCGP_prec_precacc_129.txt.gz
Total_Precipitation_Accumulation
2.03 2.70 2.04 1.10 0.63 0.47 0.31 0.27 0.19 0.06 0.17 0.15 0.08 0.09 0.46 1.17 1.16 0.78 0.48 0.18 0.10 0.10 0.14 0.31 0.73 2.22 2.50 1.74 1.93 2.53 2.34 2.00 1.28 0.75 0.63 0.77 1.06 1.15 1.06 0.94 0.58 0.39 0.25 0.18
2.03 1.92 0.97 0.59 0.65 0.77 0.49 0.32 0.19 0.10 0.20 0.27 0.11 0.11 0.19 0.76 1.08 0.94 0.70 0.22 0.08 0.07 0.07 0.17 0.47 1.20 2.66 1.81 1.56 2.36 2.77 2.01 1.48 1.04 0.86 0.89 1.06 0.96 1.12 1.24 0.93 0.80 0.65 0.63
1.34 1.03 1.02 1.29 1.39 1.19 0.50 0.31 0.21 0.15 0.32 0.42 0.23 0.29 0.29 0.42 0.77 0.81 0.77 0.36 0.09 0.04 0.04 0.12 0.24 0.68 1.55 2.58 1.53 2.00 3.12 2.62 1.98 1.65 1.90 1.85 1.75 1.28 1.22 1.02 1.09 1.51 1.54 1.30
1.09 0.84 1.06 1.76 1.72 1.36 0.90 0.34 0.32 0.39 0.98 1.02 0.46 0.55 0.39 0.19 0.36 0.45 0.57 0.44 0.17 0.07 0.03 0.06 0.15 0.38 0.78 2.03 1.93 1.86 2.68 3.89 2.35 2.14 1.75 1.26 1.21 1.36 1.05 1.25 1.44 1.23 1.33 1.44
1.34 0.90 0.75 1.43 1.22 1.48 1.19 0.69 0.37 0.61 1.09 0.96 0.54 0.80 0.44 0.15 0.17 0.21 0.34 0.44 0.22 0.04 0.01 0.01 0.08 0.26 0.56 0.98 2.02 1.96 2.65 2.97 4.34 2.96 2.30 1.42 1.01 0.96 0.91 0.84 0.86 1.01 1.03 1.16
0.89 0.80 1.09 0.92 0.99 1.45 1.07 0.79 0.79 1.12 1.61 1.58 0.42 0.58 0.74 0.40 0.19 0.18 0.19 0.56 0.30 0.12 0.03 0.00 0.03 0.19 0.39 0.68 1.47 2.11 2.65 2.35 4.08 4.49 3.81 2.34 1.30 1.08 1.28 1.05 1.07 1.16 1.41 1.48
1.79 1.91 1.50 1.13 1.59 1.76 1.92 1.77 2.41 2.54 1.85 1.09 0.67 0.72 0.52 0.45 0.46 0.50 0.24 0.55 0.40 0.15 0.07 0.01 0.01 0.10 0.28 0.54 0.96 1.38 2.80 2.47 3.15 3.53 4.24 3.94 3.03 1.68 1.32 1.39 1.33 0.93 0.93 0.90
1.85 1.98 1.53 1.21 1.55 2.03 1.71 1.72 1.75 1.28 0.88 0.46 0.37 0.56 0.65 0.64 0.52 0.49 0.25 0.51 0.44 0.16 0.07 0.07 0.04 0.09 0.20 0.40 0.80 0.95 1.36 2.08 2.23 2.54 3.91 4.16 4.43 3.81 2.26 1.71 1.16 0.98 0.60 0.54
0.68 1.20 0.99 0.90 1.07 1.52 1.54 1.14 1.04 0.80 0.46 0.52 0.43 0.34 0.52 0.76 0.86 0.64 0.42 0.54 0.53 0.16 0.05 0.06 0.07 0.11 0.18 0.38 0.52 0.83 0.96 1.04 1.65 1.45 2.59 3.12 3.00 2.98 2.48 1.98 1.32 1.07 0.91 0.66
0.34 1.07 1.00 1.06 1.37 1.35 1.18 0.61 0.75 1.40 1.00 0.73 0.35 0.38 0.95 0.82 0.93 0.90 0.56 0.62 0.57 0.20 0.03 0.03 0.04 0.19 0.22 0.37 0.53 0.67 0.79 0.93 1.03 1.13 1.29 1.67 1.92 2.23 2.14 1.93 1.54 1.03 0.92 0.79
0.44 0.95 1.21 1.49 1.53 1.15 1.00 0.94 0.56 0.58 0.42 0.52 0.42 0.81 1.24 1.14 1.12 0.94 0.68 0.67 0.88 0.47 0.09 0.10 0.28 0.40 0.40 0.78 0.64 0.63 0.75 0.83 0.96 0.85 0.90 1.04 1.33 1.45 1.33 1.59 1.37 0.97 0.74 0.61
0.41 0.89 1.13 0.96 0.33 0.27 0.41 0.38 0.37 0.90 0.50 0.48 0.57 0.83 0.65 0.94 1.25 1.23 0.95 1.11 1.34 0.72 0.34 0.55 0.78 0.87 1.31 1.25 0.86 0.76 0.84 0.60 1.14 0.91 0.72 0.70 0.77 0.91 0.79 0.87 0.94 1.26 0.66 0.49
0.58 1.06 1.11 0.89 0.65 0.64 0.85 0.43 0.37 0.61 1.00 0.73 0.79 0.85 0.40 0.48 0.69 1.32 1.35 1.33 1.30 1.24 0.86 0.99 1.37 1.71 1.29 1.09 0.67 0.62 0.59 0.48 1.18 1.28 0.87 0.60 0.48 0.72 0.62 0.62 0.65 0.92 0.94 0.62
0.50 1.00 1.11 0.99 0.66 0.63 0.85 0.46 0.57 1.13 1.12 0.47 0.76 0.37 0.16 0.22 0.45 0.95 1.18 1.32 1.53 1.53 1.40 1.39 1.37 1.05 0.73 0.63 0.71 0.60 0.63 0.71 0.79 1.04 1.01 0.71 0.62 0.78 0.74 0.60 0.74 0.75 0.91 0.76
0.50 1.10 0.92 0.50 0.29 0.42 0.57 0.57 0.49 0.94 0.52 0.66 0.34 0.16 0.12 0.20 0.45 0.75 1.16 1.41 1.43 1.69 2.08 2.11 2.00 1.71 1.29 0.88 0.79 0.81 0.70 0.52 0.41 0.36 0.42 0.41 0.43 0.62 0.65 0.64 0.71 0.67 0.81 0.71
0.35 0.72 0.75 0.61 0.24 0.38 0.48 0.55 0.36 0.57 0.29 0.29 0.18 0.15 0.03 0.11 0.26 0.47 0.84 1.05 1.44 1.80 1.49 1.08 0.83 0.68 0.52 0.47 0.48 0.45 0.58 0.59 0.45 0.40 0.29 0.17 0.18 0.27 0.36 0.33 0.37 0.43 0.51 0.61
0.28 0.51 0.75 0.67 0.48 0.28 0.47 0.58 0.69 0.49 0.21 0.25 0.28 0.15 0.02 0.04 0.16 0.28 0.46 0.64 0.72 0.73 0.61 0.53 0.49 0.34 0.28 0.27 0.28 0.33 0.37 0.39 0.37 0.21 0.12 0.14 0.21 0.27 0.33 0.22 0.25 0.38 0.55 0.90
0.06 0.23 0.46 0.31 0.15 0.16 0.11 0.14 0.44 0.28 0.23 0.26 0.14 0.07 0.02 0.01 0.04 0.07 0.07 0.08 0.13 0.20 0.29 0.35 0.34 0.29 0.30 0.19 0.11 0.07 0.11 0.14 0.43 0.14 0.21 0.26 0.23 0.23 0.24 0.36 0.48 0.53 0.54 0.61
0.05 0.16 0.25 0.16 0.07 0.03 0.00 0.00 0.07 0.14 0.23 0.14 0.07 0.02 0.00 0.00 0.22 0.35 0.15 0.04 0.01 0.00 0.01 0.00 0.00 0.00 0.00 0.02 0.02 0.02 0.04 0.14 0.37 0.22 0.25 0.38 0.36 0.32 0.28 0.42 0.51 0.39 0.53 0.70
0.05 0.18 0.27 0.10 0.12 0.02 0.00 0.00 0.01 0.02 0.21 0.02 0.05 0.04 0.02 0.01 0.29 0.32 0.24 0.05 0.02 0.00 0.00 0.00 0.00 0.02 0.05 0.08 0.08 0.07 0.07 0.10 0.31 0.33 0.31 0.31 0.49 0.41 0.51 0.47 0.51 0.76 0.61 0.56
0.11 0.19 0.28 0.16 0.18 0.01 0.00 0.00 0.01 0.10 0.16 0.02 0.06 0.06 0.01 0.01 0.03 0.06 0.08 0.11 0.08 0.12 0.12 0.14 0.08 0.16 0.24 0.37 0.35 0.41 0.43 0.62 0.88 0.58 0.60 0.65 0.78 0.67 0.62 0.68 0.59 0.51 0.37 0.27
0.03 0.05 0.09 0.14 0.10 0.00 0.00 0.00 0.01 0.01 0.02 0.03 0.10 0.03 0.02 0.01 0.02 0.02 0.01 0.07 0.11 0.14 0.12 0.33 0.48 0.53 0.60 0.72 0.65 0.63 0.71 0.75 0.91 0.67 0.59 0.57 0.49 0.44 0.35 0.27 0.18 0.10 0.09 0.06
0.00 0.00 0.00 0.00 0.00 0.00 0.00 0.00 0.00 0.00 0.00 0.00 0.02 0.10 0.13 0.12 0.19 0.07 0.02 0.01 0.03 0.07 0.03 0.12 0.22 0.13 0.18 0.29 0.34 0.25 0.24 0.23 0.20 0.16 0.13 0.13 0.08 0.05 0.03 0.00 0.00 0.00 0.00 0.00
0.00 0.00 0.00 0.00 0.00 0.00 0.00 0.00 0.00 0.00 0.00 0.00 0.00 0.01 0.22 0.07 0.08 0.03 0.06 0.04 0.05 0.05 0.02 0.04 0.04 0.04 0.04 0.05 0.04 0.03 0.02 0.02 0.02 0.02 0.02 0.00 0.00 0.01 0.00 0.00 0.00 0.00 0.00 0.00
0.01 0.00 0.00 0.01 0.00 0.00 0.00 0.00 0.00 0.01 0.02 0.00 0.00 0.01 0.03 0.10 0.10 0.04 0.16 0.08 0.00 0.00 0.00 0.00 0.01 0.02 0.00 0.00 0.00 0.00 0.01 0.03 0.06 0.09 0.13 0.16 0.14 0.12 0.06 0.03 0.03 0.02 0.01 0.02
0.00 0.00 0.01 0.03 0.01 0.02 0.02 0.01 0.00 0.00 0.01 0.01 0.02 0.01 0.02 0.02 0.13 0.02 0.06 0.03 0.00 0.00 0.00 0.00 0.00 0.01 0.00 0.00 0.00 0.00 0.00 0.00 0.00 0.01 0.01 0.04 0.11 0.23 0.32 0.35 0.38 0.40 0.38 0.37

GFSCGP_prec_precacc_132.txt.gz
Total_Precipitation_Accumulation
2.03 2.70 2.04 1.10 0.63 0.47 0.31 0.27 0.19 0.06 0.17 0.15 0.08 0.09 0.46 1.17 1.16 0.78 0.48 0.18 0.10 0.10 0.14 0.31 0.73 2.22 2.50 1.74 1.93 2.53 2.34 2.00 1.28 0.75 0.63 0.77 1.06 1.15 1.11 1.26 0.81 0.45 0.31 0.25
2.03 1.92 0.97 0.59 0.65 0.77 0.49 0.32 0.19 0.10 0.20 0.27 0.11 0.11 0.19 0.76 1.08 0.94 0.70 0.22 0.08 0.07 0.07 0.17 0.47 1.20 2.66 1.81 1.56 2.36 2.77 2.01 1.48 1.04 0.86 0.89 1.06 0.96 1.12 1.26 1.07 0.97 0.72 0.69
1.34 1.03 1.02 1.29 1.39 1.19 0.50 0.31 0.21 0.15 0.32 0.42 0.23 0.29 0.29 0.42 0.77 0.81 0.77 0.36 0.09 0.04 0.04 0.12 0.24 0.68 1.55 2.58 1.53 2.00 3.12 2.62 1.98 1.65 1.90 1.85 1.75 1.28 1.22 1.03 1.13 1.56 1.59 1.34
1.09 0.84 1.06 1.76 1.72 1.36 0.90 0.34 0.32 0.39 0.99 1.02 0.46 0.55 0.39 0.19 0.36 0.45 0.57 0.44 0.17 0.07 0.03 0.06 0.15 0.38 0.78 2.03 1.93 1.86 2.68 3.89 2.35 2.14 1.75 1.26 1.21 1.36 1.05 1.25 1.44 1.24 1.36 1.47
1.34 0.90 0.75 1.43 1.22 1.48 1.19 0.69 0.37 0.61 1.11 0.99 0.54 0.81 0.44 0.15 0.17 0.21 0.34 0.44 0.22 0.04 0.01 0.01 0.08 0.26 0.56 0.98 2.02 1.96 2.65 2.97 4.34 2.96 2.30 1.42 1.01 0.96 0.91 0.84 0.86 1.01 1.03 1.17
0.89 0.80 1.09 0.92 0.99 1.45 1.07 0.79 0.80 1.13 1.63 1.60 0.42 0.58 0.74 0.40 0.19 0.18 0.19 0.56 0.30 0.12 0.03 0.00 0.03 0.19 0.39 0.68 1.47 2.11 2.65 2.35 4.08 4.49 3.81 2.34 1.30 1.08 1.28 1.05 1.08 1.16 1.41 1.48
1.79 1.91 1.50 1.13 1.59 1.76 1.93 1.80 2.41 2.55 1.86 1.09 0.67 0.72 0.52 0.45 0.46 0.50 0.24 0.55 0.40 0.15 0.07 0.01 0.01 0.10 0.28 0.54 0.96 1.38 2.80 2.47 3.15 3.54 4.24 3.95 3.04 1.68 1.32 1.39 1.33 0.94 0.93 0.90
1.85 1.98 1.53 1.21 1.56 2.04 1.72 1.73 1.76 1.29 0.88 0.46 0.37 0.57 0.65 0.64 0.52 0.49 0.25 0.51 0.44 0.16 0.07 0.07 0.04 0.09 0.20 0.40 0.80 0.95 1.36 2.08 2.23 2.55 3.91 4.17 4.44 3.81 2.26 1.71 1.17 0.98 0.60 0.54
0.68 1.20 0.99 0.90 1.08 1.59 1.56 1.16 1.05 0.82 0.47 0.53 0.43 0.34 0.52 0.76 0.86 0.64 0.42 0.55 0.53 0.16 0.05 0.06 0.07 0.11 0.18 0.38 0.52 0.83 0.96 1.04 1.65 1.45 2.59 3.13 3.02 2.99 2.48 1.99 1.33 1.08 0.91 0.66
0.35 1.08 1.03 1.07 1.40 1.39 1.21 0.63 0.78 1.44 1.01 0.74 0.35 0.38 0.96 0.83 0.96 0.91 0.57 0.64 0.57 0.20 0.03 0.03 0.04 0.19 0.22 0.37 0.53 0.67 0.80 0.94 1.06 1.17 1.30 1.67 1.92 2.25 2.16 1.95 1.56 1.04 0.94 0.82
0.46 0.98 1.24 1.51 1.57 1.18 1.01 0.95 0.57 0.58 0.43 0.52 0.42 0.81 1.25 1.18 1.21 1.03 0.76 0.76 0.91 0.48 0.09 0.10 0.28 0.40 0.40 0.78 0.66 0.67 0.79 0.89 1.01 0.90 0.92 1.07 1.37 1.47 1.36 1.64 1.44 1.00 0.78 0.68
0.43 0.93 1.14 0.98 0.34 0.27 0.41 0.38 0.37 0.90 0.50 0.48 0.58 0.84 0.65 0.99 1.38 1.32 1.03 1.20 1.43 0.73 0.34 0.55 0.78 0.88 1.31 1.25 0.88 0.82 0.90 0.63 1.19 1.00 0.83 0.75 0.85 0.99 0.82 0.90 1.11 1.46 0.76 0.61
0.58 1.06 1.11 0.89 0.65 0.64 0.85 0.43 0.37 0.61 1.00 0.74 0.82 0.88 0.41 0.50 0.78 1.49 1.46 1.39 1.34 1.25 0.87 1.00 1.39 1.75 1.35 1.16 0.83 1.02 1.04 0.87 1.40 1.45 1.13 0.66 0.53 0.77 0.67 0.65 0.73 1.12 1.26 0.72
0.50 1.00 1.11 0.99 0.66 0.63 0.85 0.46 0.57 1.13 1.13 0.48 0.81 0.41 0.17 0.24 0.58 1.19 1.31 1.41 1.55 1.54 1.41 1.41 1.45 1.25 0.97 1.05 1.37 1.47 1.57 1.69 1.75 1.84 1.67 1.08 0.74 0.83 0.79 0.71 0.90 0.88 1.12 1.03
0.50 1.10 0.93 0.50 0.29 0.42 0.57 0.57 0.49 0.94 0.52 0.66 0.35 0.19 0.13 0.25 0.65 1.07 1.39 1.59 1.60 1.91 2.42 2.50 2.46 2.21 1.88 1.71 1.53 1.52 1.41 1.25 1.07 1.08 1.25 1.03 0.84 0.97 0.97 0.99 1.05 0.86 1.01 0.88
0.35 0.72 0.75 0.61 0.24 0.38 0.48 0.55 0.36 0.57 0.29 0.29 0.18 0.15 0.04 0.15 0.36 0.72 1.17 1.41 1.88 2.30 2.04 1.62 1.35 1.17 1.02 0.97 1.03 0.88 0.93 0.87 0.68 0.67 0.64 0.61 0.69 0.71 0.81 0.77 0.71 0.65 0.68 0.80
0.28 0.51 0.75 0.67 0.48 0.28 0.47 0.58 0.69 0.49 0.21 0.25 0.28 0.15 0.02 0.06 0.24 0.45 0.76 0.96 1.02 1.01 0.83 0.72 0.70 0.62 0.60 0.65 0.66 0.62 0.58 0.49 0.41 0.27 0.22 0.29 0.39 0.43 0.51 0.39 0.43 0.57 0.69 1.03
0.06 0.23 0.46 0.31 0.15 0.16 0.11 0.14 0.44 0.28 0.23 0.26 0.15 0.08 0.03 0.01 0.05 0.08 0.10 0.14 0.20 0.26 0.34 0.40 0.40 0.35 0.34 0.23 0.15 0.10 0.13 0.15 0.43 0.14 0.22 0.27 0.24 0.24 0.26 0.37 0.50 0.55 0.59 0.72
0.05 0.16 0.25 0.16 0.07 0.03 0.00 0.00 0.07 0.14 0.23 0.14 0.07 0.03 0.01 0.00 0.22 0.35 0.15 0.04 0.01 0.00 0.01 0.00 0.00 0.00 0.00 0.02 0.02 0.03 0.05 0.15 0.38 0.22 0.26 0.39 0.37 0.32 0.28 0.42 0.51 0.39 0.53 0.71
0.05 0.18 0.27 0.10 0.12 0.02 0.00 0.00 0.01 0.02 0.21 0.02 0.05 0.04 0.02 0.01 0.29 0.32 0.24 0.05 0.02 0.00 0.00 0.00 0.00 0.02 0.05 0.08 0.08 0.07 0.07 0.10 0.31 0.33 0.31 0.31 0.49 0.41 0.51 0.47 0.51 0.76 0.61 0.56
0.11 0.19 0.28 0.16 0.18 0.01 0.00 0.00 0.01 0.10 0.16 0.02 0.06 0.06 0.01 0.01 0.03 0.06 0.08 0.11 0.08 0.12 0.12 0.14 0.08 0.16 0.24 0.37 0.35 0.41 0.43 0.62 0.88 0.58 0.60 0.65 0.78 0.67 0.62 0.68 0.59 0.51 0.37 0.27
0.03 0.05 0.09 0.14 0.10 0.00 0.00 0.00 0.01 0.01 0.02 0.03 0.10 0.03 0.02 0.01 0.02 0.02 0.01 0.07 0.11 0.14 0.12 0.33 0.48 0.53 0.60 0.72 0.65 0.63 0.71 0.75 0.91 0.67 0.59 0.57 0.49 0.44 0.35 0.27 0.18 0.10 0.09 0.06
0.00 0.00 0.00 0.00 0.00 0.00 0.00 0.00 0.00 0.00 0.00 0.00 0.02 0.10 0.13 0.12 0.19 0.07 0.02 0.01 0.03 0.07 0.03 0.12 0.22 0.13 0.18 0.29 0.34 0.25 0.24 0.23 0.20 0.16 0.13 0.13 0.08 0.05 0.03 0.00 0.00 0.00 0.00 0.00
0.00 0.00 0.00 0.00 0.00 0.00 0.00 0.00 0.00 0.00 0.00 0.00 0.00 0.01 0.22 0.07 0.08 0.03 0.06 0.04 0.05 0.05 0.02 0.04 0.04 0.04 0.04 0.05 0.04 0.03 0.02 0.02 0.02 0.02 0.02 0.00 0.00 0.01 0.00 0.00 0.00 0.00 0.00 0.00
0.01 0.00 0.00 0.01 0.00 0.00 0.00 0.00 0.00 0.01 0.02 0.00 0.00 0.01 0.03 0.10 0.10 0.04 0.16 0.08 0.00 0.00 0.00 0.00 0.01 0.02 0.00 0.00 0.00 0.00 0.01 0.03 0.06 0.09 0.13 0.16 0.14 0.12 0.06 0.03 0.03 0.02 0.01 0.02
0.00 0.00 0.01 0.03 0.01 0.02 0.02 0.01 0.00 0.00 0.01 0.01 0.02 0.01 0.02 0.02 0.13 0.02 0.06 0.03 0.00 0.00 0.00 0.00 0.00 0.01 0.00 0.00 0.00 0.00 0.00 0.00 0.00 0.01 0.01 0.04 0.11 0.23 0.32 0.35 0.38 0.40 0.38 0.37